<?xml version="1.0" encoding="UTF-8" standalone="no" ?>
<gpx xmlns="http://www.topografix.com/GPX/1/1" xmlns:xsi="http://www.w3.org/2001/XMLSchema-instance" xsi:schemaLocation="http://www.topografix.com/GPX/1/1 http://www.topografix.com/GPX/1/1/gpx.xsd" version="1.1" creator="VisuGPX - https://www.visugpx.com">
  <metadata>
    <name>Sortie d'après midi</name>
    <desc><![CDATA[Sortie d'après midi]]></desc>
  </metadata>
  <trk>
    <name><![CDATA[Sortie d'après midi_1]]></name>
    <trkseg>
      <trkpt lat="45.83498" lon="1.22555">
        <ele>270.7</ele>
        <time>2024-10-08T12:41:30Z</time>
      </trkpt>
      <trkpt lat="45.83498" lon="1.22555">
        <ele>270.7</ele>
        <time>2024-10-08T12:41:34Z</time>
      </trkpt>
      <trkpt lat="45.83499" lon="1.22549">
        <ele>270.7</ele>
        <time>2024-10-08T12:41:37Z</time>
      </trkpt>
      <trkpt lat="45.83502" lon="1.22547">
        <ele>270.7</ele>
        <time>2024-10-08T12:41:40Z</time>
      </trkpt>
      <trkpt lat="45.83506" lon="1.22555">
        <ele>270.6</ele>
        <time>2024-10-08T12:41:44Z</time>
      </trkpt>
      <trkpt lat="45.83511" lon="1.22556">
        <ele>270.6</ele>
        <time>2024-10-08T12:41:47Z</time>
      </trkpt>
      <trkpt lat="45.83513" lon="1.22545">
        <ele>270.6</ele>
        <time>2024-10-08T12:41:50Z</time>
      </trkpt>
      <trkpt lat="45.83514" lon="1.22544">
        <ele>270.6</ele>
        <time>2024-10-08T12:41:53Z</time>
      </trkpt>
      <trkpt lat="45.83516" lon="1.22549">
        <ele>270.6</ele>
        <time>2024-10-08T12:41:56Z</time>
      </trkpt>
      <trkpt lat="45.83511" lon="1.2255">
        <ele>270.5</ele>
        <time>2024-10-08T12:41:59Z</time>
      </trkpt>
      <trkpt lat="45.83503" lon="1.22549">
        <ele>270.5</ele>
        <time>2024-10-08T12:42:02Z</time>
      </trkpt>
      <trkpt lat="45.83493" lon="1.22551">
        <ele>270.5</ele>
        <time>2024-10-08T12:42:05Z</time>
      </trkpt>
      <trkpt lat="45.83483" lon="1.22554">
        <ele>270.4</ele>
        <time>2024-10-08T12:42:08Z</time>
      </trkpt>
      <trkpt lat="45.83476" lon="1.22556">
        <ele>270.4</ele>
        <time>2024-10-08T12:42:11Z</time>
      </trkpt>
      <trkpt lat="45.83472" lon="1.22562">
        <ele>270.4</ele>
        <time>2024-10-08T12:42:14Z</time>
      </trkpt>
      <trkpt lat="45.8347" lon="1.22573">
        <ele>270.4</ele>
        <time>2024-10-08T12:42:17Z</time>
      </trkpt>
      <trkpt lat="45.83468" lon="1.22578">
        <ele>270.3</ele>
        <time>2024-10-08T12:42:20Z</time>
      </trkpt>
      <trkpt lat="45.83469" lon="1.22576">
        <ele>270.3</ele>
        <time>2024-10-08T12:42:23Z</time>
      </trkpt>
      <trkpt lat="45.83469" lon="1.22576">
        <ele>270.3</ele>
        <time>2024-10-08T12:42:26Z</time>
      </trkpt>
      <trkpt lat="45.83469" lon="1.22575">
        <ele>270.3</ele>
        <time>2024-10-08T12:42:29Z</time>
      </trkpt>
      <trkpt lat="45.83469" lon="1.22576">
        <ele>270.3</ele>
        <time>2024-10-08T12:42:32Z</time>
      </trkpt>
      <trkpt lat="45.83468" lon="1.22576">
        <ele>270.3</ele>
        <time>2024-10-08T12:42:34Z</time>
      </trkpt>
      <trkpt lat="45.83468" lon="1.22576">
        <ele>270.4</ele>
        <time>2024-10-08T12:42:37Z</time>
      </trkpt>
      <trkpt lat="45.83469" lon="1.22577">
        <ele>270.5</ele>
        <time>2024-10-08T12:42:40Z</time>
      </trkpt>
      <trkpt lat="45.8347" lon="1.22578">
        <ele>270.5</ele>
        <time>2024-10-08T12:42:43Z</time>
      </trkpt>
      <trkpt lat="45.8347" lon="1.22578">
        <ele>270.6</ele>
        <time>2024-10-08T12:42:46Z</time>
      </trkpt>
      <trkpt lat="45.83471" lon="1.22578">
        <ele>270.6</ele>
        <time>2024-10-08T12:42:49Z</time>
      </trkpt>
      <trkpt lat="45.8347" lon="1.22578">
        <ele>270.7</ele>
        <time>2024-10-08T12:42:52Z</time>
      </trkpt>
      <trkpt lat="45.8347" lon="1.22577">
        <ele>270.7</ele>
        <time>2024-10-08T12:42:55Z</time>
      </trkpt>
      <trkpt lat="45.8347" lon="1.22576">
        <ele>270.8</ele>
        <time>2024-10-08T12:42:58Z</time>
      </trkpt>
      <trkpt lat="45.83469" lon="1.22576">
        <ele>270.9</ele>
        <time>2024-10-08T12:43:02Z</time>
      </trkpt>
      <trkpt lat="45.83465" lon="1.22576">
        <ele>271.1</ele>
        <time>2024-10-08T12:43:05Z</time>
      </trkpt>
      <trkpt lat="45.83459" lon="1.22577">
        <ele>271.2</ele>
        <time>2024-10-08T12:43:08Z</time>
      </trkpt>
      <trkpt lat="45.83453" lon="1.22577">
        <ele>271.2</ele>
        <time>2024-10-08T12:43:11Z</time>
      </trkpt>
      <trkpt lat="45.83448" lon="1.22573">
        <ele>271.2</ele>
        <time>2024-10-08T12:43:14Z</time>
      </trkpt>
      <trkpt lat="45.83441" lon="1.22564">
        <ele>271.3</ele>
        <time>2024-10-08T12:43:17Z</time>
      </trkpt>
      <trkpt lat="45.83434" lon="1.22558">
        <ele>271.6</ele>
        <time>2024-10-08T12:43:20Z</time>
      </trkpt>
      <trkpt lat="45.83425" lon="1.2255">
        <ele>271.9</ele>
        <time>2024-10-08T12:43:23Z</time>
      </trkpt>
      <trkpt lat="45.83416" lon="1.22542">
        <ele>272.2</ele>
        <time>2024-10-08T12:43:26Z</time>
      </trkpt>
      <trkpt lat="45.83404" lon="1.22532">
        <ele>272.6</ele>
        <time>2024-10-08T12:43:29Z</time>
      </trkpt>
      <trkpt lat="45.83393" lon="1.22524">
        <ele>273</ele>
        <time>2024-10-08T12:43:32Z</time>
      </trkpt>
      <trkpt lat="45.8338" lon="1.22517">
        <ele>273.4</ele>
        <time>2024-10-08T12:43:35Z</time>
      </trkpt>
      <trkpt lat="45.8337" lon="1.22512">
        <ele>274</ele>
        <time>2024-10-08T12:43:38Z</time>
      </trkpt>
      <trkpt lat="45.8336" lon="1.22506">
        <ele>274.7</ele>
        <time>2024-10-08T12:43:41Z</time>
      </trkpt>
      <trkpt lat="45.83351" lon="1.22501">
        <ele>275.3</ele>
        <time>2024-10-08T12:43:44Z</time>
      </trkpt>
      <trkpt lat="45.83341" lon="1.22497">
        <ele>276</ele>
        <time>2024-10-08T12:43:47Z</time>
      </trkpt>
      <trkpt lat="45.83331" lon="1.22492">
        <ele>276.7</ele>
        <time>2024-10-08T12:43:49Z</time>
      </trkpt>
      <trkpt lat="45.83319" lon="1.22489">
        <ele>277.5</ele>
        <time>2024-10-08T12:43:52Z</time>
      </trkpt>
      <trkpt lat="45.83308" lon="1.22487">
        <ele>278.2</ele>
        <time>2024-10-08T12:43:55Z</time>
      </trkpt>
      <trkpt lat="45.83297" lon="1.22483">
        <ele>278.9</ele>
        <time>2024-10-08T12:43:58Z</time>
      </trkpt>
      <trkpt lat="45.83286" lon="1.22479">
        <ele>279.6</ele>
        <time>2024-10-08T12:44:01Z</time>
      </trkpt>
      <trkpt lat="45.83275" lon="1.22477">
        <ele>280.4</ele>
        <time>2024-10-08T12:44:04Z</time>
      </trkpt>
      <trkpt lat="45.83265" lon="1.22476">
        <ele>281.1</ele>
        <time>2024-10-08T12:44:07Z</time>
      </trkpt>
      <trkpt lat="45.83255" lon="1.22474">
        <ele>281.7</ele>
        <time>2024-10-08T12:44:10Z</time>
      </trkpt>
      <trkpt lat="45.83244" lon="1.22474">
        <ele>282.5</ele>
        <time>2024-10-08T12:44:13Z</time>
      </trkpt>
      <trkpt lat="45.83233" lon="1.22475">
        <ele>283.2</ele>
        <time>2024-10-08T12:44:17Z</time>
      </trkpt>
      <trkpt lat="45.83222" lon="1.22477">
        <ele>283.9</ele>
        <time>2024-10-08T12:44:19Z</time>
      </trkpt>
      <trkpt lat="45.83211" lon="1.22479">
        <ele>284.6</ele>
        <time>2024-10-08T12:44:23Z</time>
      </trkpt>
      <trkpt lat="45.832" lon="1.22482">
        <ele>285.2</ele>
        <time>2024-10-08T12:44:26Z</time>
      </trkpt>
      <trkpt lat="45.83189" lon="1.22483">
        <ele>285.8</ele>
        <time>2024-10-08T12:44:29Z</time>
      </trkpt>
      <trkpt lat="45.83179" lon="1.22486">
        <ele>286.3</ele>
        <time>2024-10-08T12:44:32Z</time>
      </trkpt>
      <trkpt lat="45.83169" lon="1.22489">
        <ele>286.7</ele>
        <time>2024-10-08T12:44:35Z</time>
      </trkpt>
      <trkpt lat="45.83159" lon="1.22492">
        <ele>287.1</ele>
        <time>2024-10-08T12:44:38Z</time>
      </trkpt>
      <trkpt lat="45.8315" lon="1.22494">
        <ele>287.4</ele>
        <time>2024-10-08T12:44:41Z</time>
      </trkpt>
      <trkpt lat="45.83139" lon="1.22499">
        <ele>287.6</ele>
        <time>2024-10-08T12:44:44Z</time>
      </trkpt>
      <trkpt lat="45.83128" lon="1.22505">
        <ele>287.8</ele>
        <time>2024-10-08T12:44:47Z</time>
      </trkpt>
      <trkpt lat="45.83117" lon="1.2251">
        <ele>288</ele>
        <time>2024-10-08T12:44:50Z</time>
      </trkpt>
      <trkpt lat="45.83106" lon="1.22517">
        <ele>288.2</ele>
        <time>2024-10-08T12:44:53Z</time>
      </trkpt>
      <trkpt lat="45.83091" lon="1.22526">
        <ele>288.4</ele>
        <time>2024-10-08T12:44:56Z</time>
      </trkpt>
      <trkpt lat="45.83079" lon="1.22533">
        <ele>288.5</ele>
        <time>2024-10-08T12:44:59Z</time>
      </trkpt>
      <trkpt lat="45.83066" lon="1.2254">
        <ele>288.7</ele>
        <time>2024-10-08T12:45:02Z</time>
      </trkpt>
      <trkpt lat="45.83053" lon="1.22547">
        <ele>288.9</ele>
        <time>2024-10-08T12:45:04Z</time>
      </trkpt>
      <trkpt lat="45.83041" lon="1.22553">
        <ele>289.1</ele>
        <time>2024-10-08T12:45:08Z</time>
      </trkpt>
      <trkpt lat="45.83027" lon="1.2256">
        <ele>289.4</ele>
        <time>2024-10-08T12:45:10Z</time>
      </trkpt>
      <trkpt lat="45.83014" lon="1.22566">
        <ele>289.6</ele>
        <time>2024-10-08T12:45:13Z</time>
      </trkpt>
      <trkpt lat="45.83001" lon="1.22573">
        <ele>289.9</ele>
        <time>2024-10-08T12:45:16Z</time>
      </trkpt>
      <trkpt lat="45.8299" lon="1.22581">
        <ele>290.2</ele>
        <time>2024-10-08T12:45:19Z</time>
      </trkpt>
      <trkpt lat="45.82978" lon="1.22588">
        <ele>290.5</ele>
        <time>2024-10-08T12:45:22Z</time>
      </trkpt>
      <trkpt lat="45.82965" lon="1.22594">
        <ele>290.7</ele>
        <time>2024-10-08T12:45:25Z</time>
      </trkpt>
      <trkpt lat="45.82952" lon="1.22601">
        <ele>291</ele>
        <time>2024-10-08T12:45:29Z</time>
      </trkpt>
      <trkpt lat="45.8294" lon="1.22608">
        <ele>291.2</ele>
        <time>2024-10-08T12:45:32Z</time>
      </trkpt>
      <trkpt lat="45.82925" lon="1.22616">
        <ele>291.5</ele>
        <time>2024-10-08T12:45:35Z</time>
      </trkpt>
      <trkpt lat="45.82911" lon="1.22625">
        <ele>291.8</ele>
        <time>2024-10-08T12:45:38Z</time>
      </trkpt>
      <trkpt lat="45.82897" lon="1.22632">
        <ele>292.1</ele>
        <time>2024-10-08T12:45:41Z</time>
      </trkpt>
      <trkpt lat="45.82884" lon="1.22637">
        <ele>292.4</ele>
        <time>2024-10-08T12:45:44Z</time>
      </trkpt>
      <trkpt lat="45.8287" lon="1.22642">
        <ele>292.6</ele>
        <time>2024-10-08T12:45:47Z</time>
      </trkpt>
      <trkpt lat="45.82857" lon="1.22644">
        <ele>292.9</ele>
        <time>2024-10-08T12:45:50Z</time>
      </trkpt>
      <trkpt lat="45.82844" lon="1.22647">
        <ele>293.1</ele>
        <time>2024-10-08T12:45:53Z</time>
      </trkpt>
      <trkpt lat="45.82828" lon="1.22649">
        <ele>293.4</ele>
        <time>2024-10-08T12:45:56Z</time>
      </trkpt>
      <trkpt lat="45.82814" lon="1.22649">
        <ele>293.8</ele>
        <time>2024-10-08T12:45:59Z</time>
      </trkpt>
      <trkpt lat="45.82802" lon="1.22648">
        <ele>294.2</ele>
        <time>2024-10-08T12:46:02Z</time>
      </trkpt>
      <trkpt lat="45.8279" lon="1.22646">
        <ele>294.6</ele>
        <time>2024-10-08T12:46:05Z</time>
      </trkpt>
      <trkpt lat="45.8278" lon="1.22642">
        <ele>294.9</ele>
        <time>2024-10-08T12:46:08Z</time>
      </trkpt>
      <trkpt lat="45.82774" lon="1.22637">
        <ele>295.1</ele>
        <time>2024-10-08T12:46:11Z</time>
      </trkpt>
      <trkpt lat="45.82764" lon="1.22633">
        <ele>295.4</ele>
        <time>2024-10-08T12:46:14Z</time>
      </trkpt>
      <trkpt lat="45.82753" lon="1.22629">
        <ele>295.7</ele>
        <time>2024-10-08T12:46:17Z</time>
      </trkpt>
      <trkpt lat="45.82742" lon="1.22625">
        <ele>296.2</ele>
        <time>2024-10-08T12:46:19Z</time>
      </trkpt>
      <trkpt lat="45.82733" lon="1.22622">
        <ele>296.9</ele>
        <time>2024-10-08T12:46:22Z</time>
      </trkpt>
      <trkpt lat="45.82723" lon="1.22619">
        <ele>297.7</ele>
        <time>2024-10-08T12:46:25Z</time>
      </trkpt>
      <trkpt lat="45.82714" lon="1.22616">
        <ele>298.3</ele>
        <time>2024-10-08T12:46:28Z</time>
      </trkpt>
      <trkpt lat="45.82705" lon="1.22611">
        <ele>299</ele>
        <time>2024-10-08T12:46:31Z</time>
      </trkpt>
      <trkpt lat="45.82697" lon="1.22606">
        <ele>299.6</ele>
        <time>2024-10-08T12:46:34Z</time>
      </trkpt>
      <trkpt lat="45.8269" lon="1.226">
        <ele>300.2</ele>
        <time>2024-10-08T12:46:37Z</time>
      </trkpt>
      <trkpt lat="45.82682" lon="1.22595">
        <ele>300.8</ele>
        <time>2024-10-08T12:46:40Z</time>
      </trkpt>
      <trkpt lat="45.82675" lon="1.2259">
        <ele>301.3</ele>
        <time>2024-10-08T12:46:44Z</time>
      </trkpt>
      <trkpt lat="45.82666" lon="1.22585">
        <ele>302</ele>
        <time>2024-10-08T12:46:47Z</time>
      </trkpt>
      <trkpt lat="45.82659" lon="1.2258">
        <ele>302.6</ele>
        <time>2024-10-08T12:46:50Z</time>
      </trkpt>
      <trkpt lat="45.82652" lon="1.22576">
        <ele>303.2</ele>
        <time>2024-10-08T12:46:53Z</time>
      </trkpt>
      <trkpt lat="45.82644" lon="1.22572">
        <ele>303.9</ele>
        <time>2024-10-08T12:46:56Z</time>
      </trkpt>
      <trkpt lat="45.82636" lon="1.22567">
        <ele>304.6</ele>
        <time>2024-10-08T12:46:59Z</time>
      </trkpt>
      <trkpt lat="45.82628" lon="1.22564">
        <ele>305.2</ele>
        <time>2024-10-08T12:47:02Z</time>
      </trkpt>
      <trkpt lat="45.8262" lon="1.22561">
        <ele>305.7</ele>
        <time>2024-10-08T12:47:05Z</time>
      </trkpt>
      <trkpt lat="45.82612" lon="1.22557">
        <ele>306.2</ele>
        <time>2024-10-08T12:47:08Z</time>
      </trkpt>
      <trkpt lat="45.82602" lon="1.22554">
        <ele>306.8</ele>
        <time>2024-10-08T12:47:11Z</time>
      </trkpt>
      <trkpt lat="45.82592" lon="1.2255">
        <ele>307.3</ele>
        <time>2024-10-08T12:47:14Z</time>
      </trkpt>
      <trkpt lat="45.82582" lon="1.22549">
        <ele>307.9</ele>
        <time>2024-10-08T12:47:17Z</time>
      </trkpt>
      <trkpt lat="45.82574" lon="1.22546">
        <ele>308.3</ele>
        <time>2024-10-08T12:47:20Z</time>
      </trkpt>
      <trkpt lat="45.82566" lon="1.22546">
        <ele>308.8</ele>
        <time>2024-10-08T12:47:23Z</time>
      </trkpt>
      <trkpt lat="45.82555" lon="1.22546">
        <ele>309.2</ele>
        <time>2024-10-08T12:47:26Z</time>
      </trkpt>
      <trkpt lat="45.82545" lon="1.22547">
        <ele>309.6</ele>
        <time>2024-10-08T12:47:29Z</time>
      </trkpt>
      <trkpt lat="45.82534" lon="1.2255">
        <ele>309.9</ele>
        <time>2024-10-08T12:47:32Z</time>
      </trkpt>
      <trkpt lat="45.82523" lon="1.22552">
        <ele>310.1</ele>
        <time>2024-10-08T12:47:34Z</time>
      </trkpt>
      <trkpt lat="45.82511" lon="1.22554">
        <ele>310.3</ele>
        <time>2024-10-08T12:47:37Z</time>
      </trkpt>
      <trkpt lat="45.82499" lon="1.22556">
        <ele>310.3</ele>
        <time>2024-10-08T12:47:40Z</time>
      </trkpt>
      <trkpt lat="45.82487" lon="1.2256">
        <ele>310.3</ele>
        <time>2024-10-08T12:47:43Z</time>
      </trkpt>
      <trkpt lat="45.82474" lon="1.22565">
        <ele>310.1</ele>
        <time>2024-10-08T12:47:46Z</time>
      </trkpt>
      <trkpt lat="45.82464" lon="1.22569">
        <ele>309.9</ele>
        <time>2024-10-08T12:47:49Z</time>
      </trkpt>
      <trkpt lat="45.82449" lon="1.22576">
        <ele>309.4</ele>
        <time>2024-10-08T12:47:52Z</time>
      </trkpt>
      <trkpt lat="45.82439" lon="1.22574">
        <ele>309</ele>
        <time>2024-10-08T12:47:55Z</time>
      </trkpt>
      <trkpt lat="45.8243" lon="1.22571">
        <ele>308.6</ele>
        <time>2024-10-08T12:47:58Z</time>
      </trkpt>
      <trkpt lat="45.82425" lon="1.22568">
        <ele>308.4</ele>
        <time>2024-10-08T12:48:02Z</time>
      </trkpt>
      <trkpt lat="45.82424" lon="1.22569">
        <ele>308.3</ele>
        <time>2024-10-08T12:48:04Z</time>
      </trkpt>
      <trkpt lat="45.82424" lon="1.22569">
        <ele>308.3</ele>
        <time>2024-10-08T12:48:07Z</time>
      </trkpt>
      <trkpt lat="45.82422" lon="1.2257">
        <ele>308.3</ele>
        <time>2024-10-08T12:48:11Z</time>
      </trkpt>
      <trkpt lat="45.82413" lon="1.22577">
        <ele>308.2</ele>
        <time>2024-10-08T12:48:14Z</time>
      </trkpt>
      <trkpt lat="45.82403" lon="1.22588">
        <ele>308.1</ele>
        <time>2024-10-08T12:48:17Z</time>
      </trkpt>
      <trkpt lat="45.82394" lon="1.22603">
        <ele>308</ele>
        <time>2024-10-08T12:48:20Z</time>
      </trkpt>
      <trkpt lat="45.82383" lon="1.22614">
        <ele>307.6</ele>
        <time>2024-10-08T12:48:23Z</time>
      </trkpt>
      <trkpt lat="45.82371" lon="1.22628">
        <ele>307.1</ele>
        <time>2024-10-08T12:48:26Z</time>
      </trkpt>
      <trkpt lat="45.8236" lon="1.22639">
        <ele>306.7</ele>
        <time>2024-10-08T12:48:29Z</time>
      </trkpt>
      <trkpt lat="45.82348" lon="1.22654">
        <ele>306</ele>
        <time>2024-10-08T12:48:32Z</time>
      </trkpt>
      <trkpt lat="45.82334" lon="1.2267">
        <ele>305.3</ele>
        <time>2024-10-08T12:48:35Z</time>
      </trkpt>
      <trkpt lat="45.8232" lon="1.22685">
        <ele>304.6</ele>
        <time>2024-10-08T12:48:38Z</time>
      </trkpt>
      <trkpt lat="45.82304" lon="1.22701">
        <ele>304.1</ele>
        <time>2024-10-08T12:48:41Z</time>
      </trkpt>
      <trkpt lat="45.8229" lon="1.22719">
        <ele>303.5</ele>
        <time>2024-10-08T12:48:44Z</time>
      </trkpt>
      <trkpt lat="45.82274" lon="1.22737">
        <ele>303</ele>
        <time>2024-10-08T12:48:47Z</time>
      </trkpt>
      <trkpt lat="45.82258" lon="1.22756">
        <ele>302.5</ele>
        <time>2024-10-08T12:48:50Z</time>
      </trkpt>
      <trkpt lat="45.82243" lon="1.22775">
        <ele>302.3</ele>
        <time>2024-10-08T12:48:53Z</time>
      </trkpt>
      <trkpt lat="45.82228" lon="1.2279">
        <ele>302.3</ele>
        <time>2024-10-08T12:48:55Z</time>
      </trkpt>
      <trkpt lat="45.82216" lon="1.22805">
        <ele>302.3</ele>
        <time>2024-10-08T12:48:58Z</time>
      </trkpt>
      <trkpt lat="45.82204" lon="1.22819">
        <ele>302.5</ele>
        <time>2024-10-08T12:49:01Z</time>
      </trkpt>
      <trkpt lat="45.82193" lon="1.22832">
        <ele>302.8</ele>
        <time>2024-10-08T12:49:04Z</time>
      </trkpt>
      <trkpt lat="45.82185" lon="1.22844">
        <ele>303</ele>
        <time>2024-10-08T12:49:07Z</time>
      </trkpt>
      <trkpt lat="45.82175" lon="1.22859">
        <ele>303.2</ele>
        <time>2024-10-08T12:49:10Z</time>
      </trkpt>
      <trkpt lat="45.82165" lon="1.22878">
        <ele>303.5</ele>
        <time>2024-10-08T12:49:14Z</time>
      </trkpt>
      <trkpt lat="45.82157" lon="1.22893">
        <ele>303.7</ele>
        <time>2024-10-08T12:49:17Z</time>
      </trkpt>
      <trkpt lat="45.82148" lon="1.2291">
        <ele>303.9</ele>
        <time>2024-10-08T12:49:20Z</time>
      </trkpt>
      <trkpt lat="45.8214" lon="1.22927">
        <ele>304</ele>
        <time>2024-10-08T12:49:23Z</time>
      </trkpt>
      <trkpt lat="45.82132" lon="1.22943">
        <ele>304.2</ele>
        <time>2024-10-08T12:49:26Z</time>
      </trkpt>
      <trkpt lat="45.82123" lon="1.2296">
        <ele>304.3</ele>
        <time>2024-10-08T12:49:29Z</time>
      </trkpt>
      <trkpt lat="45.82115" lon="1.22978">
        <ele>304.5</ele>
        <time>2024-10-08T12:49:32Z</time>
      </trkpt>
      <trkpt lat="45.82107" lon="1.22993">
        <ele>304.7</ele>
        <time>2024-10-08T12:49:35Z</time>
      </trkpt>
      <trkpt lat="45.821" lon="1.23002">
        <ele>304.8</ele>
        <time>2024-10-08T12:49:38Z</time>
      </trkpt>
      <trkpt lat="45.82092" lon="1.23018">
        <ele>304.7</ele>
        <time>2024-10-08T12:49:41Z</time>
      </trkpt>
      <trkpt lat="45.82086" lon="1.23031">
        <ele>304.5</ele>
        <time>2024-10-08T12:49:44Z</time>
      </trkpt>
      <trkpt lat="45.82083" lon="1.23037">
        <ele>304.4</ele>
        <time>2024-10-08T12:49:47Z</time>
      </trkpt>
      <trkpt lat="45.82079" lon="1.23038">
        <ele>304.4</ele>
        <time>2024-10-08T12:49:50Z</time>
      </trkpt>
      <trkpt lat="45.82073" lon="1.23037">
        <ele>304.3</ele>
        <time>2024-10-08T12:49:53Z</time>
      </trkpt>
      <trkpt lat="45.82069" lon="1.23045">
        <ele>304</ele>
        <time>2024-10-08T12:49:56Z</time>
      </trkpt>
      <trkpt lat="45.82075" lon="1.23058">
        <ele>303.8</ele>
        <time>2024-10-08T12:49:59Z</time>
      </trkpt>
      <trkpt lat="45.82068" lon="1.23075">
        <ele>303.3</ele>
        <time>2024-10-08T12:50:02Z</time>
      </trkpt>
      <trkpt lat="45.8206" lon="1.23093">
        <ele>302.7</ele>
        <time>2024-10-08T12:50:04Z</time>
      </trkpt>
      <trkpt lat="45.82052" lon="1.23112">
        <ele>302</ele>
        <time>2024-10-08T12:50:07Z</time>
      </trkpt>
      <trkpt lat="45.82042" lon="1.23131">
        <ele>301.4</ele>
        <time>2024-10-08T12:50:10Z</time>
      </trkpt>
      <trkpt lat="45.82031" lon="1.23153">
        <ele>300.8</ele>
        <time>2024-10-08T12:50:13Z</time>
      </trkpt>
      <trkpt lat="45.82021" lon="1.23175">
        <ele>300.2</ele>
        <time>2024-10-08T12:50:16Z</time>
      </trkpt>
      <trkpt lat="45.82009" lon="1.23197">
        <ele>299.6</ele>
        <time>2024-10-08T12:50:19Z</time>
      </trkpt>
      <trkpt lat="45.81997" lon="1.2322">
        <ele>299</ele>
        <time>2024-10-08T12:50:22Z</time>
      </trkpt>
      <trkpt lat="45.81985" lon="1.23243">
        <ele>298.6</ele>
        <time>2024-10-08T12:50:25Z</time>
      </trkpt>
      <trkpt lat="45.81975" lon="1.23265">
        <ele>298.4</ele>
        <time>2024-10-08T12:50:29Z</time>
      </trkpt>
      <trkpt lat="45.81966" lon="1.23284">
        <ele>298.6</ele>
        <time>2024-10-08T12:50:32Z</time>
      </trkpt>
      <trkpt lat="45.81958" lon="1.23302">
        <ele>298.8</ele>
        <time>2024-10-08T12:50:35Z</time>
      </trkpt>
      <trkpt lat="45.81949" lon="1.23319">
        <ele>299</ele>
        <time>2024-10-08T12:50:38Z</time>
      </trkpt>
      <trkpt lat="45.81942" lon="1.23333">
        <ele>299.2</ele>
        <time>2024-10-08T12:50:41Z</time>
      </trkpt>
      <trkpt lat="45.81934" lon="1.23343">
        <ele>299.3</ele>
        <time>2024-10-08T12:50:44Z</time>
      </trkpt>
      <trkpt lat="45.8193" lon="1.2335">
        <ele>299.5</ele>
        <time>2024-10-08T12:50:47Z</time>
      </trkpt>
      <trkpt lat="45.8193" lon="1.2335">
        <ele>299.5</ele>
        <time>2024-10-08T12:50:50Z</time>
      </trkpt>
      <trkpt lat="45.8193" lon="1.2335">
        <ele>299.5</ele>
        <time>2024-10-08T12:50:53Z</time>
      </trkpt>
      <trkpt lat="45.81931" lon="1.23351">
        <ele>299.5</ele>
        <time>2024-10-08T12:50:56Z</time>
      </trkpt>
      <trkpt lat="45.81931" lon="1.23351">
        <ele>299.5</ele>
        <time>2024-10-08T12:50:59Z</time>
      </trkpt>
      <trkpt lat="45.81932" lon="1.23351">
        <ele>299.5</ele>
        <time>2024-10-08T12:51:02Z</time>
      </trkpt>
      <trkpt lat="45.81932" lon="1.23351">
        <ele>299.5</ele>
        <time>2024-10-08T12:51:05Z</time>
      </trkpt>
      <trkpt lat="45.81933" lon="1.23351">
        <ele>299.5</ele>
        <time>2024-10-08T12:51:08Z</time>
      </trkpt>
      <trkpt lat="45.81933" lon="1.23351">
        <ele>299.5</ele>
        <time>2024-10-08T12:51:11Z</time>
      </trkpt>
      <trkpt lat="45.81933" lon="1.23351">
        <ele>299.5</ele>
        <time>2024-10-08T12:51:13Z</time>
      </trkpt>
      <trkpt lat="45.81933" lon="1.23351">
        <ele>299.5</ele>
        <time>2024-10-08T12:51:16Z</time>
      </trkpt>
      <trkpt lat="45.81933" lon="1.23351">
        <ele>299.5</ele>
        <time>2024-10-08T12:51:19Z</time>
      </trkpt>
      <trkpt lat="45.81933" lon="1.23351">
        <ele>299.5</ele>
        <time>2024-10-08T12:51:22Z</time>
      </trkpt>
      <trkpt lat="45.81933" lon="1.23351">
        <ele>299.5</ele>
        <time>2024-10-08T12:51:25Z</time>
      </trkpt>
      <trkpt lat="45.81933" lon="1.23351">
        <ele>299.5</ele>
        <time>2024-10-08T12:51:28Z</time>
      </trkpt>
      <trkpt lat="45.81934" lon="1.23359">
        <ele>299.5</ele>
        <time>2024-10-08T12:51:31Z</time>
      </trkpt>
      <trkpt lat="45.81934" lon="1.23371">
        <ele>299.6</ele>
        <time>2024-10-08T12:51:34Z</time>
      </trkpt>
      <trkpt lat="45.81933" lon="1.23371">
        <ele>299.7</ele>
        <time>2024-10-08T12:51:37Z</time>
      </trkpt>
      <trkpt lat="45.81934" lon="1.23371">
        <ele>299.7</ele>
        <time>2024-10-08T12:51:40Z</time>
      </trkpt>
      <trkpt lat="45.81934" lon="1.23371">
        <ele>299.7</ele>
        <time>2024-10-08T12:51:44Z</time>
      </trkpt>
      <trkpt lat="45.81934" lon="1.2337">
        <ele>299.7</ele>
        <time>2024-10-08T12:51:47Z</time>
      </trkpt>
      <trkpt lat="45.81934" lon="1.2337">
        <ele>299.7</ele>
        <time>2024-10-08T12:51:50Z</time>
      </trkpt>
      <trkpt lat="45.81934" lon="1.23371">
        <ele>299.7</ele>
        <time>2024-10-08T12:51:53Z</time>
      </trkpt>
      <trkpt lat="45.81934" lon="1.23371">
        <ele>299.7</ele>
        <time>2024-10-08T12:51:56Z</time>
      </trkpt>
      <trkpt lat="45.81934" lon="1.23376">
        <ele>299.7</ele>
        <time>2024-10-08T12:51:59Z</time>
      </trkpt>
      <trkpt lat="45.81932" lon="1.23388">
        <ele>299.8</ele>
        <time>2024-10-08T12:52:02Z</time>
      </trkpt>
      <trkpt lat="45.81925" lon="1.23397">
        <ele>300</ele>
        <time>2024-10-08T12:52:05Z</time>
      </trkpt>
      <trkpt lat="45.81924" lon="1.23412">
        <ele>300.1</ele>
        <time>2024-10-08T12:52:08Z</time>
      </trkpt>
      <trkpt lat="45.81926" lon="1.23425">
        <ele>300.1</ele>
        <time>2024-10-08T12:52:11Z</time>
      </trkpt>
      <trkpt lat="45.81931" lon="1.2344">
        <ele>300.4</ele>
        <time>2024-10-08T12:52:14Z</time>
      </trkpt>
      <trkpt lat="45.81936" lon="1.23454">
        <ele>300.6</ele>
        <time>2024-10-08T12:52:17Z</time>
      </trkpt>
      <trkpt lat="45.8194" lon="1.23471">
        <ele>300.7</ele>
        <time>2024-10-08T12:52:20Z</time>
      </trkpt>
      <trkpt lat="45.81944" lon="1.2349">
        <ele>300.7</ele>
        <time>2024-10-08T12:52:23Z</time>
      </trkpt>
      <trkpt lat="45.8195" lon="1.2351">
        <ele>300.6</ele>
        <time>2024-10-08T12:52:26Z</time>
      </trkpt>
      <trkpt lat="45.81958" lon="1.23529">
        <ele>300.3</ele>
        <time>2024-10-08T12:52:29Z</time>
      </trkpt>
      <trkpt lat="45.81963" lon="1.23552">
        <ele>299.8</ele>
        <time>2024-10-08T12:52:32Z</time>
      </trkpt>
      <trkpt lat="45.81968" lon="1.23577">
        <ele>299.2</ele>
        <time>2024-10-08T12:52:35Z</time>
      </trkpt>
      <trkpt lat="45.81975" lon="1.23604">
        <ele>298.4</ele>
        <time>2024-10-08T12:52:37Z</time>
      </trkpt>
      <trkpt lat="45.81985" lon="1.2363">
        <ele>297.2</ele>
        <time>2024-10-08T12:52:40Z</time>
      </trkpt>
      <trkpt lat="45.81996" lon="1.23658">
        <ele>295.6</ele>
        <time>2024-10-08T12:52:43Z</time>
      </trkpt>
      <trkpt lat="45.82009" lon="1.23689">
        <ele>293.6</ele>
        <time>2024-10-08T12:52:46Z</time>
      </trkpt>
      <trkpt lat="45.82023" lon="1.23722">
        <ele>291.4</ele>
        <time>2024-10-08T12:52:49Z</time>
      </trkpt>
      <trkpt lat="45.82038" lon="1.23755">
        <ele>289.2</ele>
        <time>2024-10-08T12:52:52Z</time>
      </trkpt>
      <trkpt lat="45.82053" lon="1.2379">
        <ele>286.9</ele>
        <time>2024-10-08T12:52:55Z</time>
      </trkpt>
      <trkpt lat="45.82068" lon="1.23828">
        <ele>284.5</ele>
        <time>2024-10-08T12:52:58Z</time>
      </trkpt>
      <trkpt lat="45.82081" lon="1.23864">
        <ele>282.3</ele>
        <time>2024-10-08T12:53:02Z</time>
      </trkpt>
      <trkpt lat="45.82095" lon="1.23902">
        <ele>280.1</ele>
        <time>2024-10-08T12:53:05Z</time>
      </trkpt>
      <trkpt lat="45.82107" lon="1.23944">
        <ele>278.3</ele>
        <time>2024-10-08T12:53:08Z</time>
      </trkpt>
      <trkpt lat="45.82113" lon="1.23978">
        <ele>277.4</ele>
        <time>2024-10-08T12:53:11Z</time>
      </trkpt>
      <trkpt lat="45.82112" lon="1.24001">
        <ele>277</ele>
        <time>2024-10-08T12:53:14Z</time>
      </trkpt>
      <trkpt lat="45.82112" lon="1.24013">
        <ele>277</ele>
        <time>2024-10-08T12:53:17Z</time>
      </trkpt>
      <trkpt lat="45.82116" lon="1.24027">
        <ele>276.7</ele>
        <time>2024-10-08T12:53:20Z</time>
      </trkpt>
      <trkpt lat="45.82117" lon="1.24043">
        <ele>276.4</ele>
        <time>2024-10-08T12:53:23Z</time>
      </trkpt>
      <trkpt lat="45.82128" lon="1.24055">
        <ele>276.1</ele>
        <time>2024-10-08T12:53:26Z</time>
      </trkpt>
      <trkpt lat="45.82135" lon="1.24075">
        <ele>275.7</ele>
        <time>2024-10-08T12:53:29Z</time>
      </trkpt>
      <trkpt lat="45.8214" lon="1.241">
        <ele>275.1</ele>
        <time>2024-10-08T12:53:32Z</time>
      </trkpt>
      <trkpt lat="45.82145" lon="1.24125">
        <ele>274.3</ele>
        <time>2024-10-08T12:53:35Z</time>
      </trkpt>
      <trkpt lat="45.82149" lon="1.24151">
        <ele>273.3</ele>
        <time>2024-10-08T12:53:38Z</time>
      </trkpt>
      <trkpt lat="45.82155" lon="1.24181">
        <ele>272</ele>
        <time>2024-10-08T12:53:41Z</time>
      </trkpt>
      <trkpt lat="45.82161" lon="1.24211">
        <ele>270.4</ele>
        <time>2024-10-08T12:53:43Z</time>
      </trkpt>
      <trkpt lat="45.82164" lon="1.2424">
        <ele>268.8</ele>
        <time>2024-10-08T12:53:46Z</time>
      </trkpt>
      <trkpt lat="45.82166" lon="1.2427">
        <ele>267.1</ele>
        <time>2024-10-08T12:53:49Z</time>
      </trkpt>
      <trkpt lat="45.82166" lon="1.24304">
        <ele>265.2</ele>
        <time>2024-10-08T12:53:52Z</time>
      </trkpt>
      <trkpt lat="45.82164" lon="1.24341">
        <ele>263.3</ele>
        <time>2024-10-08T12:53:55Z</time>
      </trkpt>
      <trkpt lat="45.8216" lon="1.24379">
        <ele>261.3</ele>
        <time>2024-10-08T12:53:58Z</time>
      </trkpt>
      <trkpt lat="45.82155" lon="1.2442">
        <ele>259</ele>
        <time>2024-10-08T12:54:01Z</time>
      </trkpt>
      <trkpt lat="45.82149" lon="1.2446">
        <ele>256.9</ele>
        <time>2024-10-08T12:54:04Z</time>
      </trkpt>
      <trkpt lat="45.82145" lon="1.24501">
        <ele>255.3</ele>
        <time>2024-10-08T12:54:07Z</time>
      </trkpt>
      <trkpt lat="45.82137" lon="1.24533">
        <ele>254.6</ele>
        <time>2024-10-08T12:54:10Z</time>
      </trkpt>
      <trkpt lat="45.82123" lon="1.24548">
        <ele>254.4</ele>
        <time>2024-10-08T12:54:14Z</time>
      </trkpt>
      <trkpt lat="45.82115" lon="1.24558">
        <ele>254.5</ele>
        <time>2024-10-08T12:54:17Z</time>
      </trkpt>
      <trkpt lat="45.8211" lon="1.24573">
        <ele>254.6</ele>
        <time>2024-10-08T12:54:20Z</time>
      </trkpt>
      <trkpt lat="45.82107" lon="1.24586">
        <ele>254.1</ele>
        <time>2024-10-08T12:54:23Z</time>
      </trkpt>
      <trkpt lat="45.82108" lon="1.24593">
        <ele>253.9</ele>
        <time>2024-10-08T12:54:26Z</time>
      </trkpt>
      <trkpt lat="45.82107" lon="1.24592">
        <ele>253.9</ele>
        <time>2024-10-08T12:54:29Z</time>
      </trkpt>
      <trkpt lat="45.82108" lon="1.24592">
        <ele>253.9</ele>
        <time>2024-10-08T12:54:32Z</time>
      </trkpt>
      <trkpt lat="45.82114" lon="1.24597">
        <ele>253.6</ele>
        <time>2024-10-08T12:54:35Z</time>
      </trkpt>
      <trkpt lat="45.82122" lon="1.24604">
        <ele>253.3</ele>
        <time>2024-10-08T12:54:38Z</time>
      </trkpt>
      <trkpt lat="45.82129" lon="1.24612">
        <ele>253</ele>
        <time>2024-10-08T12:54:41Z</time>
      </trkpt>
      <trkpt lat="45.82122" lon="1.24621">
        <ele>252.7</ele>
        <time>2024-10-08T12:54:44Z</time>
      </trkpt>
      <trkpt lat="45.82114" lon="1.24639">
        <ele>252.2</ele>
        <time>2024-10-08T12:54:47Z</time>
      </trkpt>
      <trkpt lat="45.82106" lon="1.24659">
        <ele>251.6</ele>
        <time>2024-10-08T12:54:50Z</time>
      </trkpt>
      <trkpt lat="45.82098" lon="1.24678">
        <ele>250.9</ele>
        <time>2024-10-08T12:54:53Z</time>
      </trkpt>
      <trkpt lat="45.82089" lon="1.24699">
        <ele>250.1</ele>
        <time>2024-10-08T12:54:56Z</time>
      </trkpt>
      <trkpt lat="45.82082" lon="1.24719">
        <ele>249.4</ele>
        <time>2024-10-08T12:54:59Z</time>
      </trkpt>
      <trkpt lat="45.82075" lon="1.24737">
        <ele>248.8</ele>
        <time>2024-10-08T12:55:02Z</time>
      </trkpt>
      <trkpt lat="45.82068" lon="1.24754">
        <ele>248.1</ele>
        <time>2024-10-08T12:55:05Z</time>
      </trkpt>
      <trkpt lat="45.8206" lon="1.24772">
        <ele>247.4</ele>
        <time>2024-10-08T12:55:07Z</time>
      </trkpt>
      <trkpt lat="45.82053" lon="1.24789">
        <ele>246.8</ele>
        <time>2024-10-08T12:55:10Z</time>
      </trkpt>
      <trkpt lat="45.82047" lon="1.24802">
        <ele>246.4</ele>
        <time>2024-10-08T12:55:13Z</time>
      </trkpt>
      <trkpt lat="45.82044" lon="1.24809">
        <ele>246.1</ele>
        <time>2024-10-08T12:55:16Z</time>
      </trkpt>
      <trkpt lat="45.82041" lon="1.24814">
        <ele>245.9</ele>
        <time>2024-10-08T12:55:19Z</time>
      </trkpt>
      <trkpt lat="45.82036" lon="1.24824">
        <ele>245.5</ele>
        <time>2024-10-08T12:55:22Z</time>
      </trkpt>
      <trkpt lat="45.82031" lon="1.24843">
        <ele>244.9</ele>
        <time>2024-10-08T12:55:25Z</time>
      </trkpt>
      <trkpt lat="45.82023" lon="1.24864">
        <ele>244.2</ele>
        <time>2024-10-08T12:55:28Z</time>
      </trkpt>
      <trkpt lat="45.82015" lon="1.24883">
        <ele>243.5</ele>
        <time>2024-10-08T12:55:31Z</time>
      </trkpt>
      <trkpt lat="45.82006" lon="1.24904">
        <ele>242.9</ele>
        <time>2024-10-08T12:55:35Z</time>
      </trkpt>
      <trkpt lat="45.81999" lon="1.24923">
        <ele>242.4</ele>
        <time>2024-10-08T12:55:37Z</time>
      </trkpt>
      <trkpt lat="45.81995" lon="1.24939">
        <ele>242</ele>
        <time>2024-10-08T12:55:41Z</time>
      </trkpt>
      <trkpt lat="45.81993" lon="1.24953">
        <ele>241.7</ele>
        <time>2024-10-08T12:55:44Z</time>
      </trkpt>
      <trkpt lat="45.81988" lon="1.2497">
        <ele>241.2</ele>
        <time>2024-10-08T12:55:47Z</time>
      </trkpt>
      <trkpt lat="45.81984" lon="1.24985">
        <ele>240.8</ele>
        <time>2024-10-08T12:55:50Z</time>
      </trkpt>
      <trkpt lat="45.81976" lon="1.24993">
        <ele>240.3</ele>
        <time>2024-10-08T12:55:53Z</time>
      </trkpt>
      <trkpt lat="45.81969" lon="1.25003">
        <ele>239.9</ele>
        <time>2024-10-08T12:55:56Z</time>
      </trkpt>
      <trkpt lat="45.81959" lon="1.25019">
        <ele>239.2</ele>
        <time>2024-10-08T12:55:59Z</time>
      </trkpt>
      <trkpt lat="45.8195" lon="1.25039">
        <ele>238.5</ele>
        <time>2024-10-08T12:56:02Z</time>
      </trkpt>
      <trkpt lat="45.81941" lon="1.25061">
        <ele>237.7</ele>
        <time>2024-10-08T12:56:05Z</time>
      </trkpt>
      <trkpt lat="45.81931" lon="1.25084">
        <ele>236.8</ele>
        <time>2024-10-08T12:56:08Z</time>
      </trkpt>
      <trkpt lat="45.81921" lon="1.25107">
        <ele>235.9</ele>
        <time>2024-10-08T12:56:11Z</time>
      </trkpt>
      <trkpt lat="45.81912" lon="1.25131">
        <ele>235</ele>
        <time>2024-10-08T12:56:14Z</time>
      </trkpt>
      <trkpt lat="45.81903" lon="1.25152">
        <ele>234.3</ele>
        <time>2024-10-08T12:56:17Z</time>
      </trkpt>
      <trkpt lat="45.81896" lon="1.25169">
        <ele>234.1</ele>
        <time>2024-10-08T12:56:20Z</time>
      </trkpt>
      <trkpt lat="45.81894" lon="1.25181">
        <ele>234</ele>
        <time>2024-10-08T12:56:23Z</time>
      </trkpt>
      <trkpt lat="45.81894" lon="1.25186">
        <ele>233.9</ele>
        <time>2024-10-08T12:56:26Z</time>
      </trkpt>
      <trkpt lat="45.81894" lon="1.25191">
        <ele>234</ele>
        <time>2024-10-08T12:56:29Z</time>
      </trkpt>
      <trkpt lat="45.81895" lon="1.252">
        <ele>234.3</ele>
        <time>2024-10-08T12:56:31Z</time>
      </trkpt>
      <trkpt lat="45.81896" lon="1.25202">
        <ele>234.4</ele>
        <time>2024-10-08T12:56:34Z</time>
      </trkpt>
      <trkpt lat="45.81896" lon="1.25202">
        <ele>234.4</ele>
        <time>2024-10-08T12:56:37Z</time>
      </trkpt>
      <trkpt lat="45.81897" lon="1.25203">
        <ele>234.5</ele>
        <time>2024-10-08T12:56:40Z</time>
      </trkpt>
      <trkpt lat="45.81898" lon="1.25203">
        <ele>234.5</ele>
        <time>2024-10-08T12:56:43Z</time>
      </trkpt>
      <trkpt lat="45.819" lon="1.25205">
        <ele>234.6</ele>
        <time>2024-10-08T12:56:46Z</time>
      </trkpt>
      <trkpt lat="45.81904" lon="1.2521">
        <ele>234.5</ele>
        <time>2024-10-08T12:56:49Z</time>
      </trkpt>
      <trkpt lat="45.81905" lon="1.25218">
        <ele>234.4</ele>
        <time>2024-10-08T12:56:52Z</time>
      </trkpt>
      <trkpt lat="45.81902" lon="1.25222">
        <ele>234.4</ele>
        <time>2024-10-08T12:56:55Z</time>
      </trkpt>
      <trkpt lat="45.81899" lon="1.25229">
        <ele>234.5</ele>
        <time>2024-10-08T12:56:58Z</time>
      </trkpt>
      <trkpt lat="45.819" lon="1.2523">
        <ele>234.5</ele>
        <time>2024-10-08T12:57:01Z</time>
      </trkpt>
      <trkpt lat="45.81899" lon="1.25231">
        <ele>234.5</ele>
        <time>2024-10-08T12:57:05Z</time>
      </trkpt>
      <trkpt lat="45.819" lon="1.2523">
        <ele>234.5</ele>
        <time>2024-10-08T12:57:08Z</time>
      </trkpt>
      <trkpt lat="45.81899" lon="1.25231">
        <ele>234.5</ele>
        <time>2024-10-08T12:57:11Z</time>
      </trkpt>
      <trkpt lat="45.81899" lon="1.2523">
        <ele>234.4</ele>
        <time>2024-10-08T12:57:14Z</time>
      </trkpt>
      <trkpt lat="45.81891" lon="1.25232">
        <ele>234</ele>
        <time>2024-10-08T12:57:17Z</time>
      </trkpt>
      <trkpt lat="45.81881" lon="1.25234">
        <ele>233.6</ele>
        <time>2024-10-08T12:57:20Z</time>
      </trkpt>
      <trkpt lat="45.81872" lon="1.25231">
        <ele>233.2</ele>
        <time>2024-10-08T12:57:23Z</time>
      </trkpt>
      <trkpt lat="45.81862" lon="1.25224">
        <ele>232.7</ele>
        <time>2024-10-08T12:57:26Z</time>
      </trkpt>
      <trkpt lat="45.81848" lon="1.25227">
        <ele>232.3</ele>
        <time>2024-10-08T12:57:29Z</time>
      </trkpt>
      <trkpt lat="45.81836" lon="1.25236">
        <ele>232.2</ele>
        <time>2024-10-08T12:57:32Z</time>
      </trkpt>
      <trkpt lat="45.81825" lon="1.25246">
        <ele>232.2</ele>
        <time>2024-10-08T12:57:35Z</time>
      </trkpt>
      <trkpt lat="45.81818" lon="1.25258">
        <ele>232.3</ele>
        <time>2024-10-08T12:57:38Z</time>
      </trkpt>
      <trkpt lat="45.81817" lon="1.25269">
        <ele>232.3</ele>
        <time>2024-10-08T12:57:41Z</time>
      </trkpt>
      <trkpt lat="45.81811" lon="1.2528">
        <ele>232.2</ele>
        <time>2024-10-08T12:57:44Z</time>
      </trkpt>
      <trkpt lat="45.81804" lon="1.2528">
        <ele>232.1</ele>
        <time>2024-10-08T12:57:47Z</time>
      </trkpt>
      <trkpt lat="45.81795" lon="1.25283">
        <ele>232</ele>
        <time>2024-10-08T12:57:49Z</time>
      </trkpt>
      <trkpt lat="45.81792" lon="1.25288">
        <ele>231.9</ele>
        <time>2024-10-08T12:57:53Z</time>
      </trkpt>
      <trkpt lat="45.81787" lon="1.25284">
        <ele>231.8</ele>
        <time>2024-10-08T12:57:55Z</time>
      </trkpt>
      <trkpt lat="45.81778" lon="1.25288">
        <ele>231.6</ele>
        <time>2024-10-08T12:57:58Z</time>
      </trkpt>
      <trkpt lat="45.81766" lon="1.25296">
        <ele>231.5</ele>
        <time>2024-10-08T12:58:01Z</time>
      </trkpt>
      <trkpt lat="45.81762" lon="1.25298">
        <ele>231.4</ele>
        <time>2024-10-08T12:58:04Z</time>
      </trkpt>
      <trkpt lat="45.81761" lon="1.25299">
        <ele>231.4</ele>
        <time>2024-10-08T12:58:07Z</time>
      </trkpt>
      <trkpt lat="45.81761" lon="1.25299">
        <ele>231.4</ele>
        <time>2024-10-08T12:58:10Z</time>
      </trkpt>
      <trkpt lat="45.8176" lon="1.25299">
        <ele>231.4</ele>
        <time>2024-10-08T12:58:13Z</time>
      </trkpt>
      <trkpt lat="45.81759" lon="1.25299">
        <ele>231.4</ele>
        <time>2024-10-08T12:58:16Z</time>
      </trkpt>
      <trkpt lat="45.81758" lon="1.25299">
        <ele>231.4</ele>
        <time>2024-10-08T12:58:19Z</time>
      </trkpt>
      <trkpt lat="45.81755" lon="1.25301">
        <ele>231.3</ele>
        <time>2024-10-08T12:58:22Z</time>
      </trkpt>
      <trkpt lat="45.81748" lon="1.25303">
        <ele>231.2</ele>
        <time>2024-10-08T12:58:26Z</time>
      </trkpt>
      <trkpt lat="45.81739" lon="1.25301">
        <ele>230.7</ele>
        <time>2024-10-08T12:58:29Z</time>
      </trkpt>
      <trkpt lat="45.81727" lon="1.25293">
        <ele>230.4</ele>
        <time>2024-10-08T12:58:32Z</time>
      </trkpt>
      <trkpt lat="45.81713" lon="1.25296">
        <ele>229.9</ele>
        <time>2024-10-08T12:58:35Z</time>
      </trkpt>
      <trkpt lat="45.81697" lon="1.25301">
        <ele>229.5</ele>
        <time>2024-10-08T12:58:38Z</time>
      </trkpt>
      <trkpt lat="45.81681" lon="1.25307">
        <ele>229.1</ele>
        <time>2024-10-08T12:58:41Z</time>
      </trkpt>
      <trkpt lat="45.81665" lon="1.25313">
        <ele>228.9</ele>
        <time>2024-10-08T12:58:44Z</time>
      </trkpt>
      <trkpt lat="45.81649" lon="1.25319">
        <ele>228.6</ele>
        <time>2024-10-08T12:58:47Z</time>
      </trkpt>
      <trkpt lat="45.81633" lon="1.25324">
        <ele>228.6</ele>
        <time>2024-10-08T12:58:50Z</time>
      </trkpt>
      <trkpt lat="45.81617" lon="1.25328">
        <ele>228.6</ele>
        <time>2024-10-08T12:58:53Z</time>
      </trkpt>
      <trkpt lat="45.816" lon="1.25335">
        <ele>228.5</ele>
        <time>2024-10-08T12:58:56Z</time>
      </trkpt>
      <trkpt lat="45.81583" lon="1.25342">
        <ele>228.6</ele>
        <time>2024-10-08T12:58:59Z</time>
      </trkpt>
      <trkpt lat="45.81566" lon="1.25348">
        <ele>228.5</ele>
        <time>2024-10-08T12:59:02Z</time>
      </trkpt>
      <trkpt lat="45.81551" lon="1.25354">
        <ele>228.6</ele>
        <time>2024-10-08T12:59:05Z</time>
      </trkpt>
      <trkpt lat="45.81542" lon="1.25371">
        <ele>228.3</ele>
        <time>2024-10-08T12:59:07Z</time>
      </trkpt>
      <trkpt lat="45.81531" lon="1.25389">
        <ele>227.5</ele>
        <time>2024-10-08T12:59:10Z</time>
      </trkpt>
      <trkpt lat="45.81518" lon="1.25409">
        <ele>226.7</ele>
        <time>2024-10-08T12:59:13Z</time>
      </trkpt>
      <trkpt lat="45.81512" lon="1.25434">
        <ele>225.8</ele>
        <time>2024-10-08T12:59:16Z</time>
      </trkpt>
      <trkpt lat="45.8151" lon="1.25462">
        <ele>224.9</ele>
        <time>2024-10-08T12:59:19Z</time>
      </trkpt>
      <trkpt lat="45.81504" lon="1.25485">
        <ele>224.4</ele>
        <time>2024-10-08T12:59:22Z</time>
      </trkpt>
      <trkpt lat="45.81498" lon="1.25502">
        <ele>223.9</ele>
        <time>2024-10-08T12:59:25Z</time>
      </trkpt>
      <trkpt lat="45.81501" lon="1.25513">
        <ele>223.2</ele>
        <time>2024-10-08T12:59:28Z</time>
      </trkpt>
      <trkpt lat="45.81513" lon="1.25509">
        <ele>222.2</ele>
        <time>2024-10-08T12:59:31Z</time>
      </trkpt>
      <trkpt lat="45.81526" lon="1.25495">
        <ele>221.3</ele>
        <time>2024-10-08T12:59:34Z</time>
      </trkpt>
      <trkpt lat="45.81543" lon="1.25495">
        <ele>220.5</ele>
        <time>2024-10-08T12:59:37Z</time>
      </trkpt>
      <trkpt lat="45.8156" lon="1.25499">
        <ele>219.7</ele>
        <time>2024-10-08T12:59:41Z</time>
      </trkpt>
      <trkpt lat="45.81577" lon="1.25494">
        <ele>219.1</ele>
        <time>2024-10-08T12:59:43Z</time>
      </trkpt>
      <trkpt lat="45.81593" lon="1.25493">
        <ele>218.9</ele>
        <time>2024-10-08T12:59:47Z</time>
      </trkpt>
      <trkpt lat="45.81611" lon="1.25498">
        <ele>218.9</ele>
        <time>2024-10-08T12:59:50Z</time>
      </trkpt>
      <trkpt lat="45.81628" lon="1.25505">
        <ele>218.9</ele>
        <time>2024-10-08T12:59:53Z</time>
      </trkpt>
      <trkpt lat="45.81644" lon="1.2551">
        <ele>218.8</ele>
        <time>2024-10-08T12:59:56Z</time>
      </trkpt>
      <trkpt lat="45.81661" lon="1.25514">
        <ele>218.6</ele>
        <time>2024-10-08T12:59:59Z</time>
      </trkpt>
      <trkpt lat="45.81675" lon="1.25522">
        <ele>218.5</ele>
        <time>2024-10-08T13:00:02Z</time>
      </trkpt>
      <trkpt lat="45.81689" lon="1.25529">
        <ele>218.5</ele>
        <time>2024-10-08T13:00:05Z</time>
      </trkpt>
      <trkpt lat="45.81699" lon="1.25539">
        <ele>218.4</ele>
        <time>2024-10-08T13:00:08Z</time>
      </trkpt>
      <trkpt lat="45.81707" lon="1.25555">
        <ele>218.4</ele>
        <time>2024-10-08T13:00:11Z</time>
      </trkpt>
      <trkpt lat="45.81711" lon="1.25574">
        <ele>218.4</ele>
        <time>2024-10-08T13:00:14Z</time>
      </trkpt>
      <trkpt lat="45.81717" lon="1.25588">
        <ele>218.5</ele>
        <time>2024-10-08T13:00:17Z</time>
      </trkpt>
      <trkpt lat="45.81723" lon="1.25602">
        <ele>218.6</ele>
        <time>2024-10-08T13:00:20Z</time>
      </trkpt>
      <trkpt lat="45.81731" lon="1.25621">
        <ele>218.8</ele>
        <time>2024-10-08T13:00:23Z</time>
      </trkpt>
      <trkpt lat="45.81738" lon="1.25638">
        <ele>218.9</ele>
        <time>2024-10-08T13:00:26Z</time>
      </trkpt>
      <trkpt lat="45.81746" lon="1.25655">
        <ele>218.9</ele>
        <time>2024-10-08T13:00:29Z</time>
      </trkpt>
      <trkpt lat="45.81754" lon="1.25673">
        <ele>218.8</ele>
        <time>2024-10-08T13:00:32Z</time>
      </trkpt>
      <trkpt lat="45.81762" lon="1.25691">
        <ele>218.8</ele>
        <time>2024-10-08T13:00:34Z</time>
      </trkpt>
      <trkpt lat="45.81769" lon="1.25708">
        <ele>218.9</ele>
        <time>2024-10-08T13:00:37Z</time>
      </trkpt>
      <trkpt lat="45.81775" lon="1.25724">
        <ele>218.9</ele>
        <time>2024-10-08T13:00:40Z</time>
      </trkpt>
      <trkpt lat="45.81786" lon="1.2574">
        <ele>218.9</ele>
        <time>2024-10-08T13:00:43Z</time>
      </trkpt>
      <trkpt lat="45.81795" lon="1.25758">
        <ele>218.9</ele>
        <time>2024-10-08T13:00:46Z</time>
      </trkpt>
      <trkpt lat="45.81802" lon="1.25775">
        <ele>219</ele>
        <time>2024-10-08T13:00:49Z</time>
      </trkpt>
      <trkpt lat="45.81808" lon="1.25792">
        <ele>218.9</ele>
        <time>2024-10-08T13:00:52Z</time>
      </trkpt>
      <trkpt lat="45.81819" lon="1.25811">
        <ele>218.9</ele>
        <time>2024-10-08T13:00:55Z</time>
      </trkpt>
      <trkpt lat="45.81827" lon="1.25827">
        <ele>219</ele>
        <time>2024-10-08T13:00:58Z</time>
      </trkpt>
      <trkpt lat="45.81833" lon="1.25845">
        <ele>219.3</ele>
        <time>2024-10-08T13:01:02Z</time>
      </trkpt>
      <trkpt lat="45.8184" lon="1.25856">
        <ele>219.5</ele>
        <time>2024-10-08T13:01:05Z</time>
      </trkpt>
      <trkpt lat="45.81842" lon="1.2587">
        <ele>219.6</ele>
        <time>2024-10-08T13:01:08Z</time>
      </trkpt>
      <trkpt lat="45.81847" lon="1.25886">
        <ele>219.7</ele>
        <time>2024-10-08T13:01:11Z</time>
      </trkpt>
      <trkpt lat="45.81852" lon="1.25903">
        <ele>219.7</ele>
        <time>2024-10-08T13:01:14Z</time>
      </trkpt>
      <trkpt lat="45.81858" lon="1.25921">
        <ele>219.7</ele>
        <time>2024-10-08T13:01:17Z</time>
      </trkpt>
      <trkpt lat="45.81861" lon="1.2594">
        <ele>219.6</ele>
        <time>2024-10-08T13:01:20Z</time>
      </trkpt>
      <trkpt lat="45.81866" lon="1.25965">
        <ele>219.5</ele>
        <time>2024-10-08T13:01:23Z</time>
      </trkpt>
      <trkpt lat="45.8187" lon="1.25984">
        <ele>219.4</ele>
        <time>2024-10-08T13:01:26Z</time>
      </trkpt>
      <trkpt lat="45.81872" lon="1.25998">
        <ele>219.4</ele>
        <time>2024-10-08T13:01:29Z</time>
      </trkpt>
      <trkpt lat="45.81873" lon="1.26011">
        <ele>219.5</ele>
        <time>2024-10-08T13:01:32Z</time>
      </trkpt>
      <trkpt lat="45.81879" lon="1.26029">
        <ele>219.6</ele>
        <time>2024-10-08T13:01:35Z</time>
      </trkpt>
      <trkpt lat="45.81886" lon="1.26044">
        <ele>219.9</ele>
        <time>2024-10-08T13:01:38Z</time>
      </trkpt>
      <trkpt lat="45.81891" lon="1.26058">
        <ele>220.2</ele>
        <time>2024-10-08T13:01:41Z</time>
      </trkpt>
      <trkpt lat="45.81898" lon="1.26076">
        <ele>220.3</ele>
        <time>2024-10-08T13:01:44Z</time>
      </trkpt>
      <trkpt lat="45.81904" lon="1.26093">
        <ele>220.2</ele>
        <time>2024-10-08T13:01:47Z</time>
      </trkpt>
      <trkpt lat="45.81909" lon="1.26114">
        <ele>220</ele>
        <time>2024-10-08T13:01:50Z</time>
      </trkpt>
      <trkpt lat="45.81914" lon="1.26133">
        <ele>220.2</ele>
        <time>2024-10-08T13:01:52Z</time>
      </trkpt>
      <trkpt lat="45.81916" lon="1.26146">
        <ele>220.4</ele>
        <time>2024-10-08T13:01:55Z</time>
      </trkpt>
      <trkpt lat="45.8192" lon="1.26163">
        <ele>220.6</ele>
        <time>2024-10-08T13:01:58Z</time>
      </trkpt>
      <trkpt lat="45.81926" lon="1.26183">
        <ele>220.7</ele>
        <time>2024-10-08T13:02:01Z</time>
      </trkpt>
      <trkpt lat="45.8193" lon="1.26205">
        <ele>220.7</ele>
        <time>2024-10-08T13:02:04Z</time>
      </trkpt>
      <trkpt lat="45.8193" lon="1.26228">
        <ele>220.6</ele>
        <time>2024-10-08T13:02:07Z</time>
      </trkpt>
      <trkpt lat="45.81935" lon="1.26249">
        <ele>220.5</ele>
        <time>2024-10-08T13:02:10Z</time>
      </trkpt>
      <trkpt lat="45.8194" lon="1.26267">
        <ele>220.5</ele>
        <time>2024-10-08T13:02:13Z</time>
      </trkpt>
      <trkpt lat="45.81949" lon="1.26286">
        <ele>220.6</ele>
        <time>2024-10-08T13:02:16Z</time>
      </trkpt>
      <trkpt lat="45.81955" lon="1.26304">
        <ele>220.7</ele>
        <time>2024-10-08T13:02:19Z</time>
      </trkpt>
      <trkpt lat="45.81959" lon="1.26323">
        <ele>220.8</ele>
        <time>2024-10-08T13:02:23Z</time>
      </trkpt>
      <trkpt lat="45.81963" lon="1.26342">
        <ele>220.9</ele>
        <time>2024-10-08T13:02:25Z</time>
      </trkpt>
      <trkpt lat="45.81965" lon="1.26363">
        <ele>221</ele>
        <time>2024-10-08T13:02:29Z</time>
      </trkpt>
      <trkpt lat="45.81968" lon="1.26383">
        <ele>221.2</ele>
        <time>2024-10-08T13:02:32Z</time>
      </trkpt>
      <trkpt lat="45.8197" lon="1.26402">
        <ele>221.3</ele>
        <time>2024-10-08T13:02:35Z</time>
      </trkpt>
      <trkpt lat="45.81976" lon="1.26421">
        <ele>221.4</ele>
        <time>2024-10-08T13:02:38Z</time>
      </trkpt>
      <trkpt lat="45.81985" lon="1.26436">
        <ele>221.4</ele>
        <time>2024-10-08T13:02:41Z</time>
      </trkpt>
      <trkpt lat="45.81991" lon="1.26458">
        <ele>221.3</ele>
        <time>2024-10-08T13:02:44Z</time>
      </trkpt>
      <trkpt lat="45.81996" lon="1.26479">
        <ele>221.3</ele>
        <time>2024-10-08T13:02:47Z</time>
      </trkpt>
      <trkpt lat="45.81999" lon="1.26502">
        <ele>221.3</ele>
        <time>2024-10-08T13:02:50Z</time>
      </trkpt>
      <trkpt lat="45.82003" lon="1.26521">
        <ele>221.3</ele>
        <time>2024-10-08T13:02:53Z</time>
      </trkpt>
      <trkpt lat="45.82005" lon="1.26537">
        <ele>221.4</ele>
        <time>2024-10-08T13:02:56Z</time>
      </trkpt>
      <trkpt lat="45.82009" lon="1.26555">
        <ele>221.4</ele>
        <time>2024-10-08T13:02:59Z</time>
      </trkpt>
      <trkpt lat="45.82013" lon="1.26574">
        <ele>221.6</ele>
        <time>2024-10-08T13:03:02Z</time>
      </trkpt>
      <trkpt lat="45.82016" lon="1.26595">
        <ele>221.8</ele>
        <time>2024-10-08T13:03:05Z</time>
      </trkpt>
      <trkpt lat="45.82013" lon="1.26613">
        <ele>222.2</ele>
        <time>2024-10-08T13:03:08Z</time>
      </trkpt>
      <trkpt lat="45.82009" lon="1.26631">
        <ele>222.6</ele>
        <time>2024-10-08T13:03:11Z</time>
      </trkpt>
      <trkpt lat="45.82009" lon="1.2665">
        <ele>222.9</ele>
        <time>2024-10-08T13:03:14Z</time>
      </trkpt>
      <trkpt lat="45.82013" lon="1.2667">
        <ele>223.4</ele>
        <time>2024-10-08T13:03:17Z</time>
      </trkpt>
      <trkpt lat="45.82018" lon="1.26687">
        <ele>223.9</ele>
        <time>2024-10-08T13:03:20Z</time>
      </trkpt>
      <trkpt lat="45.82023" lon="1.26703">
        <ele>224.4</ele>
        <time>2024-10-08T13:03:22Z</time>
      </trkpt>
      <trkpt lat="45.82029" lon="1.26718">
        <ele>224.8</ele>
        <time>2024-10-08T13:03:25Z</time>
      </trkpt>
      <trkpt lat="45.82036" lon="1.26731">
        <ele>225.1</ele>
        <time>2024-10-08T13:03:28Z</time>
      </trkpt>
      <trkpt lat="45.82044" lon="1.26745">
        <ele>225.3</ele>
        <time>2024-10-08T13:03:31Z</time>
      </trkpt>
      <trkpt lat="45.82053" lon="1.26758">
        <ele>225.4</ele>
        <time>2024-10-08T13:03:34Z</time>
      </trkpt>
      <trkpt lat="45.82061" lon="1.2677">
        <ele>224.8</ele>
        <time>2024-10-08T13:03:37Z</time>
      </trkpt>
      <trkpt lat="45.82075" lon="1.26778">
        <ele>223.6</ele>
        <time>2024-10-08T13:03:40Z</time>
      </trkpt>
      <trkpt lat="45.82091" lon="1.26792">
        <ele>222.9</ele>
        <time>2024-10-08T13:03:43Z</time>
      </trkpt>
      <trkpt lat="45.82112" lon="1.26805">
        <ele>221.3</ele>
        <time>2024-10-08T13:03:46Z</time>
      </trkpt>
      <trkpt lat="45.82138" lon="1.26811">
        <ele>220.7</ele>
        <time>2024-10-08T13:03:50Z</time>
      </trkpt>
      <trkpt lat="45.82158" lon="1.26822">
        <ele>220.6</ele>
        <time>2024-10-08T13:03:52Z</time>
      </trkpt>
      <trkpt lat="45.82174" lon="1.26831">
        <ele>220.6</ele>
        <time>2024-10-08T13:03:56Z</time>
      </trkpt>
      <trkpt lat="45.82191" lon="1.2684">
        <ele>220.6</ele>
        <time>2024-10-08T13:03:59Z</time>
      </trkpt>
      <trkpt lat="45.82201" lon="1.26847">
        <ele>220.5</ele>
        <time>2024-10-08T13:04:02Z</time>
      </trkpt>
      <trkpt lat="45.82207" lon="1.26851">
        <ele>220.5</ele>
        <time>2024-10-08T13:04:05Z</time>
      </trkpt>
      <trkpt lat="45.8222" lon="1.26857">
        <ele>220.3</ele>
        <time>2024-10-08T13:04:08Z</time>
      </trkpt>
      <trkpt lat="45.82234" lon="1.26864">
        <ele>220.2</ele>
        <time>2024-10-08T13:04:11Z</time>
      </trkpt>
      <trkpt lat="45.82248" lon="1.26871">
        <ele>220.2</ele>
        <time>2024-10-08T13:04:14Z</time>
      </trkpt>
      <trkpt lat="45.82259" lon="1.26878">
        <ele>220.2</ele>
        <time>2024-10-08T13:04:17Z</time>
      </trkpt>
      <trkpt lat="45.82271" lon="1.26885">
        <ele>220.2</ele>
        <time>2024-10-08T13:04:20Z</time>
      </trkpt>
      <trkpt lat="45.82286" lon="1.26891">
        <ele>220.2</ele>
        <time>2024-10-08T13:04:23Z</time>
      </trkpt>
      <trkpt lat="45.823" lon="1.26898">
        <ele>220.3</ele>
        <time>2024-10-08T13:04:26Z</time>
      </trkpt>
      <trkpt lat="45.82313" lon="1.26907">
        <ele>220.4</ele>
        <time>2024-10-08T13:04:29Z</time>
      </trkpt>
      <trkpt lat="45.82326" lon="1.26915">
        <ele>220.8</ele>
        <time>2024-10-08T13:04:32Z</time>
      </trkpt>
      <trkpt lat="45.82334" lon="1.26932">
        <ele>222.4</ele>
        <time>2024-10-08T13:04:35Z</time>
      </trkpt>
      <trkpt lat="45.82337" lon="1.26945">
        <ele>224</ele>
        <time>2024-10-08T13:04:38Z</time>
      </trkpt>
      <trkpt lat="45.82336" lon="1.26951">
        <ele>224.1</ele>
        <time>2024-10-08T13:04:41Z</time>
      </trkpt>
      <trkpt lat="45.82329" lon="1.26958">
        <ele>224.3</ele>
        <time>2024-10-08T13:04:43Z</time>
      </trkpt>
      <trkpt lat="45.82324" lon="1.26969">
        <ele>224.5</ele>
        <time>2024-10-08T13:04:46Z</time>
      </trkpt>
      <trkpt lat="45.82321" lon="1.2698">
        <ele>224.4</ele>
        <time>2024-10-08T13:04:49Z</time>
      </trkpt>
      <trkpt lat="45.82319" lon="1.26992">
        <ele>224.1</ele>
        <time>2024-10-08T13:04:52Z</time>
      </trkpt>
      <trkpt lat="45.82322" lon="1.27015">
        <ele>223.6</ele>
        <time>2024-10-08T13:04:55Z</time>
      </trkpt>
      <trkpt lat="45.8232" lon="1.27038">
        <ele>223.5</ele>
        <time>2024-10-08T13:04:58Z</time>
      </trkpt>
      <trkpt lat="45.82323" lon="1.27059">
        <ele>223.4</ele>
        <time>2024-10-08T13:05:01Z</time>
      </trkpt>
      <trkpt lat="45.82325" lon="1.27078">
        <ele>223.1</ele>
        <time>2024-10-08T13:05:04Z</time>
      </trkpt>
      <trkpt lat="45.82328" lon="1.27097">
        <ele>222.8</ele>
        <time>2024-10-08T13:05:07Z</time>
      </trkpt>
      <trkpt lat="45.82333" lon="1.27116">
        <ele>222.5</ele>
        <time>2024-10-08T13:05:10Z</time>
      </trkpt>
      <trkpt lat="45.8234" lon="1.27135">
        <ele>222.6</ele>
        <time>2024-10-08T13:05:14Z</time>
      </trkpt>
      <trkpt lat="45.82344" lon="1.27149">
        <ele>222.8</ele>
        <time>2024-10-08T13:05:17Z</time>
      </trkpt>
      <trkpt lat="45.82348" lon="1.27162">
        <ele>223.3</ele>
        <time>2024-10-08T13:05:20Z</time>
      </trkpt>
      <trkpt lat="45.82346" lon="1.27176">
        <ele>224</ele>
        <time>2024-10-08T13:05:23Z</time>
      </trkpt>
      <trkpt lat="45.82343" lon="1.27186">
        <ele>224.6</ele>
        <time>2024-10-08T13:05:26Z</time>
      </trkpt>
      <trkpt lat="45.8235" lon="1.27195">
        <ele>224.7</ele>
        <time>2024-10-08T13:05:29Z</time>
      </trkpt>
      <trkpt lat="45.82359" lon="1.27209">
        <ele>224.5</ele>
        <time>2024-10-08T13:05:32Z</time>
      </trkpt>
      <trkpt lat="45.82366" lon="1.27229">
        <ele>224.2</ele>
        <time>2024-10-08T13:05:35Z</time>
      </trkpt>
      <trkpt lat="45.82373" lon="1.27254">
        <ele>224.2</ele>
        <time>2024-10-08T13:05:38Z</time>
      </trkpt>
      <trkpt lat="45.82376" lon="1.27276">
        <ele>224.3</ele>
        <time>2024-10-08T13:05:41Z</time>
      </trkpt>
      <trkpt lat="45.82387" lon="1.27292">
        <ele>224.4</ele>
        <time>2024-10-08T13:05:44Z</time>
      </trkpt>
      <trkpt lat="45.824" lon="1.27302">
        <ele>224.5</ele>
        <time>2024-10-08T13:05:47Z</time>
      </trkpt>
      <trkpt lat="45.82404" lon="1.27313">
        <ele>224.6</ele>
        <time>2024-10-08T13:05:50Z</time>
      </trkpt>
      <trkpt lat="45.82399" lon="1.27322">
        <ele>224.7</ele>
        <time>2024-10-08T13:05:53Z</time>
      </trkpt>
      <trkpt lat="45.8239" lon="1.27334">
        <ele>224.7</ele>
        <time>2024-10-08T13:05:55Z</time>
      </trkpt>
      <trkpt lat="45.82378" lon="1.27348">
        <ele>224.9</ele>
        <time>2024-10-08T13:05:59Z</time>
      </trkpt>
      <trkpt lat="45.82366" lon="1.27362">
        <ele>225.1</ele>
        <time>2024-10-08T13:06:02Z</time>
      </trkpt>
      <trkpt lat="45.82355" lon="1.27375">
        <ele>225.3</ele>
        <time>2024-10-08T13:06:04Z</time>
      </trkpt>
      <trkpt lat="45.82346" lon="1.27393">
        <ele>225.6</ele>
        <time>2024-10-08T13:06:07Z</time>
      </trkpt>
      <trkpt lat="45.82334" lon="1.27406">
        <ele>225.9</ele>
        <time>2024-10-08T13:06:10Z</time>
      </trkpt>
      <trkpt lat="45.82322" lon="1.27418">
        <ele>226.3</ele>
        <time>2024-10-08T13:06:13Z</time>
      </trkpt>
      <trkpt lat="45.82308" lon="1.27427">
        <ele>227.1</ele>
        <time>2024-10-08T13:06:16Z</time>
      </trkpt>
      <trkpt lat="45.82302" lon="1.27437">
        <ele>227.8</ele>
        <time>2024-10-08T13:06:19Z</time>
      </trkpt>
      <trkpt lat="45.82302" lon="1.27455">
        <ele>228.2</ele>
        <time>2024-10-08T13:06:22Z</time>
      </trkpt>
      <trkpt lat="45.823" lon="1.27478">
        <ele>228.4</ele>
        <time>2024-10-08T13:06:25Z</time>
      </trkpt>
      <trkpt lat="45.82298" lon="1.27497">
        <ele>228.8</ele>
        <time>2024-10-08T13:06:28Z</time>
      </trkpt>
      <trkpt lat="45.82296" lon="1.27515">
        <ele>229.4</ele>
        <time>2024-10-08T13:06:32Z</time>
      </trkpt>
      <trkpt lat="45.8229" lon="1.2753">
        <ele>229.7</ele>
        <time>2024-10-08T13:06:35Z</time>
      </trkpt>
      <trkpt lat="45.82281" lon="1.27546">
        <ele>229.8</ele>
        <time>2024-10-08T13:06:38Z</time>
      </trkpt>
      <trkpt lat="45.8228" lon="1.27565">
        <ele>229.8</ele>
        <time>2024-10-08T13:06:41Z</time>
      </trkpt>
      <trkpt lat="45.82279" lon="1.27587">
        <ele>229.6</ele>
        <time>2024-10-08T13:06:44Z</time>
      </trkpt>
      <trkpt lat="45.82278" lon="1.27609">
        <ele>229.4</ele>
        <time>2024-10-08T13:06:47Z</time>
      </trkpt>
      <trkpt lat="45.82277" lon="1.27633">
        <ele>229.4</ele>
        <time>2024-10-08T13:06:50Z</time>
      </trkpt>
      <trkpt lat="45.82278" lon="1.27658">
        <ele>229.6</ele>
        <time>2024-10-08T13:06:53Z</time>
      </trkpt>
      <trkpt lat="45.82281" lon="1.27679">
        <ele>229.7</ele>
        <time>2024-10-08T13:06:56Z</time>
      </trkpt>
      <trkpt lat="45.82283" lon="1.27701">
        <ele>229.7</ele>
        <time>2024-10-08T13:06:59Z</time>
      </trkpt>
      <trkpt lat="45.82285" lon="1.27715">
        <ele>229.7</ele>
        <time>2024-10-08T13:07:02Z</time>
      </trkpt>
      <trkpt lat="45.82288" lon="1.27729">
        <ele>229.7</ele>
        <time>2024-10-08T13:07:05Z</time>
      </trkpt>
      <trkpt lat="45.82291" lon="1.27746">
        <ele>229.7</ele>
        <time>2024-10-08T13:07:08Z</time>
      </trkpt>
      <trkpt lat="45.82293" lon="1.27761">
        <ele>229.7</ele>
        <time>2024-10-08T13:07:11Z</time>
      </trkpt>
      <trkpt lat="45.82295" lon="1.27777">
        <ele>229.6</ele>
        <time>2024-10-08T13:07:14Z</time>
      </trkpt>
      <trkpt lat="45.82294" lon="1.27794">
        <ele>229.6</ele>
        <time>2024-10-08T13:07:17Z</time>
      </trkpt>
      <trkpt lat="45.82296" lon="1.27814">
        <ele>229.6</ele>
        <time>2024-10-08T13:07:20Z</time>
      </trkpt>
      <trkpt lat="45.82293" lon="1.2783">
        <ele>229.6</ele>
        <time>2024-10-08T13:07:22Z</time>
      </trkpt>
      <trkpt lat="45.82292" lon="1.27847">
        <ele>229.7</ele>
        <time>2024-10-08T13:07:26Z</time>
      </trkpt>
      <trkpt lat="45.82287" lon="1.27865">
        <ele>229.8</ele>
        <time>2024-10-08T13:07:28Z</time>
      </trkpt>
      <trkpt lat="45.82275" lon="1.27872">
        <ele>229.9</ele>
        <time>2024-10-08T13:07:31Z</time>
      </trkpt>
      <trkpt lat="45.82269" lon="1.27865">
        <ele>230.2</ele>
        <time>2024-10-08T13:07:34Z</time>
      </trkpt>
      <trkpt lat="45.8226" lon="1.27868">
        <ele>230.3</ele>
        <time>2024-10-08T13:07:37Z</time>
      </trkpt>
      <trkpt lat="45.82256" lon="1.27879">
        <ele>230.4</ele>
        <time>2024-10-08T13:07:40Z</time>
      </trkpt>
      <trkpt lat="45.82255" lon="1.2789">
        <ele>230.4</ele>
        <time>2024-10-08T13:07:43Z</time>
      </trkpt>
      <trkpt lat="45.82253" lon="1.27912">
        <ele>230.4</ele>
        <time>2024-10-08T13:07:46Z</time>
      </trkpt>
      <trkpt lat="45.82251" lon="1.27932">
        <ele>230.4</ele>
        <time>2024-10-08T13:07:49Z</time>
      </trkpt>
      <trkpt lat="45.82244" lon="1.27952">
        <ele>230.5</ele>
        <time>2024-10-08T13:07:52Z</time>
      </trkpt>
      <trkpt lat="45.82235" lon="1.2797">
        <ele>230.6</ele>
        <time>2024-10-08T13:07:56Z</time>
      </trkpt>
      <trkpt lat="45.82225" lon="1.27985">
        <ele>230.7</ele>
        <time>2024-10-08T13:07:59Z</time>
      </trkpt>
      <trkpt lat="45.82214" lon="1.27996">
        <ele>230.9</ele>
        <time>2024-10-08T13:08:02Z</time>
      </trkpt>
      <trkpt lat="45.82205" lon="1.28005">
        <ele>231</ele>
        <time>2024-10-08T13:08:05Z</time>
      </trkpt>
      <trkpt lat="45.82205" lon="1.28017">
        <ele>231.1</ele>
        <time>2024-10-08T13:08:08Z</time>
      </trkpt>
      <trkpt lat="45.82212" lon="1.28033">
        <ele>231.2</ele>
        <time>2024-10-08T13:08:11Z</time>
      </trkpt>
      <trkpt lat="45.82211" lon="1.2805">
        <ele>231.3</ele>
        <time>2024-10-08T13:08:14Z</time>
      </trkpt>
      <trkpt lat="45.82206" lon="1.28066">
        <ele>231.4</ele>
        <time>2024-10-08T13:08:17Z</time>
      </trkpt>
      <trkpt lat="45.82195" lon="1.28077">
        <ele>231.6</ele>
        <time>2024-10-08T13:08:20Z</time>
      </trkpt>
      <trkpt lat="45.82187" lon="1.28084">
        <ele>231.6</ele>
        <time>2024-10-08T13:08:23Z</time>
      </trkpt>
      <trkpt lat="45.82179" lon="1.28097">
        <ele>231.7</ele>
        <time>2024-10-08T13:08:26Z</time>
      </trkpt>
      <trkpt lat="45.82169" lon="1.28123">
        <ele>232</ele>
        <time>2024-10-08T13:08:29Z</time>
      </trkpt>
      <trkpt lat="45.82163" lon="1.28143">
        <ele>232.3</ele>
        <time>2024-10-08T13:08:32Z</time>
      </trkpt>
      <trkpt lat="45.82158" lon="1.2816">
        <ele>232.6</ele>
        <time>2024-10-08T13:08:35Z</time>
      </trkpt>
      <trkpt lat="45.82152" lon="1.28175">
        <ele>232.9</ele>
        <time>2024-10-08T13:08:38Z</time>
      </trkpt>
      <trkpt lat="45.82145" lon="1.2819">
        <ele>232.9</ele>
        <time>2024-10-08T13:08:41Z</time>
      </trkpt>
      <trkpt lat="45.82145" lon="1.28207">
        <ele>233</ele>
        <time>2024-10-08T13:08:43Z</time>
      </trkpt>
      <trkpt lat="45.82143" lon="1.28223">
        <ele>233.2</ele>
        <time>2024-10-08T13:08:47Z</time>
      </trkpt>
      <trkpt lat="45.8214" lon="1.2824">
        <ele>233.8</ele>
        <time>2024-10-08T13:08:49Z</time>
      </trkpt>
      <trkpt lat="45.8214" lon="1.28253">
        <ele>234.3</ele>
        <time>2024-10-08T13:08:52Z</time>
      </trkpt>
      <trkpt lat="45.82139" lon="1.28266">
        <ele>234.8</ele>
        <time>2024-10-08T13:08:55Z</time>
      </trkpt>
      <trkpt lat="45.82138" lon="1.28281">
        <ele>235.4</ele>
        <time>2024-10-08T13:08:58Z</time>
      </trkpt>
      <trkpt lat="45.82133" lon="1.28295">
        <ele>236.2</ele>
        <time>2024-10-08T13:09:01Z</time>
      </trkpt>
      <trkpt lat="45.82128" lon="1.28308">
        <ele>237.2</ele>
        <time>2024-10-08T13:09:04Z</time>
      </trkpt>
      <trkpt lat="45.82124" lon="1.28318">
        <ele>238.1</ele>
        <time>2024-10-08T13:09:07Z</time>
      </trkpt>
      <trkpt lat="45.82119" lon="1.28328">
        <ele>239.1</ele>
        <time>2024-10-08T13:09:10Z</time>
      </trkpt>
      <trkpt lat="45.82116" lon="1.28339">
        <ele>240</ele>
        <time>2024-10-08T13:09:14Z</time>
      </trkpt>
      <trkpt lat="45.82113" lon="1.2835">
        <ele>240.7</ele>
        <time>2024-10-08T13:09:17Z</time>
      </trkpt>
      <trkpt lat="45.82111" lon="1.28363">
        <ele>241.3</ele>
        <time>2024-10-08T13:09:20Z</time>
      </trkpt>
      <trkpt lat="45.82107" lon="1.28379">
        <ele>241.4</ele>
        <time>2024-10-08T13:09:23Z</time>
      </trkpt>
      <trkpt lat="45.82099" lon="1.28388">
        <ele>241.6</ele>
        <time>2024-10-08T13:09:26Z</time>
      </trkpt>
      <trkpt lat="45.82094" lon="1.28396">
        <ele>241.9</ele>
        <time>2024-10-08T13:09:29Z</time>
      </trkpt>
      <trkpt lat="45.82093" lon="1.28403">
        <ele>242</ele>
        <time>2024-10-08T13:09:32Z</time>
      </trkpt>
      <trkpt lat="45.82093" lon="1.28403">
        <ele>242</ele>
        <time>2024-10-08T13:09:35Z</time>
      </trkpt>
      <trkpt lat="45.82093" lon="1.28403">
        <ele>242</ele>
        <time>2024-10-08T13:09:38Z</time>
      </trkpt>
      <trkpt lat="45.82095" lon="1.28412">
        <ele>242</ele>
        <time>2024-10-08T13:09:41Z</time>
      </trkpt>
      <trkpt lat="45.82097" lon="1.28427">
        <ele>241.9</ele>
        <time>2024-10-08T13:09:44Z</time>
      </trkpt>
      <trkpt lat="45.82103" lon="1.28445">
        <ele>241.6</ele>
        <time>2024-10-08T13:09:47Z</time>
      </trkpt>
      <trkpt lat="45.82105" lon="1.28467">
        <ele>240.5</ele>
        <time>2024-10-08T13:09:50Z</time>
      </trkpt>
      <trkpt lat="45.82108" lon="1.28496">
        <ele>238.9</ele>
        <time>2024-10-08T13:09:53Z</time>
      </trkpt>
      <trkpt lat="45.82116" lon="1.28526">
        <ele>237.9</ele>
        <time>2024-10-08T13:09:56Z</time>
      </trkpt>
      <trkpt lat="45.82127" lon="1.28555">
        <ele>237.5</ele>
        <time>2024-10-08T13:09:59Z</time>
      </trkpt>
      <trkpt lat="45.82126" lon="1.28584">
        <ele>237.4</ele>
        <time>2024-10-08T13:10:02Z</time>
      </trkpt>
      <trkpt lat="45.82125" lon="1.28609">
        <ele>237.4</ele>
        <time>2024-10-08T13:10:05Z</time>
      </trkpt>
      <trkpt lat="45.82123" lon="1.28634">
        <ele>237.4</ele>
        <time>2024-10-08T13:10:08Z</time>
      </trkpt>
      <trkpt lat="45.8212" lon="1.28657">
        <ele>237.4</ele>
        <time>2024-10-08T13:10:10Z</time>
      </trkpt>
      <trkpt lat="45.82117" lon="1.2868">
        <ele>237.4</ele>
        <time>2024-10-08T13:10:13Z</time>
      </trkpt>
      <trkpt lat="45.82111" lon="1.287">
        <ele>237.5</ele>
        <time>2024-10-08T13:10:16Z</time>
      </trkpt>
      <trkpt lat="45.82099" lon="1.28706">
        <ele>237.6</ele>
        <time>2024-10-08T13:10:19Z</time>
      </trkpt>
      <trkpt lat="45.82086" lon="1.28715">
        <ele>237.9</ele>
        <time>2024-10-08T13:10:22Z</time>
      </trkpt>
      <trkpt lat="45.82076" lon="1.28731">
        <ele>237.9</ele>
        <time>2024-10-08T13:10:25Z</time>
      </trkpt>
      <trkpt lat="45.82069" lon="1.28749">
        <ele>237.8</ele>
        <time>2024-10-08T13:10:28Z</time>
      </trkpt>
      <trkpt lat="45.82059" lon="1.28768">
        <ele>237.7</ele>
        <time>2024-10-08T13:10:31Z</time>
      </trkpt>
      <trkpt lat="45.82049" lon="1.28788">
        <ele>237.6</ele>
        <time>2024-10-08T13:10:34Z</time>
      </trkpt>
      <trkpt lat="45.82042" lon="1.28807">
        <ele>237.8</ele>
        <time>2024-10-08T13:10:37Z</time>
      </trkpt>
      <trkpt lat="45.82036" lon="1.28827">
        <ele>238</ele>
        <time>2024-10-08T13:10:41Z</time>
      </trkpt>
      <trkpt lat="45.82037" lon="1.28846">
        <ele>238.2</ele>
        <time>2024-10-08T13:10:44Z</time>
      </trkpt>
      <trkpt lat="45.82032" lon="1.28869">
        <ele>238.5</ele>
        <time>2024-10-08T13:10:47Z</time>
      </trkpt>
      <trkpt lat="45.82027" lon="1.28891">
        <ele>238.9</ele>
        <time>2024-10-08T13:10:50Z</time>
      </trkpt>
      <trkpt lat="45.82021" lon="1.2891">
        <ele>239.7</ele>
        <time>2024-10-08T13:10:53Z</time>
      </trkpt>
      <trkpt lat="45.82016" lon="1.28926">
        <ele>240.1</ele>
        <time>2024-10-08T13:10:56Z</time>
      </trkpt>
      <trkpt lat="45.82017" lon="1.28942">
        <ele>240.1</ele>
        <time>2024-10-08T13:10:59Z</time>
      </trkpt>
      <trkpt lat="45.82027" lon="1.28963">
        <ele>239.5</ele>
        <time>2024-10-08T13:11:02Z</time>
      </trkpt>
      <trkpt lat="45.82035" lon="1.28983">
        <ele>239.5</ele>
        <time>2024-10-08T13:11:05Z</time>
      </trkpt>
      <trkpt lat="45.82039" lon="1.28997">
        <ele>239.7</ele>
        <time>2024-10-08T13:11:08Z</time>
      </trkpt>
      <trkpt lat="45.82043" lon="1.29009">
        <ele>239.8</ele>
        <time>2024-10-08T13:11:11Z</time>
      </trkpt>
      <trkpt lat="45.82043" lon="1.29008">
        <ele>239.8</ele>
        <time>2024-10-08T13:11:14Z</time>
      </trkpt>
      <trkpt lat="45.82044" lon="1.29009">
        <ele>239.8</ele>
        <time>2024-10-08T13:11:17Z</time>
      </trkpt>
      <trkpt lat="45.82045" lon="1.29011">
        <ele>239.8</ele>
        <time>2024-10-08T13:11:20Z</time>
      </trkpt>
      <trkpt lat="45.82056" lon="1.29048">
        <ele>240.2</ele>
        <time>2024-10-08T13:11:23Z</time>
      </trkpt>
      <trkpt lat="45.82059" lon="1.29076">
        <ele>240.7</ele>
        <time>2024-10-08T13:11:26Z</time>
      </trkpt>
      <trkpt lat="45.82058" lon="1.29103">
        <ele>241.4</ele>
        <time>2024-10-08T13:11:28Z</time>
      </trkpt>
      <trkpt lat="45.82057" lon="1.29126">
        <ele>241.8</ele>
        <time>2024-10-08T13:11:31Z</time>
      </trkpt>
      <trkpt lat="45.82059" lon="1.29142">
        <ele>242</ele>
        <time>2024-10-08T13:11:34Z</time>
      </trkpt>
      <trkpt lat="45.82061" lon="1.29159">
        <ele>242.3</ele>
        <time>2024-10-08T13:11:37Z</time>
      </trkpt>
      <trkpt lat="45.82068" lon="1.29166">
        <ele>242.5</ele>
        <time>2024-10-08T13:11:40Z</time>
      </trkpt>
      <trkpt lat="45.82077" lon="1.29161">
        <ele>242.6</ele>
        <time>2024-10-08T13:11:43Z</time>
      </trkpt>
      <trkpt lat="45.82086" lon="1.29152">
        <ele>242.7</ele>
        <time>2024-10-08T13:11:46Z</time>
      </trkpt>
      <trkpt lat="45.82094" lon="1.29143">
        <ele>243</ele>
        <time>2024-10-08T13:11:49Z</time>
      </trkpt>
      <trkpt lat="45.821" lon="1.29132">
        <ele>243.4</ele>
        <time>2024-10-08T13:11:52Z</time>
      </trkpt>
      <trkpt lat="45.82106" lon="1.29121">
        <ele>243.9</ele>
        <time>2024-10-08T13:11:56Z</time>
      </trkpt>
      <trkpt lat="45.82111" lon="1.29111">
        <ele>244.6</ele>
        <time>2024-10-08T13:11:58Z</time>
      </trkpt>
      <trkpt lat="45.82118" lon="1.29104">
        <ele>245.3</ele>
        <time>2024-10-08T13:12:02Z</time>
      </trkpt>
      <trkpt lat="45.82126" lon="1.29106">
        <ele>247.1</ele>
        <time>2024-10-08T13:12:05Z</time>
      </trkpt>
      <trkpt lat="45.82131" lon="1.29115">
        <ele>248</ele>
        <time>2024-10-08T13:12:08Z</time>
      </trkpt>
      <trkpt lat="45.82133" lon="1.29122">
        <ele>248.7</ele>
        <time>2024-10-08T13:12:11Z</time>
      </trkpt>
      <trkpt lat="45.82135" lon="1.29129">
        <ele>249.4</ele>
        <time>2024-10-08T13:12:14Z</time>
      </trkpt>
      <trkpt lat="45.82137" lon="1.29136">
        <ele>250.1</ele>
        <time>2024-10-08T13:12:17Z</time>
      </trkpt>
      <trkpt lat="45.82141" lon="1.29146">
        <ele>251.1</ele>
        <time>2024-10-08T13:12:20Z</time>
      </trkpt>
      <trkpt lat="45.82146" lon="1.29156">
        <ele>252.1</ele>
        <time>2024-10-08T13:12:23Z</time>
      </trkpt>
      <trkpt lat="45.82149" lon="1.29167">
        <ele>253</ele>
        <time>2024-10-08T13:12:26Z</time>
      </trkpt>
      <trkpt lat="45.82152" lon="1.29177">
        <ele>253.8</ele>
        <time>2024-10-08T13:12:29Z</time>
      </trkpt>
      <trkpt lat="45.82156" lon="1.29186">
        <ele>254.7</ele>
        <time>2024-10-08T13:12:32Z</time>
      </trkpt>
      <trkpt lat="45.8216" lon="1.29196">
        <ele>255.6</ele>
        <time>2024-10-08T13:12:35Z</time>
      </trkpt>
      <trkpt lat="45.82164" lon="1.29207">
        <ele>256.7</ele>
        <time>2024-10-08T13:12:38Z</time>
      </trkpt>
      <trkpt lat="45.82169" lon="1.29218">
        <ele>257.8</ele>
        <time>2024-10-08T13:12:41Z</time>
      </trkpt>
      <trkpt lat="45.82174" lon="1.29228">
        <ele>258.8</ele>
        <time>2024-10-08T13:12:44Z</time>
      </trkpt>
      <trkpt lat="45.82179" lon="1.29239">
        <ele>259.9</ele>
        <time>2024-10-08T13:12:46Z</time>
      </trkpt>
      <trkpt lat="45.82186" lon="1.2925">
        <ele>261</ele>
        <time>2024-10-08T13:12:50Z</time>
      </trkpt>
      <trkpt lat="45.82192" lon="1.29262">
        <ele>261.9</ele>
        <time>2024-10-08T13:12:53Z</time>
      </trkpt>
      <trkpt lat="45.82196" lon="1.29273">
        <ele>262.6</ele>
        <time>2024-10-08T13:12:55Z</time>
      </trkpt>
      <trkpt lat="45.822" lon="1.29281">
        <ele>263.2</ele>
        <time>2024-10-08T13:12:58Z</time>
      </trkpt>
      <trkpt lat="45.82207" lon="1.2929">
        <ele>263.9</ele>
        <time>2024-10-08T13:13:01Z</time>
      </trkpt>
      <trkpt lat="45.82214" lon="1.293">
        <ele>264.6</ele>
        <time>2024-10-08T13:13:04Z</time>
      </trkpt>
      <trkpt lat="45.8222" lon="1.2931">
        <ele>265.5</ele>
        <time>2024-10-08T13:13:07Z</time>
      </trkpt>
      <trkpt lat="45.82226" lon="1.2932">
        <ele>266.3</ele>
        <time>2024-10-08T13:13:10Z</time>
      </trkpt>
      <trkpt lat="45.82232" lon="1.29329">
        <ele>267.2</ele>
        <time>2024-10-08T13:13:13Z</time>
      </trkpt>
      <trkpt lat="45.82239" lon="1.29337">
        <ele>267.9</ele>
        <time>2024-10-08T13:13:17Z</time>
      </trkpt>
      <trkpt lat="45.82246" lon="1.29347">
        <ele>268.7</ele>
        <time>2024-10-08T13:13:20Z</time>
      </trkpt>
      <trkpt lat="45.82252" lon="1.29355">
        <ele>269.4</ele>
        <time>2024-10-08T13:13:23Z</time>
      </trkpt>
      <trkpt lat="45.82257" lon="1.29363">
        <ele>270</ele>
        <time>2024-10-08T13:13:26Z</time>
      </trkpt>
      <trkpt lat="45.82264" lon="1.29368">
        <ele>270.7</ele>
        <time>2024-10-08T13:13:29Z</time>
      </trkpt>
      <trkpt lat="45.82268" lon="1.29375">
        <ele>271.3</ele>
        <time>2024-10-08T13:13:32Z</time>
      </trkpt>
      <trkpt lat="45.82274" lon="1.29383">
        <ele>272</ele>
        <time>2024-10-08T13:13:35Z</time>
      </trkpt>
      <trkpt lat="45.8228" lon="1.29392">
        <ele>272.7</ele>
        <time>2024-10-08T13:13:38Z</time>
      </trkpt>
      <trkpt lat="45.82286" lon="1.29402">
        <ele>273.4</ele>
        <time>2024-10-08T13:13:41Z</time>
      </trkpt>
      <trkpt lat="45.82292" lon="1.29411">
        <ele>274</ele>
        <time>2024-10-08T13:13:44Z</time>
      </trkpt>
      <trkpt lat="45.82298" lon="1.29419">
        <ele>274.7</ele>
        <time>2024-10-08T13:13:47Z</time>
      </trkpt>
      <trkpt lat="45.82306" lon="1.29427">
        <ele>275.5</ele>
        <time>2024-10-08T13:13:50Z</time>
      </trkpt>
      <trkpt lat="45.82313" lon="1.29437">
        <ele>276.3</ele>
        <time>2024-10-08T13:13:53Z</time>
      </trkpt>
      <trkpt lat="45.8232" lon="1.29445">
        <ele>277.2</ele>
        <time>2024-10-08T13:13:56Z</time>
      </trkpt>
      <trkpt lat="45.82327" lon="1.29455">
        <ele>278.1</ele>
        <time>2024-10-08T13:13:59Z</time>
      </trkpt>
      <trkpt lat="45.82334" lon="1.29462">
        <ele>278.8</ele>
        <time>2024-10-08T13:14:02Z</time>
      </trkpt>
      <trkpt lat="45.82332" lon="1.29471">
        <ele>278.7</ele>
        <time>2024-10-08T13:14:05Z</time>
      </trkpt>
      <trkpt lat="45.82323" lon="1.29475">
        <ele>278.1</ele>
        <time>2024-10-08T13:14:08Z</time>
      </trkpt>
      <trkpt lat="45.82312" lon="1.29481">
        <ele>276.9</ele>
        <time>2024-10-08T13:14:11Z</time>
      </trkpt>
      <trkpt lat="45.82305" lon="1.29489">
        <ele>275.6</ele>
        <time>2024-10-08T13:14:13Z</time>
      </trkpt>
      <trkpt lat="45.82301" lon="1.29499">
        <ele>274.4</ele>
        <time>2024-10-08T13:14:16Z</time>
      </trkpt>
      <trkpt lat="45.82296" lon="1.29514">
        <ele>272.9</ele>
        <time>2024-10-08T13:14:19Z</time>
      </trkpt>
      <trkpt lat="45.82292" lon="1.29527">
        <ele>271.7</ele>
        <time>2024-10-08T13:14:22Z</time>
      </trkpt>
      <trkpt lat="45.8229" lon="1.29542">
        <ele>270.5</ele>
        <time>2024-10-08T13:14:25Z</time>
      </trkpt>
      <trkpt lat="45.82287" lon="1.2956">
        <ele>268.9</ele>
        <time>2024-10-08T13:14:28Z</time>
      </trkpt>
      <trkpt lat="45.82282" lon="1.29582">
        <ele>267.2</ele>
        <time>2024-10-08T13:14:31Z</time>
      </trkpt>
      <trkpt lat="45.82278" lon="1.29599">
        <ele>266.1</ele>
        <time>2024-10-08T13:14:34Z</time>
      </trkpt>
      <trkpt lat="45.82276" lon="1.29617">
        <ele>264.9</ele>
        <time>2024-10-08T13:14:37Z</time>
      </trkpt>
      <trkpt lat="45.82271" lon="1.2963">
        <ele>263.8</ele>
        <time>2024-10-08T13:14:40Z</time>
      </trkpt>
      <trkpt lat="45.82269" lon="1.29641">
        <ele>262.7</ele>
        <time>2024-10-08T13:14:43Z</time>
      </trkpt>
      <trkpt lat="45.82268" lon="1.29652">
        <ele>261.6</ele>
        <time>2024-10-08T13:14:47Z</time>
      </trkpt>
      <trkpt lat="45.82264" lon="1.29668">
        <ele>260</ele>
        <time>2024-10-08T13:14:50Z</time>
      </trkpt>
      <trkpt lat="45.8226" lon="1.29684">
        <ele>258.6</ele>
        <time>2024-10-08T13:14:53Z</time>
      </trkpt>
      <trkpt lat="45.82252" lon="1.29694">
        <ele>257.4</ele>
        <time>2024-10-08T13:14:56Z</time>
      </trkpt>
      <trkpt lat="45.8224" lon="1.29705">
        <ele>256.1</ele>
        <time>2024-10-08T13:14:59Z</time>
      </trkpt>
      <trkpt lat="45.82229" lon="1.29725">
        <ele>254.8</ele>
        <time>2024-10-08T13:15:02Z</time>
      </trkpt>
      <trkpt lat="45.82221" lon="1.29741">
        <ele>254.2</ele>
        <time>2024-10-08T13:15:05Z</time>
      </trkpt>
      <trkpt lat="45.82219" lon="1.29759">
        <ele>253.7</ele>
        <time>2024-10-08T13:15:08Z</time>
      </trkpt>
      <trkpt lat="45.82214" lon="1.29782">
        <ele>253.1</ele>
        <time>2024-10-08T13:15:11Z</time>
      </trkpt>
      <trkpt lat="45.82208" lon="1.29804">
        <ele>252.2</ele>
        <time>2024-10-08T13:15:14Z</time>
      </trkpt>
      <trkpt lat="45.82205" lon="1.29822">
        <ele>251.5</ele>
        <time>2024-10-08T13:15:17Z</time>
      </trkpt>
      <trkpt lat="45.82202" lon="1.29831">
        <ele>251</ele>
        <time>2024-10-08T13:15:20Z</time>
      </trkpt>
      <trkpt lat="45.822" lon="1.29834">
        <ele>251</ele>
        <time>2024-10-08T13:15:23Z</time>
      </trkpt>
      <trkpt lat="45.82202" lon="1.29838">
        <ele>250.9</ele>
        <time>2024-10-08T13:15:26Z</time>
      </trkpt>
      <trkpt lat="45.82205" lon="1.29846">
        <ele>250.8</ele>
        <time>2024-10-08T13:15:29Z</time>
      </trkpt>
      <trkpt lat="45.82206" lon="1.29859">
        <ele>250.7</ele>
        <time>2024-10-08T13:15:32Z</time>
      </trkpt>
      <trkpt lat="45.82209" lon="1.29876">
        <ele>250.7</ele>
        <time>2024-10-08T13:15:35Z</time>
      </trkpt>
      <trkpt lat="45.82212" lon="1.29895">
        <ele>250.9</ele>
        <time>2024-10-08T13:15:37Z</time>
      </trkpt>
      <trkpt lat="45.82215" lon="1.29915">
        <ele>251.3</ele>
        <time>2024-10-08T13:15:40Z</time>
      </trkpt>
      <trkpt lat="45.82223" lon="1.29928">
        <ele>251.7</ele>
        <time>2024-10-08T13:15:43Z</time>
      </trkpt>
      <trkpt lat="45.82231" lon="1.2994">
        <ele>252.2</ele>
        <time>2024-10-08T13:15:46Z</time>
      </trkpt>
      <trkpt lat="45.82237" lon="1.29953">
        <ele>252.5</ele>
        <time>2024-10-08T13:15:49Z</time>
      </trkpt>
      <trkpt lat="45.8224" lon="1.29969">
        <ele>252.7</ele>
        <time>2024-10-08T13:15:52Z</time>
      </trkpt>
      <trkpt lat="45.8224" lon="1.29986">
        <ele>252.8</ele>
        <time>2024-10-08T13:15:55Z</time>
      </trkpt>
      <trkpt lat="45.82239" lon="1.30003">
        <ele>252.8</ele>
        <time>2024-10-08T13:15:58Z</time>
      </trkpt>
      <trkpt lat="45.82237" lon="1.30019">
        <ele>252.8</ele>
        <time>2024-10-08T13:16:01Z</time>
      </trkpt>
      <trkpt lat="45.82237" lon="1.30038">
        <ele>253</ele>
        <time>2024-10-08T13:16:04Z</time>
      </trkpt>
      <trkpt lat="45.82237" lon="1.30053">
        <ele>253.3</ele>
        <time>2024-10-08T13:16:08Z</time>
      </trkpt>
      <trkpt lat="45.82237" lon="1.30068">
        <ele>253.5</ele>
        <time>2024-10-08T13:16:11Z</time>
      </trkpt>
      <trkpt lat="45.82233" lon="1.30084">
        <ele>253.7</ele>
        <time>2024-10-08T13:16:14Z</time>
      </trkpt>
      <trkpt lat="45.82227" lon="1.30098">
        <ele>253.7</ele>
        <time>2024-10-08T13:16:17Z</time>
      </trkpt>
      <trkpt lat="45.82219" lon="1.30114">
        <ele>253.8</ele>
        <time>2024-10-08T13:16:20Z</time>
      </trkpt>
      <trkpt lat="45.8221" lon="1.30128">
        <ele>254</ele>
        <time>2024-10-08T13:16:23Z</time>
      </trkpt>
      <trkpt lat="45.82202" lon="1.3014">
        <ele>254.2</ele>
        <time>2024-10-08T13:16:26Z</time>
      </trkpt>
      <trkpt lat="45.82193" lon="1.30153">
        <ele>254.4</ele>
        <time>2024-10-08T13:16:29Z</time>
      </trkpt>
      <trkpt lat="45.82185" lon="1.30168">
        <ele>254.8</ele>
        <time>2024-10-08T13:16:32Z</time>
      </trkpt>
      <trkpt lat="45.82179" lon="1.30183">
        <ele>255</ele>
        <time>2024-10-08T13:16:35Z</time>
      </trkpt>
      <trkpt lat="45.82176" lon="1.30199">
        <ele>255.2</ele>
        <time>2024-10-08T13:16:38Z</time>
      </trkpt>
      <trkpt lat="45.82178" lon="1.30214">
        <ele>255.5</ele>
        <time>2024-10-08T13:16:41Z</time>
      </trkpt>
      <trkpt lat="45.82182" lon="1.30225">
        <ele>255.6</ele>
        <time>2024-10-08T13:16:44Z</time>
      </trkpt>
      <trkpt lat="45.82186" lon="1.30237">
        <ele>255.9</ele>
        <time>2024-10-08T13:16:47Z</time>
      </trkpt>
      <trkpt lat="45.82192" lon="1.30254">
        <ele>256.4</ele>
        <time>2024-10-08T13:16:50Z</time>
      </trkpt>
      <trkpt lat="45.82197" lon="1.30273">
        <ele>256.9</ele>
        <time>2024-10-08T13:16:53Z</time>
      </trkpt>
      <trkpt lat="45.82201" lon="1.30289">
        <ele>257.5</ele>
        <time>2024-10-08T13:16:56Z</time>
      </trkpt>
      <trkpt lat="45.82205" lon="1.30306">
        <ele>258</ele>
        <time>2024-10-08T13:16:59Z</time>
      </trkpt>
      <trkpt lat="45.82206" lon="1.30323">
        <ele>258.5</ele>
        <time>2024-10-08T13:17:02Z</time>
      </trkpt>
      <trkpt lat="45.82205" lon="1.30336">
        <ele>258.9</ele>
        <time>2024-10-08T13:17:04Z</time>
      </trkpt>
      <trkpt lat="45.82201" lon="1.3035">
        <ele>259.5</ele>
        <time>2024-10-08T13:17:07Z</time>
      </trkpt>
      <trkpt lat="45.82198" lon="1.3036">
        <ele>260.1</ele>
        <time>2024-10-08T13:17:10Z</time>
      </trkpt>
      <trkpt lat="45.82198" lon="1.30369">
        <ele>260.5</ele>
        <time>2024-10-08T13:17:13Z</time>
      </trkpt>
      <trkpt lat="45.82198" lon="1.30383">
        <ele>261.3</ele>
        <time>2024-10-08T13:17:16Z</time>
      </trkpt>
      <trkpt lat="45.82198" lon="1.30394">
        <ele>261.9</ele>
        <time>2024-10-08T13:17:19Z</time>
      </trkpt>
      <trkpt lat="45.82199" lon="1.30406">
        <ele>262.6</ele>
        <time>2024-10-08T13:17:22Z</time>
      </trkpt>
      <trkpt lat="45.82199" lon="1.30415">
        <ele>263.1</ele>
        <time>2024-10-08T13:17:25Z</time>
      </trkpt>
      <trkpt lat="45.82201" lon="1.30426">
        <ele>263.7</ele>
        <time>2024-10-08T13:17:28Z</time>
      </trkpt>
      <trkpt lat="45.82202" lon="1.30439">
        <ele>264.1</ele>
        <time>2024-10-08T13:17:31Z</time>
      </trkpt>
      <trkpt lat="45.82207" lon="1.30451">
        <ele>264.3</ele>
        <time>2024-10-08T13:17:34Z</time>
      </trkpt>
      <trkpt lat="45.82214" lon="1.3046">
        <ele>264.2</ele>
        <time>2024-10-08T13:17:37Z</time>
      </trkpt>
      <trkpt lat="45.82226" lon="1.3047">
        <ele>264</ele>
        <time>2024-10-08T13:17:41Z</time>
      </trkpt>
      <trkpt lat="45.82237" lon="1.30485">
        <ele>263.9</ele>
        <time>2024-10-08T13:17:44Z</time>
      </trkpt>
      <trkpt lat="45.82248" lon="1.30503">
        <ele>263.7</ele>
        <time>2024-10-08T13:17:47Z</time>
      </trkpt>
      <trkpt lat="45.82258" lon="1.30519">
        <ele>263.6</ele>
        <time>2024-10-08T13:17:50Z</time>
      </trkpt>
      <trkpt lat="45.82266" lon="1.30533">
        <ele>263.5</ele>
        <time>2024-10-08T13:17:53Z</time>
      </trkpt>
      <trkpt lat="45.82274" lon="1.30549">
        <ele>263.4</ele>
        <time>2024-10-08T13:17:56Z</time>
      </trkpt>
      <trkpt lat="45.82278" lon="1.30565">
        <ele>263.4</ele>
        <time>2024-10-08T13:17:59Z</time>
      </trkpt>
      <trkpt lat="45.8228" lon="1.30584">
        <ele>263.2</ele>
        <time>2024-10-08T13:18:02Z</time>
      </trkpt>
      <trkpt lat="45.82281" lon="1.30611">
        <ele>262.6</ele>
        <time>2024-10-08T13:18:05Z</time>
      </trkpt>
      <trkpt lat="45.8228" lon="1.30633">
        <ele>262.8</ele>
        <time>2024-10-08T13:18:08Z</time>
      </trkpt>
      <trkpt lat="45.82277" lon="1.30653">
        <ele>262.9</ele>
        <time>2024-10-08T13:18:11Z</time>
      </trkpt>
      <trkpt lat="45.82273" lon="1.30671">
        <ele>262.9</ele>
        <time>2024-10-08T13:18:14Z</time>
      </trkpt>
      <trkpt lat="45.82269" lon="1.30687">
        <ele>262.8</ele>
        <time>2024-10-08T13:18:17Z</time>
      </trkpt>
      <trkpt lat="45.82261" lon="1.30703">
        <ele>262.6</ele>
        <time>2024-10-08T13:18:20Z</time>
      </trkpt>
      <trkpt lat="45.82249" lon="1.30721">
        <ele>262.4</ele>
        <time>2024-10-08T13:18:23Z</time>
      </trkpt>
      <trkpt lat="45.82239" lon="1.30744">
        <ele>262.4</ele>
        <time>2024-10-08T13:18:26Z</time>
      </trkpt>
      <trkpt lat="45.82236" lon="1.30763">
        <ele>262.6</ele>
        <time>2024-10-08T13:18:28Z</time>
      </trkpt>
      <trkpt lat="45.82228" lon="1.30786">
        <ele>262.9</ele>
        <time>2024-10-08T13:18:32Z</time>
      </trkpt>
      <trkpt lat="45.82223" lon="1.30806">
        <ele>263.2</ele>
        <time>2024-10-08T13:18:34Z</time>
      </trkpt>
      <trkpt lat="45.8222" lon="1.3083">
        <ele>263.6</ele>
        <time>2024-10-08T13:18:37Z</time>
      </trkpt>
      <trkpt lat="45.82223" lon="1.30845">
        <ele>264.1</ele>
        <time>2024-10-08T13:18:40Z</time>
      </trkpt>
      <trkpt lat="45.82227" lon="1.30853">
        <ele>264.5</ele>
        <time>2024-10-08T13:18:43Z</time>
      </trkpt>
      <trkpt lat="45.8223" lon="1.30857">
        <ele>264.8</ele>
        <time>2024-10-08T13:18:46Z</time>
      </trkpt>
      <trkpt lat="45.82231" lon="1.30857">
        <ele>264.8</ele>
        <time>2024-10-08T13:18:49Z</time>
      </trkpt>
      <trkpt lat="45.82232" lon="1.30858">
        <ele>264.8</ele>
        <time>2024-10-08T13:18:52Z</time>
      </trkpt>
      <trkpt lat="45.82231" lon="1.30858">
        <ele>264.9</ele>
        <time>2024-10-08T13:18:55Z</time>
      </trkpt>
      <trkpt lat="45.8223" lon="1.3086">
        <ele>265</ele>
        <time>2024-10-08T13:18:59Z</time>
      </trkpt>
      <trkpt lat="45.82229" lon="1.3086">
        <ele>265.1</ele>
        <time>2024-10-08T13:19:02Z</time>
      </trkpt>
      <trkpt lat="45.82229" lon="1.30864">
        <ele>265.2</ele>
        <time>2024-10-08T13:19:05Z</time>
      </trkpt>
      <trkpt lat="45.82231" lon="1.30867">
        <ele>265.4</ele>
        <time>2024-10-08T13:19:08Z</time>
      </trkpt>
      <trkpt lat="45.82232" lon="1.30876">
        <ele>265.8</ele>
        <time>2024-10-08T13:19:11Z</time>
      </trkpt>
      <trkpt lat="45.82233" lon="1.30883">
        <ele>266.1</ele>
        <time>2024-10-08T13:19:14Z</time>
      </trkpt>
      <trkpt lat="45.82233" lon="1.30894">
        <ele>266.3</ele>
        <time>2024-10-08T13:19:17Z</time>
      </trkpt>
      <trkpt lat="45.82237" lon="1.30904">
        <ele>266.4</ele>
        <time>2024-10-08T13:19:20Z</time>
      </trkpt>
      <trkpt lat="45.82245" lon="1.30912">
        <ele>266.6</ele>
        <time>2024-10-08T13:19:23Z</time>
      </trkpt>
      <trkpt lat="45.82254" lon="1.30919">
        <ele>266.8</ele>
        <time>2024-10-08T13:19:26Z</time>
      </trkpt>
      <trkpt lat="45.82263" lon="1.30923">
        <ele>266.9</ele>
        <time>2024-10-08T13:19:29Z</time>
      </trkpt>
      <trkpt lat="45.82275" lon="1.30927">
        <ele>267.1</ele>
        <time>2024-10-08T13:19:32Z</time>
      </trkpt>
      <trkpt lat="45.82283" lon="1.30932">
        <ele>267.3</ele>
        <time>2024-10-08T13:19:35Z</time>
      </trkpt>
      <trkpt lat="45.82284" lon="1.30936">
        <ele>267.5</ele>
        <time>2024-10-08T13:19:38Z</time>
      </trkpt>
      <trkpt lat="45.82289" lon="1.30942">
        <ele>267.7</ele>
        <time>2024-10-08T13:19:41Z</time>
      </trkpt>
      <trkpt lat="45.82296" lon="1.30946">
        <ele>268.1</ele>
        <time>2024-10-08T13:19:44Z</time>
      </trkpt>
      <trkpt lat="45.82304" lon="1.3095">
        <ele>268.6</ele>
        <time>2024-10-08T13:19:46Z</time>
      </trkpt>
      <trkpt lat="45.8231" lon="1.30953">
        <ele>269</ele>
        <time>2024-10-08T13:19:50Z</time>
      </trkpt>
      <trkpt lat="45.82315" lon="1.30958">
        <ele>269.5</ele>
        <time>2024-10-08T13:19:53Z</time>
      </trkpt>
      <trkpt lat="45.82323" lon="1.30964">
        <ele>269.9</ele>
        <time>2024-10-08T13:19:55Z</time>
      </trkpt>
      <trkpt lat="45.82337" lon="1.30976">
        <ele>270.2</ele>
        <time>2024-10-08T13:19:58Z</time>
      </trkpt>
      <trkpt lat="45.82349" lon="1.30987">
        <ele>270.3</ele>
        <time>2024-10-08T13:20:01Z</time>
      </trkpt>
      <trkpt lat="45.82363" lon="1.30998">
        <ele>270.5</ele>
        <time>2024-10-08T13:20:04Z</time>
      </trkpt>
      <trkpt lat="45.82371" lon="1.31009">
        <ele>270.5</ele>
        <time>2024-10-08T13:20:07Z</time>
      </trkpt>
      <trkpt lat="45.82381" lon="1.31026">
        <ele>270.6</ele>
        <time>2024-10-08T13:20:10Z</time>
      </trkpt>
      <trkpt lat="45.82388" lon="1.3104">
        <ele>270.7</ele>
        <time>2024-10-08T13:20:13Z</time>
      </trkpt>
      <trkpt lat="45.82399" lon="1.31051">
        <ele>271</ele>
        <time>2024-10-08T13:20:16Z</time>
      </trkpt>
      <trkpt lat="45.82407" lon="1.31054">
        <ele>271.4</ele>
        <time>2024-10-08T13:20:19Z</time>
      </trkpt>
      <trkpt lat="45.82414" lon="1.31055">
        <ele>271.8</ele>
        <time>2024-10-08T13:20:22Z</time>
      </trkpt>
      <trkpt lat="45.82422" lon="1.3106">
        <ele>272.3</ele>
        <time>2024-10-08T13:20:26Z</time>
      </trkpt>
      <trkpt lat="45.8243" lon="1.31069">
        <ele>272.9</ele>
        <time>2024-10-08T13:20:29Z</time>
      </trkpt>
      <trkpt lat="45.82437" lon="1.31079">
        <ele>273.4</ele>
        <time>2024-10-08T13:20:32Z</time>
      </trkpt>
      <trkpt lat="45.82444" lon="1.31088">
        <ele>273.7</ele>
        <time>2024-10-08T13:20:35Z</time>
      </trkpt>
      <trkpt lat="45.82456" lon="1.31101">
        <ele>274.1</ele>
        <time>2024-10-08T13:20:38Z</time>
      </trkpt>
      <trkpt lat="45.82469" lon="1.3111">
        <ele>274.3</ele>
        <time>2024-10-08T13:20:41Z</time>
      </trkpt>
      <trkpt lat="45.82481" lon="1.31117">
        <ele>274.5</ele>
        <time>2024-10-08T13:20:44Z</time>
      </trkpt>
      <trkpt lat="45.8249" lon="1.31126">
        <ele>274.7</ele>
        <time>2024-10-08T13:20:47Z</time>
      </trkpt>
      <trkpt lat="45.82493" lon="1.31138">
        <ele>274.7</ele>
        <time>2024-10-08T13:20:50Z</time>
      </trkpt>
      <trkpt lat="45.82494" lon="1.31152">
        <ele>274.4</ele>
        <time>2024-10-08T13:20:53Z</time>
      </trkpt>
      <trkpt lat="45.82495" lon="1.31168">
        <ele>273.5</ele>
        <time>2024-10-08T13:20:56Z</time>
      </trkpt>
      <trkpt lat="45.82497" lon="1.31183">
        <ele>272.8</ele>
        <time>2024-10-08T13:20:59Z</time>
      </trkpt>
      <trkpt lat="45.82504" lon="1.31195">
        <ele>272.4</ele>
        <time>2024-10-08T13:21:02Z</time>
      </trkpt>
      <trkpt lat="45.82511" lon="1.31205">
        <ele>272.2</ele>
        <time>2024-10-08T13:21:05Z</time>
      </trkpt>
      <trkpt lat="45.82513" lon="1.31211">
        <ele>272.1</ele>
        <time>2024-10-08T13:21:08Z</time>
      </trkpt>
      <trkpt lat="45.82515" lon="1.31212">
        <ele>272.1</ele>
        <time>2024-10-08T13:21:11Z</time>
      </trkpt>
      <trkpt lat="45.82515" lon="1.31212">
        <ele>272.1</ele>
        <time>2024-10-08T13:21:14Z</time>
      </trkpt>
      <trkpt lat="45.82516" lon="1.31211">
        <ele>272.1</ele>
        <time>2024-10-08T13:21:17Z</time>
      </trkpt>
      <trkpt lat="45.82516" lon="1.31211">
        <ele>272.1</ele>
        <time>2024-10-08T13:21:20Z</time>
      </trkpt>
      <trkpt lat="45.82516" lon="1.31212">
        <ele>272.1</ele>
        <time>2024-10-08T13:21:22Z</time>
      </trkpt>
      <trkpt lat="45.82516" lon="1.31212">
        <ele>272.1</ele>
        <time>2024-10-08T13:21:25Z</time>
      </trkpt>
      <trkpt lat="45.82516" lon="1.31212">
        <ele>272.1</ele>
        <time>2024-10-08T13:21:28Z</time>
      </trkpt>
      <trkpt lat="45.82518" lon="1.31213">
        <ele>272.1</ele>
        <time>2024-10-08T13:21:31Z</time>
      </trkpt>
      <trkpt lat="45.82518" lon="1.31212">
        <ele>272.1</ele>
        <time>2024-10-08T13:21:34Z</time>
      </trkpt>
      <trkpt lat="45.82517" lon="1.31211">
        <ele>272.1</ele>
        <time>2024-10-08T13:21:37Z</time>
      </trkpt>
      <trkpt lat="45.82517" lon="1.31213">
        <ele>272.1</ele>
        <time>2024-10-08T13:21:40Z</time>
      </trkpt>
      <trkpt lat="45.82517" lon="1.31213">
        <ele>272.1</ele>
        <time>2024-10-08T13:21:43Z</time>
      </trkpt>
      <trkpt lat="45.82516" lon="1.31213">
        <ele>272.1</ele>
        <time>2024-10-08T13:21:46Z</time>
      </trkpt>
      <trkpt lat="45.82514" lon="1.3121">
        <ele>272.1</ele>
        <time>2024-10-08T13:21:50Z</time>
      </trkpt>
      <trkpt lat="45.82508" lon="1.31199">
        <ele>272.3</ele>
        <time>2024-10-08T13:21:52Z</time>
      </trkpt>
      <trkpt lat="45.825" lon="1.31193">
        <ele>272.5</ele>
        <time>2024-10-08T13:21:56Z</time>
      </trkpt>
      <trkpt lat="45.82495" lon="1.3119">
        <ele>272.7</ele>
        <time>2024-10-08T13:21:59Z</time>
      </trkpt>
      <trkpt lat="45.82494" lon="1.3119">
        <ele>272.8</ele>
        <time>2024-10-08T13:22:02Z</time>
      </trkpt>
      <trkpt lat="45.82492" lon="1.31191">
        <ele>272.8</ele>
        <time>2024-10-08T13:22:05Z</time>
      </trkpt>
      <trkpt lat="45.82486" lon="1.31191">
        <ele>269.5</ele>
        <time>2024-10-08T13:22:08Z</time>
      </trkpt>
      <trkpt lat="45.82482" lon="1.31198">
        <ele>269.4</ele>
        <time>2024-10-08T13:22:11Z</time>
      </trkpt>
      <trkpt lat="45.82481" lon="1.312">
        <ele>269.4</ele>
        <time>2024-10-08T13:22:14Z</time>
      </trkpt>
      <trkpt lat="45.82479" lon="1.31202">
        <ele>269.4</ele>
        <time>2024-10-08T13:22:17Z</time>
      </trkpt>
      <trkpt lat="45.82477" lon="1.31205">
        <ele>269.4</ele>
        <time>2024-10-08T13:22:20Z</time>
      </trkpt>
      <trkpt lat="45.82475" lon="1.31207">
        <ele>269.4</ele>
        <time>2024-10-08T13:22:23Z</time>
      </trkpt>
      <trkpt lat="45.82474" lon="1.31209">
        <ele>269.4</ele>
        <time>2024-10-08T13:22:26Z</time>
      </trkpt>
      <trkpt lat="45.82472" lon="1.31211">
        <ele>269.4</ele>
        <time>2024-10-08T13:22:29Z</time>
      </trkpt>
      <trkpt lat="45.8247" lon="1.31213">
        <ele>269.4</ele>
        <time>2024-10-08T13:22:32Z</time>
      </trkpt>
      <trkpt lat="45.82469" lon="1.31216">
        <ele>269.5</ele>
        <time>2024-10-08T13:22:35Z</time>
      </trkpt>
      <trkpt lat="45.82467" lon="1.31218">
        <ele>269.5</ele>
        <time>2024-10-08T13:22:38Z</time>
      </trkpt>
      <trkpt lat="45.82465" lon="1.3122">
        <ele>269.6</ele>
        <time>2024-10-08T13:22:41Z</time>
      </trkpt>
      <trkpt lat="45.82464" lon="1.31222">
        <ele>269.6</ele>
        <time>2024-10-08T13:22:45Z</time>
      </trkpt>
      <trkpt lat="45.82462" lon="1.31225">
        <ele>269.7</ele>
        <time>2024-10-08T13:22:48Z</time>
      </trkpt>
      <trkpt lat="45.8246" lon="1.31227">
        <ele>269.8</ele>
        <time>2024-10-08T13:22:51Z</time>
      </trkpt>
      <trkpt lat="45.82458" lon="1.31229">
        <ele>269.9</ele>
        <time>2024-10-08T13:22:53Z</time>
      </trkpt>
      <trkpt lat="45.82457" lon="1.31231">
        <ele>270</ele>
        <time>2024-10-08T13:22:57Z</time>
      </trkpt>
      <trkpt lat="45.82455" lon="1.31234">
        <ele>270.1</ele>
        <time>2024-10-08T13:23:00Z</time>
      </trkpt>
      <trkpt lat="45.82453" lon="1.31236">
        <ele>270.2</ele>
        <time>2024-10-08T13:23:03Z</time>
      </trkpt>
      <trkpt lat="45.82452" lon="1.31238">
        <ele>270.4</ele>
        <time>2024-10-08T13:23:07Z</time>
      </trkpt>
      <trkpt lat="45.8245" lon="1.3124">
        <ele>270.5</ele>
        <time>2024-10-08T13:23:09Z</time>
      </trkpt>
      <trkpt lat="45.82448" lon="1.31243">
        <ele>270.7</ele>
        <time>2024-10-08T13:23:12Z</time>
      </trkpt>
      <trkpt lat="45.82446" lon="1.31245">
        <ele>270.8</ele>
        <time>2024-10-08T13:23:15Z</time>
      </trkpt>
      <trkpt lat="45.82445" lon="1.31247">
        <ele>271</ele>
        <time>2024-10-08T13:23:19Z</time>
      </trkpt>
      <trkpt lat="45.82443" lon="1.31249">
        <ele>271.2</ele>
        <time>2024-10-08T13:23:21Z</time>
      </trkpt>
      <trkpt lat="45.82441" lon="1.31252">
        <ele>271.4</ele>
        <time>2024-10-08T13:23:24Z</time>
      </trkpt>
      <trkpt lat="45.8244" lon="1.31254">
        <ele>271.7</ele>
        <time>2024-10-08T13:23:28Z</time>
      </trkpt>
      <trkpt lat="45.82438" lon="1.31256">
        <ele>271.9</ele>
        <time>2024-10-08T13:23:30Z</time>
      </trkpt>
      <trkpt lat="45.82436" lon="1.31258">
        <ele>272.1</ele>
        <time>2024-10-08T13:23:34Z</time>
      </trkpt>
      <trkpt lat="45.82435" lon="1.31261">
        <ele>272.4</ele>
        <time>2024-10-08T13:23:37Z</time>
      </trkpt>
      <trkpt lat="45.82433" lon="1.31263">
        <ele>272.7</ele>
        <time>2024-10-08T13:23:40Z</time>
      </trkpt>
      <trkpt lat="45.82431" lon="1.31265">
        <ele>273</ele>
        <time>2024-10-08T13:23:43Z</time>
      </trkpt>
      <trkpt lat="45.82429" lon="1.31267">
        <ele>273.3</ele>
        <time>2024-10-08T13:23:46Z</time>
      </trkpt>
      <trkpt lat="45.82428" lon="1.3127">
        <ele>273.6</ele>
        <time>2024-10-08T13:23:49Z</time>
      </trkpt>
      <trkpt lat="45.82426" lon="1.31272">
        <ele>273.9</ele>
        <time>2024-10-08T13:23:52Z</time>
      </trkpt>
      <trkpt lat="45.82424" lon="1.31274">
        <ele>274.3</ele>
        <time>2024-10-08T13:23:55Z</time>
      </trkpt>
      <trkpt lat="45.82423" lon="1.31276">
        <ele>274.6</ele>
        <time>2024-10-08T13:23:58Z</time>
      </trkpt>
      <trkpt lat="45.82421" lon="1.31279">
        <ele>275</ele>
        <time>2024-10-08T13:24:01Z</time>
      </trkpt>
      <trkpt lat="45.82419" lon="1.31281">
        <ele>275.3</ele>
        <time>2024-10-08T13:24:04Z</time>
      </trkpt>
      <trkpt lat="45.82418" lon="1.31283">
        <ele>275.7</ele>
        <time>2024-10-08T13:24:07Z</time>
      </trkpt>
      <trkpt lat="45.82416" lon="1.31285">
        <ele>276</ele>
        <time>2024-10-08T13:24:10Z</time>
      </trkpt>
      <trkpt lat="45.82414" lon="1.31287">
        <ele>276.3</ele>
        <time>2024-10-08T13:24:13Z</time>
      </trkpt>
      <trkpt lat="45.82412" lon="1.3129">
        <ele>276.7</ele>
        <time>2024-10-08T13:24:16Z</time>
      </trkpt>
      <trkpt lat="45.82411" lon="1.31292">
        <ele>277</ele>
        <time>2024-10-08T13:24:19Z</time>
      </trkpt>
      <trkpt lat="45.82409" lon="1.31294">
        <ele>277.3</ele>
        <time>2024-10-08T13:24:23Z</time>
      </trkpt>
      <trkpt lat="45.82407" lon="1.31296">
        <ele>277.6</ele>
        <time>2024-10-08T13:24:26Z</time>
      </trkpt>
      <trkpt lat="45.82406" lon="1.31299">
        <ele>278</ele>
        <time>2024-10-08T13:24:29Z</time>
      </trkpt>
      <trkpt lat="45.82404" lon="1.31301">
        <ele>278.3</ele>
        <time>2024-10-08T13:24:32Z</time>
      </trkpt>
      <trkpt lat="45.82402" lon="1.31303">
        <ele>278.6</ele>
        <time>2024-10-08T13:24:35Z</time>
      </trkpt>
      <trkpt lat="45.82401" lon="1.31305">
        <ele>278.9</ele>
        <time>2024-10-08T13:24:38Z</time>
      </trkpt>
      <trkpt lat="45.82399" lon="1.31308">
        <ele>279.2</ele>
        <time>2024-10-08T13:24:41Z</time>
      </trkpt>
      <trkpt lat="45.82397" lon="1.3131">
        <ele>279.5</ele>
        <time>2024-10-08T13:24:44Z</time>
      </trkpt>
      <trkpt lat="45.82395" lon="1.31312">
        <ele>279.8</ele>
        <time>2024-10-08T13:24:47Z</time>
      </trkpt>
      <trkpt lat="45.82394" lon="1.31314">
        <ele>280</ele>
        <time>2024-10-08T13:24:50Z</time>
      </trkpt>
      <trkpt lat="45.82392" lon="1.31317">
        <ele>280.3</ele>
        <time>2024-10-08T13:24:53Z</time>
      </trkpt>
      <trkpt lat="45.8239" lon="1.31319">
        <ele>280.6</ele>
        <time>2024-10-08T13:24:56Z</time>
      </trkpt>
      <trkpt lat="45.82389" lon="1.31321">
        <ele>280.9</ele>
        <time>2024-10-08T13:24:59Z</time>
      </trkpt>
      <trkpt lat="45.82387" lon="1.31323">
        <ele>281.2</ele>
        <time>2024-10-08T13:25:02Z</time>
      </trkpt>
      <trkpt lat="45.82385" lon="1.31326">
        <ele>281.5</ele>
        <time>2024-10-08T13:25:05Z</time>
      </trkpt>
      <trkpt lat="45.82383" lon="1.31328">
        <ele>281.8</ele>
        <time>2024-10-08T13:25:08Z</time>
      </trkpt>
      <trkpt lat="45.82382" lon="1.3133">
        <ele>282.1</ele>
        <time>2024-10-08T13:25:11Z</time>
      </trkpt>
      <trkpt lat="45.8238" lon="1.31332">
        <ele>282.4</ele>
        <time>2024-10-08T13:25:14Z</time>
      </trkpt>
      <trkpt lat="45.82378" lon="1.31335">
        <ele>282.7</ele>
        <time>2024-10-08T13:25:17Z</time>
      </trkpt>
      <trkpt lat="45.82377" lon="1.31337">
        <ele>283</ele>
        <time>2024-10-08T13:25:20Z</time>
      </trkpt>
      <trkpt lat="45.82375" lon="1.31339">
        <ele>283.4</ele>
        <time>2024-10-08T13:25:23Z</time>
      </trkpt>
      <trkpt lat="45.82373" lon="1.31341">
        <ele>283.7</ele>
        <time>2024-10-08T13:25:26Z</time>
      </trkpt>
      <trkpt lat="45.82372" lon="1.31344">
        <ele>284.1</ele>
        <time>2024-10-08T13:25:29Z</time>
      </trkpt>
      <trkpt lat="45.8237" lon="1.31346">
        <ele>284.4</ele>
        <time>2024-10-08T13:25:32Z</time>
      </trkpt>
      <trkpt lat="45.82368" lon="1.31348">
        <ele>284.8</ele>
        <time>2024-10-08T13:25:35Z</time>
      </trkpt>
      <trkpt lat="45.82366" lon="1.3135">
        <ele>285.1</ele>
        <time>2024-10-08T13:25:38Z</time>
      </trkpt>
      <trkpt lat="45.82365" lon="1.31353">
        <ele>285.4</ele>
        <time>2024-10-08T13:25:41Z</time>
      </trkpt>
      <trkpt lat="45.82363" lon="1.31355">
        <ele>285.8</ele>
        <time>2024-10-08T13:25:44Z</time>
      </trkpt>
      <trkpt lat="45.82361" lon="1.31357">
        <ele>286.1</ele>
        <time>2024-10-08T13:25:47Z</time>
      </trkpt>
      <trkpt lat="45.8236" lon="1.31359">
        <ele>286.5</ele>
        <time>2024-10-08T13:25:50Z</time>
      </trkpt>
      <trkpt lat="45.82358" lon="1.31361">
        <ele>286.9</ele>
        <time>2024-10-08T13:25:53Z</time>
      </trkpt>
      <trkpt lat="45.82356" lon="1.31364">
        <ele>287.3</ele>
        <time>2024-10-08T13:25:56Z</time>
      </trkpt>
      <trkpt lat="45.82355" lon="1.31366">
        <ele>287.7</ele>
        <time>2024-10-08T13:26:00Z</time>
      </trkpt>
      <trkpt lat="45.82353" lon="1.31368">
        <ele>288.1</ele>
        <time>2024-10-08T13:26:03Z</time>
      </trkpt>
      <trkpt lat="45.82351" lon="1.3137">
        <ele>288.5</ele>
        <time>2024-10-08T13:26:06Z</time>
      </trkpt>
      <trkpt lat="45.82349" lon="1.31373">
        <ele>288.9</ele>
        <time>2024-10-08T13:26:09Z</time>
      </trkpt>
      <trkpt lat="45.82348" lon="1.31375">
        <ele>289.2</ele>
        <time>2024-10-08T13:26:12Z</time>
      </trkpt>
      <trkpt lat="45.82346" lon="1.31377">
        <ele>289.6</ele>
        <time>2024-10-08T13:26:15Z</time>
      </trkpt>
      <trkpt lat="45.82344" lon="1.31379">
        <ele>290</ele>
        <time>2024-10-08T13:26:18Z</time>
      </trkpt>
      <trkpt lat="45.82343" lon="1.31382">
        <ele>290.4</ele>
        <time>2024-10-08T13:26:21Z</time>
      </trkpt>
      <trkpt lat="45.82341" lon="1.31384">
        <ele>290.8</ele>
        <time>2024-10-08T13:26:23Z</time>
      </trkpt>
      <trkpt lat="45.82339" lon="1.31386">
        <ele>291.2</ele>
        <time>2024-10-08T13:26:27Z</time>
      </trkpt>
      <trkpt lat="45.82338" lon="1.31388">
        <ele>291.4</ele>
        <time>2024-10-08T13:26:29Z</time>
      </trkpt>
      <trkpt lat="45.82336" lon="1.31391">
        <ele>291.7</ele>
        <time>2024-10-08T13:26:32Z</time>
      </trkpt>
      <trkpt lat="45.82334" lon="1.31393">
        <ele>292</ele>
        <time>2024-10-08T13:26:35Z</time>
      </trkpt>
      <trkpt lat="45.82332" lon="1.31395">
        <ele>292.7</ele>
        <time>2024-10-08T13:26:38Z</time>
      </trkpt>
      <trkpt lat="45.82331" lon="1.31397">
        <ele>292.6</ele>
        <time>2024-10-08T13:26:41Z</time>
      </trkpt>
      <trkpt lat="45.82329" lon="1.314">
        <ele>293.3</ele>
        <time>2024-10-08T13:26:44Z</time>
      </trkpt>
      <trkpt lat="45.82327" lon="1.31402">
        <ele>293.2</ele>
        <time>2024-10-08T13:26:47Z</time>
      </trkpt>
      <trkpt lat="45.82326" lon="1.31404">
        <ele>293.8</ele>
        <time>2024-10-08T13:26:50Z</time>
      </trkpt>
      <trkpt lat="45.82324" lon="1.31406">
        <ele>293.8</ele>
        <time>2024-10-08T13:26:53Z</time>
      </trkpt>
      <trkpt lat="45.82322" lon="1.31409">
        <ele>294.3</ele>
        <time>2024-10-08T13:26:56Z</time>
      </trkpt>
      <trkpt lat="45.8232" lon="1.31411">
        <ele>294.6</ele>
        <time>2024-10-08T13:26:59Z</time>
      </trkpt>
      <trkpt lat="45.82319" lon="1.31413">
        <ele>294.8</ele>
        <time>2024-10-08T13:27:02Z</time>
      </trkpt>
      <trkpt lat="45.82317" lon="1.31415">
        <ele>295</ele>
        <time>2024-10-08T13:27:05Z</time>
      </trkpt>
      <trkpt lat="45.82315" lon="1.31418">
        <ele>295.2</ele>
        <time>2024-10-08T13:27:08Z</time>
      </trkpt>
      <trkpt lat="45.82314" lon="1.3142">
        <ele>295.8</ele>
        <time>2024-10-08T13:27:11Z</time>
      </trkpt>
      <trkpt lat="45.82312" lon="1.31422">
        <ele>295.7</ele>
        <time>2024-10-08T13:27:14Z</time>
      </trkpt>
      <trkpt lat="45.8231" lon="1.31424">
        <ele>296.3</ele>
        <time>2024-10-08T13:27:17Z</time>
      </trkpt>
      <trkpt lat="45.82309" lon="1.31427">
        <ele>296.5</ele>
        <time>2024-10-08T13:27:20Z</time>
      </trkpt>
      <trkpt lat="45.82307" lon="1.31429">
        <ele>296.8</ele>
        <time>2024-10-08T13:27:23Z</time>
      </trkpt>
      <trkpt lat="45.82305" lon="1.31431">
        <ele>297.1</ele>
        <time>2024-10-08T13:27:26Z</time>
      </trkpt>
      <trkpt lat="45.82303" lon="1.31433">
        <ele>297.4</ele>
        <time>2024-10-08T13:27:30Z</time>
      </trkpt>
      <trkpt lat="45.82302" lon="1.31435">
        <ele>297.7</ele>
        <time>2024-10-08T13:27:33Z</time>
      </trkpt>
      <trkpt lat="45.823" lon="1.31438">
        <ele>298</ele>
        <time>2024-10-08T13:27:36Z</time>
      </trkpt>
      <trkpt lat="45.82298" lon="1.3144">
        <ele>298.2</ele>
        <time>2024-10-08T13:27:39Z</time>
      </trkpt>
      <trkpt lat="45.82297" lon="1.31442">
        <ele>298.8</ele>
        <time>2024-10-08T13:27:42Z</time>
      </trkpt>
      <trkpt lat="45.82295" lon="1.31444">
        <ele>298.8</ele>
        <time>2024-10-08T13:27:44Z</time>
      </trkpt>
      <trkpt lat="45.82293" lon="1.31447">
        <ele>299.3</ele>
        <time>2024-10-08T13:27:47Z</time>
      </trkpt>
      <trkpt lat="45.82292" lon="1.31449">
        <ele>299.3</ele>
        <time>2024-10-08T13:27:50Z</time>
      </trkpt>
      <trkpt lat="45.82104" lon="1.31693">
        <ele>323.9</ele>
        <time>2024-10-08T13:27:53Z</time>
      </trkpt>
      <trkpt lat="45.82104" lon="1.31691">
        <ele>323.9</ele>
        <time>2024-10-08T13:27:56Z</time>
      </trkpt>
      <trkpt lat="45.82104" lon="1.31693">
        <ele>323.8</ele>
        <time>2024-10-08T13:27:59Z</time>
      </trkpt>
      <trkpt lat="45.82104" lon="1.31693">
        <ele>323.7</ele>
        <time>2024-10-08T13:28:02Z</time>
      </trkpt>
      <trkpt lat="45.82104" lon="1.31693">
        <ele>323.6</ele>
        <time>2024-10-08T13:28:05Z</time>
      </trkpt>
      <trkpt lat="45.82105" lon="1.31692">
        <ele>323.6</ele>
        <time>2024-10-08T13:28:08Z</time>
      </trkpt>
      <trkpt lat="45.82105" lon="1.31692">
        <ele>323.5</ele>
        <time>2024-10-08T13:28:11Z</time>
      </trkpt>
      <trkpt lat="45.82105" lon="1.31692">
        <ele>323.4</ele>
        <time>2024-10-08T13:28:14Z</time>
      </trkpt>
      <trkpt lat="45.82105" lon="1.31692">
        <ele>323.3</ele>
        <time>2024-10-08T13:28:17Z</time>
      </trkpt>
      <trkpt lat="45.82105" lon="1.31693">
        <ele>323.2</ele>
        <time>2024-10-08T13:28:21Z</time>
      </trkpt>
      <trkpt lat="45.82105" lon="1.31693">
        <ele>323.2</ele>
        <time>2024-10-08T13:28:23Z</time>
      </trkpt>
      <trkpt lat="45.82106" lon="1.31691">
        <ele>323.1</ele>
        <time>2024-10-08T13:28:26Z</time>
      </trkpt>
      <trkpt lat="45.82109" lon="1.31683">
        <ele>322.7</ele>
        <time>2024-10-08T13:28:29Z</time>
      </trkpt>
      <trkpt lat="45.82118" lon="1.31683">
        <ele>322.8</ele>
        <time>2024-10-08T13:28:32Z</time>
      </trkpt>
      <trkpt lat="45.82128" lon="1.31682">
        <ele>322.9</ele>
        <time>2024-10-08T13:28:35Z</time>
      </trkpt>
      <trkpt lat="45.82139" lon="1.31681">
        <ele>323.1</ele>
        <time>2024-10-08T13:28:38Z</time>
      </trkpt>
      <trkpt lat="45.8215" lon="1.31682">
        <ele>323.2</ele>
        <time>2024-10-08T13:28:41Z</time>
      </trkpt>
      <trkpt lat="45.82161" lon="1.31685">
        <ele>323.2</ele>
        <time>2024-10-08T13:28:44Z</time>
      </trkpt>
      <trkpt lat="45.82171" lon="1.31689">
        <ele>323.1</ele>
        <time>2024-10-08T13:28:48Z</time>
      </trkpt>
      <trkpt lat="45.8218" lon="1.31694">
        <ele>322.9</ele>
        <time>2024-10-08T13:28:51Z</time>
      </trkpt>
      <trkpt lat="45.82192" lon="1.317">
        <ele>322.7</ele>
        <time>2024-10-08T13:28:54Z</time>
      </trkpt>
      <trkpt lat="45.82206" lon="1.31709">
        <ele>322.2</ele>
        <time>2024-10-08T13:28:57Z</time>
      </trkpt>
      <trkpt lat="45.8222" lon="1.31721">
        <ele>321.5</ele>
        <time>2024-10-08T13:29:00Z</time>
      </trkpt>
      <trkpt lat="45.82237" lon="1.31733">
        <ele>320.6</ele>
        <time>2024-10-08T13:29:03Z</time>
      </trkpt>
      <trkpt lat="45.82253" lon="1.31748">
        <ele>319.6</ele>
        <time>2024-10-08T13:29:06Z</time>
      </trkpt>
      <trkpt lat="45.82267" lon="1.31769">
        <ele>318.3</ele>
        <time>2024-10-08T13:29:09Z</time>
      </trkpt>
      <trkpt lat="45.82278" lon="1.31796">
        <ele>316.7</ele>
        <time>2024-10-08T13:29:12Z</time>
      </trkpt>
      <trkpt lat="45.8228" lon="1.31832">
        <ele>314.8</ele>
        <time>2024-10-08T13:29:15Z</time>
      </trkpt>
      <trkpt lat="45.82284" lon="1.31869">
        <ele>313.5</ele>
        <time>2024-10-08T13:29:17Z</time>
      </trkpt>
      <trkpt lat="45.8229" lon="1.319">
        <ele>312.5</ele>
        <time>2024-10-08T13:29:20Z</time>
      </trkpt>
      <trkpt lat="45.82305" lon="1.31914">
        <ele>311.3</ele>
        <time>2024-10-08T13:29:23Z</time>
      </trkpt>
      <trkpt lat="45.82327" lon="1.31912">
        <ele>308.9</ele>
        <time>2024-10-08T13:29:26Z</time>
      </trkpt>
      <trkpt lat="45.82353" lon="1.31916">
        <ele>305.8</ele>
        <time>2024-10-08T13:29:29Z</time>
      </trkpt>
      <trkpt lat="45.82382" lon="1.31934">
        <ele>302.9</ele>
        <time>2024-10-08T13:29:32Z</time>
      </trkpt>
      <trkpt lat="45.82406" lon="1.31961">
        <ele>300.1</ele>
        <time>2024-10-08T13:29:35Z</time>
      </trkpt>
      <trkpt lat="45.82422" lon="1.32001">
        <ele>297.2</ele>
        <time>2024-10-08T13:29:38Z</time>
      </trkpt>
      <trkpt lat="45.82439" lon="1.32041">
        <ele>294.6</ele>
        <time>2024-10-08T13:29:41Z</time>
      </trkpt>
      <trkpt lat="45.82461" lon="1.32076">
        <ele>292.1</ele>
        <time>2024-10-08T13:29:44Z</time>
      </trkpt>
      <trkpt lat="45.82488" lon="1.32094">
        <ele>290.1</ele>
        <time>2024-10-08T13:29:47Z</time>
      </trkpt>
      <trkpt lat="45.82519" lon="1.32094">
        <ele>287.7</ele>
        <time>2024-10-08T13:29:50Z</time>
      </trkpt>
      <trkpt lat="45.82552" lon="1.32093">
        <ele>284.8</ele>
        <time>2024-10-08T13:29:53Z</time>
      </trkpt>
      <trkpt lat="45.82579" lon="1.32093">
        <ele>282.1</ele>
        <time>2024-10-08T13:29:56Z</time>
      </trkpt>
      <trkpt lat="45.82601" lon="1.32103">
        <ele>280.2</ele>
        <time>2024-10-08T13:29:59Z</time>
      </trkpt>
      <trkpt lat="45.82609" lon="1.3213">
        <ele>279.2</ele>
        <time>2024-10-08T13:30:02Z</time>
      </trkpt>
      <trkpt lat="45.82614" lon="1.32153">
        <ele>279.4</ele>
        <time>2024-10-08T13:30:05Z</time>
      </trkpt>
      <trkpt lat="45.8262" lon="1.3216">
        <ele>279.9</ele>
        <time>2024-10-08T13:30:09Z</time>
      </trkpt>
      <trkpt lat="45.82635" lon="1.32156">
        <ele>279.4</ele>
        <time>2024-10-08T13:30:12Z</time>
      </trkpt>
      <trkpt lat="45.82653" lon="1.32154">
        <ele>279.2</ele>
        <time>2024-10-08T13:30:14Z</time>
      </trkpt>
      <trkpt lat="45.82669" lon="1.32159">
        <ele>279.5</ele>
        <time>2024-10-08T13:30:18Z</time>
      </trkpt>
      <trkpt lat="45.82683" lon="1.32162">
        <ele>279.9</ele>
        <time>2024-10-08T13:30:21Z</time>
      </trkpt>
      <trkpt lat="45.82699" lon="1.32161">
        <ele>280.7</ele>
        <time>2024-10-08T13:30:24Z</time>
      </trkpt>
      <trkpt lat="45.82711" lon="1.32164">
        <ele>281.4</ele>
        <time>2024-10-08T13:30:27Z</time>
      </trkpt>
      <trkpt lat="45.82713" lon="1.32179">
        <ele>281.7</ele>
        <time>2024-10-08T13:30:30Z</time>
      </trkpt>
      <trkpt lat="45.82714" lon="1.32195">
        <ele>282</ele>
        <time>2024-10-08T13:30:33Z</time>
      </trkpt>
      <trkpt lat="45.82719" lon="1.3221">
        <ele>282.2</ele>
        <time>2024-10-08T13:30:36Z</time>
      </trkpt>
      <trkpt lat="45.82727" lon="1.32221">
        <ele>282.4</ele>
        <time>2024-10-08T13:30:38Z</time>
      </trkpt>
      <trkpt lat="45.82738" lon="1.32227">
        <ele>282.6</ele>
        <time>2024-10-08T13:30:41Z</time>
      </trkpt>
      <trkpt lat="45.8275" lon="1.3223">
        <ele>283</ele>
        <time>2024-10-08T13:30:44Z</time>
      </trkpt>
      <trkpt lat="45.8276" lon="1.32233">
        <ele>283.3</ele>
        <time>2024-10-08T13:30:47Z</time>
      </trkpt>
      <trkpt lat="45.82769" lon="1.32235">
        <ele>283.6</ele>
        <time>2024-10-08T13:30:50Z</time>
      </trkpt>
      <trkpt lat="45.8278" lon="1.32237">
        <ele>283.9</ele>
        <time>2024-10-08T13:30:53Z</time>
      </trkpt>
      <trkpt lat="45.8279" lon="1.32239">
        <ele>284.3</ele>
        <time>2024-10-08T13:30:56Z</time>
      </trkpt>
      <trkpt lat="45.828" lon="1.32241">
        <ele>284.6</ele>
        <time>2024-10-08T13:30:59Z</time>
      </trkpt>
      <trkpt lat="45.82809" lon="1.32244">
        <ele>285</ele>
        <time>2024-10-08T13:31:02Z</time>
      </trkpt>
      <trkpt lat="45.8282" lon="1.32247">
        <ele>285.3</ele>
        <time>2024-10-08T13:31:05Z</time>
      </trkpt>
      <trkpt lat="45.8283" lon="1.32249">
        <ele>285.7</ele>
        <time>2024-10-08T13:31:08Z</time>
      </trkpt>
      <trkpt lat="45.8284" lon="1.32252">
        <ele>286.1</ele>
        <time>2024-10-08T13:31:11Z</time>
      </trkpt>
      <trkpt lat="45.82849" lon="1.32254">
        <ele>286.6</ele>
        <time>2024-10-08T13:31:14Z</time>
      </trkpt>
      <trkpt lat="45.82857" lon="1.32257">
        <ele>287.1</ele>
        <time>2024-10-08T13:31:17Z</time>
      </trkpt>
      <trkpt lat="45.82865" lon="1.32259">
        <ele>287.5</ele>
        <time>2024-10-08T13:31:20Z</time>
      </trkpt>
      <trkpt lat="45.82873" lon="1.32261">
        <ele>288</ele>
        <time>2024-10-08T13:31:23Z</time>
      </trkpt>
      <trkpt lat="45.82881" lon="1.32264">
        <ele>288.5</ele>
        <time>2024-10-08T13:31:26Z</time>
      </trkpt>
      <trkpt lat="45.82889" lon="1.32266">
        <ele>288.9</ele>
        <time>2024-10-08T13:31:29Z</time>
      </trkpt>
      <trkpt lat="45.82899" lon="1.32269">
        <ele>289.4</ele>
        <time>2024-10-08T13:31:32Z</time>
      </trkpt>
      <trkpt lat="45.82907" lon="1.32271">
        <ele>289.7</ele>
        <time>2024-10-08T13:31:35Z</time>
      </trkpt>
      <trkpt lat="45.82913" lon="1.32273">
        <ele>289.9</ele>
        <time>2024-10-08T13:31:39Z</time>
      </trkpt>
      <trkpt lat="45.82919" lon="1.32273">
        <ele>290</ele>
        <time>2024-10-08T13:31:41Z</time>
      </trkpt>
      <trkpt lat="45.82925" lon="1.32275">
        <ele>290.1</ele>
        <time>2024-10-08T13:31:45Z</time>
      </trkpt>
      <trkpt lat="45.82933" lon="1.32278">
        <ele>290.3</ele>
        <time>2024-10-08T13:31:48Z</time>
      </trkpt>
      <trkpt lat="45.82942" lon="1.32279">
        <ele>290.4</ele>
        <time>2024-10-08T13:31:51Z</time>
      </trkpt>
      <trkpt lat="45.82953" lon="1.32277">
        <ele>290.7</ele>
        <time>2024-10-08T13:31:54Z</time>
      </trkpt>
      <trkpt lat="45.82961" lon="1.3227">
        <ele>291.1</ele>
        <time>2024-10-08T13:31:57Z</time>
      </trkpt>
      <trkpt lat="45.82967" lon="1.3226">
        <ele>291.4</ele>
        <time>2024-10-08T13:32:00Z</time>
      </trkpt>
      <trkpt lat="45.82974" lon="1.32253">
        <ele>291.8</ele>
        <time>2024-10-08T13:32:02Z</time>
      </trkpt>
      <trkpt lat="45.82982" lon="1.32251">
        <ele>292.2</ele>
        <time>2024-10-08T13:32:06Z</time>
      </trkpt>
      <trkpt lat="45.82992" lon="1.32253">
        <ele>292.7</ele>
        <time>2024-10-08T13:32:08Z</time>
      </trkpt>
      <trkpt lat="45.83003" lon="1.32256">
        <ele>293.2</ele>
        <time>2024-10-08T13:32:12Z</time>
      </trkpt>
      <trkpt lat="45.83013" lon="1.32259">
        <ele>293.7</ele>
        <time>2024-10-08T13:32:14Z</time>
      </trkpt>
      <trkpt lat="45.83022" lon="1.3226">
        <ele>294</ele>
        <time>2024-10-08T13:32:17Z</time>
      </trkpt>
      <trkpt lat="45.83032" lon="1.32262">
        <ele>294.5</ele>
        <time>2024-10-08T13:32:20Z</time>
      </trkpt>
      <trkpt lat="45.83041" lon="1.32263">
        <ele>294.9</ele>
        <time>2024-10-08T13:32:23Z</time>
      </trkpt>
      <trkpt lat="45.83046" lon="1.3226">
        <ele>295.2</ele>
        <time>2024-10-08T13:32:26Z</time>
      </trkpt>
      <trkpt lat="45.83053" lon="1.3226">
        <ele>295.3</ele>
        <time>2024-10-08T13:32:29Z</time>
      </trkpt>
      <trkpt lat="45.83063" lon="1.32258">
        <ele>295.6</ele>
        <time>2024-10-08T13:32:32Z</time>
      </trkpt>
      <trkpt lat="45.83068" lon="1.32247">
        <ele>296.1</ele>
        <time>2024-10-08T13:32:35Z</time>
      </trkpt>
      <trkpt lat="45.8307" lon="1.32236">
        <ele>296.6</ele>
        <time>2024-10-08T13:32:39Z</time>
      </trkpt>
      <trkpt lat="45.83074" lon="1.32226">
        <ele>297</ele>
        <time>2024-10-08T13:32:41Z</time>
      </trkpt>
      <trkpt lat="45.83079" lon="1.32218">
        <ele>297.5</ele>
        <time>2024-10-08T13:32:45Z</time>
      </trkpt>
      <trkpt lat="45.83086" lon="1.32219">
        <ele>297.8</ele>
        <time>2024-10-08T13:32:48Z</time>
      </trkpt>
      <trkpt lat="45.83094" lon="1.32229">
        <ele>297.7</ele>
        <time>2024-10-08T13:32:51Z</time>
      </trkpt>
      <trkpt lat="45.83102" lon="1.32238">
        <ele>297.7</ele>
        <time>2024-10-08T13:32:54Z</time>
      </trkpt>
      <trkpt lat="45.8311" lon="1.32247">
        <ele>297.8</ele>
        <time>2024-10-08T13:32:56Z</time>
      </trkpt>
      <trkpt lat="45.8312" lon="1.32255">
        <ele>297.9</ele>
        <time>2024-10-08T13:32:59Z</time>
      </trkpt>
      <trkpt lat="45.83129" lon="1.32263">
        <ele>298</ele>
        <time>2024-10-08T13:33:02Z</time>
      </trkpt>
      <trkpt lat="45.83139" lon="1.32271">
        <ele>298.2</ele>
        <time>2024-10-08T13:33:06Z</time>
      </trkpt>
      <trkpt lat="45.83149" lon="1.32278">
        <ele>298.3</ele>
        <time>2024-10-08T13:33:08Z</time>
      </trkpt>
      <trkpt lat="45.8316" lon="1.32284">
        <ele>298.4</ele>
        <time>2024-10-08T13:33:11Z</time>
      </trkpt>
      <trkpt lat="45.83171" lon="1.32288">
        <ele>298.5</ele>
        <time>2024-10-08T13:33:15Z</time>
      </trkpt>
      <trkpt lat="45.83181" lon="1.32294">
        <ele>298.7</ele>
        <time>2024-10-08T13:33:18Z</time>
      </trkpt>
      <trkpt lat="45.83192" lon="1.323">
        <ele>298.8</ele>
        <time>2024-10-08T13:33:21Z</time>
      </trkpt>
      <trkpt lat="45.83203" lon="1.32306">
        <ele>299.1</ele>
        <time>2024-10-08T13:33:24Z</time>
      </trkpt>
      <trkpt lat="45.83213" lon="1.32309">
        <ele>299.2</ele>
        <time>2024-10-08T13:33:27Z</time>
      </trkpt>
      <trkpt lat="45.83222" lon="1.32313">
        <ele>299.4</ele>
        <time>2024-10-08T13:33:29Z</time>
      </trkpt>
      <trkpt lat="45.83232" lon="1.32317">
        <ele>299.4</ele>
        <time>2024-10-08T13:33:32Z</time>
      </trkpt>
      <trkpt lat="45.83244" lon="1.32319">
        <ele>299.4</ele>
        <time>2024-10-08T13:33:35Z</time>
      </trkpt>
      <trkpt lat="45.83254" lon="1.32321">
        <ele>299</ele>
        <time>2024-10-08T13:33:38Z</time>
      </trkpt>
      <trkpt lat="45.83265" lon="1.32327">
        <ele>298.5</ele>
        <time>2024-10-08T13:33:41Z</time>
      </trkpt>
      <trkpt lat="45.83279" lon="1.32329">
        <ele>298.1</ele>
        <time>2024-10-08T13:33:45Z</time>
      </trkpt>
      <trkpt lat="45.8329" lon="1.32331">
        <ele>297.9</ele>
        <time>2024-10-08T13:33:47Z</time>
      </trkpt>
      <trkpt lat="45.83301" lon="1.32333">
        <ele>297.7</ele>
        <time>2024-10-08T13:33:50Z</time>
      </trkpt>
      <trkpt lat="45.83311" lon="1.32335">
        <ele>297.4</ele>
        <time>2024-10-08T13:33:53Z</time>
      </trkpt>
      <trkpt lat="45.83317" lon="1.32346">
        <ele>296.8</ele>
        <time>2024-10-08T13:33:56Z</time>
      </trkpt>
      <trkpt lat="45.8331" lon="1.32362">
        <ele>295.5</ele>
        <time>2024-10-08T13:33:59Z</time>
      </trkpt>
      <trkpt lat="45.83301" lon="1.32379">
        <ele>294</ele>
        <time>2024-10-08T13:34:02Z</time>
      </trkpt>
      <trkpt lat="45.83293" lon="1.32396">
        <ele>292.6</ele>
        <time>2024-10-08T13:34:05Z</time>
      </trkpt>
      <trkpt lat="45.83284" lon="1.32415">
        <ele>291.6</ele>
        <time>2024-10-08T13:34:08Z</time>
      </trkpt>
      <trkpt lat="45.83277" lon="1.32431">
        <ele>291.1</ele>
        <time>2024-10-08T13:34:11Z</time>
      </trkpt>
      <trkpt lat="45.83281" lon="1.32447">
        <ele>290.9</ele>
        <time>2024-10-08T13:34:14Z</time>
      </trkpt>
      <trkpt lat="45.83286" lon="1.32458">
        <ele>290.9</ele>
        <time>2024-10-08T13:34:17Z</time>
      </trkpt>
      <trkpt lat="45.83293" lon="1.32462">
        <ele>291</ele>
        <time>2024-10-08T13:34:20Z</time>
      </trkpt>
      <trkpt lat="45.83301" lon="1.32468">
        <ele>291.3</ele>
        <time>2024-10-08T13:34:23Z</time>
      </trkpt>
      <trkpt lat="45.83309" lon="1.32474">
        <ele>291.7</ele>
        <time>2024-10-08T13:34:26Z</time>
      </trkpt>
      <trkpt lat="45.83314" lon="1.32478">
        <ele>292</ele>
        <time>2024-10-08T13:34:29Z</time>
      </trkpt>
      <trkpt lat="45.83319" lon="1.32483">
        <ele>292.2</ele>
        <time>2024-10-08T13:34:33Z</time>
      </trkpt>
      <trkpt lat="45.83325" lon="1.32489">
        <ele>292.5</ele>
        <time>2024-10-08T13:34:36Z</time>
      </trkpt>
      <trkpt lat="45.83336" lon="1.32497">
        <ele>292.9</ele>
        <time>2024-10-08T13:34:39Z</time>
      </trkpt>
      <trkpt lat="45.83346" lon="1.32503">
        <ele>293.2</ele>
        <time>2024-10-08T13:34:42Z</time>
      </trkpt>
      <trkpt lat="45.83354" lon="1.32509">
        <ele>293.3</ele>
        <time>2024-10-08T13:34:45Z</time>
      </trkpt>
      <trkpt lat="45.83364" lon="1.32519">
        <ele>293.4</ele>
        <time>2024-10-08T13:34:48Z</time>
      </trkpt>
      <trkpt lat="45.83375" lon="1.32527">
        <ele>293.6</ele>
        <time>2024-10-08T13:34:51Z</time>
      </trkpt>
      <trkpt lat="45.83386" lon="1.32535">
        <ele>294.1</ele>
        <time>2024-10-08T13:34:54Z</time>
      </trkpt>
      <trkpt lat="45.83393" lon="1.32541">
        <ele>294.6</ele>
        <time>2024-10-08T13:34:57Z</time>
      </trkpt>
      <trkpt lat="45.83399" lon="1.32549">
        <ele>295.2</ele>
        <time>2024-10-08T13:34:59Z</time>
      </trkpt>
      <trkpt lat="45.83404" lon="1.32555">
        <ele>295.8</ele>
        <time>2024-10-08T13:35:02Z</time>
      </trkpt>
      <trkpt lat="45.83411" lon="1.32562">
        <ele>296.6</ele>
        <time>2024-10-08T13:35:05Z</time>
      </trkpt>
      <trkpt lat="45.8342" lon="1.32572">
        <ele>297.6</ele>
        <time>2024-10-08T13:35:08Z</time>
      </trkpt>
      <trkpt lat="45.83426" lon="1.3258">
        <ele>298.3</ele>
        <time>2024-10-08T13:35:11Z</time>
      </trkpt>
      <trkpt lat="45.83432" lon="1.32587">
        <ele>298.8</ele>
        <time>2024-10-08T13:35:14Z</time>
      </trkpt>
      <trkpt lat="45.83439" lon="1.32593">
        <ele>299.2</ele>
        <time>2024-10-08T13:35:17Z</time>
      </trkpt>
      <trkpt lat="45.83446" lon="1.32601">
        <ele>299.4</ele>
        <time>2024-10-08T13:35:20Z</time>
      </trkpt>
      <trkpt lat="45.83454" lon="1.32608">
        <ele>299.6</ele>
        <time>2024-10-08T13:35:24Z</time>
      </trkpt>
      <trkpt lat="45.83464" lon="1.32616">
        <ele>299.6</ele>
        <time>2024-10-08T13:35:27Z</time>
      </trkpt>
      <trkpt lat="45.83474" lon="1.32622">
        <ele>299.5</ele>
        <time>2024-10-08T13:35:30Z</time>
      </trkpt>
      <trkpt lat="45.83484" lon="1.32629">
        <ele>299.5</ele>
        <time>2024-10-08T13:35:32Z</time>
      </trkpt>
      <trkpt lat="45.83493" lon="1.32637">
        <ele>299.5</ele>
        <time>2024-10-08T13:35:36Z</time>
      </trkpt>
      <trkpt lat="45.83502" lon="1.32645">
        <ele>299.6</ele>
        <time>2024-10-08T13:35:38Z</time>
      </trkpt>
      <trkpt lat="45.83509" lon="1.32654">
        <ele>299.7</ele>
        <time>2024-10-08T13:35:41Z</time>
      </trkpt>
      <trkpt lat="45.8351" lon="1.32671">
        <ele>299.4</ele>
        <time>2024-10-08T13:35:44Z</time>
      </trkpt>
      <trkpt lat="45.83508" lon="1.32689">
        <ele>299</ele>
        <time>2024-10-08T13:35:47Z</time>
      </trkpt>
      <trkpt lat="45.83504" lon="1.32708">
        <ele>298.6</ele>
        <time>2024-10-08T13:35:50Z</time>
      </trkpt>
      <trkpt lat="45.83501" lon="1.32732">
        <ele>298.2</ele>
        <time>2024-10-08T13:35:53Z</time>
      </trkpt>
      <trkpt lat="45.835" lon="1.32751">
        <ele>298.2</ele>
        <time>2024-10-08T13:35:56Z</time>
      </trkpt>
      <trkpt lat="45.83499" lon="1.32766">
        <ele>298.2</ele>
        <time>2024-10-08T13:35:59Z</time>
      </trkpt>
      <trkpt lat="45.83496" lon="1.32781">
        <ele>298.4</ele>
        <time>2024-10-08T13:36:03Z</time>
      </trkpt>
      <trkpt lat="45.83492" lon="1.32795">
        <ele>298.6</ele>
        <time>2024-10-08T13:36:06Z</time>
      </trkpt>
      <trkpt lat="45.83485" lon="1.32803">
        <ele>298.5</ele>
        <time>2024-10-08T13:36:08Z</time>
      </trkpt>
      <trkpt lat="45.83476" lon="1.32815">
        <ele>298.1</ele>
        <time>2024-10-08T13:36:12Z</time>
      </trkpt>
      <trkpt lat="45.83476" lon="1.32828">
        <ele>298.6</ele>
        <time>2024-10-08T13:36:15Z</time>
      </trkpt>
      <trkpt lat="45.83483" lon="1.32835">
        <ele>299.5</ele>
        <time>2024-10-08T13:36:18Z</time>
      </trkpt>
      <trkpt lat="45.83487" lon="1.32839">
        <ele>299.9</ele>
        <time>2024-10-08T13:36:20Z</time>
      </trkpt>
      <trkpt lat="45.83493" lon="1.32846">
        <ele>300.6</ele>
        <time>2024-10-08T13:36:23Z</time>
      </trkpt>
      <trkpt lat="45.835" lon="1.32853">
        <ele>301.3</ele>
        <time>2024-10-08T13:36:26Z</time>
      </trkpt>
      <trkpt lat="45.83507" lon="1.32859">
        <ele>301.8</ele>
        <time>2024-10-08T13:36:29Z</time>
      </trkpt>
      <trkpt lat="45.83515" lon="1.32861">
        <ele>302.3</ele>
        <time>2024-10-08T13:36:32Z</time>
      </trkpt>
      <trkpt lat="45.83526" lon="1.32862">
        <ele>303</ele>
        <time>2024-10-08T13:36:35Z</time>
      </trkpt>
      <trkpt lat="45.83534" lon="1.32861">
        <ele>303.6</ele>
        <time>2024-10-08T13:36:38Z</time>
      </trkpt>
      <trkpt lat="45.83543" lon="1.32858">
        <ele>304.2</ele>
        <time>2024-10-08T13:36:41Z</time>
      </trkpt>
      <trkpt lat="45.83551" lon="1.32855">
        <ele>304.8</ele>
        <time>2024-10-08T13:36:44Z</time>
      </trkpt>
      <trkpt lat="45.83558" lon="1.3285">
        <ele>305.4</ele>
        <time>2024-10-08T13:36:47Z</time>
      </trkpt>
      <trkpt lat="45.83565" lon="1.32844">
        <ele>305.9</ele>
        <time>2024-10-08T13:36:50Z</time>
      </trkpt>
      <trkpt lat="45.83573" lon="1.32839">
        <ele>306.4</ele>
        <time>2024-10-08T13:36:53Z</time>
      </trkpt>
      <trkpt lat="45.83582" lon="1.32831">
        <ele>306.7</ele>
        <time>2024-10-08T13:36:56Z</time>
      </trkpt>
      <trkpt lat="45.83589" lon="1.32824">
        <ele>307</ele>
        <time>2024-10-08T13:36:59Z</time>
      </trkpt>
      <trkpt lat="45.83598" lon="1.32817">
        <ele>307.3</ele>
        <time>2024-10-08T13:37:02Z</time>
      </trkpt>
      <trkpt lat="45.83606" lon="1.3281">
        <ele>307.6</ele>
        <time>2024-10-08T13:37:05Z</time>
      </trkpt>
      <trkpt lat="45.83613" lon="1.32803">
        <ele>307.9</ele>
        <time>2024-10-08T13:37:08Z</time>
      </trkpt>
      <trkpt lat="45.83616" lon="1.32799">
        <ele>308.1</ele>
        <time>2024-10-08T13:37:11Z</time>
      </trkpt>
      <trkpt lat="45.83622" lon="1.32799">
        <ele>308.5</ele>
        <time>2024-10-08T13:37:14Z</time>
      </trkpt>
      <trkpt lat="45.83628" lon="1.32797">
        <ele>309</ele>
        <time>2024-10-08T13:37:18Z</time>
      </trkpt>
      <trkpt lat="45.83637" lon="1.32793">
        <ele>309.8</ele>
        <time>2024-10-08T13:37:21Z</time>
      </trkpt>
      <trkpt lat="45.83645" lon="1.3279">
        <ele>310.5</ele>
        <time>2024-10-08T13:37:24Z</time>
      </trkpt>
      <trkpt lat="45.83654" lon="1.32789">
        <ele>311.3</ele>
        <time>2024-10-08T13:37:27Z</time>
      </trkpt>
      <trkpt lat="45.83662" lon="1.32786">
        <ele>311.9</ele>
        <time>2024-10-08T13:37:30Z</time>
      </trkpt>
      <trkpt lat="45.8367" lon="1.32783">
        <ele>312.5</ele>
        <time>2024-10-08T13:37:33Z</time>
      </trkpt>
      <trkpt lat="45.83679" lon="1.3278">
        <ele>313.1</ele>
        <time>2024-10-08T13:37:36Z</time>
      </trkpt>
      <trkpt lat="45.83688" lon="1.32776">
        <ele>313.6</ele>
        <time>2024-10-08T13:37:39Z</time>
      </trkpt>
      <trkpt lat="45.83699" lon="1.32772">
        <ele>314</ele>
        <time>2024-10-08T13:37:41Z</time>
      </trkpt>
      <trkpt lat="45.83709" lon="1.32769">
        <ele>314.2</ele>
        <time>2024-10-08T13:37:44Z</time>
      </trkpt>
      <trkpt lat="45.83719" lon="1.32772">
        <ele>314.4</ele>
        <time>2024-10-08T13:37:47Z</time>
      </trkpt>
      <trkpt lat="45.83729" lon="1.3278">
        <ele>314.6</ele>
        <time>2024-10-08T13:37:50Z</time>
      </trkpt>
      <trkpt lat="45.83739" lon="1.32775">
        <ele>314.7</ele>
        <time>2024-10-08T13:37:53Z</time>
      </trkpt>
      <trkpt lat="45.83748" lon="1.32767">
        <ele>314.5</ele>
        <time>2024-10-08T13:37:56Z</time>
      </trkpt>
      <trkpt lat="45.83757" lon="1.32758">
        <ele>314.3</ele>
        <time>2024-10-08T13:37:59Z</time>
      </trkpt>
      <trkpt lat="45.83766" lon="1.32749">
        <ele>314</ele>
        <time>2024-10-08T13:38:02Z</time>
      </trkpt>
      <trkpt lat="45.83772" lon="1.32745">
        <ele>313.9</ele>
        <time>2024-10-08T13:38:05Z</time>
      </trkpt>
      <trkpt lat="45.83774" lon="1.32737">
        <ele>313.7</ele>
        <time>2024-10-08T13:38:08Z</time>
      </trkpt>
      <trkpt lat="45.83769" lon="1.32726">
        <ele>313.7</ele>
        <time>2024-10-08T13:38:11Z</time>
      </trkpt>
      <trkpt lat="45.83763" lon="1.32715">
        <ele>313.7</ele>
        <time>2024-10-08T13:38:14Z</time>
      </trkpt>
      <trkpt lat="45.83755" lon="1.32701">
        <ele>313.7</ele>
        <time>2024-10-08T13:38:17Z</time>
      </trkpt>
      <trkpt lat="45.8375" lon="1.32688">
        <ele>313.7</ele>
        <time>2024-10-08T13:38:20Z</time>
      </trkpt>
      <trkpt lat="45.83744" lon="1.32673">
        <ele>313.8</ele>
        <time>2024-10-08T13:38:23Z</time>
      </trkpt>
      <trkpt lat="45.83735" lon="1.32657">
        <ele>313.8</ele>
        <time>2024-10-08T13:38:26Z</time>
      </trkpt>
      <trkpt lat="45.83726" lon="1.32642">
        <ele>313.9</ele>
        <time>2024-10-08T13:38:29Z</time>
      </trkpt>
      <trkpt lat="45.83719" lon="1.32625">
        <ele>314</ele>
        <time>2024-10-08T13:38:32Z</time>
      </trkpt>
      <trkpt lat="45.83712" lon="1.3261">
        <ele>314</ele>
        <time>2024-10-08T13:38:35Z</time>
      </trkpt>
      <trkpt lat="45.83705" lon="1.32596">
        <ele>314.1</ele>
        <time>2024-10-08T13:38:38Z</time>
      </trkpt>
      <trkpt lat="45.83696" lon="1.32579">
        <ele>313.9</ele>
        <time>2024-10-08T13:38:41Z</time>
      </trkpt>
      <trkpt lat="45.83688" lon="1.32563">
        <ele>313.3</ele>
        <time>2024-10-08T13:38:45Z</time>
      </trkpt>
      <trkpt lat="45.83679" lon="1.32545">
        <ele>312.3</ele>
        <time>2024-10-08T13:38:48Z</time>
      </trkpt>
      <trkpt lat="45.83668" lon="1.32522">
        <ele>310.9</ele>
        <time>2024-10-08T13:38:51Z</time>
      </trkpt>
      <trkpt lat="45.83656" lon="1.32497">
        <ele>309.6</ele>
        <time>2024-10-08T13:38:54Z</time>
      </trkpt>
      <trkpt lat="45.83645" lon="1.32471">
        <ele>308.9</ele>
        <time>2024-10-08T13:38:57Z</time>
      </trkpt>
      <trkpt lat="45.83633" lon="1.32448">
        <ele>308.6</ele>
        <time>2024-10-08T13:39:00Z</time>
      </trkpt>
      <trkpt lat="45.83623" lon="1.32424">
        <ele>308.5</ele>
        <time>2024-10-08T13:39:02Z</time>
      </trkpt>
      <trkpt lat="45.83617" lon="1.32402">
        <ele>308.6</ele>
        <time>2024-10-08T13:39:06Z</time>
      </trkpt>
      <trkpt lat="45.83613" lon="1.32382">
        <ele>308.9</ele>
        <time>2024-10-08T13:39:09Z</time>
      </trkpt>
      <trkpt lat="45.83611" lon="1.32365">
        <ele>309.1</ele>
        <time>2024-10-08T13:39:12Z</time>
      </trkpt>
      <trkpt lat="45.83609" lon="1.32347">
        <ele>309.4</ele>
        <time>2024-10-08T13:39:14Z</time>
      </trkpt>
      <trkpt lat="45.83605" lon="1.32328">
        <ele>309.8</ele>
        <time>2024-10-08T13:39:17Z</time>
      </trkpt>
      <trkpt lat="45.83602" lon="1.3231">
        <ele>310.1</ele>
        <time>2024-10-08T13:39:20Z</time>
      </trkpt>
      <trkpt lat="45.83598" lon="1.32292">
        <ele>310.6</ele>
        <time>2024-10-08T13:39:23Z</time>
      </trkpt>
      <trkpt lat="45.83594" lon="1.32275">
        <ele>311.1</ele>
        <time>2024-10-08T13:39:26Z</time>
      </trkpt>
      <trkpt lat="45.83591" lon="1.3226">
        <ele>311.5</ele>
        <time>2024-10-08T13:39:29Z</time>
      </trkpt>
      <trkpt lat="45.83589" lon="1.32245">
        <ele>312</ele>
        <time>2024-10-08T13:39:32Z</time>
      </trkpt>
      <trkpt lat="45.83586" lon="1.3223">
        <ele>312.3</ele>
        <time>2024-10-08T13:39:35Z</time>
      </trkpt>
      <trkpt lat="45.83583" lon="1.32216">
        <ele>312.7</ele>
        <time>2024-10-08T13:39:39Z</time>
      </trkpt>
      <trkpt lat="45.83581" lon="1.322">
        <ele>313.1</ele>
        <time>2024-10-08T13:39:41Z</time>
      </trkpt>
      <trkpt lat="45.83577" lon="1.32184">
        <ele>313.5</ele>
        <time>2024-10-08T13:39:44Z</time>
      </trkpt>
      <trkpt lat="45.83574" lon="1.32169">
        <ele>313.9</ele>
        <time>2024-10-08T13:39:47Z</time>
      </trkpt>
      <trkpt lat="45.83571" lon="1.32155">
        <ele>314.2</ele>
        <time>2024-10-08T13:39:50Z</time>
      </trkpt>
      <trkpt lat="45.83569" lon="1.32141">
        <ele>314.5</ele>
        <time>2024-10-08T13:39:53Z</time>
      </trkpt>
      <trkpt lat="45.83567" lon="1.32127">
        <ele>314.8</ele>
        <time>2024-10-08T13:39:56Z</time>
      </trkpt>
      <trkpt lat="45.83567" lon="1.32112">
        <ele>315</ele>
        <time>2024-10-08T13:40:00Z</time>
      </trkpt>
      <trkpt lat="45.83566" lon="1.32095">
        <ele>315.2</ele>
        <time>2024-10-08T13:40:02Z</time>
      </trkpt>
      <trkpt lat="45.83565" lon="1.32079">
        <ele>315.4</ele>
        <time>2024-10-08T13:40:05Z</time>
      </trkpt>
      <trkpt lat="45.83565" lon="1.32063">
        <ele>315.6</ele>
        <time>2024-10-08T13:40:08Z</time>
      </trkpt>
      <trkpt lat="45.83565" lon="1.32046">
        <ele>315.8</ele>
        <time>2024-10-08T13:40:11Z</time>
      </trkpt>
      <trkpt lat="45.83565" lon="1.32028">
        <ele>316</ele>
        <time>2024-10-08T13:40:15Z</time>
      </trkpt>
      <trkpt lat="45.83566" lon="1.32012">
        <ele>316.1</ele>
        <time>2024-10-08T13:40:18Z</time>
      </trkpt>
      <trkpt lat="45.83567" lon="1.31995">
        <ele>316.3</ele>
        <time>2024-10-08T13:40:21Z</time>
      </trkpt>
      <trkpt lat="45.83568" lon="1.31977">
        <ele>316.5</ele>
        <time>2024-10-08T13:40:24Z</time>
      </trkpt>
      <trkpt lat="45.83567" lon="1.31958">
        <ele>316.6</ele>
        <time>2024-10-08T13:40:27Z</time>
      </trkpt>
      <trkpt lat="45.83567" lon="1.3194">
        <ele>316.6</ele>
        <time>2024-10-08T13:40:30Z</time>
      </trkpt>
      <trkpt lat="45.83569" lon="1.31922">
        <ele>316.7</ele>
        <time>2024-10-08T13:40:33Z</time>
      </trkpt>
      <trkpt lat="45.83572" lon="1.31902">
        <ele>316.7</ele>
        <time>2024-10-08T13:40:35Z</time>
      </trkpt>
      <trkpt lat="45.83576" lon="1.31882">
        <ele>316.7</ele>
        <time>2024-10-08T13:40:38Z</time>
      </trkpt>
      <trkpt lat="45.8358" lon="1.31863">
        <ele>316.7</ele>
        <time>2024-10-08T13:40:41Z</time>
      </trkpt>
      <trkpt lat="45.83582" lon="1.31845">
        <ele>316.7</ele>
        <time>2024-10-08T13:40:44Z</time>
      </trkpt>
      <trkpt lat="45.83584" lon="1.31828">
        <ele>316.8</ele>
        <time>2024-10-08T13:40:47Z</time>
      </trkpt>
      <trkpt lat="45.83587" lon="1.31819">
        <ele>316.9</ele>
        <time>2024-10-08T13:40:50Z</time>
      </trkpt>
      <trkpt lat="45.8359" lon="1.31812">
        <ele>316.9</ele>
        <time>2024-10-08T13:40:53Z</time>
      </trkpt>
      <trkpt lat="45.83595" lon="1.31802">
        <ele>316.9</ele>
        <time>2024-10-08T13:40:56Z</time>
      </trkpt>
      <trkpt lat="45.83598" lon="1.31792">
        <ele>317</ele>
        <time>2024-10-08T13:40:59Z</time>
      </trkpt>
      <trkpt lat="45.83605" lon="1.31788">
        <ele>316.9</ele>
        <time>2024-10-08T13:41:02Z</time>
      </trkpt>
      <trkpt lat="45.83614" lon="1.31786">
        <ele>316.9</ele>
        <time>2024-10-08T13:41:05Z</time>
      </trkpt>
      <trkpt lat="45.83622" lon="1.31785">
        <ele>316.8</ele>
        <time>2024-10-08T13:41:08Z</time>
      </trkpt>
      <trkpt lat="45.83631" lon="1.31783">
        <ele>316.7</ele>
        <time>2024-10-08T13:41:11Z</time>
      </trkpt>
      <trkpt lat="45.83638" lon="1.31779">
        <ele>316.6</ele>
        <time>2024-10-08T13:41:14Z</time>
      </trkpt>
      <trkpt lat="45.83644" lon="1.31777">
        <ele>316.5</ele>
        <time>2024-10-08T13:41:17Z</time>
      </trkpt>
      <trkpt lat="45.8365" lon="1.31775">
        <ele>316.4</ele>
        <time>2024-10-08T13:41:20Z</time>
      </trkpt>
      <trkpt lat="45.8366" lon="1.31773">
        <ele>316.2</ele>
        <time>2024-10-08T13:41:23Z</time>
      </trkpt>
      <trkpt lat="45.83671" lon="1.3177">
        <ele>316</ele>
        <time>2024-10-08T13:41:26Z</time>
      </trkpt>
      <trkpt lat="45.83681" lon="1.31767">
        <ele>315.8</ele>
        <time>2024-10-08T13:41:29Z</time>
      </trkpt>
      <trkpt lat="45.83691" lon="1.31764">
        <ele>315.6</ele>
        <time>2024-10-08T13:41:32Z</time>
      </trkpt>
      <trkpt lat="45.837" lon="1.31762">
        <ele>315.4</ele>
        <time>2024-10-08T13:41:36Z</time>
      </trkpt>
      <trkpt lat="45.83709" lon="1.31759">
        <ele>315.3</ele>
        <time>2024-10-08T13:41:39Z</time>
      </trkpt>
      <trkpt lat="45.83717" lon="1.31755">
        <ele>315.2</ele>
        <time>2024-10-08T13:41:42Z</time>
      </trkpt>
      <trkpt lat="45.83725" lon="1.31743">
        <ele>315.1</ele>
        <time>2024-10-08T13:41:45Z</time>
      </trkpt>
      <trkpt lat="45.83732" lon="1.31731">
        <ele>315.1</ele>
        <time>2024-10-08T13:41:48Z</time>
      </trkpt>
      <trkpt lat="45.83738" lon="1.31718">
        <ele>315.1</ele>
        <time>2024-10-08T13:41:51Z</time>
      </trkpt>
      <trkpt lat="45.83744" lon="1.31705">
        <ele>315.1</ele>
        <time>2024-10-08T13:41:54Z</time>
      </trkpt>
      <trkpt lat="45.8375" lon="1.31692">
        <ele>315.1</ele>
        <time>2024-10-08T13:41:57Z</time>
      </trkpt>
      <trkpt lat="45.83759" lon="1.31677">
        <ele>315.1</ele>
        <time>2024-10-08T13:42:00Z</time>
      </trkpt>
      <trkpt lat="45.83768" lon="1.31663">
        <ele>315.1</ele>
        <time>2024-10-08T13:42:03Z</time>
      </trkpt>
      <trkpt lat="45.83776" lon="1.31652">
        <ele>315</ele>
        <time>2024-10-08T13:42:05Z</time>
      </trkpt>
      <trkpt lat="45.83784" lon="1.31638">
        <ele>315</ele>
        <time>2024-10-08T13:42:08Z</time>
      </trkpt>
      <trkpt lat="45.83792" lon="1.31622">
        <ele>314.8</ele>
        <time>2024-10-08T13:42:11Z</time>
      </trkpt>
      <trkpt lat="45.838" lon="1.31606">
        <ele>314.4</ele>
        <time>2024-10-08T13:42:14Z</time>
      </trkpt>
      <trkpt lat="45.83808" lon="1.31592">
        <ele>313.9</ele>
        <time>2024-10-08T13:42:17Z</time>
      </trkpt>
      <trkpt lat="45.83817" lon="1.31575">
        <ele>313.3</ele>
        <time>2024-10-08T13:42:20Z</time>
      </trkpt>
      <trkpt lat="45.83824" lon="1.31556">
        <ele>312.6</ele>
        <time>2024-10-08T13:42:23Z</time>
      </trkpt>
      <trkpt lat="45.83831" lon="1.31539">
        <ele>312</ele>
        <time>2024-10-08T13:42:26Z</time>
      </trkpt>
      <trkpt lat="45.83837" lon="1.31527">
        <ele>311.6</ele>
        <time>2024-10-08T13:42:29Z</time>
      </trkpt>
      <trkpt lat="45.83839" lon="1.31519">
        <ele>311.4</ele>
        <time>2024-10-08T13:42:32Z</time>
      </trkpt>
      <trkpt lat="45.83839" lon="1.31519">
        <ele>311.4</ele>
        <time>2024-10-08T13:42:36Z</time>
      </trkpt>
      <trkpt lat="45.83839" lon="1.31519">
        <ele>311.4</ele>
        <time>2024-10-08T13:42:38Z</time>
      </trkpt>
      <trkpt lat="45.83838" lon="1.31519">
        <ele>311.4</ele>
        <time>2024-10-08T13:42:41Z</time>
      </trkpt>
      <trkpt lat="45.83838" lon="1.31519">
        <ele>311.4</ele>
        <time>2024-10-08T13:42:44Z</time>
      </trkpt>
      <trkpt lat="45.83838" lon="1.31519">
        <ele>311.4</ele>
        <time>2024-10-08T13:42:47Z</time>
      </trkpt>
      <trkpt lat="45.83838" lon="1.31519">
        <ele>311.4</ele>
        <time>2024-10-08T13:42:50Z</time>
      </trkpt>
      <trkpt lat="45.83838" lon="1.31519">
        <ele>311.4</ele>
        <time>2024-10-08T13:42:53Z</time>
      </trkpt>
      <trkpt lat="45.83842" lon="1.31517">
        <ele>311.2</ele>
        <time>2024-10-08T13:42:56Z</time>
      </trkpt>
      <trkpt lat="45.83848" lon="1.31521">
        <ele>311</ele>
        <time>2024-10-08T13:42:59Z</time>
      </trkpt>
      <trkpt lat="45.83856" lon="1.31528">
        <ele>310.7</ele>
        <time>2024-10-08T13:43:03Z</time>
      </trkpt>
      <trkpt lat="45.83865" lon="1.31535">
        <ele>310.4</ele>
        <time>2024-10-08T13:43:06Z</time>
      </trkpt>
      <trkpt lat="45.83873" lon="1.31542">
        <ele>310.1</ele>
        <time>2024-10-08T13:43:09Z</time>
      </trkpt>
      <trkpt lat="45.83873" lon="1.31543">
        <ele>310.1</ele>
        <time>2024-10-08T13:43:12Z</time>
      </trkpt>
      <trkpt lat="45.83873" lon="1.31542">
        <ele>310.1</ele>
        <time>2024-10-08T13:43:15Z</time>
      </trkpt>
      <trkpt lat="45.83873" lon="1.3154">
        <ele>310</ele>
        <time>2024-10-08T13:43:18Z</time>
      </trkpt>
      <trkpt lat="45.83869" lon="1.31537">
        <ele>310</ele>
        <time>2024-10-08T13:43:21Z</time>
      </trkpt>
      <trkpt lat="45.83865" lon="1.3153">
        <ele>309.9</ele>
        <time>2024-10-08T13:43:23Z</time>
      </trkpt>
      <trkpt lat="45.83865" lon="1.31522">
        <ele>309.8</ele>
        <time>2024-10-08T13:43:26Z</time>
      </trkpt>
      <trkpt lat="45.83874" lon="1.3151">
        <ele>308.5</ele>
        <time>2024-10-08T13:43:29Z</time>
      </trkpt>
      <trkpt lat="45.83885" lon="1.31495">
        <ele>306.9</ele>
        <time>2024-10-08T13:43:32Z</time>
      </trkpt>
      <trkpt lat="45.83899" lon="1.31479">
        <ele>305.2</ele>
        <time>2024-10-08T13:43:35Z</time>
      </trkpt>
      <trkpt lat="45.83911" lon="1.31464">
        <ele>304.1</ele>
        <time>2024-10-08T13:43:38Z</time>
      </trkpt>
      <trkpt lat="45.83924" lon="1.31452">
        <ele>303.6</ele>
        <time>2024-10-08T13:43:41Z</time>
      </trkpt>
      <trkpt lat="45.83937" lon="1.3144">
        <ele>303.2</ele>
        <time>2024-10-08T13:43:44Z</time>
      </trkpt>
      <trkpt lat="45.83952" lon="1.3143">
        <ele>302.6</ele>
        <time>2024-10-08T13:43:47Z</time>
      </trkpt>
      <trkpt lat="45.83966" lon="1.31433">
        <ele>302.1</ele>
        <time>2024-10-08T13:43:50Z</time>
      </trkpt>
      <trkpt lat="45.8398" lon="1.31437">
        <ele>301.8</ele>
        <time>2024-10-08T13:43:53Z</time>
      </trkpt>
      <trkpt lat="45.83993" lon="1.31438">
        <ele>301.5</ele>
        <time>2024-10-08T13:43:56Z</time>
      </trkpt>
      <trkpt lat="45.84004" lon="1.31429">
        <ele>301.3</ele>
        <time>2024-10-08T13:43:59Z</time>
      </trkpt>
      <trkpt lat="45.84015" lon="1.31419">
        <ele>301.1</ele>
        <time>2024-10-08T13:44:02Z</time>
      </trkpt>
      <trkpt lat="45.84027" lon="1.31408">
        <ele>300.8</ele>
        <time>2024-10-08T13:44:05Z</time>
      </trkpt>
      <trkpt lat="45.84041" lon="1.31396">
        <ele>300.4</ele>
        <time>2024-10-08T13:44:08Z</time>
      </trkpt>
      <trkpt lat="45.84052" lon="1.31385">
        <ele>300.1</ele>
        <time>2024-10-08T13:44:11Z</time>
      </trkpt>
      <trkpt lat="45.84065" lon="1.31375">
        <ele>299.8</ele>
        <time>2024-10-08T13:44:14Z</time>
      </trkpt>
      <trkpt lat="45.84078" lon="1.31376">
        <ele>299.6</ele>
        <time>2024-10-08T13:44:18Z</time>
      </trkpt>
      <trkpt lat="45.8409" lon="1.3138">
        <ele>299.5</ele>
        <time>2024-10-08T13:44:20Z</time>
      </trkpt>
      <trkpt lat="45.84102" lon="1.31383">
        <ele>299.3</ele>
        <time>2024-10-08T13:44:24Z</time>
      </trkpt>
      <trkpt lat="45.84114" lon="1.31386">
        <ele>299.2</ele>
        <time>2024-10-08T13:44:27Z</time>
      </trkpt>
      <trkpt lat="45.84123" lon="1.31389">
        <ele>299.1</ele>
        <time>2024-10-08T13:44:30Z</time>
      </trkpt>
      <trkpt lat="45.84128" lon="1.3139">
        <ele>299</ele>
        <time>2024-10-08T13:44:33Z</time>
      </trkpt>
      <trkpt lat="45.84128" lon="1.3139">
        <ele>299</ele>
        <time>2024-10-08T13:44:36Z</time>
      </trkpt>
      <trkpt lat="45.84128" lon="1.3139">
        <ele>299</ele>
        <time>2024-10-08T13:44:39Z</time>
      </trkpt>
      <trkpt lat="45.84129" lon="1.3139">
        <ele>299</ele>
        <time>2024-10-08T13:44:42Z</time>
      </trkpt>
      <trkpt lat="45.84129" lon="1.3139">
        <ele>299</ele>
        <time>2024-10-08T13:44:44Z</time>
      </trkpt>
      <trkpt lat="45.8413" lon="1.3139">
        <ele>299</ele>
        <time>2024-10-08T13:44:47Z</time>
      </trkpt>
      <trkpt lat="45.8413" lon="1.3139">
        <ele>299</ele>
        <time>2024-10-08T13:44:50Z</time>
      </trkpt>
      <trkpt lat="45.8413" lon="1.3139">
        <ele>299</ele>
        <time>2024-10-08T13:44:53Z</time>
      </trkpt>
      <trkpt lat="45.8413" lon="1.3139">
        <ele>299</ele>
        <time>2024-10-08T13:44:56Z</time>
      </trkpt>
      <trkpt lat="45.8413" lon="1.3139">
        <ele>299</ele>
        <time>2024-10-08T13:44:59Z</time>
      </trkpt>
      <trkpt lat="45.84129" lon="1.3139">
        <ele>299</ele>
        <time>2024-10-08T13:45:02Z</time>
      </trkpt>
      <trkpt lat="45.84129" lon="1.3139">
        <ele>299</ele>
        <time>2024-10-08T13:45:05Z</time>
      </trkpt>
      <trkpt lat="45.84129" lon="1.31389">
        <ele>299</ele>
        <time>2024-10-08T13:45:08Z</time>
      </trkpt>
      <trkpt lat="45.8413" lon="1.31389">
        <ele>298.9</ele>
        <time>2024-10-08T13:45:11Z</time>
      </trkpt>
      <trkpt lat="45.8413" lon="1.31389">
        <ele>298.9</ele>
        <time>2024-10-08T13:45:14Z</time>
      </trkpt>
      <trkpt lat="45.8413" lon="1.3139">
        <ele>298.9</ele>
        <time>2024-10-08T13:45:17Z</time>
      </trkpt>
      <trkpt lat="45.84131" lon="1.3139">
        <ele>298.9</ele>
        <time>2024-10-08T13:45:20Z</time>
      </trkpt>
      <trkpt lat="45.84131" lon="1.3139">
        <ele>298.9</ele>
        <time>2024-10-08T13:45:23Z</time>
      </trkpt>
      <trkpt lat="45.84131" lon="1.3139">
        <ele>298.9</ele>
        <time>2024-10-08T13:45:26Z</time>
      </trkpt>
      <trkpt lat="45.84131" lon="1.3139">
        <ele>298.9</ele>
        <time>2024-10-08T13:45:29Z</time>
      </trkpt>
      <trkpt lat="45.84131" lon="1.3139">
        <ele>298.9</ele>
        <time>2024-10-08T13:45:32Z</time>
      </trkpt>
      <trkpt lat="45.84131" lon="1.3139">
        <ele>298.9</ele>
        <time>2024-10-08T13:45:35Z</time>
      </trkpt>
      <trkpt lat="45.84131" lon="1.3139">
        <ele>298.9</ele>
        <time>2024-10-08T13:45:39Z</time>
      </trkpt>
      <trkpt lat="45.84131" lon="1.3139">
        <ele>298.9</ele>
        <time>2024-10-08T13:45:42Z</time>
      </trkpt>
      <trkpt lat="45.84135" lon="1.31392">
        <ele>298.8</ele>
        <time>2024-10-08T13:45:45Z</time>
      </trkpt>
      <trkpt lat="45.8414" lon="1.314">
        <ele>298.6</ele>
        <time>2024-10-08T13:45:48Z</time>
      </trkpt>
      <trkpt lat="45.84143" lon="1.31411">
        <ele>298</ele>
        <time>2024-10-08T13:45:51Z</time>
      </trkpt>
      <trkpt lat="45.84143" lon="1.31426">
        <ele>297.4</ele>
        <time>2024-10-08T13:45:54Z</time>
      </trkpt>
      <trkpt lat="45.84142" lon="1.31445">
        <ele>296.5</ele>
        <time>2024-10-08T13:45:57Z</time>
      </trkpt>
      <trkpt lat="45.84143" lon="1.3147">
        <ele>295.2</ele>
        <time>2024-10-08T13:46:00Z</time>
      </trkpt>
      <trkpt lat="45.84145" lon="1.31493">
        <ele>294.1</ele>
        <time>2024-10-08T13:46:02Z</time>
      </trkpt>
      <trkpt lat="45.84148" lon="1.31521">
        <ele>293</ele>
        <time>2024-10-08T13:46:06Z</time>
      </trkpt>
      <trkpt lat="45.84152" lon="1.31544">
        <ele>292.1</ele>
        <time>2024-10-08T13:46:08Z</time>
      </trkpt>
      <trkpt lat="45.84158" lon="1.31562">
        <ele>291.4</ele>
        <time>2024-10-08T13:46:11Z</time>
      </trkpt>
      <trkpt lat="45.84168" lon="1.31576">
        <ele>290.8</ele>
        <time>2024-10-08T13:46:14Z</time>
      </trkpt>
      <trkpt lat="45.84177" lon="1.31591">
        <ele>290.6</ele>
        <time>2024-10-08T13:46:17Z</time>
      </trkpt>
      <trkpt lat="45.84184" lon="1.31607">
        <ele>290.7</ele>
        <time>2024-10-08T13:46:20Z</time>
      </trkpt>
      <trkpt lat="45.8419" lon="1.31621">
        <ele>290.8</ele>
        <time>2024-10-08T13:46:23Z</time>
      </trkpt>
      <trkpt lat="45.84199" lon="1.3163">
        <ele>291</ele>
        <time>2024-10-08T13:46:26Z</time>
      </trkpt>
      <trkpt lat="45.84208" lon="1.31639">
        <ele>291.2</ele>
        <time>2024-10-08T13:46:29Z</time>
      </trkpt>
      <trkpt lat="45.8422" lon="1.31651">
        <ele>291.5</ele>
        <time>2024-10-08T13:46:32Z</time>
      </trkpt>
      <trkpt lat="45.84231" lon="1.31661">
        <ele>291.8</ele>
        <time>2024-10-08T13:46:35Z</time>
      </trkpt>
      <trkpt lat="45.84241" lon="1.31671">
        <ele>292.3</ele>
        <time>2024-10-08T13:46:38Z</time>
      </trkpt>
      <trkpt lat="45.84249" lon="1.31679">
        <ele>292.6</ele>
        <time>2024-10-08T13:46:41Z</time>
      </trkpt>
      <trkpt lat="45.84258" lon="1.31687">
        <ele>293</ele>
        <time>2024-10-08T13:46:44Z</time>
      </trkpt>
      <trkpt lat="45.84266" lon="1.31692">
        <ele>293.3</ele>
        <time>2024-10-08T13:46:47Z</time>
      </trkpt>
      <trkpt lat="45.84276" lon="1.31695">
        <ele>293.6</ele>
        <time>2024-10-08T13:46:51Z</time>
      </trkpt>
      <trkpt lat="45.84288" lon="1.31695">
        <ele>293.9</ele>
        <time>2024-10-08T13:46:53Z</time>
      </trkpt>
      <trkpt lat="45.84295" lon="1.31696">
        <ele>294.1</ele>
        <time>2024-10-08T13:46:56Z</time>
      </trkpt>
      <trkpt lat="45.84297" lon="1.31697">
        <ele>294.2</ele>
        <time>2024-10-08T13:47:00Z</time>
      </trkpt>
      <trkpt lat="45.84297" lon="1.31697">
        <ele>294.2</ele>
        <time>2024-10-08T13:47:03Z</time>
      </trkpt>
      <trkpt lat="45.84297" lon="1.31697">
        <ele>294.2</ele>
        <time>2024-10-08T13:47:06Z</time>
      </trkpt>
      <trkpt lat="45.84297" lon="1.31697">
        <ele>294.2</ele>
        <time>2024-10-08T13:47:09Z</time>
      </trkpt>
      <trkpt lat="45.84298" lon="1.31698">
        <ele>294.2</ele>
        <time>2024-10-08T13:47:12Z</time>
      </trkpt>
      <trkpt lat="45.84298" lon="1.31698">
        <ele>294.2</ele>
        <time>2024-10-08T13:47:15Z</time>
      </trkpt>
      <trkpt lat="45.84298" lon="1.31699">
        <ele>294.3</ele>
        <time>2024-10-08T13:47:17Z</time>
      </trkpt>
      <trkpt lat="45.84298" lon="1.31699">
        <ele>294.3</ele>
        <time>2024-10-08T13:47:21Z</time>
      </trkpt>
      <trkpt lat="45.84298" lon="1.317">
        <ele>294.3</ele>
        <time>2024-10-08T13:47:23Z</time>
      </trkpt>
      <trkpt lat="45.843" lon="1.317">
        <ele>294.3</ele>
        <time>2024-10-08T13:47:26Z</time>
      </trkpt>
      <trkpt lat="45.84308" lon="1.31704">
        <ele>294.5</ele>
        <time>2024-10-08T13:47:29Z</time>
      </trkpt>
      <trkpt lat="45.84318" lon="1.31703">
        <ele>294.8</ele>
        <time>2024-10-08T13:47:32Z</time>
      </trkpt>
      <trkpt lat="45.84329" lon="1.31701">
        <ele>295.1</ele>
        <time>2024-10-08T13:47:35Z</time>
      </trkpt>
      <trkpt lat="45.8434" lon="1.317">
        <ele>295.6</ele>
        <time>2024-10-08T13:47:38Z</time>
      </trkpt>
      <trkpt lat="45.8435" lon="1.317">
        <ele>296.2</ele>
        <time>2024-10-08T13:47:41Z</time>
      </trkpt>
      <trkpt lat="45.84361" lon="1.317">
        <ele>296.8</ele>
        <time>2024-10-08T13:47:44Z</time>
      </trkpt>
      <trkpt lat="45.84373" lon="1.317">
        <ele>297.4</ele>
        <time>2024-10-08T13:47:47Z</time>
      </trkpt>
      <trkpt lat="45.84384" lon="1.31698">
        <ele>297.9</ele>
        <time>2024-10-08T13:47:50Z</time>
      </trkpt>
      <trkpt lat="45.84395" lon="1.31696">
        <ele>298.3</ele>
        <time>2024-10-08T13:47:53Z</time>
      </trkpt>
      <trkpt lat="45.84408" lon="1.31694">
        <ele>298.5</ele>
        <time>2024-10-08T13:47:56Z</time>
      </trkpt>
      <trkpt lat="45.84423" lon="1.31693">
        <ele>298.2</ele>
        <time>2024-10-08T13:47:59Z</time>
      </trkpt>
      <trkpt lat="45.84441" lon="1.3169">
        <ele>297.5</ele>
        <time>2024-10-08T13:48:02Z</time>
      </trkpt>
      <trkpt lat="45.84459" lon="1.31688">
        <ele>296.9</ele>
        <time>2024-10-08T13:48:05Z</time>
      </trkpt>
      <trkpt lat="45.84479" lon="1.31685">
        <ele>296.2</ele>
        <time>2024-10-08T13:48:08Z</time>
      </trkpt>
      <trkpt lat="45.845" lon="1.31683">
        <ele>295.5</ele>
        <time>2024-10-08T13:48:11Z</time>
      </trkpt>
      <trkpt lat="45.84521" lon="1.31682">
        <ele>295</ele>
        <time>2024-10-08T13:48:14Z</time>
      </trkpt>
      <trkpt lat="45.84541" lon="1.31679">
        <ele>294.5</ele>
        <time>2024-10-08T13:48:17Z</time>
      </trkpt>
      <trkpt lat="45.8456" lon="1.31677">
        <ele>294.1</ele>
        <time>2024-10-08T13:48:21Z</time>
      </trkpt>
      <trkpt lat="45.8458" lon="1.31682">
        <ele>293.8</ele>
        <time>2024-10-08T13:48:24Z</time>
      </trkpt>
      <trkpt lat="45.84598" lon="1.31695">
        <ele>293.6</ele>
        <time>2024-10-08T13:48:27Z</time>
      </trkpt>
      <trkpt lat="45.84614" lon="1.3171">
        <ele>293.7</ele>
        <time>2024-10-08T13:48:30Z</time>
      </trkpt>
      <trkpt lat="45.84627" lon="1.31723">
        <ele>293.9</ele>
        <time>2024-10-08T13:48:33Z</time>
      </trkpt>
      <trkpt lat="45.84643" lon="1.31738">
        <ele>294.3</ele>
        <time>2024-10-08T13:48:36Z</time>
      </trkpt>
      <trkpt lat="45.84657" lon="1.3175">
        <ele>294.8</ele>
        <time>2024-10-08T13:48:39Z</time>
      </trkpt>
      <trkpt lat="45.84673" lon="1.31765">
        <ele>295.2</ele>
        <time>2024-10-08T13:48:42Z</time>
      </trkpt>
      <trkpt lat="45.84688" lon="1.31776">
        <ele>295.5</ele>
        <time>2024-10-08T13:48:45Z</time>
      </trkpt>
      <trkpt lat="45.84701" lon="1.3179">
        <ele>296</ele>
        <time>2024-10-08T13:48:47Z</time>
      </trkpt>
      <trkpt lat="45.8471" lon="1.31799">
        <ele>296.3</ele>
        <time>2024-10-08T13:48:50Z</time>
      </trkpt>
      <trkpt lat="45.84719" lon="1.31808">
        <ele>296.7</ele>
        <time>2024-10-08T13:48:53Z</time>
      </trkpt>
      <trkpt lat="45.84728" lon="1.31817">
        <ele>297.2</ele>
        <time>2024-10-08T13:48:56Z</time>
      </trkpt>
      <trkpt lat="45.84738" lon="1.31829">
        <ele>297.8</ele>
        <time>2024-10-08T13:48:59Z</time>
      </trkpt>
      <trkpt lat="45.84751" lon="1.31845">
        <ele>298.6</ele>
        <time>2024-10-08T13:49:02Z</time>
      </trkpt>
      <trkpt lat="45.84763" lon="1.31858">
        <ele>299.3</ele>
        <time>2024-10-08T13:49:05Z</time>
      </trkpt>
      <trkpt lat="45.84775" lon="1.31875">
        <ele>300</ele>
        <time>2024-10-08T13:49:08Z</time>
      </trkpt>
      <trkpt lat="45.84787" lon="1.3189">
        <ele>300.7</ele>
        <time>2024-10-08T13:49:11Z</time>
      </trkpt>
      <trkpt lat="45.84798" lon="1.31902">
        <ele>301.3</ele>
        <time>2024-10-08T13:49:14Z</time>
      </trkpt>
      <trkpt lat="45.84809" lon="1.31912">
        <ele>301.8</ele>
        <time>2024-10-08T13:49:17Z</time>
      </trkpt>
      <trkpt lat="45.84823" lon="1.31924">
        <ele>302.3</ele>
        <time>2024-10-08T13:49:20Z</time>
      </trkpt>
      <trkpt lat="45.84837" lon="1.31936">
        <ele>302.7</ele>
        <time>2024-10-08T13:49:23Z</time>
      </trkpt>
      <trkpt lat="45.84851" lon="1.3195">
        <ele>302.9</ele>
        <time>2024-10-08T13:49:26Z</time>
      </trkpt>
      <trkpt lat="45.84862" lon="1.31966">
        <ele>303</ele>
        <time>2024-10-08T13:49:29Z</time>
      </trkpt>
      <trkpt lat="45.84872" lon="1.31987">
        <ele>303.1</ele>
        <time>2024-10-08T13:49:32Z</time>
      </trkpt>
      <trkpt lat="45.8488" lon="1.3201">
        <ele>303.1</ele>
        <time>2024-10-08T13:49:35Z</time>
      </trkpt>
      <trkpt lat="45.84886" lon="1.32034">
        <ele>303</ele>
        <time>2024-10-08T13:49:39Z</time>
      </trkpt>
      <trkpt lat="45.84892" lon="1.32059">
        <ele>302.9</ele>
        <time>2024-10-08T13:49:41Z</time>
      </trkpt>
      <trkpt lat="45.84898" lon="1.32084">
        <ele>302.7</ele>
        <time>2024-10-08T13:49:45Z</time>
      </trkpt>
      <trkpt lat="45.84902" lon="1.32109">
        <ele>302.4</ele>
        <time>2024-10-08T13:49:48Z</time>
      </trkpt>
      <trkpt lat="45.84909" lon="1.32134">
        <ele>302</ele>
        <time>2024-10-08T13:49:51Z</time>
      </trkpt>
      <trkpt lat="45.84916" lon="1.32162">
        <ele>301.4</ele>
        <time>2024-10-08T13:49:54Z</time>
      </trkpt>
      <trkpt lat="45.84925" lon="1.32188">
        <ele>300.6</ele>
        <time>2024-10-08T13:49:57Z</time>
      </trkpt>
      <trkpt lat="45.84938" lon="1.32215">
        <ele>299.5</ele>
        <time>2024-10-08T13:50:00Z</time>
      </trkpt>
      <trkpt lat="45.84954" lon="1.32241">
        <ele>298.5</ele>
        <time>2024-10-08T13:50:03Z</time>
      </trkpt>
      <trkpt lat="45.84971" lon="1.32262">
        <ele>297.7</ele>
        <time>2024-10-08T13:50:05Z</time>
      </trkpt>
      <trkpt lat="45.8499" lon="1.32279">
        <ele>297</ele>
        <time>2024-10-08T13:50:08Z</time>
      </trkpt>
      <trkpt lat="45.85013" lon="1.32293">
        <ele>296.5</ele>
        <time>2024-10-08T13:50:11Z</time>
      </trkpt>
      <trkpt lat="45.85032" lon="1.32304">
        <ele>296.4</ele>
        <time>2024-10-08T13:50:14Z</time>
      </trkpt>
      <trkpt lat="45.85051" lon="1.3231">
        <ele>296.3</ele>
        <time>2024-10-08T13:50:17Z</time>
      </trkpt>
      <trkpt lat="45.8507" lon="1.32313">
        <ele>296.4</ele>
        <time>2024-10-08T13:50:20Z</time>
      </trkpt>
      <trkpt lat="45.8509" lon="1.32316">
        <ele>296.4</ele>
        <time>2024-10-08T13:50:23Z</time>
      </trkpt>
      <trkpt lat="45.85109" lon="1.32319">
        <ele>296.3</ele>
        <time>2024-10-08T13:50:26Z</time>
      </trkpt>
      <trkpt lat="45.85128" lon="1.32322">
        <ele>296.3</ele>
        <time>2024-10-08T13:50:29Z</time>
      </trkpt>
      <trkpt lat="45.85146" lon="1.32325">
        <ele>296.3</ele>
        <time>2024-10-08T13:50:32Z</time>
      </trkpt>
      <trkpt lat="45.85164" lon="1.32328">
        <ele>296.3</ele>
        <time>2024-10-08T13:50:35Z</time>
      </trkpt>
      <trkpt lat="45.85182" lon="1.3233">
        <ele>296.2</ele>
        <time>2024-10-08T13:50:38Z</time>
      </trkpt>
      <trkpt lat="45.852" lon="1.3233">
        <ele>296.1</ele>
        <time>2024-10-08T13:50:41Z</time>
      </trkpt>
      <trkpt lat="45.85218" lon="1.32327">
        <ele>295.9</ele>
        <time>2024-10-08T13:50:44Z</time>
      </trkpt>
      <trkpt lat="45.85235" lon="1.32321">
        <ele>295.8</ele>
        <time>2024-10-08T13:50:47Z</time>
      </trkpt>
      <trkpt lat="45.85254" lon="1.32313">
        <ele>295.7</ele>
        <time>2024-10-08T13:50:50Z</time>
      </trkpt>
      <trkpt lat="45.85272" lon="1.32305">
        <ele>295.4</ele>
        <time>2024-10-08T13:50:53Z</time>
      </trkpt>
      <trkpt lat="45.85291" lon="1.32297">
        <ele>294.9</ele>
        <time>2024-10-08T13:50:57Z</time>
      </trkpt>
      <trkpt lat="45.8531" lon="1.32286">
        <ele>294.5</ele>
        <time>2024-10-08T13:51:00Z</time>
      </trkpt>
      <trkpt lat="45.85328" lon="1.3228">
        <ele>294.2</ele>
        <time>2024-10-08T13:51:03Z</time>
      </trkpt>
      <trkpt lat="45.8535" lon="1.32273">
        <ele>293.8</ele>
        <time>2024-10-08T13:51:06Z</time>
      </trkpt>
      <trkpt lat="45.85371" lon="1.3226">
        <ele>293.2</ele>
        <time>2024-10-08T13:51:09Z</time>
      </trkpt>
      <trkpt lat="45.8539" lon="1.32247">
        <ele>292.4</ele>
        <time>2024-10-08T13:51:12Z</time>
      </trkpt>
      <trkpt lat="45.8541" lon="1.32237">
        <ele>291.6</ele>
        <time>2024-10-08T13:51:15Z</time>
      </trkpt>
      <trkpt lat="45.85432" lon="1.32225">
        <ele>290.5</ele>
        <time>2024-10-08T13:51:17Z</time>
      </trkpt>
      <trkpt lat="45.85454" lon="1.32214">
        <ele>289.3</ele>
        <time>2024-10-08T13:51:20Z</time>
      </trkpt>
      <trkpt lat="45.85478" lon="1.32205">
        <ele>288</ele>
        <time>2024-10-08T13:51:23Z</time>
      </trkpt>
      <trkpt lat="45.85502" lon="1.32203">
        <ele>286.4</ele>
        <time>2024-10-08T13:51:26Z</time>
      </trkpt>
      <trkpt lat="45.85529" lon="1.32207">
        <ele>284.5</ele>
        <time>2024-10-08T13:51:29Z</time>
      </trkpt>
      <trkpt lat="45.85554" lon="1.32223">
        <ele>282.7</ele>
        <time>2024-10-08T13:51:32Z</time>
      </trkpt>
      <trkpt lat="45.85581" lon="1.32245">
        <ele>280.5</ele>
        <time>2024-10-08T13:51:35Z</time>
      </trkpt>
      <trkpt lat="45.85607" lon="1.32268">
        <ele>278.4</ele>
        <time>2024-10-08T13:51:38Z</time>
      </trkpt>
      <trkpt lat="45.85634" lon="1.32292">
        <ele>276</ele>
        <time>2024-10-08T13:51:41Z</time>
      </trkpt>
      <trkpt lat="45.85662" lon="1.32317">
        <ele>273.2</ele>
        <time>2024-10-08T13:51:44Z</time>
      </trkpt>
      <trkpt lat="45.85691" lon="1.32343">
        <ele>270.8</ele>
        <time>2024-10-08T13:51:47Z</time>
      </trkpt>
      <trkpt lat="45.85717" lon="1.32383">
        <ele>267.2</ele>
        <time>2024-10-08T13:51:50Z</time>
      </trkpt>
      <trkpt lat="45.85733" lon="1.32432">
        <ele>263.4</ele>
        <time>2024-10-08T13:51:53Z</time>
      </trkpt>
      <trkpt lat="45.85749" lon="1.3248">
        <ele>259.7</ele>
        <time>2024-10-08T13:51:56Z</time>
      </trkpt>
      <trkpt lat="45.85774" lon="1.3252">
        <ele>256.1</ele>
        <time>2024-10-08T13:51:59Z</time>
      </trkpt>
      <trkpt lat="45.85807" lon="1.32545">
        <ele>252.7</ele>
        <time>2024-10-08T13:52:02Z</time>
      </trkpt>
      <trkpt lat="45.85842" lon="1.32561">
        <ele>249.5</ele>
        <time>2024-10-08T13:52:05Z</time>
      </trkpt>
      <trkpt lat="45.85879" lon="1.32581">
        <ele>245.9</ele>
        <time>2024-10-08T13:52:08Z</time>
      </trkpt>
      <trkpt lat="45.8591" lon="1.32618">
        <ele>242.4</ele>
        <time>2024-10-08T13:52:12Z</time>
      </trkpt>
      <trkpt lat="45.85935" lon="1.32658">
        <ele>239.4</ele>
        <time>2024-10-08T13:52:14Z</time>
      </trkpt>
      <trkpt lat="45.85958" lon="1.32694">
        <ele>236.6</ele>
        <time>2024-10-08T13:52:17Z</time>
      </trkpt>
      <trkpt lat="45.85983" lon="1.32712">
        <ele>234.8</ele>
        <time>2024-10-08T13:52:21Z</time>
      </trkpt>
      <trkpt lat="45.86007" lon="1.32703">
        <ele>234.5</ele>
        <time>2024-10-08T13:52:24Z</time>
      </trkpt>
      <trkpt lat="45.86021" lon="1.32678">
        <ele>234.3</ele>
        <time>2024-10-08T13:52:27Z</time>
      </trkpt>
      <trkpt lat="45.86035" lon="1.32655">
        <ele>234.2</ele>
        <time>2024-10-08T13:52:30Z</time>
      </trkpt>
      <trkpt lat="45.86047" lon="1.32634">
        <ele>234.1</ele>
        <time>2024-10-08T13:52:33Z</time>
      </trkpt>
      <trkpt lat="45.86059" lon="1.32613">
        <ele>234.1</ele>
        <time>2024-10-08T13:52:36Z</time>
      </trkpt>
      <trkpt lat="45.86071" lon="1.32593">
        <ele>234</ele>
        <time>2024-10-08T13:52:39Z</time>
      </trkpt>
      <trkpt lat="45.86082" lon="1.32574">
        <ele>233.9</ele>
        <time>2024-10-08T13:52:42Z</time>
      </trkpt>
      <trkpt lat="45.86089" lon="1.32559">
        <ele>234</ele>
        <time>2024-10-08T13:52:44Z</time>
      </trkpt>
      <trkpt lat="45.86088" lon="1.32545">
        <ele>233.6</ele>
        <time>2024-10-08T13:52:47Z</time>
      </trkpt>
      <trkpt lat="45.86083" lon="1.32531">
        <ele>232.8</ele>
        <time>2024-10-08T13:52:50Z</time>
      </trkpt>
      <trkpt lat="45.86076" lon="1.32518">
        <ele>231.5</ele>
        <time>2024-10-08T13:52:53Z</time>
      </trkpt>
      <trkpt lat="45.86062" lon="1.32519">
        <ele>229.4</ele>
        <time>2024-10-08T13:52:56Z</time>
      </trkpt>
      <trkpt lat="45.86046" lon="1.32538">
        <ele>227.1</ele>
        <time>2024-10-08T13:52:59Z</time>
      </trkpt>
      <trkpt lat="45.86028" lon="1.32558">
        <ele>226.7</ele>
        <time>2024-10-08T13:53:02Z</time>
      </trkpt>
      <trkpt lat="45.86015" lon="1.32572">
        <ele>226.7</ele>
        <time>2024-10-08T13:53:05Z</time>
      </trkpt>
      <trkpt lat="45.86002" lon="1.32563">
        <ele>226.6</ele>
        <time>2024-10-08T13:53:08Z</time>
      </trkpt>
      <trkpt lat="45.85993" lon="1.32549">
        <ele>226.5</ele>
        <time>2024-10-08T13:53:11Z</time>
      </trkpt>
      <trkpt lat="45.85985" lon="1.32533">
        <ele>226.4</ele>
        <time>2024-10-08T13:53:14Z</time>
      </trkpt>
      <trkpt lat="45.85978" lon="1.32515">
        <ele>226.4</ele>
        <time>2024-10-08T13:53:17Z</time>
      </trkpt>
      <trkpt lat="45.8597" lon="1.32497">
        <ele>226.4</ele>
        <time>2024-10-08T13:53:20Z</time>
      </trkpt>
      <trkpt lat="45.85962" lon="1.32479">
        <ele>226.5</ele>
        <time>2024-10-08T13:53:23Z</time>
      </trkpt>
      <trkpt lat="45.85955" lon="1.32461">
        <ele>226.5</ele>
        <time>2024-10-08T13:53:26Z</time>
      </trkpt>
      <trkpt lat="45.8595" lon="1.32444">
        <ele>226.4</ele>
        <time>2024-10-08T13:53:29Z</time>
      </trkpt>
      <trkpt lat="45.8595" lon="1.32422">
        <ele>226.2</ele>
        <time>2024-10-08T13:53:32Z</time>
      </trkpt>
      <trkpt lat="45.85951" lon="1.324">
        <ele>226.1</ele>
        <time>2024-10-08T13:53:35Z</time>
      </trkpt>
      <trkpt lat="45.85952" lon="1.32378">
        <ele>226</ele>
        <time>2024-10-08T13:53:38Z</time>
      </trkpt>
      <trkpt lat="45.85954" lon="1.32356">
        <ele>226</ele>
        <time>2024-10-08T13:53:41Z</time>
      </trkpt>
      <trkpt lat="45.85957" lon="1.32336">
        <ele>226</ele>
        <time>2024-10-08T13:53:45Z</time>
      </trkpt>
      <trkpt lat="45.85959" lon="1.32319">
        <ele>226.1</ele>
        <time>2024-10-08T13:53:48Z</time>
      </trkpt>
      <trkpt lat="45.8596" lon="1.323">
        <ele>226.2</ele>
        <time>2024-10-08T13:53:51Z</time>
      </trkpt>
      <trkpt lat="45.85961" lon="1.3228">
        <ele>226.2</ele>
        <time>2024-10-08T13:53:54Z</time>
      </trkpt>
      <trkpt lat="45.85957" lon="1.3226">
        <ele>226.2</ele>
        <time>2024-10-08T13:53:56Z</time>
      </trkpt>
      <trkpt lat="45.85954" lon="1.32238">
        <ele>226.1</ele>
        <time>2024-10-08T13:54:00Z</time>
      </trkpt>
      <trkpt lat="45.8595" lon="1.32219">
        <ele>226.1</ele>
        <time>2024-10-08T13:54:02Z</time>
      </trkpt>
      <trkpt lat="45.85947" lon="1.32198">
        <ele>226.1</ele>
        <time>2024-10-08T13:54:05Z</time>
      </trkpt>
      <trkpt lat="45.85945" lon="1.3218">
        <ele>226.1</ele>
        <time>2024-10-08T13:54:08Z</time>
      </trkpt>
      <trkpt lat="45.8594" lon="1.32161">
        <ele>226.2</ele>
        <time>2024-10-08T13:54:11Z</time>
      </trkpt>
      <trkpt lat="45.85938" lon="1.32142">
        <ele>226.4</ele>
        <time>2024-10-08T13:54:14Z</time>
      </trkpt>
      <trkpt lat="45.85938" lon="1.32127">
        <ele>226.4</ele>
        <time>2024-10-08T13:54:17Z</time>
      </trkpt>
      <trkpt lat="45.85935" lon="1.32107">
        <ele>226.3</ele>
        <time>2024-10-08T13:54:20Z</time>
      </trkpt>
      <trkpt lat="45.85929" lon="1.32087">
        <ele>226.3</ele>
        <time>2024-10-08T13:54:23Z</time>
      </trkpt>
      <trkpt lat="45.85923" lon="1.32068">
        <ele>226.2</ele>
        <time>2024-10-08T13:54:26Z</time>
      </trkpt>
      <trkpt lat="45.85917" lon="1.32052">
        <ele>226.2</ele>
        <time>2024-10-08T13:54:29Z</time>
      </trkpt>
      <trkpt lat="45.85909" lon="1.32036">
        <ele>226.2</ele>
        <time>2024-10-08T13:54:32Z</time>
      </trkpt>
      <trkpt lat="45.85903" lon="1.32018">
        <ele>226.2</ele>
        <time>2024-10-08T13:54:35Z</time>
      </trkpt>
      <trkpt lat="45.85897" lon="1.32002">
        <ele>226.3</ele>
        <time>2024-10-08T13:54:38Z</time>
      </trkpt>
      <trkpt lat="45.85894" lon="1.31985">
        <ele>226.4</ele>
        <time>2024-10-08T13:54:41Z</time>
      </trkpt>
      <trkpt lat="45.85892" lon="1.31969">
        <ele>226.5</ele>
        <time>2024-10-08T13:54:44Z</time>
      </trkpt>
      <trkpt lat="45.8589" lon="1.31953">
        <ele>226.6</ele>
        <time>2024-10-08T13:54:47Z</time>
      </trkpt>
      <trkpt lat="45.85885" lon="1.31936">
        <ele>226.5</ele>
        <time>2024-10-08T13:54:50Z</time>
      </trkpt>
      <trkpt lat="45.85878" lon="1.3192">
        <ele>226.4</ele>
        <time>2024-10-08T13:54:53Z</time>
      </trkpt>
      <trkpt lat="45.85872" lon="1.31901">
        <ele>226.3</ele>
        <time>2024-10-08T13:54:56Z</time>
      </trkpt>
      <trkpt lat="45.85867" lon="1.31882">
        <ele>226.2</ele>
        <time>2024-10-08T13:54:59Z</time>
      </trkpt>
      <trkpt lat="45.85861" lon="1.31865">
        <ele>226.2</ele>
        <time>2024-10-08T13:55:03Z</time>
      </trkpt>
      <trkpt lat="45.85857" lon="1.3185">
        <ele>226.2</ele>
        <time>2024-10-08T13:55:05Z</time>
      </trkpt>
      <trkpt lat="45.85852" lon="1.3184">
        <ele>226.2</ele>
        <time>2024-10-08T13:55:09Z</time>
      </trkpt>
      <trkpt lat="45.85849" lon="1.31827">
        <ele>226.2</ele>
        <time>2024-10-08T13:55:11Z</time>
      </trkpt>
      <trkpt lat="45.85846" lon="1.31818">
        <ele>226.3</ele>
        <time>2024-10-08T13:55:15Z</time>
      </trkpt>
      <trkpt lat="45.85842" lon="1.31809">
        <ele>226.3</ele>
        <time>2024-10-08T13:55:18Z</time>
      </trkpt>
      <trkpt lat="45.85838" lon="1.31803">
        <ele>226.3</ele>
        <time>2024-10-08T13:55:21Z</time>
      </trkpt>
      <trkpt lat="45.85836" lon="1.31797">
        <ele>226.3</ele>
        <time>2024-10-08T13:55:23Z</time>
      </trkpt>
      <trkpt lat="45.85832" lon="1.31787">
        <ele>226.2</ele>
        <time>2024-10-08T13:55:26Z</time>
      </trkpt>
      <trkpt lat="45.85826" lon="1.31778">
        <ele>226.2</ele>
        <time>2024-10-08T13:55:29Z</time>
      </trkpt>
      <trkpt lat="45.8582" lon="1.31767">
        <ele>226.1</ele>
        <time>2024-10-08T13:55:32Z</time>
      </trkpt>
      <trkpt lat="45.85814" lon="1.31756">
        <ele>226</ele>
        <time>2024-10-08T13:55:35Z</time>
      </trkpt>
      <trkpt lat="45.8581" lon="1.31747">
        <ele>226</ele>
        <time>2024-10-08T13:55:38Z</time>
      </trkpt>
      <trkpt lat="45.85805" lon="1.3174">
        <ele>226</ele>
        <time>2024-10-08T13:55:41Z</time>
      </trkpt>
      <trkpt lat="45.858" lon="1.31733">
        <ele>226</ele>
        <time>2024-10-08T13:55:44Z</time>
      </trkpt>
      <trkpt lat="45.85795" lon="1.31725">
        <ele>226</ele>
        <time>2024-10-08T13:55:47Z</time>
      </trkpt>
      <trkpt lat="45.85789" lon="1.31717">
        <ele>226</ele>
        <time>2024-10-08T13:55:50Z</time>
      </trkpt>
      <trkpt lat="45.85782" lon="1.3171">
        <ele>226.1</ele>
        <time>2024-10-08T13:55:53Z</time>
      </trkpt>
      <trkpt lat="45.85777" lon="1.31703">
        <ele>226.2</ele>
        <time>2024-10-08T13:55:56Z</time>
      </trkpt>
      <trkpt lat="45.85771" lon="1.31697">
        <ele>226.3</ele>
        <time>2024-10-08T13:55:59Z</time>
      </trkpt>
      <trkpt lat="45.85768" lon="1.3169">
        <ele>226.4</ele>
        <time>2024-10-08T13:56:02Z</time>
      </trkpt>
      <trkpt lat="45.85767" lon="1.31681">
        <ele>226.7</ele>
        <time>2024-10-08T13:56:05Z</time>
      </trkpt>
      <trkpt lat="45.85767" lon="1.31669">
        <ele>227.1</ele>
        <time>2024-10-08T13:56:08Z</time>
      </trkpt>
      <trkpt lat="45.85771" lon="1.31659">
        <ele>227.9</ele>
        <time>2024-10-08T13:56:11Z</time>
      </trkpt>
      <trkpt lat="45.85777" lon="1.31652">
        <ele>229</ele>
        <time>2024-10-08T13:56:14Z</time>
      </trkpt>
      <trkpt lat="45.85781" lon="1.31645">
        <ele>230.1</ele>
        <time>2024-10-08T13:56:17Z</time>
      </trkpt>
      <trkpt lat="45.85784" lon="1.31638">
        <ele>231.1</ele>
        <time>2024-10-08T13:56:20Z</time>
      </trkpt>
      <trkpt lat="45.85787" lon="1.31633">
        <ele>231.9</ele>
        <time>2024-10-08T13:56:24Z</time>
      </trkpt>
      <trkpt lat="45.85789" lon="1.3163">
        <ele>232.5</ele>
        <time>2024-10-08T13:56:26Z</time>
      </trkpt>
      <trkpt lat="45.8579" lon="1.31625">
        <ele>233.1</ele>
        <time>2024-10-08T13:56:30Z</time>
      </trkpt>
      <trkpt lat="45.8579" lon="1.31618">
        <ele>233.9</ele>
        <time>2024-10-08T13:56:33Z</time>
      </trkpt>
      <trkpt lat="45.8579" lon="1.31611">
        <ele>234.8</ele>
        <time>2024-10-08T13:56:36Z</time>
      </trkpt>
      <trkpt lat="45.8579" lon="1.31605">
        <ele>235.7</ele>
        <time>2024-10-08T13:56:39Z</time>
      </trkpt>
      <trkpt lat="45.8579" lon="1.31597">
        <ele>236.7</ele>
        <time>2024-10-08T13:56:42Z</time>
      </trkpt>
      <trkpt lat="45.85792" lon="1.31588">
        <ele>237.9</ele>
        <time>2024-10-08T13:56:44Z</time>
      </trkpt>
      <trkpt lat="45.85792" lon="1.3158">
        <ele>239.2</ele>
        <time>2024-10-08T13:56:47Z</time>
      </trkpt>
      <trkpt lat="45.85794" lon="1.31575">
        <ele>240.1</ele>
        <time>2024-10-08T13:56:50Z</time>
      </trkpt>
      <trkpt lat="45.85797" lon="1.31572">
        <ele>240.8</ele>
        <time>2024-10-08T13:56:53Z</time>
      </trkpt>
      <trkpt lat="45.85799" lon="1.3157">
        <ele>241.4</ele>
        <time>2024-10-08T13:56:56Z</time>
      </trkpt>
      <trkpt lat="45.85802" lon="1.31568">
        <ele>242.3</ele>
        <time>2024-10-08T13:56:59Z</time>
      </trkpt>
      <trkpt lat="45.85806" lon="1.31562">
        <ele>243.6</ele>
        <time>2024-10-08T13:57:02Z</time>
      </trkpt>
      <trkpt lat="45.85808" lon="1.31557">
        <ele>244.7</ele>
        <time>2024-10-08T13:57:05Z</time>
      </trkpt>
      <trkpt lat="45.85811" lon="1.3155">
        <ele>247.7</ele>
        <time>2024-10-08T13:57:08Z</time>
      </trkpt>
      <trkpt lat="45.85813" lon="1.31543">
        <ele>248</ele>
        <time>2024-10-08T13:57:11Z</time>
      </trkpt>
      <trkpt lat="45.85813" lon="1.31536">
        <ele>248.2</ele>
        <time>2024-10-08T13:57:14Z</time>
      </trkpt>
      <trkpt lat="45.85814" lon="1.31529">
        <ele>248.3</ele>
        <time>2024-10-08T13:57:17Z</time>
      </trkpt>
      <trkpt lat="45.85813" lon="1.31522">
        <ele>248.4</ele>
        <time>2024-10-08T13:57:20Z</time>
      </trkpt>
      <trkpt lat="45.85812" lon="1.31515">
        <ele>248.4</ele>
        <time>2024-10-08T13:57:23Z</time>
      </trkpt>
      <trkpt lat="45.8581" lon="1.31506">
        <ele>248.4</ele>
        <time>2024-10-08T13:57:26Z</time>
      </trkpt>
      <trkpt lat="45.85806" lon="1.31496">
        <ele>248.4</ele>
        <time>2024-10-08T13:57:29Z</time>
      </trkpt>
      <trkpt lat="45.85801" lon="1.31484">
        <ele>248.3</ele>
        <time>2024-10-08T13:57:32Z</time>
      </trkpt>
      <trkpt lat="45.85796" lon="1.31471">
        <ele>248.3</ele>
        <time>2024-10-08T13:57:35Z</time>
      </trkpt>
      <trkpt lat="45.8579" lon="1.31456">
        <ele>248.4</ele>
        <time>2024-10-08T13:57:38Z</time>
      </trkpt>
      <trkpt lat="45.85785" lon="1.3144">
        <ele>248.5</ele>
        <time>2024-10-08T13:57:41Z</time>
      </trkpt>
      <trkpt lat="45.85782" lon="1.31425">
        <ele>248.6</ele>
        <time>2024-10-08T13:57:45Z</time>
      </trkpt>
      <trkpt lat="45.85782" lon="1.3141">
        <ele>248.7</ele>
        <time>2024-10-08T13:57:48Z</time>
      </trkpt>
      <trkpt lat="45.85784" lon="1.31396">
        <ele>248.7</ele>
        <time>2024-10-08T13:57:51Z</time>
      </trkpt>
      <trkpt lat="45.85791" lon="1.31382">
        <ele>248.5</ele>
        <time>2024-10-08T13:57:54Z</time>
      </trkpt>
      <trkpt lat="45.85802" lon="1.31374">
        <ele>248.5</ele>
        <time>2024-10-08T13:57:57Z</time>
      </trkpt>
      <trkpt lat="45.85808" lon="1.31371">
        <ele>248.6</ele>
        <time>2024-10-08T13:58:00Z</time>
      </trkpt>
      <trkpt lat="45.85809" lon="1.31371">
        <ele>248.6</ele>
        <time>2024-10-08T13:58:03Z</time>
      </trkpt>
      <trkpt lat="45.8581" lon="1.31371">
        <ele>248.6</ele>
        <time>2024-10-08T13:58:06Z</time>
      </trkpt>
      <trkpt lat="45.8581" lon="1.31372">
        <ele>248.6</ele>
        <time>2024-10-08T13:58:08Z</time>
      </trkpt>
      <trkpt lat="45.85814" lon="1.31369">
        <ele>248.7</ele>
        <time>2024-10-08T13:58:12Z</time>
      </trkpt>
      <trkpt lat="45.85812" lon="1.31357">
        <ele>248.3</ele>
        <time>2024-10-08T13:58:14Z</time>
      </trkpt>
      <trkpt lat="45.85805" lon="1.31345">
        <ele>248.1</ele>
        <time>2024-10-08T13:58:17Z</time>
      </trkpt>
      <trkpt lat="45.858" lon="1.31334">
        <ele>248</ele>
        <time>2024-10-08T13:58:20Z</time>
      </trkpt>
      <trkpt lat="45.85794" lon="1.31322">
        <ele>248</ele>
        <time>2024-10-08T13:58:23Z</time>
      </trkpt>
      <trkpt lat="45.85787" lon="1.3131">
        <ele>248.2</ele>
        <time>2024-10-08T13:58:26Z</time>
      </trkpt>
      <trkpt lat="45.85781" lon="1.31299">
        <ele>248.5</ele>
        <time>2024-10-08T13:58:29Z</time>
      </trkpt>
      <trkpt lat="45.85776" lon="1.31289">
        <ele>248.9</ele>
        <time>2024-10-08T13:58:33Z</time>
      </trkpt>
      <trkpt lat="45.85771" lon="1.31278">
        <ele>249.4</ele>
        <time>2024-10-08T13:58:35Z</time>
      </trkpt>
      <trkpt lat="45.85767" lon="1.31267">
        <ele>249.9</ele>
        <time>2024-10-08T13:58:38Z</time>
      </trkpt>
      <trkpt lat="45.85761" lon="1.31256">
        <ele>250.4</ele>
        <time>2024-10-08T13:58:41Z</time>
      </trkpt>
      <trkpt lat="45.85756" lon="1.31247">
        <ele>250.9</ele>
        <time>2024-10-08T13:58:44Z</time>
      </trkpt>
      <trkpt lat="45.85751" lon="1.31236">
        <ele>251.3</ele>
        <time>2024-10-08T13:58:47Z</time>
      </trkpt>
      <trkpt lat="45.85746" lon="1.31226">
        <ele>251.8</ele>
        <time>2024-10-08T13:58:50Z</time>
      </trkpt>
      <trkpt lat="45.85741" lon="1.31216">
        <ele>252.3</ele>
        <time>2024-10-08T13:58:53Z</time>
      </trkpt>
      <trkpt lat="45.85737" lon="1.31205">
        <ele>252.8</ele>
        <time>2024-10-08T13:58:56Z</time>
      </trkpt>
      <trkpt lat="45.85732" lon="1.31195">
        <ele>253.2</ele>
        <time>2024-10-08T13:59:00Z</time>
      </trkpt>
      <trkpt lat="45.85727" lon="1.31186">
        <ele>253.7</ele>
        <time>2024-10-08T13:59:02Z</time>
      </trkpt>
      <trkpt lat="45.85721" lon="1.31176">
        <ele>254.1</ele>
        <time>2024-10-08T13:59:05Z</time>
      </trkpt>
      <trkpt lat="45.85716" lon="1.31166">
        <ele>254.6</ele>
        <time>2024-10-08T13:59:09Z</time>
      </trkpt>
      <trkpt lat="45.85712" lon="1.31156">
        <ele>255</ele>
        <time>2024-10-08T13:59:12Z</time>
      </trkpt>
      <trkpt lat="45.85707" lon="1.31146">
        <ele>255.4</ele>
        <time>2024-10-08T13:59:15Z</time>
      </trkpt>
      <trkpt lat="45.85702" lon="1.31133">
        <ele>255.9</ele>
        <time>2024-10-08T13:59:18Z</time>
      </trkpt>
      <trkpt lat="45.85696" lon="1.31121">
        <ele>256.5</ele>
        <time>2024-10-08T13:59:21Z</time>
      </trkpt>
      <trkpt lat="45.85692" lon="1.31109">
        <ele>257</ele>
        <time>2024-10-08T13:59:24Z</time>
      </trkpt>
      <trkpt lat="45.85687" lon="1.31097">
        <ele>257.5</ele>
        <time>2024-10-08T13:59:26Z</time>
      </trkpt>
      <trkpt lat="45.85682" lon="1.31086">
        <ele>258</ele>
        <time>2024-10-08T13:59:30Z</time>
      </trkpt>
      <trkpt lat="45.85678" lon="1.31075">
        <ele>258.4</ele>
        <time>2024-10-08T13:59:32Z</time>
      </trkpt>
      <trkpt lat="45.85675" lon="1.31063">
        <ele>258.9</ele>
        <time>2024-10-08T13:59:35Z</time>
      </trkpt>
      <trkpt lat="45.85674" lon="1.31051">
        <ele>259.4</ele>
        <time>2024-10-08T13:59:38Z</time>
      </trkpt>
      <trkpt lat="45.85675" lon="1.31039">
        <ele>259.9</ele>
        <time>2024-10-08T13:59:41Z</time>
      </trkpt>
      <trkpt lat="45.85672" lon="1.31028">
        <ele>260</ele>
        <time>2024-10-08T13:59:44Z</time>
      </trkpt>
      <trkpt lat="45.85663" lon="1.31027">
        <ele>260</ele>
        <time>2024-10-08T13:59:47Z</time>
      </trkpt>
      <trkpt lat="45.85654" lon="1.31025">
        <ele>260.1</ele>
        <time>2024-10-08T13:59:50Z</time>
      </trkpt>
      <trkpt lat="45.85648" lon="1.31011">
        <ele>260.2</ele>
        <time>2024-10-08T13:59:53Z</time>
      </trkpt>
      <trkpt lat="45.85641" lon="1.30999">
        <ele>260.4</ele>
        <time>2024-10-08T13:59:56Z</time>
      </trkpt>
      <trkpt lat="45.85635" lon="1.30985">
        <ele>260.6</ele>
        <time>2024-10-08T13:59:59Z</time>
      </trkpt>
      <trkpt lat="45.85628" lon="1.30973">
        <ele>260.9</ele>
        <time>2024-10-08T14:00:02Z</time>
      </trkpt>
      <trkpt lat="45.85622" lon="1.30961">
        <ele>261.2</ele>
        <time>2024-10-08T14:00:05Z</time>
      </trkpt>
      <trkpt lat="45.85616" lon="1.3095">
        <ele>261.6</ele>
        <time>2024-10-08T14:00:08Z</time>
      </trkpt>
      <trkpt lat="45.85609" lon="1.3094">
        <ele>261.9</ele>
        <time>2024-10-08T14:00:11Z</time>
      </trkpt>
      <trkpt lat="45.85604" lon="1.30928">
        <ele>262.3</ele>
        <time>2024-10-08T14:00:15Z</time>
      </trkpt>
      <trkpt lat="45.85598" lon="1.30917">
        <ele>262.7</ele>
        <time>2024-10-08T14:00:17Z</time>
      </trkpt>
      <trkpt lat="45.85591" lon="1.30905">
        <ele>263</ele>
        <time>2024-10-08T14:00:21Z</time>
      </trkpt>
      <trkpt lat="45.85584" lon="1.30893">
        <ele>263.2</ele>
        <time>2024-10-08T14:00:23Z</time>
      </trkpt>
      <trkpt lat="45.85576" lon="1.3088">
        <ele>263.4</ele>
        <time>2024-10-08T14:00:27Z</time>
      </trkpt>
      <trkpt lat="45.85569" lon="1.30866">
        <ele>263.5</ele>
        <time>2024-10-08T14:00:30Z</time>
      </trkpt>
      <trkpt lat="45.85564" lon="1.30852">
        <ele>263.7</ele>
        <time>2024-10-08T14:00:33Z</time>
      </trkpt>
      <trkpt lat="45.85558" lon="1.30841">
        <ele>263.7</ele>
        <time>2024-10-08T14:00:36Z</time>
      </trkpt>
      <trkpt lat="45.85549" lon="1.30828">
        <ele>263.6</ele>
        <time>2024-10-08T14:00:39Z</time>
      </trkpt>
      <trkpt lat="45.85541" lon="1.30814">
        <ele>263.4</ele>
        <time>2024-10-08T14:00:42Z</time>
      </trkpt>
      <trkpt lat="45.85533" lon="1.30801">
        <ele>263.2</ele>
        <time>2024-10-08T14:00:45Z</time>
      </trkpt>
      <trkpt lat="45.85524" lon="1.30788">
        <ele>262.9</ele>
        <time>2024-10-08T14:00:48Z</time>
      </trkpt>
      <trkpt lat="45.85517" lon="1.30775">
        <ele>262.6</ele>
        <time>2024-10-08T14:00:51Z</time>
      </trkpt>
      <trkpt lat="45.85509" lon="1.3076">
        <ele>262.3</ele>
        <time>2024-10-08T14:00:54Z</time>
      </trkpt>
      <trkpt lat="45.85498" lon="1.30742">
        <ele>261.8</ele>
        <time>2024-10-08T14:00:57Z</time>
      </trkpt>
      <trkpt lat="45.85488" lon="1.30723">
        <ele>261.4</ele>
        <time>2024-10-08T14:00:59Z</time>
      </trkpt>
      <trkpt lat="45.85478" lon="1.30701">
        <ele>261</ele>
        <time>2024-10-08T14:01:02Z</time>
      </trkpt>
      <trkpt lat="45.85468" lon="1.30681">
        <ele>260.5</ele>
        <time>2024-10-08T14:01:05Z</time>
      </trkpt>
      <trkpt lat="45.85458" lon="1.30662">
        <ele>260</ele>
        <time>2024-10-08T14:01:08Z</time>
      </trkpt>
      <trkpt lat="45.85447" lon="1.30642">
        <ele>259.6</ele>
        <time>2024-10-08T14:01:11Z</time>
      </trkpt>
      <trkpt lat="45.85436" lon="1.30623">
        <ele>259.5</ele>
        <time>2024-10-08T14:01:14Z</time>
      </trkpt>
      <trkpt lat="45.85425" lon="1.30605">
        <ele>259.5</ele>
        <time>2024-10-08T14:01:17Z</time>
      </trkpt>
      <trkpt lat="45.85414" lon="1.30588">
        <ele>259.8</ele>
        <time>2024-10-08T14:01:20Z</time>
      </trkpt>
      <trkpt lat="45.85406" lon="1.30571">
        <ele>260.2</ele>
        <time>2024-10-08T14:01:23Z</time>
      </trkpt>
      <trkpt lat="45.85397" lon="1.30555">
        <ele>260.7</ele>
        <time>2024-10-08T14:01:26Z</time>
      </trkpt>
      <trkpt lat="45.85388" lon="1.3054">
        <ele>261.1</ele>
        <time>2024-10-08T14:01:29Z</time>
      </trkpt>
      <trkpt lat="45.8538" lon="1.30525">
        <ele>261.4</ele>
        <time>2024-10-08T14:01:32Z</time>
      </trkpt>
      <trkpt lat="45.85372" lon="1.30509">
        <ele>261.9</ele>
        <time>2024-10-08T14:01:35Z</time>
      </trkpt>
      <trkpt lat="45.85363" lon="1.30494">
        <ele>262.3</ele>
        <time>2024-10-08T14:01:39Z</time>
      </trkpt>
      <trkpt lat="45.85355" lon="1.30479">
        <ele>262.7</ele>
        <time>2024-10-08T14:01:42Z</time>
      </trkpt>
      <trkpt lat="45.85348" lon="1.30464">
        <ele>263.1</ele>
        <time>2024-10-08T14:01:45Z</time>
      </trkpt>
      <trkpt lat="45.8534" lon="1.30449">
        <ele>263.4</ele>
        <time>2024-10-08T14:01:47Z</time>
      </trkpt>
      <trkpt lat="45.85332" lon="1.30433">
        <ele>263.7</ele>
        <time>2024-10-08T14:01:50Z</time>
      </trkpt>
      <trkpt lat="45.85324" lon="1.30418">
        <ele>264.1</ele>
        <time>2024-10-08T14:01:53Z</time>
      </trkpt>
      <trkpt lat="45.85317" lon="1.30405">
        <ele>264.4</ele>
        <time>2024-10-08T14:01:56Z</time>
      </trkpt>
      <trkpt lat="45.8531" lon="1.30391">
        <ele>264.8</ele>
        <time>2024-10-08T14:02:00Z</time>
      </trkpt>
      <trkpt lat="45.85303" lon="1.30378">
        <ele>265.2</ele>
        <time>2024-10-08T14:02:03Z</time>
      </trkpt>
      <trkpt lat="45.85296" lon="1.30365">
        <ele>265.6</ele>
        <time>2024-10-08T14:02:06Z</time>
      </trkpt>
      <trkpt lat="45.85288" lon="1.30351">
        <ele>265.8</ele>
        <time>2024-10-08T14:02:09Z</time>
      </trkpt>
      <trkpt lat="45.85281" lon="1.30337">
        <ele>265.9</ele>
        <time>2024-10-08T14:02:12Z</time>
      </trkpt>
      <trkpt lat="45.85273" lon="1.30323">
        <ele>266.1</ele>
        <time>2024-10-08T14:02:15Z</time>
      </trkpt>
      <trkpt lat="45.85265" lon="1.30308">
        <ele>266.1</ele>
        <time>2024-10-08T14:02:18Z</time>
      </trkpt>
      <trkpt lat="45.85256" lon="1.30291">
        <ele>266.1</ele>
        <time>2024-10-08T14:02:21Z</time>
      </trkpt>
      <trkpt lat="45.85247" lon="1.30274">
        <ele>265.9</ele>
        <time>2024-10-08T14:02:24Z</time>
      </trkpt>
      <trkpt lat="45.85238" lon="1.30257">
        <ele>265.7</ele>
        <time>2024-10-08T14:02:26Z</time>
      </trkpt>
      <trkpt lat="45.85229" lon="1.30239">
        <ele>265.5</ele>
        <time>2024-10-08T14:02:29Z</time>
      </trkpt>
      <trkpt lat="45.8522" lon="1.30222">
        <ele>265.4</ele>
        <time>2024-10-08T14:02:32Z</time>
      </trkpt>
      <trkpt lat="45.85212" lon="1.30207">
        <ele>265.4</ele>
        <time>2024-10-08T14:02:35Z</time>
      </trkpt>
      <trkpt lat="45.85205" lon="1.30191">
        <ele>265.2</ele>
        <time>2024-10-08T14:02:38Z</time>
      </trkpt>
      <trkpt lat="45.85196" lon="1.30177">
        <ele>265</ele>
        <time>2024-10-08T14:02:41Z</time>
      </trkpt>
      <trkpt lat="45.85188" lon="1.30162">
        <ele>265.1</ele>
        <time>2024-10-08T14:02:44Z</time>
      </trkpt>
      <trkpt lat="45.85181" lon="1.30147">
        <ele>265.3</ele>
        <time>2024-10-08T14:02:47Z</time>
      </trkpt>
      <trkpt lat="45.85174" lon="1.30133">
        <ele>265.6</ele>
        <time>2024-10-08T14:02:50Z</time>
      </trkpt>
      <trkpt lat="45.85166" lon="1.30119">
        <ele>265.9</ele>
        <time>2024-10-08T14:02:53Z</time>
      </trkpt>
      <trkpt lat="45.8516" lon="1.30104">
        <ele>266.3</ele>
        <time>2024-10-08T14:02:57Z</time>
      </trkpt>
      <trkpt lat="45.85153" lon="1.3009">
        <ele>266.8</ele>
        <time>2024-10-08T14:02:59Z</time>
      </trkpt>
      <trkpt lat="45.85149" lon="1.30077">
        <ele>267.1</ele>
        <time>2024-10-08T14:03:03Z</time>
      </trkpt>
      <trkpt lat="45.85144" lon="1.30064">
        <ele>267.5</ele>
        <time>2024-10-08T14:03:05Z</time>
      </trkpt>
      <trkpt lat="45.85138" lon="1.30052">
        <ele>267.8</ele>
        <time>2024-10-08T14:03:08Z</time>
      </trkpt>
      <trkpt lat="45.85131" lon="1.30041">
        <ele>268.1</ele>
        <time>2024-10-08T14:03:11Z</time>
      </trkpt>
      <trkpt lat="45.85126" lon="1.3003">
        <ele>268.3</ele>
        <time>2024-10-08T14:03:14Z</time>
      </trkpt>
      <trkpt lat="45.8512" lon="1.30019">
        <ele>268.5</ele>
        <time>2024-10-08T14:03:18Z</time>
      </trkpt>
      <trkpt lat="45.85114" lon="1.30008">
        <ele>268.9</ele>
        <time>2024-10-08T14:03:21Z</time>
      </trkpt>
      <trkpt lat="45.85109" lon="1.29996">
        <ele>269.3</ele>
        <time>2024-10-08T14:03:24Z</time>
      </trkpt>
      <trkpt lat="45.85103" lon="1.29985">
        <ele>269.7</ele>
        <time>2024-10-08T14:03:26Z</time>
      </trkpt>
      <trkpt lat="45.85096" lon="1.29976">
        <ele>270.1</ele>
        <time>2024-10-08T14:03:30Z</time>
      </trkpt>
      <trkpt lat="45.8509" lon="1.29964">
        <ele>270.5</ele>
        <time>2024-10-08T14:03:33Z</time>
      </trkpt>
      <trkpt lat="45.85084" lon="1.29952">
        <ele>270.9</ele>
        <time>2024-10-08T14:03:36Z</time>
      </trkpt>
      <trkpt lat="45.85078" lon="1.29941">
        <ele>271.4</ele>
        <time>2024-10-08T14:03:39Z</time>
      </trkpt>
      <trkpt lat="45.85072" lon="1.29929">
        <ele>271.8</ele>
        <time>2024-10-08T14:03:42Z</time>
      </trkpt>
      <trkpt lat="45.85066" lon="1.29918">
        <ele>272.3</ele>
        <time>2024-10-08T14:03:45Z</time>
      </trkpt>
      <trkpt lat="45.8506" lon="1.29906">
        <ele>272.7</ele>
        <time>2024-10-08T14:03:47Z</time>
      </trkpt>
      <trkpt lat="45.85055" lon="1.29893">
        <ele>273.3</ele>
        <time>2024-10-08T14:03:50Z</time>
      </trkpt>
      <trkpt lat="45.85053" lon="1.29878">
        <ele>273.8</ele>
        <time>2024-10-08T14:03:53Z</time>
      </trkpt>
      <trkpt lat="45.85056" lon="1.29864">
        <ele>274.3</ele>
        <time>2024-10-08T14:03:56Z</time>
      </trkpt>
      <trkpt lat="45.85059" lon="1.29852">
        <ele>274.8</ele>
        <time>2024-10-08T14:03:59Z</time>
      </trkpt>
      <trkpt lat="45.85065" lon="1.29842">
        <ele>275.2</ele>
        <time>2024-10-08T14:04:02Z</time>
      </trkpt>
      <trkpt lat="45.85072" lon="1.29837">
        <ele>275.4</ele>
        <time>2024-10-08T14:04:05Z</time>
      </trkpt>
      <trkpt lat="45.8508" lon="1.29829">
        <ele>275.7</ele>
        <time>2024-10-08T14:04:08Z</time>
      </trkpt>
      <trkpt lat="45.85088" lon="1.29822">
        <ele>276</ele>
        <time>2024-10-08T14:04:11Z</time>
      </trkpt>
      <trkpt lat="45.85096" lon="1.29813">
        <ele>276.4</ele>
        <time>2024-10-08T14:04:14Z</time>
      </trkpt>
      <trkpt lat="45.85105" lon="1.29805">
        <ele>276.8</ele>
        <time>2024-10-08T14:04:17Z</time>
      </trkpt>
      <trkpt lat="45.85114" lon="1.29797">
        <ele>277.3</ele>
        <time>2024-10-08T14:04:20Z</time>
      </trkpt>
      <trkpt lat="45.85124" lon="1.29792">
        <ele>277.7</ele>
        <time>2024-10-08T14:04:23Z</time>
      </trkpt>
      <trkpt lat="45.85131" lon="1.29784">
        <ele>278.1</ele>
        <time>2024-10-08T14:04:26Z</time>
      </trkpt>
      <trkpt lat="45.85139" lon="1.29778">
        <ele>278.3</ele>
        <time>2024-10-08T14:04:29Z</time>
      </trkpt>
      <trkpt lat="45.85146" lon="1.29773">
        <ele>278.4</ele>
        <time>2024-10-08T14:04:32Z</time>
      </trkpt>
      <trkpt lat="45.85154" lon="1.29766">
        <ele>278.9</ele>
        <time>2024-10-08T14:04:35Z</time>
      </trkpt>
      <trkpt lat="45.85163" lon="1.2976">
        <ele>279.4</ele>
        <time>2024-10-08T14:04:38Z</time>
      </trkpt>
      <trkpt lat="45.85171" lon="1.29752">
        <ele>279.9</ele>
        <time>2024-10-08T14:04:41Z</time>
      </trkpt>
      <trkpt lat="45.8518" lon="1.29744">
        <ele>280.5</ele>
        <time>2024-10-08T14:04:44Z</time>
      </trkpt>
      <trkpt lat="45.85188" lon="1.29735">
        <ele>281</ele>
        <time>2024-10-08T14:04:47Z</time>
      </trkpt>
      <trkpt lat="45.85196" lon="1.29728">
        <ele>281.5</ele>
        <time>2024-10-08T14:04:51Z</time>
      </trkpt>
      <trkpt lat="45.85204" lon="1.2972">
        <ele>282</ele>
        <time>2024-10-08T14:04:54Z</time>
      </trkpt>
      <trkpt lat="45.85212" lon="1.29713">
        <ele>282.5</ele>
        <time>2024-10-08T14:04:57Z</time>
      </trkpt>
      <trkpt lat="45.85217" lon="1.29708">
        <ele>282.7</ele>
        <time>2024-10-08T14:05:00Z</time>
      </trkpt>
      <trkpt lat="45.8522" lon="1.29704">
        <ele>282.5</ele>
        <time>2024-10-08T14:05:03Z</time>
      </trkpt>
      <trkpt lat="45.8522" lon="1.29703">
        <ele>282.4</ele>
        <time>2024-10-08T14:05:06Z</time>
      </trkpt>
      <trkpt lat="45.85218" lon="1.29698">
        <ele>282.2</ele>
        <time>2024-10-08T14:05:08Z</time>
      </trkpt>
      <trkpt lat="45.85212" lon="1.29689">
        <ele>281.7</ele>
        <time>2024-10-08T14:05:12Z</time>
      </trkpt>
      <trkpt lat="45.85201" lon="1.29682">
        <ele>281</ele>
        <time>2024-10-08T14:05:15Z</time>
      </trkpt>
      <trkpt lat="45.85191" lon="1.29666">
        <ele>280</ele>
        <time>2024-10-08T14:05:18Z</time>
      </trkpt>
      <trkpt lat="45.85184" lon="1.29647">
        <ele>279</ele>
        <time>2024-10-08T14:05:20Z</time>
      </trkpt>
      <trkpt lat="45.85177" lon="1.29622">
        <ele>277.9</ele>
        <time>2024-10-08T14:05:23Z</time>
      </trkpt>
      <trkpt lat="45.8517" lon="1.29598">
        <ele>276.8</ele>
        <time>2024-10-08T14:05:26Z</time>
      </trkpt>
      <trkpt lat="45.85163" lon="1.29571">
        <ele>275.6</ele>
        <time>2024-10-08T14:05:29Z</time>
      </trkpt>
      <trkpt lat="45.85157" lon="1.29543">
        <ele>274.4</ele>
        <time>2024-10-08T14:05:32Z</time>
      </trkpt>
      <trkpt lat="45.8515" lon="1.29517">
        <ele>273.3</ele>
        <time>2024-10-08T14:05:35Z</time>
      </trkpt>
      <trkpt lat="45.85143" lon="1.29492">
        <ele>272.6</ele>
        <time>2024-10-08T14:05:38Z</time>
      </trkpt>
      <trkpt lat="45.85136" lon="1.29471">
        <ele>272.4</ele>
        <time>2024-10-08T14:05:41Z</time>
      </trkpt>
      <trkpt lat="45.85131" lon="1.29447">
        <ele>272.1</ele>
        <time>2024-10-08T14:05:44Z</time>
      </trkpt>
      <trkpt lat="45.85124" lon="1.29426">
        <ele>271.9</ele>
        <time>2024-10-08T14:05:47Z</time>
      </trkpt>
      <trkpt lat="45.85119" lon="1.29407">
        <ele>272</ele>
        <time>2024-10-08T14:05:50Z</time>
      </trkpt>
      <trkpt lat="45.85115" lon="1.29391">
        <ele>272.1</ele>
        <time>2024-10-08T14:05:53Z</time>
      </trkpt>
      <trkpt lat="45.85109" lon="1.29375">
        <ele>272.2</ele>
        <time>2024-10-08T14:05:56Z</time>
      </trkpt>
      <trkpt lat="45.85103" lon="1.29358">
        <ele>272.6</ele>
        <time>2024-10-08T14:05:59Z</time>
      </trkpt>
      <trkpt lat="45.85097" lon="1.29344">
        <ele>273</ele>
        <time>2024-10-08T14:06:02Z</time>
      </trkpt>
      <trkpt lat="45.85093" lon="1.29331">
        <ele>273.4</ele>
        <time>2024-10-08T14:06:05Z</time>
      </trkpt>
      <trkpt lat="45.85087" lon="1.29319">
        <ele>274</ele>
        <time>2024-10-08T14:06:08Z</time>
      </trkpt>
      <trkpt lat="45.85082" lon="1.29307">
        <ele>274.5</ele>
        <time>2024-10-08T14:06:11Z</time>
      </trkpt>
      <trkpt lat="45.85076" lon="1.29294">
        <ele>275.1</ele>
        <time>2024-10-08T14:06:14Z</time>
      </trkpt>
      <trkpt lat="45.8507" lon="1.29284">
        <ele>275.5</ele>
        <time>2024-10-08T14:06:17Z</time>
      </trkpt>
      <trkpt lat="45.85066" lon="1.2927">
        <ele>276.1</ele>
        <time>2024-10-08T14:06:20Z</time>
      </trkpt>
      <trkpt lat="45.85068" lon="1.29255">
        <ele>277.7</ele>
        <time>2024-10-08T14:06:23Z</time>
      </trkpt>
      <trkpt lat="45.85076" lon="1.29246">
        <ele>278.7</ele>
        <time>2024-10-08T14:06:27Z</time>
      </trkpt>
      <trkpt lat="45.85084" lon="1.29239">
        <ele>279.7</ele>
        <time>2024-10-08T14:06:30Z</time>
      </trkpt>
      <trkpt lat="45.8509" lon="1.29235">
        <ele>280.4</ele>
        <time>2024-10-08T14:06:33Z</time>
      </trkpt>
      <trkpt lat="45.85097" lon="1.2923">
        <ele>281.4</ele>
        <time>2024-10-08T14:06:36Z</time>
      </trkpt>
      <trkpt lat="45.85105" lon="1.29228">
        <ele>282.2</ele>
        <time>2024-10-08T14:06:39Z</time>
      </trkpt>
      <trkpt lat="45.85112" lon="1.29221">
        <ele>282.9</ele>
        <time>2024-10-08T14:06:42Z</time>
      </trkpt>
      <trkpt lat="45.85119" lon="1.29216">
        <ele>283.6</ele>
        <time>2024-10-08T14:06:44Z</time>
      </trkpt>
      <trkpt lat="45.85124" lon="1.29212">
        <ele>284.1</ele>
        <time>2024-10-08T14:06:47Z</time>
      </trkpt>
      <trkpt lat="45.8513" lon="1.29206">
        <ele>284.8</ele>
        <time>2024-10-08T14:06:50Z</time>
      </trkpt>
      <trkpt lat="45.85137" lon="1.29202">
        <ele>285.5</ele>
        <time>2024-10-08T14:06:53Z</time>
      </trkpt>
      <trkpt lat="45.85143" lon="1.29198">
        <ele>286.1</ele>
        <time>2024-10-08T14:06:56Z</time>
      </trkpt>
      <trkpt lat="45.8515" lon="1.29191">
        <ele>286.8</ele>
        <time>2024-10-08T14:06:59Z</time>
      </trkpt>
      <trkpt lat="45.85157" lon="1.29185">
        <ele>287.6</ele>
        <time>2024-10-08T14:07:02Z</time>
      </trkpt>
      <trkpt lat="45.85162" lon="1.29181">
        <ele>288.2</ele>
        <time>2024-10-08T14:07:05Z</time>
      </trkpt>
      <trkpt lat="45.85167" lon="1.29179">
        <ele>288.7</ele>
        <time>2024-10-08T14:07:08Z</time>
      </trkpt>
      <trkpt lat="45.85172" lon="1.29174">
        <ele>289.3</ele>
        <time>2024-10-08T14:07:11Z</time>
      </trkpt>
      <trkpt lat="45.85177" lon="1.29171">
        <ele>289.9</ele>
        <time>2024-10-08T14:07:14Z</time>
      </trkpt>
      <trkpt lat="45.85182" lon="1.29166">
        <ele>290.6</ele>
        <time>2024-10-08T14:07:18Z</time>
      </trkpt>
      <trkpt lat="45.85187" lon="1.29163">
        <ele>291.1</ele>
        <time>2024-10-08T14:07:21Z</time>
      </trkpt>
      <trkpt lat="45.85193" lon="1.29159">
        <ele>291.1</ele>
        <time>2024-10-08T14:07:23Z</time>
      </trkpt>
      <trkpt lat="45.85198" lon="1.29155">
        <ele>291.6</ele>
        <time>2024-10-08T14:07:27Z</time>
      </trkpt>
      <trkpt lat="45.85202" lon="1.29152">
        <ele>292</ele>
        <time>2024-10-08T14:07:29Z</time>
      </trkpt>
      <trkpt lat="45.85208" lon="1.2915">
        <ele>292.8</ele>
        <time>2024-10-08T14:07:33Z</time>
      </trkpt>
      <trkpt lat="45.85213" lon="1.29144">
        <ele>293.8</ele>
        <time>2024-10-08T14:07:35Z</time>
      </trkpt>
      <trkpt lat="45.85219" lon="1.29139">
        <ele>294.7</ele>
        <time>2024-10-08T14:07:38Z</time>
      </trkpt>
      <trkpt lat="45.85225" lon="1.29137">
        <ele>295.5</ele>
        <time>2024-10-08T14:07:41Z</time>
      </trkpt>
      <trkpt lat="45.85231" lon="1.29136">
        <ele>296.1</ele>
        <time>2024-10-08T14:07:44Z</time>
      </trkpt>
      <trkpt lat="45.85238" lon="1.29137">
        <ele>296.8</ele>
        <time>2024-10-08T14:07:47Z</time>
      </trkpt>
      <trkpt lat="45.85248" lon="1.29136">
        <ele>297.5</ele>
        <time>2024-10-08T14:07:51Z</time>
      </trkpt>
      <trkpt lat="45.85256" lon="1.29131">
        <ele>298</ele>
        <time>2024-10-08T14:07:54Z</time>
      </trkpt>
      <trkpt lat="45.85262" lon="1.29122">
        <ele>298.4</ele>
        <time>2024-10-08T14:07:57Z</time>
      </trkpt>
      <trkpt lat="45.85268" lon="1.29113">
        <ele>299</ele>
        <time>2024-10-08T14:08:00Z</time>
      </trkpt>
      <trkpt lat="45.85273" lon="1.29104">
        <ele>299.4</ele>
        <time>2024-10-08T14:08:03Z</time>
      </trkpt>
      <trkpt lat="45.85277" lon="1.29095">
        <ele>299.7</ele>
        <time>2024-10-08T14:08:06Z</time>
      </trkpt>
      <trkpt lat="45.85283" lon="1.29084">
        <ele>300.1</ele>
        <time>2024-10-08T14:08:09Z</time>
      </trkpt>
      <trkpt lat="45.85287" lon="1.29074">
        <ele>300.3</ele>
        <time>2024-10-08T14:08:12Z</time>
      </trkpt>
      <trkpt lat="45.85294" lon="1.29066">
        <ele>300.5</ele>
        <time>2024-10-08T14:08:14Z</time>
      </trkpt>
      <trkpt lat="45.85304" lon="1.29059">
        <ele>300.8</ele>
        <time>2024-10-08T14:08:17Z</time>
      </trkpt>
      <trkpt lat="45.85313" lon="1.29051">
        <ele>301.1</ele>
        <time>2024-10-08T14:08:20Z</time>
      </trkpt>
      <trkpt lat="45.85321" lon="1.2904">
        <ele>301.2</ele>
        <time>2024-10-08T14:08:23Z</time>
      </trkpt>
      <trkpt lat="45.85329" lon="1.29032">
        <ele>301.2</ele>
        <time>2024-10-08T14:08:26Z</time>
      </trkpt>
      <trkpt lat="45.85338" lon="1.29031">
        <ele>301.3</ele>
        <time>2024-10-08T14:08:29Z</time>
      </trkpt>
      <trkpt lat="45.85347" lon="1.2903">
        <ele>301.4</ele>
        <time>2024-10-08T14:08:32Z</time>
      </trkpt>
      <trkpt lat="45.85356" lon="1.29026">
        <ele>301.5</ele>
        <time>2024-10-08T14:08:35Z</time>
      </trkpt>
      <trkpt lat="45.85365" lon="1.29021">
        <ele>301.6</ele>
        <time>2024-10-08T14:08:38Z</time>
      </trkpt>
      <trkpt lat="45.85373" lon="1.29016">
        <ele>301.6</ele>
        <time>2024-10-08T14:08:41Z</time>
      </trkpt>
      <trkpt lat="45.85381" lon="1.2901">
        <ele>301.7</ele>
        <time>2024-10-08T14:08:44Z</time>
      </trkpt>
      <trkpt lat="45.85384" lon="1.29006">
        <ele>301.7</ele>
        <time>2024-10-08T14:08:47Z</time>
      </trkpt>
      <trkpt lat="45.85386" lon="1.29004">
        <ele>301.8</ele>
        <time>2024-10-08T14:08:50Z</time>
      </trkpt>
      <trkpt lat="45.85386" lon="1.29004">
        <ele>301.7</ele>
        <time>2024-10-08T14:08:53Z</time>
      </trkpt>
      <trkpt lat="45.85387" lon="1.29002">
        <ele>301.7</ele>
        <time>2024-10-08T14:08:56Z</time>
      </trkpt>
      <trkpt lat="45.85391" lon="1.28996">
        <ele>301.7</ele>
        <time>2024-10-08T14:08:59Z</time>
      </trkpt>
      <trkpt lat="45.85398" lon="1.28992">
        <ele>302</ele>
        <time>2024-10-08T14:09:02Z</time>
      </trkpt>
      <trkpt lat="45.85406" lon="1.28986">
        <ele>302.1</ele>
        <time>2024-10-08T14:09:05Z</time>
      </trkpt>
      <trkpt lat="45.85414" lon="1.28981">
        <ele>302.4</ele>
        <time>2024-10-08T14:09:08Z</time>
      </trkpt>
      <trkpt lat="45.85421" lon="1.28975">
        <ele>302.8</ele>
        <time>2024-10-08T14:09:11Z</time>
      </trkpt>
      <trkpt lat="45.85429" lon="1.2897">
        <ele>303.1</ele>
        <time>2024-10-08T14:09:14Z</time>
      </trkpt>
      <trkpt lat="45.85437" lon="1.28966">
        <ele>303.3</ele>
        <time>2024-10-08T14:09:18Z</time>
      </trkpt>
      <trkpt lat="45.85445" lon="1.28961">
        <ele>303.6</ele>
        <time>2024-10-08T14:09:21Z</time>
      </trkpt>
      <trkpt lat="45.85452" lon="1.28952">
        <ele>304</ele>
        <time>2024-10-08T14:09:24Z</time>
      </trkpt>
      <trkpt lat="45.85461" lon="1.28944">
        <ele>304.5</ele>
        <time>2024-10-08T14:09:27Z</time>
      </trkpt>
      <trkpt lat="45.85468" lon="1.28937">
        <ele>304.9</ele>
        <time>2024-10-08T14:09:30Z</time>
      </trkpt>
      <trkpt lat="45.85475" lon="1.2893">
        <ele>305.5</ele>
        <time>2024-10-08T14:09:33Z</time>
      </trkpt>
      <trkpt lat="45.85481" lon="1.28924">
        <ele>305.9</ele>
        <time>2024-10-08T14:09:35Z</time>
      </trkpt>
      <trkpt lat="45.85487" lon="1.28918">
        <ele>306.5</ele>
        <time>2024-10-08T14:09:39Z</time>
      </trkpt>
      <trkpt lat="45.85492" lon="1.28912">
        <ele>307</ele>
        <time>2024-10-08T14:09:42Z</time>
      </trkpt>
      <trkpt lat="45.85496" lon="1.28903">
        <ele>307.5</ele>
        <time>2024-10-08T14:09:44Z</time>
      </trkpt>
      <trkpt lat="45.85499" lon="1.28893">
        <ele>308.2</ele>
        <time>2024-10-08T14:09:47Z</time>
      </trkpt>
      <trkpt lat="45.85503" lon="1.28887">
        <ele>308.8</ele>
        <time>2024-10-08T14:09:50Z</time>
      </trkpt>
      <trkpt lat="45.85509" lon="1.2888">
        <ele>309.4</ele>
        <time>2024-10-08T14:09:53Z</time>
      </trkpt>
      <trkpt lat="45.85514" lon="1.28874">
        <ele>309.8</ele>
        <time>2024-10-08T14:09:56Z</time>
      </trkpt>
      <trkpt lat="45.85517" lon="1.28868">
        <ele>310</ele>
        <time>2024-10-08T14:09:59Z</time>
      </trkpt>
      <trkpt lat="45.85519" lon="1.28864">
        <ele>310.1</ele>
        <time>2024-10-08T14:10:03Z</time>
      </trkpt>
      <trkpt lat="45.85516" lon="1.28857">
        <ele>310.1</ele>
        <time>2024-10-08T14:10:05Z</time>
      </trkpt>
      <trkpt lat="45.85512" lon="1.2885">
        <ele>310</ele>
        <time>2024-10-08T14:10:08Z</time>
      </trkpt>
      <trkpt lat="45.85511" lon="1.28844">
        <ele>310</ele>
        <time>2024-10-08T14:10:11Z</time>
      </trkpt>
      <trkpt lat="45.85509" lon="1.28839">
        <ele>310</ele>
        <time>2024-10-08T14:10:14Z</time>
      </trkpt>
      <trkpt lat="45.85504" lon="1.28842">
        <ele>310</ele>
        <time>2024-10-08T14:10:17Z</time>
      </trkpt>
      <trkpt lat="45.85506" lon="1.2885">
        <ele>310</ele>
        <time>2024-10-08T14:10:20Z</time>
      </trkpt>
      <trkpt lat="45.85511" lon="1.28855">
        <ele>310.1</ele>
        <time>2024-10-08T14:10:23Z</time>
      </trkpt>
      <trkpt lat="45.85517" lon="1.28864">
        <ele>310.1</ele>
        <time>2024-10-08T14:10:26Z</time>
      </trkpt>
      <trkpt lat="45.85527" lon="1.28869">
        <ele>310.3</ele>
        <time>2024-10-08T14:10:29Z</time>
      </trkpt>
      <trkpt lat="45.85537" lon="1.28868">
        <ele>310.4</ele>
        <time>2024-10-08T14:10:32Z</time>
      </trkpt>
      <trkpt lat="45.85546" lon="1.28863">
        <ele>310.5</ele>
        <time>2024-10-08T14:10:35Z</time>
      </trkpt>
      <trkpt lat="45.85553" lon="1.28852">
        <ele>310.3</ele>
        <time>2024-10-08T14:10:38Z</time>
      </trkpt>
      <trkpt lat="45.85554" lon="1.28838">
        <ele>310.2</ele>
        <time>2024-10-08T14:10:41Z</time>
      </trkpt>
      <trkpt lat="45.85552" lon="1.28824">
        <ele>310.3</ele>
        <time>2024-10-08T14:10:45Z</time>
      </trkpt>
      <trkpt lat="45.85545" lon="1.28812">
        <ele>310.4</ele>
        <time>2024-10-08T14:10:48Z</time>
      </trkpt>
      <trkpt lat="45.85538" lon="1.28805">
        <ele>310.3</ele>
        <time>2024-10-08T14:10:51Z</time>
      </trkpt>
      <trkpt lat="45.8553" lon="1.288">
        <ele>310.2</ele>
        <time>2024-10-08T14:10:54Z</time>
      </trkpt>
      <trkpt lat="45.85521" lon="1.28799">
        <ele>310.1</ele>
        <time>2024-10-08T14:10:57Z</time>
      </trkpt>
      <trkpt lat="45.85514" lon="1.28808">
        <ele>309.9</ele>
        <time>2024-10-08T14:11:00Z</time>
      </trkpt>
      <trkpt lat="45.85508" lon="1.28816">
        <ele>309.7</ele>
        <time>2024-10-08T14:11:03Z</time>
      </trkpt>
      <trkpt lat="45.85505" lon="1.28828">
        <ele>309.9</ele>
        <time>2024-10-08T14:11:06Z</time>
      </trkpt>
      <trkpt lat="45.85501" lon="1.28835">
        <ele>309.7</ele>
        <time>2024-10-08T14:11:08Z</time>
      </trkpt>
      <trkpt lat="45.85492" lon="1.28833">
        <ele>309.3</ele>
        <time>2024-10-08T14:11:12Z</time>
      </trkpt>
      <trkpt lat="45.85487" lon="1.28834">
        <ele>309.1</ele>
        <time>2024-10-08T14:11:14Z</time>
      </trkpt>
      <trkpt lat="45.85481" lon="1.28832">
        <ele>308.8</ele>
        <time>2024-10-08T14:11:17Z</time>
      </trkpt>
      <trkpt lat="45.85476" lon="1.28824">
        <ele>308.4</ele>
        <time>2024-10-08T14:11:20Z</time>
      </trkpt>
      <trkpt lat="45.85471" lon="1.28817">
        <ele>308</ele>
        <time>2024-10-08T14:11:23Z</time>
      </trkpt>
      <trkpt lat="45.85462" lon="1.28811">
        <ele>307.5</ele>
        <time>2024-10-08T14:11:26Z</time>
      </trkpt>
      <trkpt lat="45.85449" lon="1.28801">
        <ele>306.8</ele>
        <time>2024-10-08T14:11:29Z</time>
      </trkpt>
      <trkpt lat="45.85436" lon="1.28794">
        <ele>306.1</ele>
        <time>2024-10-08T14:11:32Z</time>
      </trkpt>
      <trkpt lat="45.85426" lon="1.2879">
        <ele>305.6</ele>
        <time>2024-10-08T14:11:35Z</time>
      </trkpt>
      <trkpt lat="45.85419" lon="1.28786">
        <ele>305.4</ele>
        <time>2024-10-08T14:11:38Z</time>
      </trkpt>
      <trkpt lat="45.85415" lon="1.28783">
        <ele>305.2</ele>
        <time>2024-10-08T14:11:41Z</time>
      </trkpt>
      <trkpt lat="45.85411" lon="1.2878">
        <ele>305.1</ele>
        <time>2024-10-08T14:11:45Z</time>
      </trkpt>
      <trkpt lat="45.85408" lon="1.28772">
        <ele>304.9</ele>
        <time>2024-10-08T14:11:48Z</time>
      </trkpt>
      <trkpt lat="45.85405" lon="1.28766">
        <ele>304.8</ele>
        <time>2024-10-08T14:11:50Z</time>
      </trkpt>
      <trkpt lat="45.85399" lon="1.28761">
        <ele>304.6</ele>
        <time>2024-10-08T14:11:53Z</time>
      </trkpt>
      <trkpt lat="45.85395" lon="1.28754">
        <ele>304.4</ele>
        <time>2024-10-08T14:11:57Z</time>
      </trkpt>
      <trkpt lat="45.85389" lon="1.28747">
        <ele>304.1</ele>
        <time>2024-10-08T14:11:59Z</time>
      </trkpt>
      <trkpt lat="45.85383" lon="1.28739">
        <ele>303.9</ele>
        <time>2024-10-08T14:12:03Z</time>
      </trkpt>
      <trkpt lat="45.85374" lon="1.28732">
        <ele>303.6</ele>
        <time>2024-10-08T14:12:06Z</time>
      </trkpt>
      <trkpt lat="45.85367" lon="1.28725">
        <ele>303.3</ele>
        <time>2024-10-08T14:12:09Z</time>
      </trkpt>
      <trkpt lat="45.85362" lon="1.28718">
        <ele>303.1</ele>
        <time>2024-10-08T14:12:12Z</time>
      </trkpt>
      <trkpt lat="45.85359" lon="1.28713">
        <ele>303</ele>
        <time>2024-10-08T14:12:15Z</time>
      </trkpt>
      <trkpt lat="45.85355" lon="1.28711">
        <ele>302.9</ele>
        <time>2024-10-08T14:12:18Z</time>
      </trkpt>
      <trkpt lat="45.85353" lon="1.28713">
        <ele>302.9</ele>
        <time>2024-10-08T14:12:21Z</time>
      </trkpt>
      <trkpt lat="45.85359" lon="1.28719">
        <ele>303.1</ele>
        <time>2024-10-08T14:12:24Z</time>
      </trkpt>
      <trkpt lat="45.85366" lon="1.28729">
        <ele>303.4</ele>
        <time>2024-10-08T14:12:27Z</time>
      </trkpt>
      <trkpt lat="45.85375" lon="1.28737">
        <ele>303.7</ele>
        <time>2024-10-08T14:12:30Z</time>
      </trkpt>
      <trkpt lat="45.85383" lon="1.28744">
        <ele>304</ele>
        <time>2024-10-08T14:12:33Z</time>
      </trkpt>
      <trkpt lat="45.85392" lon="1.28754">
        <ele>304.3</ele>
        <time>2024-10-08T14:12:35Z</time>
      </trkpt>
      <trkpt lat="45.85396" lon="1.28758">
        <ele>304.5</ele>
        <time>2024-10-08T14:12:38Z</time>
      </trkpt>
      <trkpt lat="45.85406" lon="1.28767">
        <ele>304.8</ele>
        <time>2024-10-08T14:12:41Z</time>
      </trkpt>
      <trkpt lat="45.85412" lon="1.28777">
        <ele>305.1</ele>
        <time>2024-10-08T14:12:44Z</time>
      </trkpt>
      <trkpt lat="45.8542" lon="1.28786">
        <ele>305.4</ele>
        <time>2024-10-08T14:12:47Z</time>
      </trkpt>
      <trkpt lat="45.85429" lon="1.28792">
        <ele>305.8</ele>
        <time>2024-10-08T14:12:50Z</time>
      </trkpt>
      <trkpt lat="45.85438" lon="1.28799">
        <ele>306.3</ele>
        <time>2024-10-08T14:12:53Z</time>
      </trkpt>
      <trkpt lat="45.85447" lon="1.28804">
        <ele>306.8</ele>
        <time>2024-10-08T14:12:56Z</time>
      </trkpt>
      <trkpt lat="45.85457" lon="1.2881">
        <ele>307.3</ele>
        <time>2024-10-08T14:12:59Z</time>
      </trkpt>
      <trkpt lat="45.85468" lon="1.28816">
        <ele>307.8</ele>
        <time>2024-10-08T14:13:02Z</time>
      </trkpt>
      <trkpt lat="45.85478" lon="1.2882">
        <ele>308.4</ele>
        <time>2024-10-08T14:13:05Z</time>
      </trkpt>
      <trkpt lat="45.85488" lon="1.28826">
        <ele>309</ele>
        <time>2024-10-08T14:13:08Z</time>
      </trkpt>
      <trkpt lat="45.85498" lon="1.28833">
        <ele>309.6</ele>
        <time>2024-10-08T14:13:11Z</time>
      </trkpt>
      <trkpt lat="45.85505" lon="1.28845">
        <ele>310</ele>
        <time>2024-10-08T14:13:15Z</time>
      </trkpt>
      <trkpt lat="45.85511" lon="1.28862">
        <ele>310.1</ele>
        <time>2024-10-08T14:13:17Z</time>
      </trkpt>
      <trkpt lat="45.85521" lon="1.28873">
        <ele>310.2</ele>
        <time>2024-10-08T14:13:20Z</time>
      </trkpt>
      <trkpt lat="45.85533" lon="1.28876">
        <ele>310.3</ele>
        <time>2024-10-08T14:13:24Z</time>
      </trkpt>
      <trkpt lat="45.85545" lon="1.28872">
        <ele>310.5</ele>
        <time>2024-10-08T14:13:26Z</time>
      </trkpt>
      <trkpt lat="45.85555" lon="1.28868">
        <ele>310.5</ele>
        <time>2024-10-08T14:13:30Z</time>
      </trkpt>
      <trkpt lat="45.8557" lon="1.28872">
        <ele>310.3</ele>
        <time>2024-10-08T14:13:33Z</time>
      </trkpt>
      <trkpt lat="45.85583" lon="1.28877">
        <ele>309.9</ele>
        <time>2024-10-08T14:13:36Z</time>
      </trkpt>
      <trkpt lat="45.85596" lon="1.28883">
        <ele>309.6</ele>
        <time>2024-10-08T14:13:39Z</time>
      </trkpt>
      <trkpt lat="45.85608" lon="1.28888">
        <ele>309.2</ele>
        <time>2024-10-08T14:13:42Z</time>
      </trkpt>
      <trkpt lat="45.85621" lon="1.28893">
        <ele>308.9</ele>
        <time>2024-10-08T14:13:45Z</time>
      </trkpt>
      <trkpt lat="45.85634" lon="1.28896">
        <ele>308.5</ele>
        <time>2024-10-08T14:13:47Z</time>
      </trkpt>
      <trkpt lat="45.85646" lon="1.28894">
        <ele>308.3</ele>
        <time>2024-10-08T14:13:50Z</time>
      </trkpt>
      <trkpt lat="45.85652" lon="1.28886">
        <ele>308.3</ele>
        <time>2024-10-08T14:13:54Z</time>
      </trkpt>
      <trkpt lat="45.85663" lon="1.28885">
        <ele>308.3</ele>
        <time>2024-10-08T14:13:56Z</time>
      </trkpt>
      <trkpt lat="45.85674" lon="1.28884">
        <ele>308.4</ele>
        <time>2024-10-08T14:13:59Z</time>
      </trkpt>
      <trkpt lat="45.85685" lon="1.28882">
        <ele>308.7</ele>
        <time>2024-10-08T14:14:02Z</time>
      </trkpt>
      <trkpt lat="45.85696" lon="1.28878">
        <ele>309</ele>
        <time>2024-10-08T14:14:05Z</time>
      </trkpt>
      <trkpt lat="45.85707" lon="1.28871">
        <ele>309.5</ele>
        <time>2024-10-08T14:14:08Z</time>
      </trkpt>
      <trkpt lat="45.85715" lon="1.28867">
        <ele>310</ele>
        <time>2024-10-08T14:14:11Z</time>
      </trkpt>
      <trkpt lat="45.85724" lon="1.28862">
        <ele>310.5</ele>
        <time>2024-10-08T14:14:14Z</time>
      </trkpt>
      <trkpt lat="45.85732" lon="1.28856">
        <ele>311.1</ele>
        <time>2024-10-08T14:14:18Z</time>
      </trkpt>
      <trkpt lat="45.8574" lon="1.28853">
        <ele>311.4</ele>
        <time>2024-10-08T14:14:20Z</time>
      </trkpt>
      <trkpt lat="45.85747" lon="1.28846">
        <ele>312.9</ele>
        <time>2024-10-08T14:14:23Z</time>
      </trkpt>
      <trkpt lat="45.85755" lon="1.28843">
        <ele>313.7</ele>
        <time>2024-10-08T14:14:26Z</time>
      </trkpt>
      <trkpt lat="45.85763" lon="1.28841">
        <ele>314.4</ele>
        <time>2024-10-08T14:14:29Z</time>
      </trkpt>
      <trkpt lat="45.85771" lon="1.28839">
        <ele>315.1</ele>
        <time>2024-10-08T14:14:32Z</time>
      </trkpt>
      <trkpt lat="45.85779" lon="1.28838">
        <ele>315.7</ele>
        <time>2024-10-08T14:14:35Z</time>
      </trkpt>
      <trkpt lat="45.85786" lon="1.28836">
        <ele>316.3</ele>
        <time>2024-10-08T14:14:38Z</time>
      </trkpt>
      <trkpt lat="45.85794" lon="1.28834">
        <ele>317</ele>
        <time>2024-10-08T14:14:41Z</time>
      </trkpt>
      <trkpt lat="45.85802" lon="1.28834">
        <ele>317.6</ele>
        <time>2024-10-08T14:14:44Z</time>
      </trkpt>
      <trkpt lat="45.85809" lon="1.28833">
        <ele>318.2</ele>
        <time>2024-10-08T14:14:47Z</time>
      </trkpt>
      <trkpt lat="45.85816" lon="1.28834">
        <ele>318.8</ele>
        <time>2024-10-08T14:14:51Z</time>
      </trkpt>
      <trkpt lat="45.85825" lon="1.28837">
        <ele>319.5</ele>
        <time>2024-10-08T14:14:54Z</time>
      </trkpt>
      <trkpt lat="45.85832" lon="1.28837">
        <ele>320.1</ele>
        <time>2024-10-08T14:14:56Z</time>
      </trkpt>
      <trkpt lat="45.8584" lon="1.28839">
        <ele>320.7</ele>
        <time>2024-10-08T14:15:00Z</time>
      </trkpt>
      <trkpt lat="45.85848" lon="1.28841">
        <ele>321.4</ele>
        <time>2024-10-08T14:15:03Z</time>
      </trkpt>
      <trkpt lat="45.85855" lon="1.28845">
        <ele>321.9</ele>
        <time>2024-10-08T14:15:06Z</time>
      </trkpt>
      <trkpt lat="45.85861" lon="1.28849">
        <ele>322.4</ele>
        <time>2024-10-08T14:15:09Z</time>
      </trkpt>
      <trkpt lat="45.8587" lon="1.28855">
        <ele>322.9</ele>
        <time>2024-10-08T14:15:12Z</time>
      </trkpt>
      <trkpt lat="45.85877" lon="1.2886">
        <ele>323.3</ele>
        <time>2024-10-08T14:15:14Z</time>
      </trkpt>
      <trkpt lat="45.85883" lon="1.28863">
        <ele>323.7</ele>
        <time>2024-10-08T14:15:17Z</time>
      </trkpt>
      <trkpt lat="45.8589" lon="1.28868">
        <ele>324.1</ele>
        <time>2024-10-08T14:15:20Z</time>
      </trkpt>
      <trkpt lat="45.85896" lon="1.28873">
        <ele>324.4</ele>
        <time>2024-10-08T14:15:23Z</time>
      </trkpt>
      <trkpt lat="45.85904" lon="1.28877">
        <ele>324.8</ele>
        <time>2024-10-08T14:15:26Z</time>
      </trkpt>
      <trkpt lat="45.85911" lon="1.28882">
        <ele>325.2</ele>
        <time>2024-10-08T14:15:29Z</time>
      </trkpt>
      <trkpt lat="45.85918" lon="1.28881">
        <ele>325.6</ele>
        <time>2024-10-08T14:15:32Z</time>
      </trkpt>
      <trkpt lat="45.85924" lon="1.28878">
        <ele>326.1</ele>
        <time>2024-10-08T14:15:35Z</time>
      </trkpt>
      <trkpt lat="45.85931" lon="1.28872">
        <ele>326.6</ele>
        <time>2024-10-08T14:15:38Z</time>
      </trkpt>
      <trkpt lat="45.85936" lon="1.28864">
        <ele>327</ele>
        <time>2024-10-08T14:15:41Z</time>
      </trkpt>
      <trkpt lat="45.8594" lon="1.28854">
        <ele>327.4</ele>
        <time>2024-10-08T14:15:44Z</time>
      </trkpt>
      <trkpt lat="45.85944" lon="1.28846">
        <ele>327.8</ele>
        <time>2024-10-08T14:15:48Z</time>
      </trkpt>
      <trkpt lat="45.85947" lon="1.28836">
        <ele>328.2</ele>
        <time>2024-10-08T14:15:51Z</time>
      </trkpt>
      <trkpt lat="45.85951" lon="1.28826">
        <ele>328.7</ele>
        <time>2024-10-08T14:15:53Z</time>
      </trkpt>
      <trkpt lat="45.85954" lon="1.28817">
        <ele>329.1</ele>
        <time>2024-10-08T14:15:56Z</time>
      </trkpt>
      <trkpt lat="45.85957" lon="1.28808">
        <ele>329.6</ele>
        <time>2024-10-08T14:15:59Z</time>
      </trkpt>
      <trkpt lat="45.8596" lon="1.288">
        <ele>330</ele>
        <time>2024-10-08T14:16:02Z</time>
      </trkpt>
      <trkpt lat="45.85963" lon="1.28791">
        <ele>330.5</ele>
        <time>2024-10-08T14:16:05Z</time>
      </trkpt>
      <trkpt lat="45.85966" lon="1.28784">
        <ele>330.8</ele>
        <time>2024-10-08T14:16:08Z</time>
      </trkpt>
      <trkpt lat="45.8597" lon="1.28776">
        <ele>331.3</ele>
        <time>2024-10-08T14:16:11Z</time>
      </trkpt>
      <trkpt lat="45.85974" lon="1.28767">
        <ele>331.8</ele>
        <time>2024-10-08T14:16:15Z</time>
      </trkpt>
      <trkpt lat="45.85977" lon="1.28758">
        <ele>332.2</ele>
        <time>2024-10-08T14:16:18Z</time>
      </trkpt>
      <trkpt lat="45.85978" lon="1.28747">
        <ele>332.6</ele>
        <time>2024-10-08T14:16:21Z</time>
      </trkpt>
      <trkpt lat="45.85977" lon="1.28735">
        <ele>332.9</ele>
        <time>2024-10-08T14:16:24Z</time>
      </trkpt>
      <trkpt lat="45.85976" lon="1.28724">
        <ele>333.1</ele>
        <time>2024-10-08T14:16:27Z</time>
      </trkpt>
      <trkpt lat="45.85975" lon="1.28713">
        <ele>333.4</ele>
        <time>2024-10-08T14:16:30Z</time>
      </trkpt>
      <trkpt lat="45.85979" lon="1.28702">
        <ele>333.9</ele>
        <time>2024-10-08T14:16:33Z</time>
      </trkpt>
      <trkpt lat="45.85984" lon="1.28691">
        <ele>334.4</ele>
        <time>2024-10-08T14:16:36Z</time>
      </trkpt>
      <trkpt lat="45.85993" lon="1.28689">
        <ele>334.6</ele>
        <time>2024-10-08T14:16:38Z</time>
      </trkpt>
      <trkpt lat="45.86001" lon="1.28685">
        <ele>334.8</ele>
        <time>2024-10-08T14:16:41Z</time>
      </trkpt>
      <trkpt lat="45.86008" lon="1.28678">
        <ele>335.1</ele>
        <time>2024-10-08T14:16:44Z</time>
      </trkpt>
      <trkpt lat="45.86013" lon="1.28666">
        <ele>335.2</ele>
        <time>2024-10-08T14:16:47Z</time>
      </trkpt>
      <trkpt lat="45.86017" lon="1.28654">
        <ele>335.3</ele>
        <time>2024-10-08T14:16:50Z</time>
      </trkpt>
      <trkpt lat="45.86022" lon="1.28642">
        <ele>335.5</ele>
        <time>2024-10-08T14:16:53Z</time>
      </trkpt>
      <trkpt lat="45.86027" lon="1.2863">
        <ele>335.6</ele>
        <time>2024-10-08T14:16:56Z</time>
      </trkpt>
      <trkpt lat="45.86033" lon="1.28616">
        <ele>335.7</ele>
        <time>2024-10-08T14:16:59Z</time>
      </trkpt>
      <trkpt lat="45.86038" lon="1.28601">
        <ele>335.9</ele>
        <time>2024-10-08T14:17:03Z</time>
      </trkpt>
      <trkpt lat="45.86042" lon="1.28588">
        <ele>336</ele>
        <time>2024-10-08T14:17:06Z</time>
      </trkpt>
      <trkpt lat="45.86046" lon="1.28574">
        <ele>336.2</ele>
        <time>2024-10-08T14:17:08Z</time>
      </trkpt>
      <trkpt lat="45.8605" lon="1.2856">
        <ele>336.3</ele>
        <time>2024-10-08T14:17:11Z</time>
      </trkpt>
      <trkpt lat="45.86055" lon="1.28546">
        <ele>336.5</ele>
        <time>2024-10-08T14:17:15Z</time>
      </trkpt>
      <trkpt lat="45.86058" lon="1.28533">
        <ele>336.7</ele>
        <time>2024-10-08T14:17:17Z</time>
      </trkpt>
      <trkpt lat="45.86061" lon="1.28519">
        <ele>336.8</ele>
        <time>2024-10-08T14:17:20Z</time>
      </trkpt>
      <trkpt lat="45.86063" lon="1.28511">
        <ele>336.8</ele>
        <time>2024-10-08T14:17:24Z</time>
      </trkpt>
      <trkpt lat="45.86067" lon="1.28496">
        <ele>336.9</ele>
        <time>2024-10-08T14:17:26Z</time>
      </trkpt>
      <trkpt lat="45.86072" lon="1.28481">
        <ele>337</ele>
        <time>2024-10-08T14:17:29Z</time>
      </trkpt>
      <trkpt lat="45.86075" lon="1.28466">
        <ele>337.2</ele>
        <time>2024-10-08T14:17:33Z</time>
      </trkpt>
      <trkpt lat="45.86078" lon="1.28453">
        <ele>337.3</ele>
        <time>2024-10-08T14:17:36Z</time>
      </trkpt>
      <trkpt lat="45.8608" lon="1.28439">
        <ele>337.4</ele>
        <time>2024-10-08T14:17:39Z</time>
      </trkpt>
      <trkpt lat="45.86077" lon="1.28427">
        <ele>337.4</ele>
        <time>2024-10-08T14:17:42Z</time>
      </trkpt>
      <trkpt lat="45.86077" lon="1.28414">
        <ele>337.4</ele>
        <time>2024-10-08T14:17:45Z</time>
      </trkpt>
      <trkpt lat="45.86081" lon="1.28399">
        <ele>337.3</ele>
        <time>2024-10-08T14:17:48Z</time>
      </trkpt>
      <trkpt lat="45.86084" lon="1.28387">
        <ele>337.3</ele>
        <time>2024-10-08T14:17:51Z</time>
      </trkpt>
      <trkpt lat="45.86087" lon="1.28372">
        <ele>337.3</ele>
        <time>2024-10-08T14:17:54Z</time>
      </trkpt>
      <trkpt lat="45.86091" lon="1.28356">
        <ele>337.3</ele>
        <time>2024-10-08T14:17:57Z</time>
      </trkpt>
      <trkpt lat="45.86094" lon="1.28339">
        <ele>337.3</ele>
        <time>2024-10-08T14:18:00Z</time>
      </trkpt>
      <trkpt lat="45.86097" lon="1.28322">
        <ele>337.3</ele>
        <time>2024-10-08T14:18:02Z</time>
      </trkpt>
      <trkpt lat="45.86098" lon="1.28304">
        <ele>337.2</ele>
        <time>2024-10-08T14:18:05Z</time>
      </trkpt>
      <trkpt lat="45.861" lon="1.28287">
        <ele>337.1</ele>
        <time>2024-10-08T14:18:08Z</time>
      </trkpt>
      <trkpt lat="45.86103" lon="1.28267">
        <ele>337</ele>
        <time>2024-10-08T14:18:11Z</time>
      </trkpt>
      <trkpt lat="45.86106" lon="1.28245">
        <ele>336.9</ele>
        <time>2024-10-08T14:18:14Z</time>
      </trkpt>
      <trkpt lat="45.86108" lon="1.28223">
        <ele>336.8</ele>
        <time>2024-10-08T14:18:17Z</time>
      </trkpt>
      <trkpt lat="45.86108" lon="1.282">
        <ele>336.7</ele>
        <time>2024-10-08T14:18:20Z</time>
      </trkpt>
      <trkpt lat="45.86111" lon="1.28183">
        <ele>336.6</ele>
        <time>2024-10-08T14:18:23Z</time>
      </trkpt>
      <trkpt lat="45.86114" lon="1.28165">
        <ele>336.5</ele>
        <time>2024-10-08T14:18:26Z</time>
      </trkpt>
      <trkpt lat="45.86117" lon="1.2815">
        <ele>336.2</ele>
        <time>2024-10-08T14:18:29Z</time>
      </trkpt>
      <trkpt lat="45.86121" lon="1.28128">
        <ele>335.9</ele>
        <time>2024-10-08T14:18:32Z</time>
      </trkpt>
      <trkpt lat="45.86119" lon="1.28109">
        <ele>335.6</ele>
        <time>2024-10-08T14:18:35Z</time>
      </trkpt>
      <trkpt lat="45.86119" lon="1.28088">
        <ele>335.4</ele>
        <time>2024-10-08T14:18:38Z</time>
      </trkpt>
      <trkpt lat="45.86124" lon="1.28068">
        <ele>335.1</ele>
        <time>2024-10-08T14:18:41Z</time>
      </trkpt>
      <trkpt lat="45.86125" lon="1.28048">
        <ele>334.9</ele>
        <time>2024-10-08T14:18:44Z</time>
      </trkpt>
      <trkpt lat="45.86125" lon="1.28029">
        <ele>334.7</ele>
        <time>2024-10-08T14:18:47Z</time>
      </trkpt>
      <trkpt lat="45.86125" lon="1.2801">
        <ele>334.5</ele>
        <time>2024-10-08T14:18:50Z</time>
      </trkpt>
      <trkpt lat="45.86125" lon="1.2799">
        <ele>334.3</ele>
        <time>2024-10-08T14:18:54Z</time>
      </trkpt>
      <trkpt lat="45.86126" lon="1.27969">
        <ele>334.1</ele>
        <time>2024-10-08T14:18:56Z</time>
      </trkpt>
      <trkpt lat="45.86127" lon="1.27948">
        <ele>333.9</ele>
        <time>2024-10-08T14:19:00Z</time>
      </trkpt>
      <trkpt lat="45.86128" lon="1.27927">
        <ele>333.8</ele>
        <time>2024-10-08T14:19:03Z</time>
      </trkpt>
      <trkpt lat="45.86129" lon="1.27907">
        <ele>333.6</ele>
        <time>2024-10-08T14:19:06Z</time>
      </trkpt>
      <trkpt lat="45.86129" lon="1.27888">
        <ele>333.5</ele>
        <time>2024-10-08T14:19:09Z</time>
      </trkpt>
      <trkpt lat="45.86131" lon="1.27868">
        <ele>333.2</ele>
        <time>2024-10-08T14:19:12Z</time>
      </trkpt>
      <trkpt lat="45.86131" lon="1.27845">
        <ele>332.9</ele>
        <time>2024-10-08T14:19:15Z</time>
      </trkpt>
      <trkpt lat="45.86132" lon="1.27824">
        <ele>332.6</ele>
        <time>2024-10-08T14:19:17Z</time>
      </trkpt>
      <trkpt lat="45.86132" lon="1.27801">
        <ele>332.2</ele>
        <time>2024-10-08T14:19:21Z</time>
      </trkpt>
      <trkpt lat="45.86132" lon="1.2778">
        <ele>331.8</ele>
        <time>2024-10-08T14:19:24Z</time>
      </trkpt>
      <trkpt lat="45.86132" lon="1.27757">
        <ele>331.2</ele>
        <time>2024-10-08T14:19:27Z</time>
      </trkpt>
      <trkpt lat="45.86134" lon="1.27735">
        <ele>330.5</ele>
        <time>2024-10-08T14:19:29Z</time>
      </trkpt>
      <trkpt lat="45.86134" lon="1.27711">
        <ele>329.6</ele>
        <time>2024-10-08T14:19:32Z</time>
      </trkpt>
      <trkpt lat="45.86135" lon="1.27685">
        <ele>328.5</ele>
        <time>2024-10-08T14:19:35Z</time>
      </trkpt>
      <trkpt lat="45.86135" lon="1.27655">
        <ele>327.3</ele>
        <time>2024-10-08T14:19:38Z</time>
      </trkpt>
      <trkpt lat="45.86138" lon="1.27625">
        <ele>326.1</ele>
        <time>2024-10-08T14:19:42Z</time>
      </trkpt>
      <trkpt lat="45.8614" lon="1.27592">
        <ele>324.9</ele>
        <time>2024-10-08T14:19:44Z</time>
      </trkpt>
      <trkpt lat="45.86139" lon="1.27561">
        <ele>324.1</ele>
        <time>2024-10-08T14:19:47Z</time>
      </trkpt>
      <trkpt lat="45.86132" lon="1.27528">
        <ele>323.6</ele>
        <time>2024-10-08T14:19:50Z</time>
      </trkpt>
      <trkpt lat="45.86123" lon="1.27498">
        <ele>323.8</ele>
        <time>2024-10-08T14:19:53Z</time>
      </trkpt>
      <trkpt lat="45.86118" lon="1.27481">
        <ele>323.9</ele>
        <time>2024-10-08T14:19:56Z</time>
      </trkpt>
      <trkpt lat="45.86124" lon="1.2747">
        <ele>323.4</ele>
        <time>2024-10-08T14:19:59Z</time>
      </trkpt>
      <trkpt lat="45.86132" lon="1.27458">
        <ele>322.3</ele>
        <time>2024-10-08T14:20:02Z</time>
      </trkpt>
      <trkpt lat="45.86145" lon="1.27454">
        <ele>321.3</ele>
        <time>2024-10-08T14:20:05Z</time>
      </trkpt>
      <trkpt lat="45.86162" lon="1.27456">
        <ele>320.2</ele>
        <time>2024-10-08T14:20:09Z</time>
      </trkpt>
      <trkpt lat="45.86179" lon="1.27459">
        <ele>319.1</ele>
        <time>2024-10-08T14:20:11Z</time>
      </trkpt>
      <trkpt lat="45.86197" lon="1.27444">
        <ele>317.8</ele>
        <time>2024-10-08T14:20:15Z</time>
      </trkpt>
      <trkpt lat="45.86215" lon="1.27425">
        <ele>316.6</ele>
        <time>2024-10-08T14:20:18Z</time>
      </trkpt>
      <trkpt lat="45.86233" lon="1.27406">
        <ele>315.6</ele>
        <time>2024-10-08T14:20:20Z</time>
      </trkpt>
      <trkpt lat="45.86245" lon="1.27396">
        <ele>315</ele>
        <time>2024-10-08T14:20:23Z</time>
      </trkpt>
      <trkpt lat="45.86254" lon="1.27392">
        <ele>314.7</ele>
        <time>2024-10-08T14:20:26Z</time>
      </trkpt>
      <trkpt lat="45.86265" lon="1.27382">
        <ele>314.2</ele>
        <time>2024-10-08T14:20:30Z</time>
      </trkpt>
      <trkpt lat="45.86278" lon="1.27366">
        <ele>313.3</ele>
        <time>2024-10-08T14:20:33Z</time>
      </trkpt>
      <trkpt lat="45.86292" lon="1.27354">
        <ele>312.6</ele>
        <time>2024-10-08T14:20:36Z</time>
      </trkpt>
      <trkpt lat="45.86304" lon="1.27341">
        <ele>311.9</ele>
        <time>2024-10-08T14:20:39Z</time>
      </trkpt>
      <trkpt lat="45.86315" lon="1.27329">
        <ele>311.5</ele>
        <time>2024-10-08T14:20:41Z</time>
      </trkpt>
      <trkpt lat="45.8632" lon="1.27323">
        <ele>311.3</ele>
        <time>2024-10-08T14:20:44Z</time>
      </trkpt>
      <trkpt lat="45.86326" lon="1.27318">
        <ele>311.1</ele>
        <time>2024-10-08T14:20:47Z</time>
      </trkpt>
      <trkpt lat="45.86334" lon="1.27308">
        <ele>310.9</ele>
        <time>2024-10-08T14:20:50Z</time>
      </trkpt>
      <trkpt lat="45.86344" lon="1.27298">
        <ele>310.5</ele>
        <time>2024-10-08T14:20:53Z</time>
      </trkpt>
      <trkpt lat="45.86356" lon="1.27287">
        <ele>310.1</ele>
        <time>2024-10-08T14:20:56Z</time>
      </trkpt>
      <trkpt lat="45.86367" lon="1.27277">
        <ele>309.6</ele>
        <time>2024-10-08T14:20:59Z</time>
      </trkpt>
      <trkpt lat="45.86377" lon="1.27267">
        <ele>309.3</ele>
        <time>2024-10-08T14:21:02Z</time>
      </trkpt>
      <trkpt lat="45.86384" lon="1.27259">
        <ele>309</ele>
        <time>2024-10-08T14:21:05Z</time>
      </trkpt>
      <trkpt lat="45.86393" lon="1.27249">
        <ele>308.7</ele>
        <time>2024-10-08T14:21:08Z</time>
      </trkpt>
      <trkpt lat="45.86402" lon="1.27235">
        <ele>308.3</ele>
        <time>2024-10-08T14:21:11Z</time>
      </trkpt>
      <trkpt lat="45.86413" lon="1.27225">
        <ele>308</ele>
        <time>2024-10-08T14:21:14Z</time>
      </trkpt>
      <trkpt lat="45.86426" lon="1.27213">
        <ele>307.7</ele>
        <time>2024-10-08T14:21:17Z</time>
      </trkpt>
      <trkpt lat="45.8644" lon="1.27202">
        <ele>307.6</ele>
        <time>2024-10-08T14:21:20Z</time>
      </trkpt>
      <trkpt lat="45.86454" lon="1.2719">
        <ele>307.4</ele>
        <time>2024-10-08T14:21:23Z</time>
      </trkpt>
      <trkpt lat="45.86468" lon="1.27179">
        <ele>307.2</ele>
        <time>2024-10-08T14:21:26Z</time>
      </trkpt>
      <trkpt lat="45.86479" lon="1.27167">
        <ele>307.2</ele>
        <time>2024-10-08T14:21:29Z</time>
      </trkpt>
      <trkpt lat="45.86491" lon="1.27156">
        <ele>307.2</ele>
        <time>2024-10-08T14:21:32Z</time>
      </trkpt>
      <trkpt lat="45.865" lon="1.27145">
        <ele>307.3</ele>
        <time>2024-10-08T14:21:35Z</time>
      </trkpt>
      <trkpt lat="45.86511" lon="1.27135">
        <ele>307.4</ele>
        <time>2024-10-08T14:21:39Z</time>
      </trkpt>
      <trkpt lat="45.86522" lon="1.27123">
        <ele>307.7</ele>
        <time>2024-10-08T14:21:41Z</time>
      </trkpt>
      <trkpt lat="45.86531" lon="1.27114">
        <ele>307.9</ele>
        <time>2024-10-08T14:21:45Z</time>
      </trkpt>
      <trkpt lat="45.8654" lon="1.27104">
        <ele>308.2</ele>
        <time>2024-10-08T14:21:48Z</time>
      </trkpt>
      <trkpt lat="45.86549" lon="1.27095">
        <ele>308.5</ele>
        <time>2024-10-08T14:21:51Z</time>
      </trkpt>
      <trkpt lat="45.86558" lon="1.27086">
        <ele>308.8</ele>
        <time>2024-10-08T14:21:54Z</time>
      </trkpt>
      <trkpt lat="45.86567" lon="1.27077">
        <ele>309</ele>
        <time>2024-10-08T14:21:57Z</time>
      </trkpt>
      <trkpt lat="45.86577" lon="1.27067">
        <ele>309.3</ele>
        <time>2024-10-08T14:22:00Z</time>
      </trkpt>
      <trkpt lat="45.86587" lon="1.27059">
        <ele>309.7</ele>
        <time>2024-10-08T14:22:03Z</time>
      </trkpt>
      <trkpt lat="45.86595" lon="1.27049">
        <ele>310.1</ele>
        <time>2024-10-08T14:22:05Z</time>
      </trkpt>
      <trkpt lat="45.86603" lon="1.2704">
        <ele>310.5</ele>
        <time>2024-10-08T14:22:08Z</time>
      </trkpt>
      <trkpt lat="45.86611" lon="1.27031">
        <ele>310.9</ele>
        <time>2024-10-08T14:22:11Z</time>
      </trkpt>
      <trkpt lat="45.86618" lon="1.27024">
        <ele>311.4</ele>
        <time>2024-10-08T14:22:14Z</time>
      </trkpt>
      <trkpt lat="45.86625" lon="1.27015">
        <ele>311.8</ele>
        <time>2024-10-08T14:22:17Z</time>
      </trkpt>
      <trkpt lat="45.86632" lon="1.27008">
        <ele>312.2</ele>
        <time>2024-10-08T14:22:20Z</time>
      </trkpt>
      <trkpt lat="45.8664" lon="1.26999">
        <ele>312.6</ele>
        <time>2024-10-08T14:22:23Z</time>
      </trkpt>
      <trkpt lat="45.86647" lon="1.26991">
        <ele>313</ele>
        <time>2024-10-08T14:22:26Z</time>
      </trkpt>
      <trkpt lat="45.86654" lon="1.26985">
        <ele>313.4</ele>
        <time>2024-10-08T14:22:29Z</time>
      </trkpt>
      <trkpt lat="45.86661" lon="1.26978">
        <ele>313.8</ele>
        <time>2024-10-08T14:22:32Z</time>
      </trkpt>
      <trkpt lat="45.86669" lon="1.26971">
        <ele>314.2</ele>
        <time>2024-10-08T14:22:35Z</time>
      </trkpt>
      <trkpt lat="45.86677" lon="1.26963">
        <ele>314.6</ele>
        <time>2024-10-08T14:22:38Z</time>
      </trkpt>
      <trkpt lat="45.86685" lon="1.26956">
        <ele>315.1</ele>
        <time>2024-10-08T14:22:41Z</time>
      </trkpt>
      <trkpt lat="45.86692" lon="1.26949">
        <ele>315.5</ele>
        <time>2024-10-08T14:22:44Z</time>
      </trkpt>
      <trkpt lat="45.867" lon="1.26942">
        <ele>316.3</ele>
        <time>2024-10-08T14:22:47Z</time>
      </trkpt>
      <trkpt lat="45.86706" lon="1.26932">
        <ele>317.1</ele>
        <time>2024-10-08T14:22:50Z</time>
      </trkpt>
      <trkpt lat="45.86709" lon="1.26922">
        <ele>317.4</ele>
        <time>2024-10-08T14:22:53Z</time>
      </trkpt>
      <trkpt lat="45.86716" lon="1.26916">
        <ele>317.6</ele>
        <time>2024-10-08T14:22:56Z</time>
      </trkpt>
      <trkpt lat="45.86724" lon="1.26912">
        <ele>317.6</ele>
        <time>2024-10-08T14:23:00Z</time>
      </trkpt>
      <trkpt lat="45.86733" lon="1.26906">
        <ele>318</ele>
        <time>2024-10-08T14:23:02Z</time>
      </trkpt>
      <trkpt lat="45.86741" lon="1.269">
        <ele>318.3</ele>
        <time>2024-10-08T14:23:05Z</time>
      </trkpt>
      <trkpt lat="45.86748" lon="1.26893">
        <ele>318.6</ele>
        <time>2024-10-08T14:23:09Z</time>
      </trkpt>
      <trkpt lat="45.86757" lon="1.26887">
        <ele>319.1</ele>
        <time>2024-10-08T14:23:12Z</time>
      </trkpt>
      <trkpt lat="45.86766" lon="1.2688">
        <ele>319.5</ele>
        <time>2024-10-08T14:23:15Z</time>
      </trkpt>
      <trkpt lat="45.86773" lon="1.26873">
        <ele>319.9</ele>
        <time>2024-10-08T14:23:18Z</time>
      </trkpt>
      <trkpt lat="45.8678" lon="1.26868">
        <ele>320.3</ele>
        <time>2024-10-08T14:23:21Z</time>
      </trkpt>
      <trkpt lat="45.86788" lon="1.26861">
        <ele>320.8</ele>
        <time>2024-10-08T14:23:24Z</time>
      </trkpt>
      <trkpt lat="45.86795" lon="1.26855">
        <ele>321.1</ele>
        <time>2024-10-08T14:23:27Z</time>
      </trkpt>
      <trkpt lat="45.86802" lon="1.26848">
        <ele>321.5</ele>
        <time>2024-10-08T14:23:30Z</time>
      </trkpt>
      <trkpt lat="45.86809" lon="1.26842">
        <ele>321.9</ele>
        <time>2024-10-08T14:23:33Z</time>
      </trkpt>
      <trkpt lat="45.86817" lon="1.26836">
        <ele>322.4</ele>
        <time>2024-10-08T14:23:35Z</time>
      </trkpt>
      <trkpt lat="45.86826" lon="1.2683">
        <ele>322.6</ele>
        <time>2024-10-08T14:23:38Z</time>
      </trkpt>
      <trkpt lat="45.86833" lon="1.26824">
        <ele>322.8</ele>
        <time>2024-10-08T14:23:41Z</time>
      </trkpt>
      <trkpt lat="45.86841" lon="1.26818">
        <ele>323.1</ele>
        <time>2024-10-08T14:23:44Z</time>
      </trkpt>
      <trkpt lat="45.86849" lon="1.26813">
        <ele>323.3</ele>
        <time>2024-10-08T14:23:47Z</time>
      </trkpt>
      <trkpt lat="45.86858" lon="1.26808">
        <ele>323.5</ele>
        <time>2024-10-08T14:23:50Z</time>
      </trkpt>
      <trkpt lat="45.86866" lon="1.26804">
        <ele>323.7</ele>
        <time>2024-10-08T14:23:53Z</time>
      </trkpt>
      <trkpt lat="45.86875" lon="1.26799">
        <ele>323.8</ele>
        <time>2024-10-08T14:23:56Z</time>
      </trkpt>
      <trkpt lat="45.86882" lon="1.26795">
        <ele>323.9</ele>
        <time>2024-10-08T14:23:59Z</time>
      </trkpt>
      <trkpt lat="45.86887" lon="1.2679">
        <ele>323.9</ele>
        <time>2024-10-08T14:24:02Z</time>
      </trkpt>
      <trkpt lat="45.8689" lon="1.26786">
        <ele>323.9</ele>
        <time>2024-10-08T14:24:05Z</time>
      </trkpt>
      <trkpt lat="45.86892" lon="1.26779">
        <ele>323.8</ele>
        <time>2024-10-08T14:24:08Z</time>
      </trkpt>
      <trkpt lat="45.86895" lon="1.26768">
        <ele>323.5</ele>
        <time>2024-10-08T14:24:11Z</time>
      </trkpt>
      <trkpt lat="45.86891" lon="1.26751">
        <ele>323.1</ele>
        <time>2024-10-08T14:24:14Z</time>
      </trkpt>
      <trkpt lat="45.86887" lon="1.26731">
        <ele>322.5</ele>
        <time>2024-10-08T14:24:17Z</time>
      </trkpt>
      <trkpt lat="45.86882" lon="1.26711">
        <ele>321.9</ele>
        <time>2024-10-08T14:24:20Z</time>
      </trkpt>
      <trkpt lat="45.86877" lon="1.2669">
        <ele>321.7</ele>
        <time>2024-10-08T14:24:23Z</time>
      </trkpt>
      <trkpt lat="45.86873" lon="1.26673">
        <ele>322</ele>
        <time>2024-10-08T14:24:26Z</time>
      </trkpt>
      <trkpt lat="45.86869" lon="1.26659">
        <ele>322.4</ele>
        <time>2024-10-08T14:24:29Z</time>
      </trkpt>
      <trkpt lat="45.86866" lon="1.26645">
        <ele>322.9</ele>
        <time>2024-10-08T14:24:32Z</time>
      </trkpt>
      <trkpt lat="45.86862" lon="1.26632">
        <ele>323.6</ele>
        <time>2024-10-08T14:24:35Z</time>
      </trkpt>
      <trkpt lat="45.86859" lon="1.2662">
        <ele>324.3</ele>
        <time>2024-10-08T14:24:39Z</time>
      </trkpt>
      <trkpt lat="45.86857" lon="1.26609">
        <ele>325</ele>
        <time>2024-10-08T14:24:41Z</time>
      </trkpt>
      <trkpt lat="45.86854" lon="1.26596">
        <ele>325.8</ele>
        <time>2024-10-08T14:24:45Z</time>
      </trkpt>
      <trkpt lat="45.8685" lon="1.26582">
        <ele>326.7</ele>
        <time>2024-10-08T14:24:48Z</time>
      </trkpt>
      <trkpt lat="45.86847" lon="1.26568">
        <ele>327.6</ele>
        <time>2024-10-08T14:24:51Z</time>
      </trkpt>
      <trkpt lat="45.86844" lon="1.26555">
        <ele>328.4</ele>
        <time>2024-10-08T14:24:54Z</time>
      </trkpt>
      <trkpt lat="45.86841" lon="1.26542">
        <ele>329</ele>
        <time>2024-10-08T14:24:57Z</time>
      </trkpt>
      <trkpt lat="45.86838" lon="1.26529">
        <ele>329.2</ele>
        <time>2024-10-08T14:24:59Z</time>
      </trkpt>
      <trkpt lat="45.86833" lon="1.26515">
        <ele>329.3</ele>
        <time>2024-10-08T14:25:02Z</time>
      </trkpt>
      <trkpt lat="45.86829" lon="1.265">
        <ele>329.3</ele>
        <time>2024-10-08T14:25:05Z</time>
      </trkpt>
      <trkpt lat="45.86825" lon="1.26484">
        <ele>329.3</ele>
        <time>2024-10-08T14:25:09Z</time>
      </trkpt>
      <trkpt lat="45.86821" lon="1.26469">
        <ele>329.3</ele>
        <time>2024-10-08T14:25:11Z</time>
      </trkpt>
      <trkpt lat="45.86817" lon="1.26456">
        <ele>329.3</ele>
        <time>2024-10-08T14:25:15Z</time>
      </trkpt>
      <trkpt lat="45.86815" lon="1.26449">
        <ele>329.3</ele>
        <time>2024-10-08T14:25:17Z</time>
      </trkpt>
      <trkpt lat="45.86816" lon="1.26446">
        <ele>329.3</ele>
        <time>2024-10-08T14:25:21Z</time>
      </trkpt>
      <trkpt lat="45.86816" lon="1.26447">
        <ele>329.3</ele>
        <time>2024-10-08T14:25:24Z</time>
      </trkpt>
      <trkpt lat="45.86816" lon="1.26447">
        <ele>329.3</ele>
        <time>2024-10-08T14:25:26Z</time>
      </trkpt>
      <trkpt lat="45.86816" lon="1.26447">
        <ele>329.3</ele>
        <time>2024-10-08T14:25:30Z</time>
      </trkpt>
      <trkpt lat="45.86816" lon="1.26447">
        <ele>329.3</ele>
        <time>2024-10-08T14:25:33Z</time>
      </trkpt>
      <trkpt lat="45.86816" lon="1.26447">
        <ele>329.3</ele>
        <time>2024-10-08T14:25:35Z</time>
      </trkpt>
      <trkpt lat="45.86816" lon="1.26447">
        <ele>329.3</ele>
        <time>2024-10-08T14:25:38Z</time>
      </trkpt>
      <trkpt lat="45.86816" lon="1.26447">
        <ele>329.3</ele>
        <time>2024-10-08T14:25:41Z</time>
      </trkpt>
      <trkpt lat="45.86816" lon="1.26446">
        <ele>329.3</ele>
        <time>2024-10-08T14:25:44Z</time>
      </trkpt>
      <trkpt lat="45.86816" lon="1.26446">
        <ele>329.3</ele>
        <time>2024-10-08T14:25:47Z</time>
      </trkpt>
      <trkpt lat="45.86816" lon="1.26446">
        <ele>329.3</ele>
        <time>2024-10-08T14:25:50Z</time>
      </trkpt>
      <trkpt lat="45.86816" lon="1.26446">
        <ele>329.3</ele>
        <time>2024-10-08T14:25:53Z</time>
      </trkpt>
      <trkpt lat="45.86816" lon="1.26446">
        <ele>329.3</ele>
        <time>2024-10-08T14:25:57Z</time>
      </trkpt>
      <trkpt lat="45.86817" lon="1.26446">
        <ele>329.3</ele>
        <time>2024-10-08T14:25:59Z</time>
      </trkpt>
      <trkpt lat="45.86817" lon="1.26445">
        <ele>329.3</ele>
        <time>2024-10-08T14:26:03Z</time>
      </trkpt>
      <trkpt lat="45.86818" lon="1.26444">
        <ele>329.3</ele>
        <time>2024-10-08T14:26:05Z</time>
      </trkpt>
      <trkpt lat="45.86818" lon="1.26444">
        <ele>329.3</ele>
        <time>2024-10-08T14:26:09Z</time>
      </trkpt>
      <trkpt lat="45.86817" lon="1.26444">
        <ele>329.3</ele>
        <time>2024-10-08T14:26:12Z</time>
      </trkpt>
      <trkpt lat="45.86817" lon="1.26445">
        <ele>329.3</ele>
        <time>2024-10-08T14:26:15Z</time>
      </trkpt>
      <trkpt lat="45.86817" lon="1.26446">
        <ele>329.3</ele>
        <time>2024-10-08T14:26:18Z</time>
      </trkpt>
      <trkpt lat="45.86817" lon="1.26447">
        <ele>329.3</ele>
        <time>2024-10-08T14:26:21Z</time>
      </trkpt>
      <trkpt lat="45.86817" lon="1.26448">
        <ele>329.3</ele>
        <time>2024-10-08T14:26:24Z</time>
      </trkpt>
      <trkpt lat="45.86818" lon="1.26448">
        <ele>329.3</ele>
        <time>2024-10-08T14:26:27Z</time>
      </trkpt>
      <trkpt lat="45.86818" lon="1.26448">
        <ele>329.3</ele>
        <time>2024-10-08T14:26:29Z</time>
      </trkpt>
      <trkpt lat="45.86819" lon="1.26449">
        <ele>329.3</ele>
        <time>2024-10-08T14:26:32Z</time>
      </trkpt>
      <trkpt lat="45.86819" lon="1.26449">
        <ele>329.3</ele>
        <time>2024-10-08T14:26:35Z</time>
      </trkpt>
      <trkpt lat="45.86819" lon="1.26448">
        <ele>329.3</ele>
        <time>2024-10-08T14:26:38Z</time>
      </trkpt>
      <trkpt lat="45.86819" lon="1.26448">
        <ele>329.3</ele>
        <time>2024-10-08T14:26:41Z</time>
      </trkpt>
      <trkpt lat="45.86819" lon="1.26448">
        <ele>329.3</ele>
        <time>2024-10-08T14:26:44Z</time>
      </trkpt>
      <trkpt lat="45.86819" lon="1.26448">
        <ele>329.3</ele>
        <time>2024-10-08T14:26:47Z</time>
      </trkpt>
      <trkpt lat="45.86819" lon="1.26448">
        <ele>329.3</ele>
        <time>2024-10-08T14:26:50Z</time>
      </trkpt>
      <trkpt lat="45.86818" lon="1.26448">
        <ele>329.3</ele>
        <time>2024-10-08T14:26:53Z</time>
      </trkpt>
      <trkpt lat="45.86818" lon="1.26447">
        <ele>329.3</ele>
        <time>2024-10-08T14:26:56Z</time>
      </trkpt>
      <trkpt lat="45.86818" lon="1.26446">
        <ele>329.3</ele>
        <time>2024-10-08T14:26:59Z</time>
      </trkpt>
      <trkpt lat="45.86818" lon="1.26446">
        <ele>329.3</ele>
        <time>2024-10-08T14:27:02Z</time>
      </trkpt>
      <trkpt lat="45.86818" lon="1.26446">
        <ele>329.3</ele>
        <time>2024-10-08T14:27:05Z</time>
      </trkpt>
      <trkpt lat="45.86818" lon="1.26446">
        <ele>329.3</ele>
        <time>2024-10-08T14:27:09Z</time>
      </trkpt>
      <trkpt lat="45.86818" lon="1.26446">
        <ele>329.3</ele>
        <time>2024-10-08T14:27:11Z</time>
      </trkpt>
      <trkpt lat="45.86818" lon="1.26446">
        <ele>329.3</ele>
        <time>2024-10-08T14:27:14Z</time>
      </trkpt>
      <trkpt lat="45.86818" lon="1.26446">
        <ele>329.3</ele>
        <time>2024-10-08T14:27:17Z</time>
      </trkpt>
      <trkpt lat="45.86818" lon="1.26446">
        <ele>329.3</ele>
        <time>2024-10-08T14:27:20Z</time>
      </trkpt>
      <trkpt lat="45.86818" lon="1.26445">
        <ele>329.3</ele>
        <time>2024-10-08T14:27:23Z</time>
      </trkpt>
      <trkpt lat="45.86818" lon="1.26445">
        <ele>329.3</ele>
        <time>2024-10-08T14:27:26Z</time>
      </trkpt>
      <trkpt lat="45.86818" lon="1.26445">
        <ele>329.3</ele>
        <time>2024-10-08T14:27:30Z</time>
      </trkpt>
      <trkpt lat="45.86818" lon="1.26445">
        <ele>329.3</ele>
        <time>2024-10-08T14:27:33Z</time>
      </trkpt>
      <trkpt lat="45.86817" lon="1.26445">
        <ele>329.3</ele>
        <time>2024-10-08T14:27:36Z</time>
      </trkpt>
      <trkpt lat="45.86817" lon="1.26445">
        <ele>329.3</ele>
        <time>2024-10-08T14:27:39Z</time>
      </trkpt>
      <trkpt lat="45.86817" lon="1.26445">
        <ele>329.3</ele>
        <time>2024-10-08T14:27:42Z</time>
      </trkpt>
      <trkpt lat="45.86817" lon="1.26445">
        <ele>329.3</ele>
        <time>2024-10-08T14:27:45Z</time>
      </trkpt>
      <trkpt lat="45.86817" lon="1.26445">
        <ele>329.3</ele>
        <time>2024-10-08T14:27:48Z</time>
      </trkpt>
      <trkpt lat="45.86818" lon="1.26445">
        <ele>329.3</ele>
        <time>2024-10-08T14:27:50Z</time>
      </trkpt>
      <trkpt lat="45.86818" lon="1.26444">
        <ele>329.3</ele>
        <time>2024-10-08T14:27:54Z</time>
      </trkpt>
      <trkpt lat="45.86818" lon="1.26444">
        <ele>329.3</ele>
        <time>2024-10-08T14:27:57Z</time>
      </trkpt>
      <trkpt lat="45.86818" lon="1.26443">
        <ele>329.3</ele>
        <time>2024-10-08T14:27:59Z</time>
      </trkpt>
      <trkpt lat="45.86818" lon="1.26443">
        <ele>329.3</ele>
        <time>2024-10-08T14:28:02Z</time>
      </trkpt>
      <trkpt lat="45.86818" lon="1.26443">
        <ele>329.3</ele>
        <time>2024-10-08T14:28:05Z</time>
      </trkpt>
      <trkpt lat="45.86818" lon="1.26444">
        <ele>329.3</ele>
        <time>2024-10-08T14:28:08Z</time>
      </trkpt>
      <trkpt lat="45.86818" lon="1.26445">
        <ele>329.3</ele>
        <time>2024-10-08T14:28:11Z</time>
      </trkpt>
      <trkpt lat="45.86818" lon="1.26445">
        <ele>329.3</ele>
        <time>2024-10-08T14:28:14Z</time>
      </trkpt>
      <trkpt lat="45.86818" lon="1.26446">
        <ele>329.3</ele>
        <time>2024-10-08T14:28:17Z</time>
      </trkpt>
      <trkpt lat="45.86818" lon="1.26447">
        <ele>329.3</ele>
        <time>2024-10-08T14:28:20Z</time>
      </trkpt>
      <trkpt lat="45.86818" lon="1.26446">
        <ele>329.3</ele>
        <time>2024-10-08T14:28:24Z</time>
      </trkpt>
      <trkpt lat="45.86818" lon="1.26446">
        <ele>329.3</ele>
        <time>2024-10-08T14:28:26Z</time>
      </trkpt>
      <trkpt lat="45.86818" lon="1.26445">
        <ele>329.3</ele>
        <time>2024-10-08T14:28:29Z</time>
      </trkpt>
      <trkpt lat="45.86819" lon="1.26444">
        <ele>329.3</ele>
        <time>2024-10-08T14:28:32Z</time>
      </trkpt>
      <trkpt lat="45.86818" lon="1.26443">
        <ele>329.3</ele>
        <time>2024-10-08T14:28:35Z</time>
      </trkpt>
      <trkpt lat="45.86818" lon="1.26444">
        <ele>329.3</ele>
        <time>2024-10-08T14:28:38Z</time>
      </trkpt>
      <trkpt lat="45.86818" lon="1.26446">
        <ele>329.3</ele>
        <time>2024-10-08T14:28:41Z</time>
      </trkpt>
      <trkpt lat="45.86819" lon="1.26446">
        <ele>329.3</ele>
        <time>2024-10-08T14:28:44Z</time>
      </trkpt>
      <trkpt lat="45.86819" lon="1.26446">
        <ele>329.3</ele>
        <time>2024-10-08T14:28:47Z</time>
      </trkpt>
      <trkpt lat="45.86819" lon="1.26446">
        <ele>329.3</ele>
        <time>2024-10-08T14:28:51Z</time>
      </trkpt>
      <trkpt lat="45.86819" lon="1.26446">
        <ele>329.3</ele>
        <time>2024-10-08T14:28:53Z</time>
      </trkpt>
      <trkpt lat="45.8682" lon="1.26446">
        <ele>329.3</ele>
        <time>2024-10-08T14:28:56Z</time>
      </trkpt>
      <trkpt lat="45.86819" lon="1.26445">
        <ele>329.3</ele>
        <time>2024-10-08T14:29:00Z</time>
      </trkpt>
      <trkpt lat="45.8682" lon="1.26445">
        <ele>329.3</ele>
        <time>2024-10-08T14:29:03Z</time>
      </trkpt>
      <trkpt lat="45.86822" lon="1.26442">
        <ele>329.3</ele>
        <time>2024-10-08T14:29:06Z</time>
      </trkpt>
      <trkpt lat="45.86824" lon="1.26439">
        <ele>329.3</ele>
        <time>2024-10-08T14:29:09Z</time>
      </trkpt>
      <trkpt lat="45.86828" lon="1.26438">
        <ele>329.3</ele>
        <time>2024-10-08T14:29:12Z</time>
      </trkpt>
      <trkpt lat="45.86831" lon="1.26433">
        <ele>329.3</ele>
        <time>2024-10-08T14:29:15Z</time>
      </trkpt>
      <trkpt lat="45.86831" lon="1.26421">
        <ele>329.2</ele>
        <time>2024-10-08T14:29:18Z</time>
      </trkpt>
      <trkpt lat="45.86839" lon="1.26403">
        <ele>329</ele>
        <time>2024-10-08T14:29:21Z</time>
      </trkpt>
      <trkpt lat="45.86854" lon="1.26396">
        <ele>328.7</ele>
        <time>2024-10-08T14:29:24Z</time>
      </trkpt>
      <trkpt lat="45.86869" lon="1.26384">
        <ele>328.4</ele>
        <time>2024-10-08T14:29:27Z</time>
      </trkpt>
      <trkpt lat="45.86881" lon="1.26366">
        <ele>328.1</ele>
        <time>2024-10-08T14:29:29Z</time>
      </trkpt>
      <trkpt lat="45.86891" lon="1.26349">
        <ele>327.9</ele>
        <time>2024-10-08T14:29:33Z</time>
      </trkpt>
      <trkpt lat="45.86896" lon="1.26329">
        <ele>327.7</ele>
        <time>2024-10-08T14:29:35Z</time>
      </trkpt>
      <trkpt lat="45.86897" lon="1.26306">
        <ele>327.5</ele>
        <time>2024-10-08T14:29:39Z</time>
      </trkpt>
      <trkpt lat="45.86895" lon="1.26282">
        <ele>327.1</ele>
        <time>2024-10-08T14:29:41Z</time>
      </trkpt>
      <trkpt lat="45.86888" lon="1.26259">
        <ele>326.8</ele>
        <time>2024-10-08T14:29:44Z</time>
      </trkpt>
      <trkpt lat="45.86884" lon="1.26235">
        <ele>326.2</ele>
        <time>2024-10-08T14:29:47Z</time>
      </trkpt>
      <trkpt lat="45.8688" lon="1.26208">
        <ele>325.6</ele>
        <time>2024-10-08T14:29:50Z</time>
      </trkpt>
      <trkpt lat="45.86877" lon="1.2618">
        <ele>324.9</ele>
        <time>2024-10-08T14:29:53Z</time>
      </trkpt>
      <trkpt lat="45.86875" lon="1.26152">
        <ele>324.1</ele>
        <time>2024-10-08T14:29:56Z</time>
      </trkpt>
      <trkpt lat="45.86874" lon="1.26122">
        <ele>323.2</ele>
        <time>2024-10-08T14:29:59Z</time>
      </trkpt>
      <trkpt lat="45.86873" lon="1.26094">
        <ele>322.2</ele>
        <time>2024-10-08T14:30:02Z</time>
      </trkpt>
      <trkpt lat="45.86871" lon="1.26064">
        <ele>321.2</ele>
        <time>2024-10-08T14:30:05Z</time>
      </trkpt>
      <trkpt lat="45.86869" lon="1.26033">
        <ele>320.2</ele>
        <time>2024-10-08T14:30:08Z</time>
      </trkpt>
      <trkpt lat="45.86867" lon="1.26002">
        <ele>319.6</ele>
        <time>2024-10-08T14:30:11Z</time>
      </trkpt>
      <trkpt lat="45.86867" lon="1.25972">
        <ele>319.3</ele>
        <time>2024-10-08T14:30:14Z</time>
      </trkpt>
      <trkpt lat="45.8688" lon="1.25946">
        <ele>318.9</ele>
        <time>2024-10-08T14:30:17Z</time>
      </trkpt>
      <trkpt lat="45.869" lon="1.25945">
        <ele>318.9</ele>
        <time>2024-10-08T14:30:20Z</time>
      </trkpt>
      <trkpt lat="45.86916" lon="1.25941">
        <ele>319.3</ele>
        <time>2024-10-08T14:30:24Z</time>
      </trkpt>
      <trkpt lat="45.8693" lon="1.25928">
        <ele>319.9</ele>
        <time>2024-10-08T14:30:27Z</time>
      </trkpt>
      <trkpt lat="45.86939" lon="1.25912">
        <ele>320.5</ele>
        <time>2024-10-08T14:30:30Z</time>
      </trkpt>
      <trkpt lat="45.86945" lon="1.25893">
        <ele>321</ele>
        <time>2024-10-08T14:30:33Z</time>
      </trkpt>
      <trkpt lat="45.86952" lon="1.25874">
        <ele>321.3</ele>
        <time>2024-10-08T14:30:36Z</time>
      </trkpt>
      <trkpt lat="45.8696" lon="1.25853">
        <ele>321.3</ele>
        <time>2024-10-08T14:30:39Z</time>
      </trkpt>
      <trkpt lat="45.86972" lon="1.25834">
        <ele>321.2</ele>
        <time>2024-10-08T14:30:42Z</time>
      </trkpt>
      <trkpt lat="45.86985" lon="1.25816">
        <ele>321.3</ele>
        <time>2024-10-08T14:30:45Z</time>
      </trkpt>
      <trkpt lat="45.86994" lon="1.25795">
        <ele>321.6</ele>
        <time>2024-10-08T14:30:48Z</time>
      </trkpt>
      <trkpt lat="45.87" lon="1.25777">
        <ele>322.4</ele>
        <time>2024-10-08T14:30:50Z</time>
      </trkpt>
      <trkpt lat="45.87002" lon="1.25758">
        <ele>323.4</ele>
        <time>2024-10-08T14:30:53Z</time>
      </trkpt>
      <trkpt lat="45.87006" lon="1.25742">
        <ele>324.3</ele>
        <time>2024-10-08T14:30:56Z</time>
      </trkpt>
      <trkpt lat="45.87011" lon="1.2573">
        <ele>325.3</ele>
        <time>2024-10-08T14:30:59Z</time>
      </trkpt>
      <trkpt lat="45.87018" lon="1.25719">
        <ele>326.4</ele>
        <time>2024-10-08T14:31:02Z</time>
      </trkpt>
      <trkpt lat="45.87026" lon="1.2571">
        <ele>327.4</ele>
        <time>2024-10-08T14:31:05Z</time>
      </trkpt>
      <trkpt lat="45.87035" lon="1.257">
        <ele>328.5</ele>
        <time>2024-10-08T14:31:08Z</time>
      </trkpt>
      <trkpt lat="45.87045" lon="1.25689">
        <ele>329.5</ele>
        <time>2024-10-08T14:31:11Z</time>
      </trkpt>
      <trkpt lat="45.87054" lon="1.25678">
        <ele>330.3</ele>
        <time>2024-10-08T14:31:14Z</time>
      </trkpt>
      <trkpt lat="45.87062" lon="1.25669">
        <ele>331</ele>
        <time>2024-10-08T14:31:18Z</time>
      </trkpt>
      <trkpt lat="45.87071" lon="1.25661">
        <ele>331.6</ele>
        <time>2024-10-08T14:31:20Z</time>
      </trkpt>
      <trkpt lat="45.87079" lon="1.25655">
        <ele>332.1</ele>
        <time>2024-10-08T14:31:24Z</time>
      </trkpt>
      <trkpt lat="45.87087" lon="1.25646">
        <ele>332.7</ele>
        <time>2024-10-08T14:31:26Z</time>
      </trkpt>
      <trkpt lat="45.87095" lon="1.25639">
        <ele>333.2</ele>
        <time>2024-10-08T14:31:29Z</time>
      </trkpt>
      <trkpt lat="45.87103" lon="1.25632">
        <ele>333.7</ele>
        <time>2024-10-08T14:31:32Z</time>
      </trkpt>
      <trkpt lat="45.87111" lon="1.25625">
        <ele>334.2</ele>
        <time>2024-10-08T14:31:35Z</time>
      </trkpt>
      <trkpt lat="45.87119" lon="1.25619">
        <ele>334.7</ele>
        <time>2024-10-08T14:31:38Z</time>
      </trkpt>
      <trkpt lat="45.87127" lon="1.25611">
        <ele>334.9</ele>
        <time>2024-10-08T14:31:41Z</time>
      </trkpt>
      <trkpt lat="45.87137" lon="1.25602">
        <ele>335.3</ele>
        <time>2024-10-08T14:31:44Z</time>
      </trkpt>
      <trkpt lat="45.87147" lon="1.25595">
        <ele>335.5</ele>
        <time>2024-10-08T14:31:47Z</time>
      </trkpt>
      <trkpt lat="45.87159" lon="1.25588">
        <ele>335.8</ele>
        <time>2024-10-08T14:31:51Z</time>
      </trkpt>
      <trkpt lat="45.87173" lon="1.25582">
        <ele>336</ele>
        <time>2024-10-08T14:31:54Z</time>
      </trkpt>
      <trkpt lat="45.87186" lon="1.25578">
        <ele>336.1</ele>
        <time>2024-10-08T14:31:57Z</time>
      </trkpt>
      <trkpt lat="45.87199" lon="1.25572">
        <ele>336.3</ele>
        <time>2024-10-08T14:32:00Z</time>
      </trkpt>
      <trkpt lat="45.87213" lon="1.25568">
        <ele>336.5</ele>
        <time>2024-10-08T14:32:03Z</time>
      </trkpt>
      <trkpt lat="45.87226" lon="1.25564">
        <ele>336.6</ele>
        <time>2024-10-08T14:32:06Z</time>
      </trkpt>
      <trkpt lat="45.87239" lon="1.2556">
        <ele>336.8</ele>
        <time>2024-10-08T14:32:09Z</time>
      </trkpt>
      <trkpt lat="45.87253" lon="1.25556">
        <ele>337</ele>
        <time>2024-10-08T14:32:12Z</time>
      </trkpt>
      <trkpt lat="45.87267" lon="1.25551">
        <ele>337.2</ele>
        <time>2024-10-08T14:32:14Z</time>
      </trkpt>
      <trkpt lat="45.87281" lon="1.25546">
        <ele>337.3</ele>
        <time>2024-10-08T14:32:17Z</time>
      </trkpt>
      <trkpt lat="45.87295" lon="1.25538">
        <ele>337.5</ele>
        <time>2024-10-08T14:32:20Z</time>
      </trkpt>
      <trkpt lat="45.87308" lon="1.25528">
        <ele>337.7</ele>
        <time>2024-10-08T14:32:23Z</time>
      </trkpt>
      <trkpt lat="45.8732" lon="1.25516">
        <ele>337.9</ele>
        <time>2024-10-08T14:32:26Z</time>
      </trkpt>
      <trkpt lat="45.87331" lon="1.25501">
        <ele>338.1</ele>
        <time>2024-10-08T14:32:29Z</time>
      </trkpt>
      <trkpt lat="45.87339" lon="1.25484">
        <ele>338.3</ele>
        <time>2024-10-08T14:32:32Z</time>
      </trkpt>
      <trkpt lat="45.87347" lon="1.25467">
        <ele>338.6</ele>
        <time>2024-10-08T14:32:35Z</time>
      </trkpt>
      <trkpt lat="45.87352" lon="1.25448">
        <ele>338.8</ele>
        <time>2024-10-08T14:32:38Z</time>
      </trkpt>
      <trkpt lat="45.87355" lon="1.2543">
        <ele>338.9</ele>
        <time>2024-10-08T14:32:41Z</time>
      </trkpt>
      <trkpt lat="45.87357" lon="1.25411">
        <ele>339.1</ele>
        <time>2024-10-08T14:32:44Z</time>
      </trkpt>
      <trkpt lat="45.87357" lon="1.25392">
        <ele>339.3</ele>
        <time>2024-10-08T14:32:47Z</time>
      </trkpt>
      <trkpt lat="45.87357" lon="1.25374">
        <ele>339.6</ele>
        <time>2024-10-08T14:32:50Z</time>
      </trkpt>
      <trkpt lat="45.87357" lon="1.25356">
        <ele>339.9</ele>
        <time>2024-10-08T14:32:53Z</time>
      </trkpt>
      <trkpt lat="45.87358" lon="1.25338">
        <ele>340.2</ele>
        <time>2024-10-08T14:32:56Z</time>
      </trkpt>
      <trkpt lat="45.87357" lon="1.25321">
        <ele>340.6</ele>
        <time>2024-10-08T14:32:59Z</time>
      </trkpt>
      <trkpt lat="45.87357" lon="1.25304">
        <ele>341</ele>
        <time>2024-10-08T14:33:02Z</time>
      </trkpt>
      <trkpt lat="45.87357" lon="1.25286">
        <ele>341.4</ele>
        <time>2024-10-08T14:33:05Z</time>
      </trkpt>
      <trkpt lat="45.87357" lon="1.25269">
        <ele>341.7</ele>
        <time>2024-10-08T14:33:09Z</time>
      </trkpt>
      <trkpt lat="45.87359" lon="1.25253">
        <ele>342.1</ele>
        <time>2024-10-08T14:33:12Z</time>
      </trkpt>
      <trkpt lat="45.87361" lon="1.25236">
        <ele>342.5</ele>
        <time>2024-10-08T14:33:15Z</time>
      </trkpt>
      <trkpt lat="45.87364" lon="1.25221">
        <ele>342.8</ele>
        <time>2024-10-08T14:33:18Z</time>
      </trkpt>
      <trkpt lat="45.87369" lon="1.25206">
        <ele>343.1</ele>
        <time>2024-10-08T14:33:21Z</time>
      </trkpt>
      <trkpt lat="45.87373" lon="1.2519">
        <ele>343.4</ele>
        <time>2024-10-08T14:33:24Z</time>
      </trkpt>
      <trkpt lat="45.8738" lon="1.25176">
        <ele>343.8</ele>
        <time>2024-10-08T14:33:27Z</time>
      </trkpt>
      <trkpt lat="45.87387" lon="1.25163">
        <ele>344.2</ele>
        <time>2024-10-08T14:33:29Z</time>
      </trkpt>
      <trkpt lat="45.87395" lon="1.25152">
        <ele>344.6</ele>
        <time>2024-10-08T14:33:33Z</time>
      </trkpt>
      <trkpt lat="45.87402" lon="1.25142">
        <ele>345</ele>
        <time>2024-10-08T14:33:35Z</time>
      </trkpt>
      <trkpt lat="45.8741" lon="1.25133">
        <ele>345.6</ele>
        <time>2024-10-08T14:33:39Z</time>
      </trkpt>
      <trkpt lat="45.87418" lon="1.25126">
        <ele>346.4</ele>
        <time>2024-10-08T14:33:41Z</time>
      </trkpt>
      <trkpt lat="45.87427" lon="1.25119">
        <ele>347.1</ele>
        <time>2024-10-08T14:33:45Z</time>
      </trkpt>
      <trkpt lat="45.87435" lon="1.25112">
        <ele>347.6</ele>
        <time>2024-10-08T14:33:47Z</time>
      </trkpt>
      <trkpt lat="45.87443" lon="1.25103">
        <ele>348.2</ele>
        <time>2024-10-08T14:33:50Z</time>
      </trkpt>
      <trkpt lat="45.87449" lon="1.25095">
        <ele>348.7</ele>
        <time>2024-10-08T14:33:53Z</time>
      </trkpt>
      <trkpt lat="45.87456" lon="1.25086">
        <ele>349.3</ele>
        <time>2024-10-08T14:33:56Z</time>
      </trkpt>
      <trkpt lat="45.87464" lon="1.25076">
        <ele>349.6</ele>
        <time>2024-10-08T14:33:59Z</time>
      </trkpt>
      <trkpt lat="45.87471" lon="1.25068">
        <ele>349.9</ele>
        <time>2024-10-08T14:34:02Z</time>
      </trkpt>
      <trkpt lat="45.8748" lon="1.25068">
        <ele>350.4</ele>
        <time>2024-10-08T14:34:05Z</time>
      </trkpt>
      <trkpt lat="45.87491" lon="1.25076">
        <ele>350.4</ele>
        <time>2024-10-08T14:34:08Z</time>
      </trkpt>
      <trkpt lat="45.87503" lon="1.25085">
        <ele>350.4</ele>
        <time>2024-10-08T14:34:11Z</time>
      </trkpt>
      <trkpt lat="45.87515" lon="1.25095">
        <ele>350.2</ele>
        <time>2024-10-08T14:34:14Z</time>
      </trkpt>
      <trkpt lat="45.87525" lon="1.25104">
        <ele>350.1</ele>
        <time>2024-10-08T14:34:17Z</time>
      </trkpt>
      <trkpt lat="45.87537" lon="1.25114">
        <ele>350</ele>
        <time>2024-10-08T14:34:20Z</time>
      </trkpt>
      <trkpt lat="45.87547" lon="1.25125">
        <ele>349.8</ele>
        <time>2024-10-08T14:34:23Z</time>
      </trkpt>
      <trkpt lat="45.87558" lon="1.25126">
        <ele>349.9</ele>
        <time>2024-10-08T14:34:26Z</time>
      </trkpt>
      <trkpt lat="45.87567" lon="1.25121">
        <ele>350.1</ele>
        <time>2024-10-08T14:34:29Z</time>
      </trkpt>
      <trkpt lat="45.87571" lon="1.2512">
        <ele>350.2</ele>
        <time>2024-10-08T14:34:33Z</time>
      </trkpt>
      <trkpt lat="45.87572" lon="1.2512">
        <ele>350.1</ele>
        <time>2024-10-08T14:34:36Z</time>
      </trkpt>
      <trkpt lat="45.87571" lon="1.25119">
        <ele>350.2</ele>
        <time>2024-10-08T14:34:39Z</time>
      </trkpt>
      <trkpt lat="45.8757" lon="1.25119">
        <ele>350.2</ele>
        <time>2024-10-08T14:34:42Z</time>
      </trkpt>
      <trkpt lat="45.8757" lon="1.25119">
        <ele>350.2</ele>
        <time>2024-10-08T14:34:45Z</time>
      </trkpt>
      <trkpt lat="45.8757" lon="1.25121">
        <ele>350.1</ele>
        <time>2024-10-08T14:34:48Z</time>
      </trkpt>
      <trkpt lat="45.87568" lon="1.25129">
        <ele>350</ele>
        <time>2024-10-08T14:34:51Z</time>
      </trkpt>
      <trkpt lat="45.87562" lon="1.25142">
        <ele>349.7</ele>
        <time>2024-10-08T14:34:54Z</time>
      </trkpt>
      <trkpt lat="45.87557" lon="1.25156">
        <ele>349.4</ele>
        <time>2024-10-08T14:34:57Z</time>
      </trkpt>
      <trkpt lat="45.87549" lon="1.25166">
        <ele>349.2</ele>
        <time>2024-10-08T14:35:00Z</time>
      </trkpt>
      <trkpt lat="45.87543" lon="1.25174">
        <ele>348.8</ele>
        <time>2024-10-08T14:35:02Z</time>
      </trkpt>
      <trkpt lat="45.87538" lon="1.25182">
        <ele>348.6</ele>
        <time>2024-10-08T14:35:05Z</time>
      </trkpt>
      <trkpt lat="45.87533" lon="1.25188">
        <ele>348.3</ele>
        <time>2024-10-08T14:35:08Z</time>
      </trkpt>
      <trkpt lat="45.87529" lon="1.25193">
        <ele>348</ele>
        <time>2024-10-08T14:35:11Z</time>
      </trkpt>
      <trkpt lat="45.87523" lon="1.25192">
        <ele>348</ele>
        <time>2024-10-08T14:35:14Z</time>
      </trkpt>
      <trkpt lat="45.87519" lon="1.25188">
        <ele>348</ele>
        <time>2024-10-08T14:35:17Z</time>
      </trkpt>
      <trkpt lat="45.87518" lon="1.25191">
        <ele>347.8</ele>
        <time>2024-10-08T14:35:20Z</time>
      </trkpt>
      <trkpt lat="45.87519" lon="1.25192">
        <ele>347.9</ele>
        <time>2024-10-08T14:35:23Z</time>
      </trkpt>
      <trkpt lat="45.8752" lon="1.25193">
        <ele>347.8</ele>
        <time>2024-10-08T14:35:26Z</time>
      </trkpt>
      <trkpt lat="45.8752" lon="1.25192">
        <ele>347.9</ele>
        <time>2024-10-08T14:35:29Z</time>
      </trkpt>
      <trkpt lat="45.87522" lon="1.25191">
        <ele>347.9</ele>
        <time>2024-10-08T14:35:32Z</time>
      </trkpt>
      <trkpt lat="45.87517" lon="1.25186">
        <ele>348</ele>
        <time>2024-10-08T14:35:35Z</time>
      </trkpt>
      <trkpt lat="45.87511" lon="1.25191">
        <ele>347.7</ele>
        <time>2024-10-08T14:35:38Z</time>
      </trkpt>
      <trkpt lat="45.87504" lon="1.25197">
        <ele>347.3</ele>
        <time>2024-10-08T14:35:41Z</time>
      </trkpt>
      <trkpt lat="45.87502" lon="1.25205">
        <ele>347</ele>
        <time>2024-10-08T14:35:44Z</time>
      </trkpt>
      <trkpt lat="45.87502" lon="1.25215">
        <ele>346.6</ele>
        <time>2024-10-08T14:35:47Z</time>
      </trkpt>
      <trkpt lat="45.87503" lon="1.25221">
        <ele>346.4</ele>
        <time>2024-10-08T14:35:50Z</time>
      </trkpt>
      <trkpt lat="45.87504" lon="1.25229">
        <ele>346</ele>
        <time>2024-10-08T14:35:54Z</time>
      </trkpt>
      <trkpt lat="45.87507" lon="1.25237">
        <ele>345.6</ele>
        <time>2024-10-08T14:35:56Z</time>
      </trkpt>
      <trkpt lat="45.87509" lon="1.25242">
        <ele>345.5</ele>
        <time>2024-10-08T14:36:00Z</time>
      </trkpt>
      <trkpt lat="45.8751" lon="1.25241">
        <ele>345.5</ele>
        <time>2024-10-08T14:36:03Z</time>
      </trkpt>
      <trkpt lat="45.8751" lon="1.25241">
        <ele>345.6</ele>
        <time>2024-10-08T14:36:06Z</time>
      </trkpt>
      <trkpt lat="45.8751" lon="1.2524">
        <ele>345.7</ele>
        <time>2024-10-08T14:36:09Z</time>
      </trkpt>
      <trkpt lat="45.87509" lon="1.25238">
        <ele>345.7</ele>
        <time>2024-10-08T14:36:12Z</time>
      </trkpt>
      <trkpt lat="45.87507" lon="1.25237">
        <ele>345.7</ele>
        <time>2024-10-08T14:36:15Z</time>
      </trkpt>
      <trkpt lat="45.87506" lon="1.25234">
        <ele>345.9</ele>
        <time>2024-10-08T14:36:18Z</time>
      </trkpt>
      <trkpt lat="45.87502" lon="1.25226">
        <ele>346.2</ele>
        <time>2024-10-08T14:36:21Z</time>
      </trkpt>
      <trkpt lat="45.87502" lon="1.25218">
        <ele>346.6</ele>
        <time>2024-10-08T14:36:23Z</time>
      </trkpt>
      <trkpt lat="45.87503" lon="1.25209">
        <ele>346.9</ele>
        <time>2024-10-08T14:36:26Z</time>
      </trkpt>
      <trkpt lat="45.87508" lon="1.25202">
        <ele>347.2</ele>
        <time>2024-10-08T14:36:29Z</time>
      </trkpt>
      <trkpt lat="45.87514" lon="1.25198">
        <ele>347.5</ele>
        <time>2024-10-08T14:36:33Z</time>
      </trkpt>
      <trkpt lat="45.87518" lon="1.25195">
        <ele>347.7</ele>
        <time>2024-10-08T14:36:35Z</time>
      </trkpt>
      <trkpt lat="45.87522" lon="1.25191">
        <ele>347.9</ele>
        <time>2024-10-08T14:36:38Z</time>
      </trkpt>
      <trkpt lat="45.87527" lon="1.25191">
        <ele>348.1</ele>
        <time>2024-10-08T14:36:41Z</time>
      </trkpt>
      <trkpt lat="45.87532" lon="1.25186">
        <ele>348.4</ele>
        <time>2024-10-08T14:36:44Z</time>
      </trkpt>
      <trkpt lat="45.87537" lon="1.25177">
        <ele>348.7</ele>
        <time>2024-10-08T14:36:47Z</time>
      </trkpt>
      <trkpt lat="45.87542" lon="1.25169">
        <ele>349</ele>
        <time>2024-10-08T14:36:50Z</time>
      </trkpt>
      <trkpt lat="45.87548" lon="1.25163">
        <ele>349.3</ele>
        <time>2024-10-08T14:36:53Z</time>
      </trkpt>
      <trkpt lat="45.87552" lon="1.25155">
        <ele>349.4</ele>
        <time>2024-10-08T14:36:56Z</time>
      </trkpt>
      <trkpt lat="45.87554" lon="1.25146">
        <ele>349.6</ele>
        <time>2024-10-08T14:36:59Z</time>
      </trkpt>
      <trkpt lat="45.87552" lon="1.25136">
        <ele>349.8</ele>
        <time>2024-10-08T14:37:02Z</time>
      </trkpt>
      <trkpt lat="45.8755" lon="1.25128">
        <ele>349.9</ele>
        <time>2024-10-08T14:37:06Z</time>
      </trkpt>
      <trkpt lat="45.87558" lon="1.25124">
        <ele>350.1</ele>
        <time>2024-10-08T14:37:08Z</time>
      </trkpt>
      <trkpt lat="45.87566" lon="1.25119">
        <ele>350.2</ele>
        <time>2024-10-08T14:37:11Z</time>
      </trkpt>
      <trkpt lat="45.87568" lon="1.25116">
        <ele>350.2</ele>
        <time>2024-10-08T14:37:15Z</time>
      </trkpt>
      <trkpt lat="45.87568" lon="1.25116">
        <ele>350.3</ele>
        <time>2024-10-08T14:37:17Z</time>
      </trkpt>
      <trkpt lat="45.87568" lon="1.25116">
        <ele>350.3</ele>
        <time>2024-10-08T14:37:20Z</time>
      </trkpt>
      <trkpt lat="45.87567" lon="1.2512">
        <ele>350.3</ele>
        <time>2024-10-08T14:37:24Z</time>
      </trkpt>
      <trkpt lat="45.87567" lon="1.25121">
        <ele>350.2</ele>
        <time>2024-10-08T14:37:27Z</time>
      </trkpt>
      <trkpt lat="45.87565" lon="1.25122">
        <ele>350.2</ele>
        <time>2024-10-08T14:37:30Z</time>
      </trkpt>
      <trkpt lat="45.87553" lon="1.25124">
        <ele>350</ele>
        <time>2024-10-08T14:37:32Z</time>
      </trkpt>
      <trkpt lat="45.87541" lon="1.25122">
        <ele>350</ele>
        <time>2024-10-08T14:37:36Z</time>
      </trkpt>
      <trkpt lat="45.8753" lon="1.25111">
        <ele>350.1</ele>
        <time>2024-10-08T14:37:39Z</time>
      </trkpt>
      <trkpt lat="45.87521" lon="1.25104">
        <ele>350.1</ele>
        <time>2024-10-08T14:37:42Z</time>
      </trkpt>
      <trkpt lat="45.87512" lon="1.25098">
        <ele>350.2</ele>
        <time>2024-10-08T14:37:44Z</time>
      </trkpt>
      <trkpt lat="45.87503" lon="1.25088">
        <ele>350.4</ele>
        <time>2024-10-08T14:37:47Z</time>
      </trkpt>
      <trkpt lat="45.87492" lon="1.25078">
        <ele>350.4</ele>
        <time>2024-10-08T14:37:50Z</time>
      </trkpt>
      <trkpt lat="45.87483" lon="1.25071">
        <ele>350.5</ele>
        <time>2024-10-08T14:37:53Z</time>
      </trkpt>
      <trkpt lat="45.87475" lon="1.25062">
        <ele>350.5</ele>
        <time>2024-10-08T14:37:56Z</time>
      </trkpt>
      <trkpt lat="45.87479" lon="1.25053">
        <ele>350.8</ele>
        <time>2024-10-08T14:37:59Z</time>
      </trkpt>
      <trkpt lat="45.87484" lon="1.25039">
        <ele>351.4</ele>
        <time>2024-10-08T14:38:02Z</time>
      </trkpt>
      <trkpt lat="45.87491" lon="1.25027">
        <ele>351.8</ele>
        <time>2024-10-08T14:38:05Z</time>
      </trkpt>
      <trkpt lat="45.87498" lon="1.25016">
        <ele>352.2</ele>
        <time>2024-10-08T14:38:08Z</time>
      </trkpt>
      <trkpt lat="45.87504" lon="1.25005">
        <ele>352.6</ele>
        <time>2024-10-08T14:38:11Z</time>
      </trkpt>
      <trkpt lat="45.87511" lon="1.24993">
        <ele>353</ele>
        <time>2024-10-08T14:38:14Z</time>
      </trkpt>
      <trkpt lat="45.8752" lon="1.24981">
        <ele>353.4</ele>
        <time>2024-10-08T14:38:17Z</time>
      </trkpt>
      <trkpt lat="45.87529" lon="1.2497">
        <ele>353.8</ele>
        <time>2024-10-08T14:38:20Z</time>
      </trkpt>
      <trkpt lat="45.87538" lon="1.24959">
        <ele>354</ele>
        <time>2024-10-08T14:38:23Z</time>
      </trkpt>
      <trkpt lat="45.87547" lon="1.24951">
        <ele>354.2</ele>
        <time>2024-10-08T14:38:27Z</time>
      </trkpt>
      <trkpt lat="45.87557" lon="1.24944">
        <ele>354.3</ele>
        <time>2024-10-08T14:38:29Z</time>
      </trkpt>
      <trkpt lat="45.87565" lon="1.24946">
        <ele>354.2</ele>
        <time>2024-10-08T14:38:32Z</time>
      </trkpt>
      <trkpt lat="45.87573" lon="1.24962">
        <ele>354</ele>
        <time>2024-10-08T14:38:35Z</time>
      </trkpt>
      <trkpt lat="45.87583" lon="1.24979">
        <ele>353.8</ele>
        <time>2024-10-08T14:38:38Z</time>
      </trkpt>
      <trkpt lat="45.87595" lon="1.24997">
        <ele>353.6</ele>
        <time>2024-10-08T14:38:41Z</time>
      </trkpt>
      <trkpt lat="45.87604" lon="1.25011">
        <ele>353.5</ele>
        <time>2024-10-08T14:38:45Z</time>
      </trkpt>
      <trkpt lat="45.87608" lon="1.25022">
        <ele>353.3</ele>
        <time>2024-10-08T14:38:48Z</time>
      </trkpt>
      <trkpt lat="45.8761" lon="1.25017">
        <ele>353.2</ele>
        <time>2024-10-08T14:38:51Z</time>
      </trkpt>
      <trkpt lat="45.87602" lon="1.25006">
        <ele>353.5</ele>
        <time>2024-10-08T14:38:54Z</time>
      </trkpt>
      <trkpt lat="45.87594" lon="1.24993">
        <ele>353.6</ele>
        <time>2024-10-08T14:38:57Z</time>
      </trkpt>
      <trkpt lat="45.87587" lon="1.2498">
        <ele>353.7</ele>
        <time>2024-10-08T14:39:00Z</time>
      </trkpt>
      <trkpt lat="45.8758" lon="1.24969">
        <ele>353.9</ele>
        <time>2024-10-08T14:39:03Z</time>
      </trkpt>
      <trkpt lat="45.87572" lon="1.24958">
        <ele>354</ele>
        <time>2024-10-08T14:39:06Z</time>
      </trkpt>
      <trkpt lat="45.87564" lon="1.24947">
        <ele>354.2</ele>
        <time>2024-10-08T14:39:08Z</time>
      </trkpt>
      <trkpt lat="45.87566" lon="1.24937">
        <ele>354.4</ele>
        <time>2024-10-08T14:39:11Z</time>
      </trkpt>
      <trkpt lat="45.87577" lon="1.24927">
        <ele>354.4</ele>
        <time>2024-10-08T14:39:14Z</time>
      </trkpt>
      <trkpt lat="45.87588" lon="1.24916">
        <ele>354.3</ele>
        <time>2024-10-08T14:39:17Z</time>
      </trkpt>
      <trkpt lat="45.87599" lon="1.24906">
        <ele>354.2</ele>
        <time>2024-10-08T14:39:20Z</time>
      </trkpt>
      <trkpt lat="45.87611" lon="1.24895">
        <ele>354</ele>
        <time>2024-10-08T14:39:23Z</time>
      </trkpt>
      <trkpt lat="45.87622" lon="1.24886">
        <ele>353.8</ele>
        <time>2024-10-08T14:39:26Z</time>
      </trkpt>
      <trkpt lat="45.87631" lon="1.24876">
        <ele>353.6</ele>
        <time>2024-10-08T14:39:29Z</time>
      </trkpt>
      <trkpt lat="45.8764" lon="1.24866">
        <ele>353.4</ele>
        <time>2024-10-08T14:39:32Z</time>
      </trkpt>
      <trkpt lat="45.87649" lon="1.24851">
        <ele>353.2</ele>
        <time>2024-10-08T14:39:35Z</time>
      </trkpt>
      <trkpt lat="45.87657" lon="1.24834">
        <ele>352.9</ele>
        <time>2024-10-08T14:39:38Z</time>
      </trkpt>
      <trkpt lat="45.87662" lon="1.24818">
        <ele>352.7</ele>
        <time>2024-10-08T14:39:41Z</time>
      </trkpt>
      <trkpt lat="45.87663" lon="1.24808">
        <ele>352.6</ele>
        <time>2024-10-08T14:39:44Z</time>
      </trkpt>
      <trkpt lat="45.87661" lon="1.24813">
        <ele>352.6</ele>
        <time>2024-10-08T14:39:47Z</time>
      </trkpt>
      <trkpt lat="45.87667" lon="1.24819">
        <ele>352.5</ele>
        <time>2024-10-08T14:39:50Z</time>
      </trkpt>
      <trkpt lat="45.87676" lon="1.24829">
        <ele>352.4</ele>
        <time>2024-10-08T14:39:53Z</time>
      </trkpt>
      <trkpt lat="45.87683" lon="1.24837">
        <ele>352.3</ele>
        <time>2024-10-08T14:39:56Z</time>
      </trkpt>
      <trkpt lat="45.8769" lon="1.24846">
        <ele>352.2</ele>
        <time>2024-10-08T14:39:59Z</time>
      </trkpt>
      <trkpt lat="45.87697" lon="1.24853">
        <ele>352.2</ele>
        <time>2024-10-08T14:40:02Z</time>
      </trkpt>
      <trkpt lat="45.877" lon="1.24854">
        <ele>352.2</ele>
        <time>2024-10-08T14:40:06Z</time>
      </trkpt>
      <trkpt lat="45.87701" lon="1.24854">
        <ele>352.2</ele>
        <time>2024-10-08T14:40:09Z</time>
      </trkpt>
      <trkpt lat="45.87701" lon="1.24854">
        <ele>352.2</ele>
        <time>2024-10-08T14:40:12Z</time>
      </trkpt>
      <trkpt lat="45.87699" lon="1.24852">
        <ele>352.2</ele>
        <time>2024-10-08T14:40:15Z</time>
      </trkpt>
      <trkpt lat="45.87693" lon="1.24848">
        <ele>352.2</ele>
        <time>2024-10-08T14:40:18Z</time>
      </trkpt>
      <trkpt lat="45.87685" lon="1.24837">
        <ele>352.2</ele>
        <time>2024-10-08T14:40:21Z</time>
      </trkpt>
      <trkpt lat="45.87677" lon="1.24826">
        <ele>352.3</ele>
        <time>2024-10-08T14:40:24Z</time>
      </trkpt>
      <trkpt lat="45.8767" lon="1.24816">
        <ele>352.3</ele>
        <time>2024-10-08T14:40:27Z</time>
      </trkpt>
      <trkpt lat="45.8767" lon="1.248">
        <ele>352.4</ele>
        <time>2024-10-08T14:40:30Z</time>
      </trkpt>
      <trkpt lat="45.87671" lon="1.24785">
        <ele>352.6</ele>
        <time>2024-10-08T14:40:33Z</time>
      </trkpt>
      <trkpt lat="45.87671" lon="1.24767">
        <ele>352.7</ele>
        <time>2024-10-08T14:40:35Z</time>
      </trkpt>
      <trkpt lat="45.8767" lon="1.2475">
        <ele>352.9</ele>
        <time>2024-10-08T14:40:38Z</time>
      </trkpt>
      <trkpt lat="45.8767" lon="1.24732">
        <ele>353</ele>
        <time>2024-10-08T14:40:41Z</time>
      </trkpt>
      <trkpt lat="45.87668" lon="1.24715">
        <ele>353.1</ele>
        <time>2024-10-08T14:40:44Z</time>
      </trkpt>
      <trkpt lat="45.87668" lon="1.24698">
        <ele>353.2</ele>
        <time>2024-10-08T14:40:47Z</time>
      </trkpt>
      <trkpt lat="45.87668" lon="1.24682">
        <ele>353.4</ele>
        <time>2024-10-08T14:40:50Z</time>
      </trkpt>
      <trkpt lat="45.87668" lon="1.24667">
        <ele>353.4</ele>
        <time>2024-10-08T14:40:53Z</time>
      </trkpt>
      <trkpt lat="45.87669" lon="1.24652">
        <ele>353.5</ele>
        <time>2024-10-08T14:40:56Z</time>
      </trkpt>
      <trkpt lat="45.87671" lon="1.24638">
        <ele>353.5</ele>
        <time>2024-10-08T14:40:59Z</time>
      </trkpt>
      <trkpt lat="45.87674" lon="1.24624">
        <ele>353.6</ele>
        <time>2024-10-08T14:41:02Z</time>
      </trkpt>
      <trkpt lat="45.87678" lon="1.24611">
        <ele>353.6</ele>
        <time>2024-10-08T14:41:05Z</time>
      </trkpt>
      <trkpt lat="45.87681" lon="1.24597">
        <ele>353.6</ele>
        <time>2024-10-08T14:41:08Z</time>
      </trkpt>
      <trkpt lat="45.87684" lon="1.24582">
        <ele>353.6</ele>
        <time>2024-10-08T14:41:11Z</time>
      </trkpt>
      <trkpt lat="45.87687" lon="1.24568">
        <ele>353.6</ele>
        <time>2024-10-08T14:41:14Z</time>
      </trkpt>
      <trkpt lat="45.87688" lon="1.24552">
        <ele>353.6</ele>
        <time>2024-10-08T14:41:17Z</time>
      </trkpt>
      <trkpt lat="45.87687" lon="1.24537">
        <ele>353.7</ele>
        <time>2024-10-08T14:41:20Z</time>
      </trkpt>
      <trkpt lat="45.87687" lon="1.24522">
        <ele>353.7</ele>
        <time>2024-10-08T14:41:23Z</time>
      </trkpt>
      <trkpt lat="45.87686" lon="1.24505">
        <ele>353.5</ele>
        <time>2024-10-08T14:41:26Z</time>
      </trkpt>
      <trkpt lat="45.87686" lon="1.24487">
        <ele>353.3</ele>
        <time>2024-10-08T14:41:29Z</time>
      </trkpt>
      <trkpt lat="45.87688" lon="1.2447">
        <ele>353.1</ele>
        <time>2024-10-08T14:41:32Z</time>
      </trkpt>
      <trkpt lat="45.87689" lon="1.24452">
        <ele>352.9</ele>
        <time>2024-10-08T14:41:35Z</time>
      </trkpt>
      <trkpt lat="45.87689" lon="1.24433">
        <ele>352.7</ele>
        <time>2024-10-08T14:41:39Z</time>
      </trkpt>
      <trkpt lat="45.87689" lon="1.24413">
        <ele>352.6</ele>
        <time>2024-10-08T14:41:42Z</time>
      </trkpt>
      <trkpt lat="45.87691" lon="1.24395">
        <ele>352.7</ele>
        <time>2024-10-08T14:41:45Z</time>
      </trkpt>
      <trkpt lat="45.87701" lon="1.2439">
        <ele>353.8</ele>
        <time>2024-10-08T14:41:48Z</time>
      </trkpt>
      <trkpt lat="45.87711" lon="1.24395">
        <ele>354.6</ele>
        <time>2024-10-08T14:41:51Z</time>
      </trkpt>
      <trkpt lat="45.87721" lon="1.24401">
        <ele>355.6</ele>
        <time>2024-10-08T14:41:53Z</time>
      </trkpt>
      <trkpt lat="45.87731" lon="1.24406">
        <ele>356.4</ele>
        <time>2024-10-08T14:41:57Z</time>
      </trkpt>
      <trkpt lat="45.8774" lon="1.24412">
        <ele>357.2</ele>
        <time>2024-10-08T14:42:00Z</time>
      </trkpt>
      <trkpt lat="45.8775" lon="1.24418">
        <ele>357.5</ele>
        <time>2024-10-08T14:42:02Z</time>
      </trkpt>
      <trkpt lat="45.87761" lon="1.24425">
        <ele>358.1</ele>
        <time>2024-10-08T14:42:05Z</time>
      </trkpt>
      <trkpt lat="45.87771" lon="1.2443">
        <ele>358.9</ele>
        <time>2024-10-08T14:42:08Z</time>
      </trkpt>
      <trkpt lat="45.8778" lon="1.24435">
        <ele>359.7</ele>
        <time>2024-10-08T14:42:11Z</time>
      </trkpt>
      <trkpt lat="45.87789" lon="1.24439">
        <ele>360.4</ele>
        <time>2024-10-08T14:42:14Z</time>
      </trkpt>
      <trkpt lat="45.87798" lon="1.24444">
        <ele>361.1</ele>
        <time>2024-10-08T14:42:17Z</time>
      </trkpt>
      <trkpt lat="45.87806" lon="1.24448">
        <ele>361.8</ele>
        <time>2024-10-08T14:42:20Z</time>
      </trkpt>
      <trkpt lat="45.87813" lon="1.24453">
        <ele>362.5</ele>
        <time>2024-10-08T14:42:23Z</time>
      </trkpt>
      <trkpt lat="45.8782" lon="1.24459">
        <ele>363.1</ele>
        <time>2024-10-08T14:42:26Z</time>
      </trkpt>
      <trkpt lat="45.87828" lon="1.24468">
        <ele>363.7</ele>
        <time>2024-10-08T14:42:29Z</time>
      </trkpt>
      <trkpt lat="45.87834" lon="1.24477">
        <ele>364.3</ele>
        <time>2024-10-08T14:42:32Z</time>
      </trkpt>
      <trkpt lat="45.8784" lon="1.24487">
        <ele>364.9</ele>
        <time>2024-10-08T14:42:35Z</time>
      </trkpt>
      <trkpt lat="45.87846" lon="1.24497">
        <ele>365.5</ele>
        <time>2024-10-08T14:42:38Z</time>
      </trkpt>
      <trkpt lat="45.87851" lon="1.24507">
        <ele>366.2</ele>
        <time>2024-10-08T14:42:41Z</time>
      </trkpt>
      <trkpt lat="45.87857" lon="1.24516">
        <ele>366.8</ele>
        <time>2024-10-08T14:42:44Z</time>
      </trkpt>
      <trkpt lat="45.87862" lon="1.24525">
        <ele>367.4</ele>
        <time>2024-10-08T14:42:47Z</time>
      </trkpt>
      <trkpt lat="45.87867" lon="1.24533">
        <ele>368</ele>
        <time>2024-10-08T14:42:50Z</time>
      </trkpt>
      <trkpt lat="45.87872" lon="1.24542">
        <ele>368.6</ele>
        <time>2024-10-08T14:42:53Z</time>
      </trkpt>
      <trkpt lat="45.87876" lon="1.24551">
        <ele>369.3</ele>
        <time>2024-10-08T14:42:56Z</time>
      </trkpt>
      <trkpt lat="45.8788" lon="1.24557">
        <ele>369.9</ele>
        <time>2024-10-08T14:43:00Z</time>
      </trkpt>
      <trkpt lat="45.87886" lon="1.24564">
        <ele>370.5</ele>
        <time>2024-10-08T14:43:02Z</time>
      </trkpt>
      <trkpt lat="45.87891" lon="1.24573">
        <ele>371.3</ele>
        <time>2024-10-08T14:43:06Z</time>
      </trkpt>
      <trkpt lat="45.87897" lon="1.24583">
        <ele>372</ele>
        <time>2024-10-08T14:43:09Z</time>
      </trkpt>
      <trkpt lat="45.87901" lon="1.24594">
        <ele>372.7</ele>
        <time>2024-10-08T14:43:12Z</time>
      </trkpt>
      <trkpt lat="45.87907" lon="1.24604">
        <ele>373.3</ele>
        <time>2024-10-08T14:43:15Z</time>
      </trkpt>
      <trkpt lat="45.87913" lon="1.24613">
        <ele>374</ele>
        <time>2024-10-08T14:43:18Z</time>
      </trkpt>
      <trkpt lat="45.87918" lon="1.24622">
        <ele>374.5</ele>
        <time>2024-10-08T14:43:21Z</time>
      </trkpt>
      <trkpt lat="45.87921" lon="1.24632">
        <ele>375</ele>
        <time>2024-10-08T14:43:24Z</time>
      </trkpt>
      <trkpt lat="45.87923" lon="1.24645">
        <ele>375.5</ele>
        <time>2024-10-08T14:43:27Z</time>
      </trkpt>
      <trkpt lat="45.87924" lon="1.24659">
        <ele>375.7</ele>
        <time>2024-10-08T14:43:29Z</time>
      </trkpt>
      <trkpt lat="45.87923" lon="1.24673">
        <ele>375.7</ele>
        <time>2024-10-08T14:43:32Z</time>
      </trkpt>
      <trkpt lat="45.87922" lon="1.24688">
        <ele>375.5</ele>
        <time>2024-10-08T14:43:35Z</time>
      </trkpt>
      <trkpt lat="45.87917" lon="1.24705">
        <ele>374.9</ele>
        <time>2024-10-08T14:43:38Z</time>
      </trkpt>
      <trkpt lat="45.87911" lon="1.24723">
        <ele>374.1</ele>
        <time>2024-10-08T14:43:41Z</time>
      </trkpt>
      <trkpt lat="45.87909" lon="1.24746">
        <ele>373</ele>
        <time>2024-10-08T14:43:44Z</time>
      </trkpt>
      <trkpt lat="45.87908" lon="1.24771">
        <ele>371.6</ele>
        <time>2024-10-08T14:43:47Z</time>
      </trkpt>
      <trkpt lat="45.87908" lon="1.24796">
        <ele>370.2</ele>
        <time>2024-10-08T14:43:50Z</time>
      </trkpt>
      <trkpt lat="45.87909" lon="1.24824">
        <ele>368.6</ele>
        <time>2024-10-08T14:43:53Z</time>
      </trkpt>
      <trkpt lat="45.87911" lon="1.24857">
        <ele>366.7</ele>
        <time>2024-10-08T14:43:56Z</time>
      </trkpt>
      <trkpt lat="45.87911" lon="1.24893">
        <ele>364.8</ele>
        <time>2024-10-08T14:43:59Z</time>
      </trkpt>
      <trkpt lat="45.87909" lon="1.24928">
        <ele>363.2</ele>
        <time>2024-10-08T14:44:02Z</time>
      </trkpt>
      <trkpt lat="45.87908" lon="1.24961">
        <ele>361.6</ele>
        <time>2024-10-08T14:44:05Z</time>
      </trkpt>
      <trkpt lat="45.87908" lon="1.24998">
        <ele>360.2</ele>
        <time>2024-10-08T14:44:08Z</time>
      </trkpt>
      <trkpt lat="45.87908" lon="1.25034">
        <ele>359.1</ele>
        <time>2024-10-08T14:44:11Z</time>
      </trkpt>
      <trkpt lat="45.87908" lon="1.2507">
        <ele>358.3</ele>
        <time>2024-10-08T14:44:14Z</time>
      </trkpt>
      <trkpt lat="45.87908" lon="1.25103">
        <ele>357.8</ele>
        <time>2024-10-08T14:44:17Z</time>
      </trkpt>
      <trkpt lat="45.87907" lon="1.25134">
        <ele>357.3</ele>
        <time>2024-10-08T14:44:20Z</time>
      </trkpt>
      <trkpt lat="45.87908" lon="1.2516">
        <ele>356.9</ele>
        <time>2024-10-08T14:44:23Z</time>
      </trkpt>
      <trkpt lat="45.87908" lon="1.25183">
        <ele>356.5</ele>
        <time>2024-10-08T14:44:26Z</time>
      </trkpt>
      <trkpt lat="45.87907" lon="1.25203">
        <ele>356.1</ele>
        <time>2024-10-08T14:44:29Z</time>
      </trkpt>
      <trkpt lat="45.87907" lon="1.25222">
        <ele>355.7</ele>
        <time>2024-10-08T14:44:33Z</time>
      </trkpt>
      <trkpt lat="45.87907" lon="1.25239">
        <ele>355.5</ele>
        <time>2024-10-08T14:44:36Z</time>
      </trkpt>
      <trkpt lat="45.87908" lon="1.25255">
        <ele>355.5</ele>
        <time>2024-10-08T14:44:39Z</time>
      </trkpt>
      <trkpt lat="45.87909" lon="1.25269">
        <ele>355.7</ele>
        <time>2024-10-08T14:44:42Z</time>
      </trkpt>
      <trkpt lat="45.87912" lon="1.2528">
        <ele>356</ele>
        <time>2024-10-08T14:44:45Z</time>
      </trkpt>
      <trkpt lat="45.87915" lon="1.25294">
        <ele>356.4</ele>
        <time>2024-10-08T14:44:47Z</time>
      </trkpt>
      <trkpt lat="45.87917" lon="1.2531">
        <ele>357</ele>
        <time>2024-10-08T14:44:51Z</time>
      </trkpt>
      <trkpt lat="45.8792" lon="1.25323">
        <ele>357.6</ele>
        <time>2024-10-08T14:44:53Z</time>
      </trkpt>
      <trkpt lat="45.87918" lon="1.2533">
        <ele>358.2</ele>
        <time>2024-10-08T14:44:57Z</time>
      </trkpt>
      <trkpt lat="45.87911" lon="1.25328">
        <ele>358.3</ele>
        <time>2024-10-08T14:44:59Z</time>
      </trkpt>
      <trkpt lat="45.87903" lon="1.25321">
        <ele>358.4</ele>
        <time>2024-10-08T14:45:02Z</time>
      </trkpt>
      <trkpt lat="45.87894" lon="1.25314">
        <ele>358.5</ele>
        <time>2024-10-08T14:45:05Z</time>
      </trkpt>
      <trkpt lat="45.87883" lon="1.25306">
        <ele>358.6</ele>
        <time>2024-10-08T14:45:08Z</time>
      </trkpt>
      <trkpt lat="45.87877" lon="1.25301">
        <ele>358.7</ele>
        <time>2024-10-08T14:45:11Z</time>
      </trkpt>
      <trkpt lat="45.87867" lon="1.25303">
        <ele>358.8</ele>
        <time>2024-10-08T14:45:14Z</time>
      </trkpt>
      <trkpt lat="45.87858" lon="1.25307">
        <ele>358.9</ele>
        <time>2024-10-08T14:45:17Z</time>
      </trkpt>
      <trkpt lat="45.87849" lon="1.25311">
        <ele>358.9</ele>
        <time>2024-10-08T14:45:21Z</time>
      </trkpt>
      <trkpt lat="45.87839" lon="1.25316">
        <ele>359.1</ele>
        <time>2024-10-08T14:45:24Z</time>
      </trkpt>
      <trkpt lat="45.87829" lon="1.25321">
        <ele>359.2</ele>
        <time>2024-10-08T14:45:26Z</time>
      </trkpt>
      <trkpt lat="45.87821" lon="1.25322">
        <ele>359.2</ele>
        <time>2024-10-08T14:45:29Z</time>
      </trkpt>
      <trkpt lat="45.87819" lon="1.25324">
        <ele>359.3</ele>
        <time>2024-10-08T14:45:32Z</time>
      </trkpt>
      <trkpt lat="45.87819" lon="1.25326">
        <ele>359.2</ele>
        <time>2024-10-08T14:45:35Z</time>
      </trkpt>
      <trkpt lat="45.8782" lon="1.25325">
        <ele>359.2</ele>
        <time>2024-10-08T14:45:38Z</time>
      </trkpt>
      <trkpt lat="45.87821" lon="1.25325">
        <ele>359.2</ele>
        <time>2024-10-08T14:45:41Z</time>
      </trkpt>
      <trkpt lat="45.8782" lon="1.25326">
        <ele>359.2</ele>
        <time>2024-10-08T14:45:44Z</time>
      </trkpt>
      <trkpt lat="45.8782" lon="1.25326">
        <ele>359.2</ele>
        <time>2024-10-08T14:45:47Z</time>
      </trkpt>
      <trkpt lat="45.87822" lon="1.25325">
        <ele>359.2</ele>
        <time>2024-10-08T14:45:51Z</time>
      </trkpt>
      <trkpt lat="45.87826" lon="1.25325">
        <ele>359.2</ele>
        <time>2024-10-08T14:45:53Z</time>
      </trkpt>
      <trkpt lat="45.87832" lon="1.25321">
        <ele>359.1</ele>
        <time>2024-10-08T14:45:56Z</time>
      </trkpt>
      <trkpt lat="45.87842" lon="1.25318">
        <ele>359</ele>
        <time>2024-10-08T14:46:00Z</time>
      </trkpt>
      <trkpt lat="45.87853" lon="1.25315">
        <ele>358.9</ele>
        <time>2024-10-08T14:46:03Z</time>
      </trkpt>
      <trkpt lat="45.8786" lon="1.25312">
        <ele>358.8</ele>
        <time>2024-10-08T14:46:06Z</time>
      </trkpt>
      <trkpt lat="45.87868" lon="1.25306">
        <ele>358.7</ele>
        <time>2024-10-08T14:46:09Z</time>
      </trkpt>
      <trkpt lat="45.87875" lon="1.25306">
        <ele>358.6</ele>
        <time>2024-10-08T14:46:12Z</time>
      </trkpt>
      <trkpt lat="45.87885" lon="1.25312">
        <ele>358.5</ele>
        <time>2024-10-08T14:46:15Z</time>
      </trkpt>
      <trkpt lat="45.87893" lon="1.25317">
        <ele>358.5</ele>
        <time>2024-10-08T14:46:18Z</time>
      </trkpt>
      <trkpt lat="45.87902" lon="1.25327">
        <ele>358.3</ele>
        <time>2024-10-08T14:46:20Z</time>
      </trkpt>
      <trkpt lat="45.8791" lon="1.2533">
        <ele>358.3</ele>
        <time>2024-10-08T14:46:23Z</time>
      </trkpt>
      <trkpt lat="45.87915" lon="1.25324">
        <ele>357.6</ele>
        <time>2024-10-08T14:46:26Z</time>
      </trkpt>
      <trkpt lat="45.87913" lon="1.25311">
        <ele>357</ele>
        <time>2024-10-08T14:46:29Z</time>
      </trkpt>
      <trkpt lat="45.87909" lon="1.25295">
        <ele>356.4</ele>
        <time>2024-10-08T14:46:32Z</time>
      </trkpt>
      <trkpt lat="45.87907" lon="1.25282">
        <ele>356</ele>
        <time>2024-10-08T14:46:35Z</time>
      </trkpt>
      <trkpt lat="45.87906" lon="1.25274">
        <ele>355.8</ele>
        <time>2024-10-08T14:46:38Z</time>
      </trkpt>
      <trkpt lat="45.87905" lon="1.25264">
        <ele>355.6</ele>
        <time>2024-10-08T14:46:41Z</time>
      </trkpt>
      <trkpt lat="45.87905" lon="1.25254">
        <ele>355.5</ele>
        <time>2024-10-08T14:46:44Z</time>
      </trkpt>
      <trkpt lat="45.87905" lon="1.25244">
        <ele>355.5</ele>
        <time>2024-10-08T14:46:47Z</time>
      </trkpt>
      <trkpt lat="45.87904" lon="1.25237">
        <ele>355.5</ele>
        <time>2024-10-08T14:46:50Z</time>
      </trkpt>
      <trkpt lat="45.87904" lon="1.25231">
        <ele>355.6</ele>
        <time>2024-10-08T14:46:53Z</time>
      </trkpt>
      <trkpt lat="45.87905" lon="1.25228">
        <ele>355.6</ele>
        <time>2024-10-08T14:46:56Z</time>
      </trkpt>
      <trkpt lat="45.87905" lon="1.25228">
        <ele>355.6</ele>
        <time>2024-10-08T14:46:59Z</time>
      </trkpt>
      <trkpt lat="45.87904" lon="1.25229">
        <ele>355.6</ele>
        <time>2024-10-08T14:47:02Z</time>
      </trkpt>
      <trkpt lat="45.87904" lon="1.25229">
        <ele>355.6</ele>
        <time>2024-10-08T14:47:05Z</time>
      </trkpt>
      <trkpt lat="45.87904" lon="1.25228">
        <ele>355.6</ele>
        <time>2024-10-08T14:47:08Z</time>
      </trkpt>
      <trkpt lat="45.87904" lon="1.25229">
        <ele>355.6</ele>
        <time>2024-10-08T14:47:11Z</time>
      </trkpt>
      <trkpt lat="45.87904" lon="1.25229">
        <ele>355.6</ele>
        <time>2024-10-08T14:47:14Z</time>
      </trkpt>
      <trkpt lat="45.87904" lon="1.25227">
        <ele>355.7</ele>
        <time>2024-10-08T14:47:17Z</time>
      </trkpt>
      <trkpt lat="45.87903" lon="1.25222">
        <ele>355.7</ele>
        <time>2024-10-08T14:47:21Z</time>
      </trkpt>
      <trkpt lat="45.87904" lon="1.25216">
        <ele>355.8</ele>
        <time>2024-10-08T14:47:24Z</time>
      </trkpt>
      <trkpt lat="45.87905" lon="1.25208">
        <ele>356</ele>
        <time>2024-10-08T14:47:27Z</time>
      </trkpt>
      <trkpt lat="45.87905" lon="1.252">
        <ele>356.2</ele>
        <time>2024-10-08T14:47:30Z</time>
      </trkpt>
      <trkpt lat="45.87905" lon="1.25191">
        <ele>356.3</ele>
        <time>2024-10-08T14:47:33Z</time>
      </trkpt>
      <trkpt lat="45.87905" lon="1.25182">
        <ele>356.5</ele>
        <time>2024-10-08T14:47:36Z</time>
      </trkpt>
      <trkpt lat="45.87905" lon="1.25172">
        <ele>356.7</ele>
        <time>2024-10-08T14:47:39Z</time>
      </trkpt>
      <trkpt lat="45.87905" lon="1.25161">
        <ele>356.9</ele>
        <time>2024-10-08T14:47:42Z</time>
      </trkpt>
      <trkpt lat="45.87904" lon="1.2515">
        <ele>357.1</ele>
        <time>2024-10-08T14:47:45Z</time>
      </trkpt>
      <trkpt lat="45.87904" lon="1.25138">
        <ele>357.3</ele>
        <time>2024-10-08T14:47:47Z</time>
      </trkpt>
      <trkpt lat="45.87904" lon="1.25127">
        <ele>357.4</ele>
        <time>2024-10-08T14:47:50Z</time>
      </trkpt>
      <trkpt lat="45.87904" lon="1.25117">
        <ele>357.6</ele>
        <time>2024-10-08T14:47:53Z</time>
      </trkpt>
      <trkpt lat="45.87904" lon="1.25105">
        <ele>357.8</ele>
        <time>2024-10-08T14:47:56Z</time>
      </trkpt>
      <trkpt lat="45.87905" lon="1.25092">
        <ele>357.9</ele>
        <time>2024-10-08T14:47:59Z</time>
      </trkpt>
      <trkpt lat="45.87904" lon="1.2508">
        <ele>358.1</ele>
        <time>2024-10-08T14:48:02Z</time>
      </trkpt>
      <trkpt lat="45.87905" lon="1.25075">
        <ele>358.2</ele>
        <time>2024-10-08T14:48:05Z</time>
      </trkpt>
      <trkpt lat="45.87905" lon="1.25077">
        <ele>358.2</ele>
        <time>2024-10-08T14:48:08Z</time>
      </trkpt>
      <trkpt lat="45.87904" lon="1.25076">
        <ele>358.2</ele>
        <time>2024-10-08T14:48:11Z</time>
      </trkpt>
      <trkpt lat="45.87904" lon="1.25076">
        <ele>358.2</ele>
        <time>2024-10-08T14:48:14Z</time>
      </trkpt>
      <trkpt lat="45.87903" lon="1.25076">
        <ele>358.3</ele>
        <time>2024-10-08T14:48:17Z</time>
      </trkpt>
      <trkpt lat="45.87903" lon="1.25076">
        <ele>358.3</ele>
        <time>2024-10-08T14:48:20Z</time>
      </trkpt>
      <trkpt lat="45.87904" lon="1.25075">
        <ele>358.3</ele>
        <time>2024-10-08T14:48:23Z</time>
      </trkpt>
      <trkpt lat="45.87905" lon="1.25075">
        <ele>358.3</ele>
        <time>2024-10-08T14:48:26Z</time>
      </trkpt>
      <trkpt lat="45.87905" lon="1.25075">
        <ele>358.3</ele>
        <time>2024-10-08T14:48:29Z</time>
      </trkpt>
      <trkpt lat="45.87905" lon="1.25075">
        <ele>358.3</ele>
        <time>2024-10-08T14:48:32Z</time>
      </trkpt>
      <trkpt lat="45.87905" lon="1.25075">
        <ele>358.3</ele>
        <time>2024-10-08T14:48:35Z</time>
      </trkpt>
      <trkpt lat="45.87905" lon="1.2507">
        <ele>358.4</ele>
        <time>2024-10-08T14:48:38Z</time>
      </trkpt>
      <trkpt lat="45.87905" lon="1.25057">
        <ele>358.6</ele>
        <time>2024-10-08T14:48:41Z</time>
      </trkpt>
      <trkpt lat="45.87905" lon="1.25041">
        <ele>359</ele>
        <time>2024-10-08T14:48:45Z</time>
      </trkpt>
      <trkpt lat="45.87905" lon="1.25025">
        <ele>359.4</ele>
        <time>2024-10-08T14:48:48Z</time>
      </trkpt>
      <trkpt lat="45.87905" lon="1.25011">
        <ele>359.9</ele>
        <time>2024-10-08T14:48:51Z</time>
      </trkpt>
      <trkpt lat="45.87905" lon="1.24998">
        <ele>360.3</ele>
        <time>2024-10-08T14:48:54Z</time>
      </trkpt>
      <trkpt lat="45.87905" lon="1.24987">
        <ele>360.7</ele>
        <time>2024-10-08T14:48:57Z</time>
      </trkpt>
      <trkpt lat="45.87906" lon="1.24978">
        <ele>361.1</ele>
        <time>2024-10-08T14:49:00Z</time>
      </trkpt>
      <trkpt lat="45.87905" lon="1.24968">
        <ele>361.5</ele>
        <time>2024-10-08T14:49:03Z</time>
      </trkpt>
      <trkpt lat="45.87905" lon="1.24955">
        <ele>362</ele>
        <time>2024-10-08T14:49:05Z</time>
      </trkpt>
      <trkpt lat="45.87906" lon="1.24943">
        <ele>362.5</ele>
        <time>2024-10-08T14:49:08Z</time>
      </trkpt>
      <trkpt lat="45.87906" lon="1.24931">
        <ele>363.1</ele>
        <time>2024-10-08T14:49:11Z</time>
      </trkpt>
      <trkpt lat="45.87906" lon="1.24921">
        <ele>363.5</ele>
        <time>2024-10-08T14:49:14Z</time>
      </trkpt>
      <trkpt lat="45.87906" lon="1.24911">
        <ele>364</ele>
        <time>2024-10-08T14:49:17Z</time>
      </trkpt>
      <trkpt lat="45.87906" lon="1.249">
        <ele>364.5</ele>
        <time>2024-10-08T14:49:20Z</time>
      </trkpt>
      <trkpt lat="45.87905" lon="1.24887">
        <ele>365.2</ele>
        <time>2024-10-08T14:49:23Z</time>
      </trkpt>
      <trkpt lat="45.87905" lon="1.24875">
        <ele>365.8</ele>
        <time>2024-10-08T14:49:26Z</time>
      </trkpt>
      <trkpt lat="45.87906" lon="1.24865">
        <ele>366.3</ele>
        <time>2024-10-08T14:49:29Z</time>
      </trkpt>
      <trkpt lat="45.87906" lon="1.24852">
        <ele>367</ele>
        <time>2024-10-08T14:49:32Z</time>
      </trkpt>
      <trkpt lat="45.87906" lon="1.2484">
        <ele>367.7</ele>
        <time>2024-10-08T14:49:35Z</time>
      </trkpt>
      <trkpt lat="45.87906" lon="1.24828">
        <ele>368.4</ele>
        <time>2024-10-08T14:49:38Z</time>
      </trkpt>
      <trkpt lat="45.87907" lon="1.24816">
        <ele>369.1</ele>
        <time>2024-10-08T14:49:41Z</time>
      </trkpt>
      <trkpt lat="45.87906" lon="1.24804">
        <ele>369.8</ele>
        <time>2024-10-08T14:49:44Z</time>
      </trkpt>
      <trkpt lat="45.87907" lon="1.24793">
        <ele>370.4</ele>
        <time>2024-10-08T14:49:47Z</time>
      </trkpt>
      <trkpt lat="45.87907" lon="1.24783">
        <ele>371</ele>
        <time>2024-10-08T14:49:50Z</time>
      </trkpt>
      <trkpt lat="45.87907" lon="1.24772">
        <ele>371.6</ele>
        <time>2024-10-08T14:49:53Z</time>
      </trkpt>
      <trkpt lat="45.87907" lon="1.2476">
        <ele>372.2</ele>
        <time>2024-10-08T14:49:56Z</time>
      </trkpt>
      <trkpt lat="45.87908" lon="1.24749">
        <ele>372.8</ele>
        <time>2024-10-08T14:50:00Z</time>
      </trkpt>
      <trkpt lat="45.87908" lon="1.24737">
        <ele>373.4</ele>
        <time>2024-10-08T14:50:02Z</time>
      </trkpt>
      <trkpt lat="45.87909" lon="1.24725">
        <ele>373.9</ele>
        <time>2024-10-08T14:50:06Z</time>
      </trkpt>
      <trkpt lat="45.87912" lon="1.24715">
        <ele>374.4</ele>
        <time>2024-10-08T14:50:09Z</time>
      </trkpt>
      <trkpt lat="45.87915" lon="1.24703">
        <ele>374.9</ele>
        <time>2024-10-08T14:50:12Z</time>
      </trkpt>
      <trkpt lat="45.87917" lon="1.24693">
        <ele>375.3</ele>
        <time>2024-10-08T14:50:15Z</time>
      </trkpt>
      <trkpt lat="45.87917" lon="1.24686">
        <ele>375.5</ele>
        <time>2024-10-08T14:50:18Z</time>
      </trkpt>
      <trkpt lat="45.87921" lon="1.24675">
        <ele>375.7</ele>
        <time>2024-10-08T14:50:21Z</time>
      </trkpt>
      <trkpt lat="45.87923" lon="1.24659">
        <ele>375.7</ele>
        <time>2024-10-08T14:50:24Z</time>
      </trkpt>
      <trkpt lat="45.87922" lon="1.24642">
        <ele>375.3</ele>
        <time>2024-10-08T14:50:27Z</time>
      </trkpt>
      <trkpt lat="45.87918" lon="1.24625">
        <ele>374.6</ele>
        <time>2024-10-08T14:50:29Z</time>
      </trkpt>
      <trkpt lat="45.87915" lon="1.2461">
        <ele>373.9</ele>
        <time>2024-10-08T14:50:32Z</time>
      </trkpt>
      <trkpt lat="45.87906" lon="1.24595">
        <ele>372.9</ele>
        <time>2024-10-08T14:50:35Z</time>
      </trkpt>
      <trkpt lat="45.87896" lon="1.24578">
        <ele>371.7</ele>
        <time>2024-10-08T14:50:38Z</time>
      </trkpt>
      <trkpt lat="45.87887" lon="1.24562">
        <ele>370.4</ele>
        <time>2024-10-08T14:50:41Z</time>
      </trkpt>
      <trkpt lat="45.87879" lon="1.24549">
        <ele>369.4</ele>
        <time>2024-10-08T14:50:44Z</time>
      </trkpt>
      <trkpt lat="45.87871" lon="1.24533">
        <ele>368.1</ele>
        <time>2024-10-08T14:50:47Z</time>
      </trkpt>
      <trkpt lat="45.87863" lon="1.24517">
        <ele>367</ele>
        <time>2024-10-08T14:50:50Z</time>
      </trkpt>
      <trkpt lat="45.87852" lon="1.24498">
        <ele>365.9</ele>
        <time>2024-10-08T14:50:53Z</time>
      </trkpt>
      <trkpt lat="45.8784" lon="1.24479">
        <ele>364.6</ele>
        <time>2024-10-08T14:50:56Z</time>
      </trkpt>
      <trkpt lat="45.87827" lon="1.2446">
        <ele>363.5</ele>
        <time>2024-10-08T14:50:59Z</time>
      </trkpt>
      <trkpt lat="45.8781" lon="1.24446">
        <ele>362.1</ele>
        <time>2024-10-08T14:51:02Z</time>
      </trkpt>
      <trkpt lat="45.8779" lon="1.24434">
        <ele>360.4</ele>
        <time>2024-10-08T14:51:05Z</time>
      </trkpt>
      <trkpt lat="45.87771" lon="1.24423">
        <ele>358.8</ele>
        <time>2024-10-08T14:51:08Z</time>
      </trkpt>
      <trkpt lat="45.87753" lon="1.24413">
        <ele>357.5</ele>
        <time>2024-10-08T14:51:11Z</time>
      </trkpt>
      <trkpt lat="45.87735" lon="1.24404">
        <ele>356.7</ele>
        <time>2024-10-08T14:51:14Z</time>
      </trkpt>
      <trkpt lat="45.87719" lon="1.24396">
        <ele>355</ele>
        <time>2024-10-08T14:51:17Z</time>
      </trkpt>
      <trkpt lat="45.87705" lon="1.24387">
        <ele>353.6</ele>
        <time>2024-10-08T14:51:20Z</time>
      </trkpt>
      <trkpt lat="45.87694" lon="1.24379">
        <ele>352.7</ele>
        <time>2024-10-08T14:51:23Z</time>
      </trkpt>
      <trkpt lat="45.87691" lon="1.24361">
        <ele>352.7</ele>
        <time>2024-10-08T14:51:26Z</time>
      </trkpt>
      <trkpt lat="45.8769" lon="1.24344">
        <ele>352.8</ele>
        <time>2024-10-08T14:51:30Z</time>
      </trkpt>
      <trkpt lat="45.87692" lon="1.24327">
        <ele>353.1</ele>
        <time>2024-10-08T14:51:33Z</time>
      </trkpt>
      <trkpt lat="45.87694" lon="1.24312">
        <ele>353.5</ele>
        <time>2024-10-08T14:51:36Z</time>
      </trkpt>
      <trkpt lat="45.87695" lon="1.24295">
        <ele>354</ele>
        <time>2024-10-08T14:51:39Z</time>
      </trkpt>
      <trkpt lat="45.87696" lon="1.24282">
        <ele>354.6</ele>
        <time>2024-10-08T14:51:42Z</time>
      </trkpt>
      <trkpt lat="45.87697" lon="1.24269">
        <ele>355.2</ele>
        <time>2024-10-08T14:51:45Z</time>
      </trkpt>
      <trkpt lat="45.87698" lon="1.24256">
        <ele>355.9</ele>
        <time>2024-10-08T14:51:47Z</time>
      </trkpt>
      <trkpt lat="45.877" lon="1.24246">
        <ele>356.6</ele>
        <time>2024-10-08T14:51:50Z</time>
      </trkpt>
      <trkpt lat="45.87701" lon="1.24234">
        <ele>357.3</ele>
        <time>2024-10-08T14:51:53Z</time>
      </trkpt>
      <trkpt lat="45.87703" lon="1.24225">
        <ele>358.1</ele>
        <time>2024-10-08T14:51:57Z</time>
      </trkpt>
      <trkpt lat="45.87704" lon="1.24216">
        <ele>358.9</ele>
        <time>2024-10-08T14:51:59Z</time>
      </trkpt>
      <trkpt lat="45.87706" lon="1.24207">
        <ele>359.6</ele>
        <time>2024-10-08T14:52:02Z</time>
      </trkpt>
      <trkpt lat="45.87708" lon="1.24197">
        <ele>360.4</ele>
        <time>2024-10-08T14:52:05Z</time>
      </trkpt>
      <trkpt lat="45.87709" lon="1.24186">
        <ele>361.3</ele>
        <time>2024-10-08T14:52:08Z</time>
      </trkpt>
      <trkpt lat="45.87709" lon="1.24176">
        <ele>362.1</ele>
        <time>2024-10-08T14:52:11Z</time>
      </trkpt>
      <trkpt lat="45.87709" lon="1.24165">
        <ele>362.9</ele>
        <time>2024-10-08T14:52:14Z</time>
      </trkpt>
      <trkpt lat="45.87709" lon="1.24152">
        <ele>363.9</ele>
        <time>2024-10-08T14:52:17Z</time>
      </trkpt>
      <trkpt lat="45.87708" lon="1.24141">
        <ele>364.6</ele>
        <time>2024-10-08T14:52:20Z</time>
      </trkpt>
      <trkpt lat="45.87708" lon="1.24131">
        <ele>365.3</ele>
        <time>2024-10-08T14:52:23Z</time>
      </trkpt>
      <trkpt lat="45.87707" lon="1.24121">
        <ele>365.8</ele>
        <time>2024-10-08T14:52:26Z</time>
      </trkpt>
      <trkpt lat="45.87706" lon="1.24109">
        <ele>366.2</ele>
        <time>2024-10-08T14:52:29Z</time>
      </trkpt>
      <trkpt lat="45.87708" lon="1.24099">
        <ele>366.6</ele>
        <time>2024-10-08T14:52:32Z</time>
      </trkpt>
      <trkpt lat="45.87712" lon="1.24092">
        <ele>367</ele>
        <time>2024-10-08T14:52:35Z</time>
      </trkpt>
      <trkpt lat="45.87717" lon="1.24085">
        <ele>367.3</ele>
        <time>2024-10-08T14:52:38Z</time>
      </trkpt>
      <trkpt lat="45.87721" lon="1.24079">
        <ele>367.6</ele>
        <time>2024-10-08T14:52:41Z</time>
      </trkpt>
      <trkpt lat="45.87727" lon="1.24073">
        <ele>368</ele>
        <time>2024-10-08T14:52:44Z</time>
      </trkpt>
      <trkpt lat="45.87732" lon="1.24063">
        <ele>368.4</ele>
        <time>2024-10-08T14:52:47Z</time>
      </trkpt>
      <trkpt lat="45.87732" lon="1.24051">
        <ele>369.3</ele>
        <time>2024-10-08T14:52:51Z</time>
      </trkpt>
      <trkpt lat="45.87733" lon="1.2404">
        <ele>370.1</ele>
        <time>2024-10-08T14:52:54Z</time>
      </trkpt>
      <trkpt lat="45.87736" lon="1.24031">
        <ele>370.4</ele>
        <time>2024-10-08T14:52:57Z</time>
      </trkpt>
      <trkpt lat="45.87737" lon="1.24019">
        <ele>370.9</ele>
        <time>2024-10-08T14:53:00Z</time>
      </trkpt>
      <trkpt lat="45.87739" lon="1.2401">
        <ele>371.3</ele>
        <time>2024-10-08T14:53:03Z</time>
      </trkpt>
      <trkpt lat="45.87741" lon="1.24">
        <ele>371.9</ele>
        <time>2024-10-08T14:53:06Z</time>
      </trkpt>
      <trkpt lat="45.87742" lon="1.2399">
        <ele>372.3</ele>
        <time>2024-10-08T14:53:09Z</time>
      </trkpt>
      <trkpt lat="45.87743" lon="1.23981">
        <ele>372.6</ele>
        <time>2024-10-08T14:53:12Z</time>
      </trkpt>
      <trkpt lat="45.87744" lon="1.23972">
        <ele>372.9</ele>
        <time>2024-10-08T14:53:15Z</time>
      </trkpt>
      <trkpt lat="45.87745" lon="1.23961">
        <ele>373.1</ele>
        <time>2024-10-08T14:53:17Z</time>
      </trkpt>
      <trkpt lat="45.87746" lon="1.23951">
        <ele>373.3</ele>
        <time>2024-10-08T14:53:20Z</time>
      </trkpt>
      <trkpt lat="45.87745" lon="1.23945">
        <ele>373.3</ele>
        <time>2024-10-08T14:53:23Z</time>
      </trkpt>
      <trkpt lat="45.87741" lon="1.23941">
        <ele>373.4</ele>
        <time>2024-10-08T14:53:26Z</time>
      </trkpt>
      <trkpt lat="45.87735" lon="1.23935">
        <ele>373.8</ele>
        <time>2024-10-08T14:53:29Z</time>
      </trkpt>
      <trkpt lat="45.87735" lon="1.23925">
        <ele>374</ele>
        <time>2024-10-08T14:53:32Z</time>
      </trkpt>
      <trkpt lat="45.87736" lon="1.23913">
        <ele>374</ele>
        <time>2024-10-08T14:53:35Z</time>
      </trkpt>
      <trkpt lat="45.87737" lon="1.23907">
        <ele>374</ele>
        <time>2024-10-08T14:53:38Z</time>
      </trkpt>
      <trkpt lat="45.87738" lon="1.23909">
        <ele>373.9</ele>
        <time>2024-10-08T14:53:41Z</time>
      </trkpt>
      <trkpt lat="45.87738" lon="1.23909">
        <ele>373.9</ele>
        <time>2024-10-08T14:53:44Z</time>
      </trkpt>
      <trkpt lat="45.87738" lon="1.23909">
        <ele>373.9</ele>
        <time>2024-10-08T14:53:47Z</time>
      </trkpt>
      <trkpt lat="45.87738" lon="1.23909">
        <ele>373.9</ele>
        <time>2024-10-08T14:53:50Z</time>
      </trkpt>
      <trkpt lat="45.87738" lon="1.23909">
        <ele>373.9</ele>
        <time>2024-10-08T14:53:53Z</time>
      </trkpt>
      <trkpt lat="45.87738" lon="1.23907">
        <ele>373.9</ele>
        <time>2024-10-08T14:53:56Z</time>
      </trkpt>
      <trkpt lat="45.87739" lon="1.23901">
        <ele>373.9</ele>
        <time>2024-10-08T14:53:59Z</time>
      </trkpt>
      <trkpt lat="45.87741" lon="1.23891">
        <ele>373.8</ele>
        <time>2024-10-08T14:54:02Z</time>
      </trkpt>
      <trkpt lat="45.87743" lon="1.23879">
        <ele>373.7</ele>
        <time>2024-10-08T14:54:05Z</time>
      </trkpt>
      <trkpt lat="45.87744" lon="1.23867">
        <ele>373.6</ele>
        <time>2024-10-08T14:54:08Z</time>
      </trkpt>
      <trkpt lat="45.87746" lon="1.23855">
        <ele>373.5</ele>
        <time>2024-10-08T14:54:11Z</time>
      </trkpt>
      <trkpt lat="45.87748" lon="1.23843">
        <ele>373.4</ele>
        <time>2024-10-08T14:54:15Z</time>
      </trkpt>
      <trkpt lat="45.87749" lon="1.23829">
        <ele>373.3</ele>
        <time>2024-10-08T14:54:18Z</time>
      </trkpt>
      <trkpt lat="45.87751" lon="1.23815">
        <ele>373.2</ele>
        <time>2024-10-08T14:54:21Z</time>
      </trkpt>
      <trkpt lat="45.87745" lon="1.23805">
        <ele>373.1</ele>
        <time>2024-10-08T14:54:24Z</time>
      </trkpt>
      <trkpt lat="45.87734" lon="1.23803">
        <ele>372.9</ele>
        <time>2024-10-08T14:54:27Z</time>
      </trkpt>
      <trkpt lat="45.87725" lon="1.23801">
        <ele>372.7</ele>
        <time>2024-10-08T14:54:30Z</time>
      </trkpt>
      <trkpt lat="45.87719" lon="1.238">
        <ele>372.6</ele>
        <time>2024-10-08T14:54:33Z</time>
      </trkpt>
      <trkpt lat="45.87711" lon="1.23798">
        <ele>372.5</ele>
        <time>2024-10-08T14:54:36Z</time>
      </trkpt>
      <trkpt lat="45.87701" lon="1.23796">
        <ele>372.3</ele>
        <time>2024-10-08T14:54:38Z</time>
      </trkpt>
      <trkpt lat="45.87693" lon="1.23797">
        <ele>372.2</ele>
        <time>2024-10-08T14:54:41Z</time>
      </trkpt>
      <trkpt lat="45.87682" lon="1.23795">
        <ele>372.1</ele>
        <time>2024-10-08T14:54:44Z</time>
      </trkpt>
      <trkpt lat="45.87672" lon="1.23793">
        <ele>371.9</ele>
        <time>2024-10-08T14:54:47Z</time>
      </trkpt>
      <trkpt lat="45.87665" lon="1.23795">
        <ele>371.8</ele>
        <time>2024-10-08T14:54:50Z</time>
      </trkpt>
      <trkpt lat="45.87659" lon="1.238">
        <ele>371.7</ele>
        <time>2024-10-08T14:54:53Z</time>
      </trkpt>
      <trkpt lat="45.87652" lon="1.23794">
        <ele>371.5</ele>
        <time>2024-10-08T14:54:56Z</time>
      </trkpt>
      <trkpt lat="45.87645" lon="1.23789">
        <ele>371.4</ele>
        <time>2024-10-08T14:54:59Z</time>
      </trkpt>
      <trkpt lat="45.87635" lon="1.23788">
        <ele>371.2</ele>
        <time>2024-10-08T14:55:02Z</time>
      </trkpt>
      <trkpt lat="45.87622" lon="1.23788">
        <ele>371</ele>
        <time>2024-10-08T14:55:05Z</time>
      </trkpt>
      <trkpt lat="45.87609" lon="1.23788">
        <ele>370.8</ele>
        <time>2024-10-08T14:55:08Z</time>
      </trkpt>
      <trkpt lat="45.87597" lon="1.2379">
        <ele>370.5</ele>
        <time>2024-10-08T14:55:11Z</time>
      </trkpt>
      <trkpt lat="45.87585" lon="1.23792">
        <ele>370.3</ele>
        <time>2024-10-08T14:55:14Z</time>
      </trkpt>
      <trkpt lat="45.87573" lon="1.23793">
        <ele>370</ele>
        <time>2024-10-08T14:55:17Z</time>
      </trkpt>
      <trkpt lat="45.87561" lon="1.23796">
        <ele>369.8</ele>
        <time>2024-10-08T14:55:20Z</time>
      </trkpt>
      <trkpt lat="45.87551" lon="1.23798">
        <ele>369.5</ele>
        <time>2024-10-08T14:55:23Z</time>
      </trkpt>
      <trkpt lat="45.8754" lon="1.23798">
        <ele>369.2</ele>
        <time>2024-10-08T14:55:26Z</time>
      </trkpt>
      <trkpt lat="45.87529" lon="1.238">
        <ele>369.1</ele>
        <time>2024-10-08T14:55:29Z</time>
      </trkpt>
      <trkpt lat="45.87519" lon="1.23803">
        <ele>368.9</ele>
        <time>2024-10-08T14:55:32Z</time>
      </trkpt>
      <trkpt lat="45.87513" lon="1.23796">
        <ele>368.8</ele>
        <time>2024-10-08T14:55:35Z</time>
      </trkpt>
      <trkpt lat="45.87506" lon="1.23789">
        <ele>368.7</ele>
        <time>2024-10-08T14:55:39Z</time>
      </trkpt>
      <trkpt lat="45.87504" lon="1.23784">
        <ele>368.6</ele>
        <time>2024-10-08T14:55:41Z</time>
      </trkpt>
      <trkpt lat="45.87499" lon="1.23783">
        <ele>368.6</ele>
        <time>2024-10-08T14:55:45Z</time>
      </trkpt>
      <trkpt lat="45.87491" lon="1.2379">
        <ele>368.4</ele>
        <time>2024-10-08T14:55:48Z</time>
      </trkpt>
      <trkpt lat="45.8748" lon="1.23793">
        <ele>368.2</ele>
        <time>2024-10-08T14:55:51Z</time>
      </trkpt>
      <trkpt lat="45.87469" lon="1.23797">
        <ele>368</ele>
        <time>2024-10-08T14:55:54Z</time>
      </trkpt>
      <trkpt lat="45.87452" lon="1.238">
        <ele>367.8</ele>
        <time>2024-10-08T14:55:57Z</time>
      </trkpt>
      <trkpt lat="45.87436" lon="1.23803">
        <ele>367.6</ele>
        <time>2024-10-08T14:56:00Z</time>
      </trkpt>
      <trkpt lat="45.8742" lon="1.23805">
        <ele>367.3</ele>
        <time>2024-10-08T14:56:03Z</time>
      </trkpt>
      <trkpt lat="45.87404" lon="1.23807">
        <ele>367.1</ele>
        <time>2024-10-08T14:56:05Z</time>
      </trkpt>
      <trkpt lat="45.87388" lon="1.23809">
        <ele>366.9</ele>
        <time>2024-10-08T14:56:08Z</time>
      </trkpt>
      <trkpt lat="45.87371" lon="1.23811">
        <ele>366.6</ele>
        <time>2024-10-08T14:56:11Z</time>
      </trkpt>
      <trkpt lat="45.87355" lon="1.23815">
        <ele>366.4</ele>
        <time>2024-10-08T14:56:15Z</time>
      </trkpt>
      <trkpt lat="45.8734" lon="1.23817">
        <ele>366.3</ele>
        <time>2024-10-08T14:56:17Z</time>
      </trkpt>
      <trkpt lat="45.87324" lon="1.2382">
        <ele>366.1</ele>
        <time>2024-10-08T14:56:20Z</time>
      </trkpt>
      <trkpt lat="45.87309" lon="1.23821">
        <ele>366</ele>
        <time>2024-10-08T14:56:23Z</time>
      </trkpt>
      <trkpt lat="45.87294" lon="1.23823">
        <ele>365.8</ele>
        <time>2024-10-08T14:56:26Z</time>
      </trkpt>
      <trkpt lat="45.87278" lon="1.23825">
        <ele>365.7</ele>
        <time>2024-10-08T14:56:29Z</time>
      </trkpt>
      <trkpt lat="45.87262" lon="1.23829">
        <ele>365.6</ele>
        <time>2024-10-08T14:56:32Z</time>
      </trkpt>
      <trkpt lat="45.87248" lon="1.2383">
        <ele>365.5</ele>
        <time>2024-10-08T14:56:35Z</time>
      </trkpt>
      <trkpt lat="45.87232" lon="1.23832">
        <ele>365.4</ele>
        <time>2024-10-08T14:56:38Z</time>
      </trkpt>
      <trkpt lat="45.87216" lon="1.23834">
        <ele>365.3</ele>
        <time>2024-10-08T14:56:41Z</time>
      </trkpt>
      <trkpt lat="45.872" lon="1.23837">
        <ele>365.2</ele>
        <time>2024-10-08T14:56:44Z</time>
      </trkpt>
      <trkpt lat="45.87184" lon="1.2384">
        <ele>365.1</ele>
        <time>2024-10-08T14:56:47Z</time>
      </trkpt>
      <trkpt lat="45.87168" lon="1.23842">
        <ele>365</ele>
        <time>2024-10-08T14:56:50Z</time>
      </trkpt>
      <trkpt lat="45.87152" lon="1.23844">
        <ele>364.9</ele>
        <time>2024-10-08T14:56:53Z</time>
      </trkpt>
      <trkpt lat="45.87138" lon="1.23847">
        <ele>364.8</ele>
        <time>2024-10-08T14:56:56Z</time>
      </trkpt>
      <trkpt lat="45.87122" lon="1.23847">
        <ele>364.6</ele>
        <time>2024-10-08T14:57:00Z</time>
      </trkpt>
      <trkpt lat="45.87105" lon="1.23846">
        <ele>364.3</ele>
        <time>2024-10-08T14:57:03Z</time>
      </trkpt>
      <trkpt lat="45.87088" lon="1.23845">
        <ele>363.9</ele>
        <time>2024-10-08T14:57:06Z</time>
      </trkpt>
      <trkpt lat="45.87069" lon="1.23844">
        <ele>363.2</ele>
        <time>2024-10-08T14:57:09Z</time>
      </trkpt>
      <trkpt lat="45.87052" lon="1.23842">
        <ele>362.4</ele>
        <time>2024-10-08T14:57:12Z</time>
      </trkpt>
      <trkpt lat="45.87033" lon="1.23842">
        <ele>361.6</ele>
        <time>2024-10-08T14:57:15Z</time>
      </trkpt>
      <trkpt lat="45.87014" lon="1.2384">
        <ele>360.7</ele>
        <time>2024-10-08T14:57:18Z</time>
      </trkpt>
      <trkpt lat="45.86993" lon="1.23839">
        <ele>359.5</ele>
        <time>2024-10-08T14:57:21Z</time>
      </trkpt>
      <trkpt lat="45.8697" lon="1.23837">
        <ele>358.2</ele>
        <time>2024-10-08T14:57:24Z</time>
      </trkpt>
      <trkpt lat="45.86949" lon="1.23836">
        <ele>357.3</ele>
        <time>2024-10-08T14:57:27Z</time>
      </trkpt>
      <trkpt lat="45.86925" lon="1.23833">
        <ele>355.5</ele>
        <time>2024-10-08T14:57:29Z</time>
      </trkpt>
      <trkpt lat="45.869" lon="1.23832">
        <ele>353.9</ele>
        <time>2024-10-08T14:57:33Z</time>
      </trkpt>
      <trkpt lat="45.86877" lon="1.2383">
        <ele>352.5</ele>
        <time>2024-10-08T14:57:35Z</time>
      </trkpt>
      <trkpt lat="45.86856" lon="1.23828">
        <ele>351.9</ele>
        <time>2024-10-08T14:57:38Z</time>
      </trkpt>
      <trkpt lat="45.86837" lon="1.23826">
        <ele>351</ele>
        <time>2024-10-08T14:57:41Z</time>
      </trkpt>
      <trkpt lat="45.86822" lon="1.23826">
        <ele>350.2</ele>
        <time>2024-10-08T14:57:44Z</time>
      </trkpt>
      <trkpt lat="45.86812" lon="1.23825">
        <ele>349.5</ele>
        <time>2024-10-08T14:57:47Z</time>
      </trkpt>
      <trkpt lat="45.86801" lon="1.23822">
        <ele>348.9</ele>
        <time>2024-10-08T14:57:50Z</time>
      </trkpt>
      <trkpt lat="45.86786" lon="1.23821">
        <ele>348</ele>
        <time>2024-10-08T14:57:53Z</time>
      </trkpt>
      <trkpt lat="45.86768" lon="1.23822">
        <ele>347.4</ele>
        <time>2024-10-08T14:57:56Z</time>
      </trkpt>
      <trkpt lat="45.8675" lon="1.2382">
        <ele>346.9</ele>
        <time>2024-10-08T14:57:59Z</time>
      </trkpt>
      <trkpt lat="45.86729" lon="1.23819">
        <ele>346.1</ele>
        <time>2024-10-08T14:58:02Z</time>
      </trkpt>
      <trkpt lat="45.86708" lon="1.23818">
        <ele>345.1</ele>
        <time>2024-10-08T14:58:05Z</time>
      </trkpt>
      <trkpt lat="45.86687" lon="1.23817">
        <ele>343.9</ele>
        <time>2024-10-08T14:58:08Z</time>
      </trkpt>
      <trkpt lat="45.86665" lon="1.23814">
        <ele>342.7</ele>
        <time>2024-10-08T14:58:11Z</time>
      </trkpt>
      <trkpt lat="45.86644" lon="1.23814">
        <ele>342</ele>
        <time>2024-10-08T14:58:14Z</time>
      </trkpt>
      <trkpt lat="45.86624" lon="1.23812">
        <ele>341.4</ele>
        <time>2024-10-08T14:58:17Z</time>
      </trkpt>
      <trkpt lat="45.86605" lon="1.23811">
        <ele>341</ele>
        <time>2024-10-08T14:58:20Z</time>
      </trkpt>
      <trkpt lat="45.86586" lon="1.2381">
        <ele>340.6</ele>
        <time>2024-10-08T14:58:23Z</time>
      </trkpt>
      <trkpt lat="45.86568" lon="1.2381">
        <ele>340.2</ele>
        <time>2024-10-08T14:58:26Z</time>
      </trkpt>
      <trkpt lat="45.8655" lon="1.23806">
        <ele>339.7</ele>
        <time>2024-10-08T14:58:29Z</time>
      </trkpt>
      <trkpt lat="45.86532" lon="1.23803">
        <ele>339.3</ele>
        <time>2024-10-08T14:58:33Z</time>
      </trkpt>
      <trkpt lat="45.86515" lon="1.23804">
        <ele>338.9</ele>
        <time>2024-10-08T14:58:36Z</time>
      </trkpt>
      <trkpt lat="45.86499" lon="1.23805">
        <ele>338.4</ele>
        <time>2024-10-08T14:58:39Z</time>
      </trkpt>
      <trkpt lat="45.86484" lon="1.23804">
        <ele>338.1</ele>
        <time>2024-10-08T14:58:42Z</time>
      </trkpt>
      <trkpt lat="45.86479" lon="1.23802">
        <ele>338</ele>
        <time>2024-10-08T14:58:45Z</time>
      </trkpt>
      <trkpt lat="45.86476" lon="1.23792">
        <ele>337.9</ele>
        <time>2024-10-08T14:58:48Z</time>
      </trkpt>
      <trkpt lat="45.86466" lon="1.23793">
        <ele>337.7</ele>
        <time>2024-10-08T14:58:50Z</time>
      </trkpt>
      <trkpt lat="45.86454" lon="1.23795">
        <ele>337.5</ele>
        <time>2024-10-08T14:58:53Z</time>
      </trkpt>
      <trkpt lat="45.86439" lon="1.23793">
        <ele>337.3</ele>
        <time>2024-10-08T14:58:56Z</time>
      </trkpt>
      <trkpt lat="45.86423" lon="1.23792">
        <ele>337</ele>
        <time>2024-10-08T14:58:59Z</time>
      </trkpt>
      <trkpt lat="45.86407" lon="1.23793">
        <ele>336.8</ele>
        <time>2024-10-08T14:59:02Z</time>
      </trkpt>
      <trkpt lat="45.8639" lon="1.23791">
        <ele>336.6</ele>
        <time>2024-10-08T14:59:05Z</time>
      </trkpt>
      <trkpt lat="45.86375" lon="1.23788">
        <ele>336.5</ele>
        <time>2024-10-08T14:59:08Z</time>
      </trkpt>
      <trkpt lat="45.86367" lon="1.23784">
        <ele>336.1</ele>
        <time>2024-10-08T14:59:11Z</time>
      </trkpt>
      <trkpt lat="45.86358" lon="1.23783">
        <ele>335.8</ele>
        <time>2024-10-08T14:59:14Z</time>
      </trkpt>
      <trkpt lat="45.86347" lon="1.23783">
        <ele>335.4</ele>
        <time>2024-10-08T14:59:17Z</time>
      </trkpt>
      <trkpt lat="45.86339" lon="1.23774">
        <ele>335.1</ele>
        <time>2024-10-08T14:59:20Z</time>
      </trkpt>
      <trkpt lat="45.86328" lon="1.23765">
        <ele>335.2</ele>
        <time>2024-10-08T14:59:23Z</time>
      </trkpt>
      <trkpt lat="45.86312" lon="1.23759">
        <ele>335.2</ele>
        <time>2024-10-08T14:59:26Z</time>
      </trkpt>
      <trkpt lat="45.86297" lon="1.23752">
        <ele>335.1</ele>
        <time>2024-10-08T14:59:29Z</time>
      </trkpt>
      <trkpt lat="45.86282" lon="1.23745">
        <ele>335.1</ele>
        <time>2024-10-08T14:59:32Z</time>
      </trkpt>
      <trkpt lat="45.86267" lon="1.23739">
        <ele>335.1</ele>
        <time>2024-10-08T14:59:35Z</time>
      </trkpt>
      <trkpt lat="45.86252" lon="1.2373">
        <ele>335.1</ele>
        <time>2024-10-08T14:59:38Z</time>
      </trkpt>
      <trkpt lat="45.86236" lon="1.23722">
        <ele>335</ele>
        <time>2024-10-08T14:59:41Z</time>
      </trkpt>
      <trkpt lat="45.86221" lon="1.23715">
        <ele>334.8</ele>
        <time>2024-10-08T14:59:44Z</time>
      </trkpt>
      <trkpt lat="45.86205" lon="1.23707">
        <ele>334.5</ele>
        <time>2024-10-08T14:59:47Z</time>
      </trkpt>
      <trkpt lat="45.86188" lon="1.23699">
        <ele>334</ele>
        <time>2024-10-08T14:59:50Z</time>
      </trkpt>
      <trkpt lat="45.86172" lon="1.23689">
        <ele>333.4</ele>
        <time>2024-10-08T14:59:54Z</time>
      </trkpt>
      <trkpt lat="45.86155" lon="1.2368">
        <ele>332.5</ele>
        <time>2024-10-08T14:59:57Z</time>
      </trkpt>
      <trkpt lat="45.86137" lon="1.2367">
        <ele>331.4</ele>
        <time>2024-10-08T15:00:00Z</time>
      </trkpt>
      <trkpt lat="45.86117" lon="1.2366">
        <ele>330.5</ele>
        <time>2024-10-08T15:00:03Z</time>
      </trkpt>
      <trkpt lat="45.86097" lon="1.2365">
        <ele>329.9</ele>
        <time>2024-10-08T15:00:06Z</time>
      </trkpt>
      <trkpt lat="45.86078" lon="1.23641">
        <ele>329.5</ele>
        <time>2024-10-08T15:00:09Z</time>
      </trkpt>
      <trkpt lat="45.86061" lon="1.23632">
        <ele>329.1</ele>
        <time>2024-10-08T15:00:12Z</time>
      </trkpt>
      <trkpt lat="45.86045" lon="1.23626">
        <ele>328.8</ele>
        <time>2024-10-08T15:00:15Z</time>
      </trkpt>
      <trkpt lat="45.86029" lon="1.23619">
        <ele>328.5</ele>
        <time>2024-10-08T15:00:18Z</time>
      </trkpt>
      <trkpt lat="45.86015" lon="1.23611">
        <ele>328.1</ele>
        <time>2024-10-08T15:00:20Z</time>
      </trkpt>
      <trkpt lat="45.86" lon="1.23602">
        <ele>327.6</ele>
        <time>2024-10-08T15:00:23Z</time>
      </trkpt>
      <trkpt lat="45.85985" lon="1.23594">
        <ele>327.2</ele>
        <time>2024-10-08T15:00:26Z</time>
      </trkpt>
      <trkpt lat="45.8597" lon="1.23586">
        <ele>326.9</ele>
        <time>2024-10-08T15:00:29Z</time>
      </trkpt>
      <trkpt lat="45.85956" lon="1.23579">
        <ele>326.6</ele>
        <time>2024-10-08T15:00:32Z</time>
      </trkpt>
      <trkpt lat="45.85945" lon="1.23569">
        <ele>326.5</ele>
        <time>2024-10-08T15:00:35Z</time>
      </trkpt>
      <trkpt lat="45.85934" lon="1.23564">
        <ele>326.3</ele>
        <time>2024-10-08T15:00:38Z</time>
      </trkpt>
      <trkpt lat="45.85927" lon="1.23549">
        <ele>326</ele>
        <time>2024-10-08T15:00:41Z</time>
      </trkpt>
      <trkpt lat="45.85921" lon="1.23534">
        <ele>325.9</ele>
        <time>2024-10-08T15:00:44Z</time>
      </trkpt>
      <trkpt lat="45.85912" lon="1.23522">
        <ele>325.3</ele>
        <time>2024-10-08T15:00:47Z</time>
      </trkpt>
      <trkpt lat="45.85905" lon="1.23501">
        <ele>324.7</ele>
        <time>2024-10-08T15:00:50Z</time>
      </trkpt>
      <trkpt lat="45.85902" lon="1.23479">
        <ele>324</ele>
        <time>2024-10-08T15:00:53Z</time>
      </trkpt>
      <trkpt lat="45.85897" lon="1.23455">
        <ele>323.2</ele>
        <time>2024-10-08T15:00:56Z</time>
      </trkpt>
      <trkpt lat="45.85891" lon="1.23431">
        <ele>322.2</ele>
        <time>2024-10-08T15:00:59Z</time>
      </trkpt>
      <trkpt lat="45.85888" lon="1.23407">
        <ele>321.2</ele>
        <time>2024-10-08T15:01:02Z</time>
      </trkpt>
      <trkpt lat="45.85885" lon="1.2338">
        <ele>320.1</ele>
        <time>2024-10-08T15:01:05Z</time>
      </trkpt>
      <trkpt lat="45.85884" lon="1.23357">
        <ele>319.1</ele>
        <time>2024-10-08T15:01:08Z</time>
      </trkpt>
      <trkpt lat="45.85875" lon="1.23349">
        <ele>318.6</ele>
        <time>2024-10-08T15:01:11Z</time>
      </trkpt>
      <trkpt lat="45.85863" lon="1.23357">
        <ele>319.3</ele>
        <time>2024-10-08T15:01:14Z</time>
      </trkpt>
      <trkpt lat="45.8585" lon="1.23361">
        <ele>319.9</ele>
        <time>2024-10-08T15:01:17Z</time>
      </trkpt>
      <trkpt lat="45.85838" lon="1.23358">
        <ele>320.3</ele>
        <time>2024-10-08T15:01:20Z</time>
      </trkpt>
      <trkpt lat="45.85826" lon="1.23363">
        <ele>320.8</ele>
        <time>2024-10-08T15:01:23Z</time>
      </trkpt>
      <trkpt lat="45.85815" lon="1.23366">
        <ele>321</ele>
        <time>2024-10-08T15:01:26Z</time>
      </trkpt>
      <trkpt lat="45.85809" lon="1.23367">
        <ele>321</ele>
        <time>2024-10-08T15:01:30Z</time>
      </trkpt>
      <trkpt lat="45.85804" lon="1.23371">
        <ele>320.9</ele>
        <time>2024-10-08T15:01:33Z</time>
      </trkpt>
      <trkpt lat="45.85794" lon="1.23377">
        <ele>320.7</ele>
        <time>2024-10-08T15:01:36Z</time>
      </trkpt>
      <trkpt lat="45.85785" lon="1.23377">
        <ele>320.2</ele>
        <time>2024-10-08T15:01:39Z</time>
      </trkpt>
      <trkpt lat="45.85777" lon="1.23365">
        <ele>319.5</ele>
        <time>2024-10-08T15:01:41Z</time>
      </trkpt>
      <trkpt lat="45.85773" lon="1.23351">
        <ele>318.8</ele>
        <time>2024-10-08T15:01:44Z</time>
      </trkpt>
      <trkpt lat="45.85767" lon="1.23338">
        <ele>318</ele>
        <time>2024-10-08T15:01:47Z</time>
      </trkpt>
      <trkpt lat="45.85761" lon="1.2332">
        <ele>317.2</ele>
        <time>2024-10-08T15:01:50Z</time>
      </trkpt>
      <trkpt lat="45.85755" lon="1.23303">
        <ele>316.6</ele>
        <time>2024-10-08T15:01:53Z</time>
      </trkpt>
      <trkpt lat="45.85746" lon="1.23287">
        <ele>316.2</ele>
        <time>2024-10-08T15:01:56Z</time>
      </trkpt>
      <trkpt lat="45.85738" lon="1.23272">
        <ele>315.7</ele>
        <time>2024-10-08T15:01:59Z</time>
      </trkpt>
      <trkpt lat="45.85732" lon="1.23261">
        <ele>315.3</ele>
        <time>2024-10-08T15:02:02Z</time>
      </trkpt>
      <trkpt lat="45.85726" lon="1.2325">
        <ele>315</ele>
        <time>2024-10-08T15:02:05Z</time>
      </trkpt>
      <trkpt lat="45.8572" lon="1.2324">
        <ele>314.7</ele>
        <time>2024-10-08T15:02:08Z</time>
      </trkpt>
      <trkpt lat="45.85712" lon="1.23229">
        <ele>314.4</ele>
        <time>2024-10-08T15:02:11Z</time>
      </trkpt>
      <trkpt lat="45.85704" lon="1.23218">
        <ele>314</ele>
        <time>2024-10-08T15:02:14Z</time>
      </trkpt>
      <trkpt lat="45.85697" lon="1.23207">
        <ele>313.6</ele>
        <time>2024-10-08T15:02:17Z</time>
      </trkpt>
      <trkpt lat="45.85693" lon="1.23196">
        <ele>313.2</ele>
        <time>2024-10-08T15:02:20Z</time>
      </trkpt>
      <trkpt lat="45.85692" lon="1.23185">
        <ele>312.9</ele>
        <time>2024-10-08T15:02:23Z</time>
      </trkpt>
      <trkpt lat="45.85691" lon="1.23172">
        <ele>312.6</ele>
        <time>2024-10-08T15:02:26Z</time>
      </trkpt>
      <trkpt lat="45.85684" lon="1.23161">
        <ele>312.2</ele>
        <time>2024-10-08T15:02:29Z</time>
      </trkpt>
      <trkpt lat="45.85676" lon="1.23148">
        <ele>311.6</ele>
        <time>2024-10-08T15:02:32Z</time>
      </trkpt>
      <trkpt lat="45.85668" lon="1.23136">
        <ele>310.7</ele>
        <time>2024-10-08T15:02:35Z</time>
      </trkpt>
      <trkpt lat="45.85659" lon="1.23124">
        <ele>310.1</ele>
        <time>2024-10-08T15:02:38Z</time>
      </trkpt>
      <trkpt lat="45.85652" lon="1.2311">
        <ele>309.7</ele>
        <time>2024-10-08T15:02:41Z</time>
      </trkpt>
      <trkpt lat="45.85646" lon="1.23098">
        <ele>309.2</ele>
        <time>2024-10-08T15:02:44Z</time>
      </trkpt>
      <trkpt lat="45.8564" lon="1.23084">
        <ele>308.8</ele>
        <time>2024-10-08T15:02:47Z</time>
      </trkpt>
      <trkpt lat="45.85636" lon="1.23073">
        <ele>308.5</ele>
        <time>2024-10-08T15:02:51Z</time>
      </trkpt>
      <trkpt lat="45.85633" lon="1.23064">
        <ele>308.2</ele>
        <time>2024-10-08T15:02:54Z</time>
      </trkpt>
      <trkpt lat="45.85628" lon="1.23054">
        <ele>307.9</ele>
        <time>2024-10-08T15:02:57Z</time>
      </trkpt>
      <trkpt lat="45.85624" lon="1.23044">
        <ele>307.7</ele>
        <time>2024-10-08T15:03:00Z</time>
      </trkpt>
      <trkpt lat="45.85622" lon="1.23034">
        <ele>307.5</ele>
        <time>2024-10-08T15:03:03Z</time>
      </trkpt>
      <trkpt lat="45.85624" lon="1.23025">
        <ele>307.3</ele>
        <time>2024-10-08T15:03:06Z</time>
      </trkpt>
      <trkpt lat="45.85626" lon="1.23017">
        <ele>307.1</ele>
        <time>2024-10-08T15:03:09Z</time>
      </trkpt>
      <trkpt lat="45.85628" lon="1.23012">
        <ele>306.9</ele>
        <time>2024-10-08T15:03:12Z</time>
      </trkpt>
      <trkpt lat="45.85629" lon="1.23006">
        <ele>306.7</ele>
        <time>2024-10-08T15:03:14Z</time>
      </trkpt>
      <trkpt lat="45.85628" lon="1.23002">
        <ele>306.6</ele>
        <time>2024-10-08T15:03:17Z</time>
      </trkpt>
      <trkpt lat="45.85626" lon="1.23003">
        <ele>306.7</ele>
        <time>2024-10-08T15:03:20Z</time>
      </trkpt>
      <trkpt lat="45.85627" lon="1.23009">
        <ele>306.8</ele>
        <time>2024-10-08T15:03:23Z</time>
      </trkpt>
      <trkpt lat="45.85627" lon="1.23019">
        <ele>307</ele>
        <time>2024-10-08T15:03:26Z</time>
      </trkpt>
      <trkpt lat="45.85624" lon="1.23031">
        <ele>307.3</ele>
        <time>2024-10-08T15:03:29Z</time>
      </trkpt>
      <trkpt lat="45.85625" lon="1.23043">
        <ele>307.5</ele>
        <time>2024-10-08T15:03:32Z</time>
      </trkpt>
      <trkpt lat="45.8563" lon="1.23052">
        <ele>307.6</ele>
        <time>2024-10-08T15:03:35Z</time>
      </trkpt>
      <trkpt lat="45.85634" lon="1.23063">
        <ele>307.8</ele>
        <time>2024-10-08T15:03:38Z</time>
      </trkpt>
      <trkpt lat="45.85639" lon="1.23075">
        <ele>308</ele>
        <time>2024-10-08T15:03:41Z</time>
      </trkpt>
      <trkpt lat="45.85643" lon="1.23087">
        <ele>308.3</ele>
        <time>2024-10-08T15:03:44Z</time>
      </trkpt>
      <trkpt lat="45.85648" lon="1.23099">
        <ele>308.6</ele>
        <time>2024-10-08T15:03:47Z</time>
      </trkpt>
      <trkpt lat="45.85655" lon="1.23111">
        <ele>308.8</ele>
        <time>2024-10-08T15:03:50Z</time>
      </trkpt>
      <trkpt lat="45.85662" lon="1.23123">
        <ele>309.2</ele>
        <time>2024-10-08T15:03:53Z</time>
      </trkpt>
      <trkpt lat="45.85668" lon="1.23133">
        <ele>309.5</ele>
        <time>2024-10-08T15:03:56Z</time>
      </trkpt>
      <trkpt lat="45.85674" lon="1.23144">
        <ele>309.7</ele>
        <time>2024-10-08T15:03:59Z</time>
      </trkpt>
      <trkpt lat="45.8568" lon="1.23154">
        <ele>309.9</ele>
        <time>2024-10-08T15:04:02Z</time>
      </trkpt>
      <trkpt lat="45.85686" lon="1.23164">
        <ele>310.2</ele>
        <time>2024-10-08T15:04:05Z</time>
      </trkpt>
      <trkpt lat="45.85692" lon="1.23174">
        <ele>310.6</ele>
        <time>2024-10-08T15:04:08Z</time>
      </trkpt>
      <trkpt lat="45.85693" lon="1.23187">
        <ele>311</ele>
        <time>2024-10-08T15:04:11Z</time>
      </trkpt>
      <trkpt lat="45.8569" lon="1.23193">
        <ele>311.3</ele>
        <time>2024-10-08T15:04:14Z</time>
      </trkpt>
      <trkpt lat="45.85683" lon="1.23191">
        <ele>311.7</ele>
        <time>2024-10-08T15:04:17Z</time>
      </trkpt>
      <trkpt lat="45.85673" lon="1.23188">
        <ele>312.1</ele>
        <time>2024-10-08T15:04:20Z</time>
      </trkpt>
      <trkpt lat="45.85667" lon="1.23192">
        <ele>312.3</ele>
        <time>2024-10-08T15:04:24Z</time>
      </trkpt>
      <trkpt lat="45.85661" lon="1.23202">
        <ele>312.6</ele>
        <time>2024-10-08T15:04:27Z</time>
      </trkpt>
      <trkpt lat="45.85655" lon="1.23214">
        <ele>312.8</ele>
        <time>2024-10-08T15:04:30Z</time>
      </trkpt>
      <trkpt lat="45.8565" lon="1.23223">
        <ele>313.1</ele>
        <time>2024-10-08T15:04:33Z</time>
      </trkpt>
      <trkpt lat="45.85647" lon="1.23231">
        <ele>313.2</ele>
        <time>2024-10-08T15:04:36Z</time>
      </trkpt>
      <trkpt lat="45.85648" lon="1.23233">
        <ele>313.3</ele>
        <time>2024-10-08T15:04:39Z</time>
      </trkpt>
      <trkpt lat="45.85646" lon="1.23233">
        <ele>313.3</ele>
        <time>2024-10-08T15:04:42Z</time>
      </trkpt>
      <trkpt lat="45.85646" lon="1.23233">
        <ele>313.4</ele>
        <time>2024-10-08T15:04:44Z</time>
      </trkpt>
      <trkpt lat="45.85645" lon="1.23232">
        <ele>313.4</ele>
        <time>2024-10-08T15:04:47Z</time>
      </trkpt>
      <trkpt lat="45.85645" lon="1.23233">
        <ele>313.4</ele>
        <time>2024-10-08T15:04:50Z</time>
      </trkpt>
      <trkpt lat="45.85646" lon="1.23232">
        <ele>313.4</ele>
        <time>2024-10-08T15:04:53Z</time>
      </trkpt>
      <trkpt lat="45.85649" lon="1.23229">
        <ele>313.5</ele>
        <time>2024-10-08T15:04:56Z</time>
      </trkpt>
      <trkpt lat="45.85654" lon="1.23224">
        <ele>313.7</ele>
        <time>2024-10-08T15:04:59Z</time>
      </trkpt>
      <trkpt lat="45.8566" lon="1.23216">
        <ele>314</ele>
        <time>2024-10-08T15:05:02Z</time>
      </trkpt>
      <trkpt lat="45.85667" lon="1.23207">
        <ele>314.2</ele>
        <time>2024-10-08T15:05:05Z</time>
      </trkpt>
      <trkpt lat="45.85674" lon="1.23198">
        <ele>314.5</ele>
        <time>2024-10-08T15:05:08Z</time>
      </trkpt>
      <trkpt lat="45.8568" lon="1.23196">
        <ele>314.6</ele>
        <time>2024-10-08T15:05:11Z</time>
      </trkpt>
      <trkpt lat="45.85686" lon="1.232">
        <ele>314.7</ele>
        <time>2024-10-08T15:05:14Z</time>
      </trkpt>
      <trkpt lat="45.85693" lon="1.23208">
        <ele>314.9</ele>
        <time>2024-10-08T15:05:17Z</time>
      </trkpt>
      <trkpt lat="45.85699" lon="1.23217">
        <ele>315.1</ele>
        <time>2024-10-08T15:05:20Z</time>
      </trkpt>
      <trkpt lat="45.85705" lon="1.23225">
        <ele>315.4</ele>
        <time>2024-10-08T15:05:23Z</time>
      </trkpt>
      <trkpt lat="45.85711" lon="1.23236">
        <ele>315.6</ele>
        <time>2024-10-08T15:05:26Z</time>
      </trkpt>
      <trkpt lat="45.85716" lon="1.23246">
        <ele>315.8</ele>
        <time>2024-10-08T15:05:29Z</time>
      </trkpt>
      <trkpt lat="45.85722" lon="1.23257">
        <ele>316.1</ele>
        <time>2024-10-08T15:05:32Z</time>
      </trkpt>
      <trkpt lat="45.85729" lon="1.2327">
        <ele>316.4</ele>
        <time>2024-10-08T15:05:35Z</time>
      </trkpt>
      <trkpt lat="45.85736" lon="1.23284">
        <ele>316.7</ele>
        <time>2024-10-08T15:05:38Z</time>
      </trkpt>
      <trkpt lat="45.85743" lon="1.23297">
        <ele>317</ele>
        <time>2024-10-08T15:05:41Z</time>
      </trkpt>
      <trkpt lat="45.85751" lon="1.2331">
        <ele>317.4</ele>
        <time>2024-10-08T15:05:45Z</time>
      </trkpt>
      <trkpt lat="45.85758" lon="1.23324">
        <ele>318</ele>
        <time>2024-10-08T15:05:48Z</time>
      </trkpt>
      <trkpt lat="45.85763" lon="1.23336">
        <ele>318.6</ele>
        <time>2024-10-08T15:05:51Z</time>
      </trkpt>
      <trkpt lat="45.85768" lon="1.23347">
        <ele>319.1</ele>
        <time>2024-10-08T15:05:54Z</time>
      </trkpt>
      <trkpt lat="45.85773" lon="1.23357">
        <ele>319.5</ele>
        <time>2024-10-08T15:05:57Z</time>
      </trkpt>
      <trkpt lat="45.85778" lon="1.23368">
        <ele>319.9</ele>
        <time>2024-10-08T15:06:00Z</time>
      </trkpt>
      <trkpt lat="45.85784" lon="1.23378">
        <ele>320.3</ele>
        <time>2024-10-08T15:06:03Z</time>
      </trkpt>
      <trkpt lat="45.85791" lon="1.23379">
        <ele>320.6</ele>
        <time>2024-10-08T15:06:06Z</time>
      </trkpt>
      <trkpt lat="45.85799" lon="1.23375">
        <ele>320.8</ele>
        <time>2024-10-08T15:06:08Z</time>
      </trkpt>
      <trkpt lat="45.85809" lon="1.23372">
        <ele>320.9</ele>
        <time>2024-10-08T15:06:12Z</time>
      </trkpt>
      <trkpt lat="45.85821" lon="1.23365">
        <ele>320.9</ele>
        <time>2024-10-08T15:06:14Z</time>
      </trkpt>
      <trkpt lat="45.85833" lon="1.23359">
        <ele>320.5</ele>
        <time>2024-10-08T15:06:17Z</time>
      </trkpt>
      <trkpt lat="45.85842" lon="1.23355">
        <ele>320.1</ele>
        <time>2024-10-08T15:06:20Z</time>
      </trkpt>
      <trkpt lat="45.85845" lon="1.2335">
        <ele>320</ele>
        <time>2024-10-08T15:06:23Z</time>
      </trkpt>
      <trkpt lat="45.85839" lon="1.23351">
        <ele>320.2</ele>
        <time>2024-10-08T15:06:26Z</time>
      </trkpt>
      <trkpt lat="45.85832" lon="1.23357">
        <ele>320.5</ele>
        <time>2024-10-08T15:06:29Z</time>
      </trkpt>
      <trkpt lat="45.85824" lon="1.23361">
        <ele>320.8</ele>
        <time>2024-10-08T15:06:32Z</time>
      </trkpt>
      <trkpt lat="45.85816" lon="1.23356">
        <ele>320.6</ele>
        <time>2024-10-08T15:06:35Z</time>
      </trkpt>
      <trkpt lat="45.85812" lon="1.23346">
        <ele>320.1</ele>
        <time>2024-10-08T15:06:38Z</time>
      </trkpt>
      <trkpt lat="45.85809" lon="1.23331">
        <ele>319.4</ele>
        <time>2024-10-08T15:06:41Z</time>
      </trkpt>
      <trkpt lat="45.85804" lon="1.23314">
        <ele>318.5</ele>
        <time>2024-10-08T15:06:44Z</time>
      </trkpt>
      <trkpt lat="45.858" lon="1.23291">
        <ele>317.4</ele>
        <time>2024-10-08T15:06:47Z</time>
      </trkpt>
      <trkpt lat="45.85796" lon="1.23267">
        <ele>316.3</ele>
        <time>2024-10-08T15:06:50Z</time>
      </trkpt>
      <trkpt lat="45.85792" lon="1.23243">
        <ele>315.5</ele>
        <time>2024-10-08T15:06:53Z</time>
      </trkpt>
      <trkpt lat="45.85788" lon="1.23218">
        <ele>314.8</ele>
        <time>2024-10-08T15:06:56Z</time>
      </trkpt>
      <trkpt lat="45.85783" lon="1.23194">
        <ele>314.3</ele>
        <time>2024-10-08T15:06:59Z</time>
      </trkpt>
      <trkpt lat="45.85778" lon="1.23174">
        <ele>313.9</ele>
        <time>2024-10-08T15:07:02Z</time>
      </trkpt>
      <trkpt lat="45.85769" lon="1.2316">
        <ele>313.6</ele>
        <time>2024-10-08T15:07:05Z</time>
      </trkpt>
      <trkpt lat="45.85759" lon="1.23149">
        <ele>313.4</ele>
        <time>2024-10-08T15:07:08Z</time>
      </trkpt>
      <trkpt lat="45.8575" lon="1.23138">
        <ele>313.2</ele>
        <time>2024-10-08T15:07:11Z</time>
      </trkpt>
      <trkpt lat="45.8574" lon="1.23126">
        <ele>313</ele>
        <time>2024-10-08T15:07:15Z</time>
      </trkpt>
      <trkpt lat="45.8573" lon="1.23112">
        <ele>312.7</ele>
        <time>2024-10-08T15:07:18Z</time>
      </trkpt>
      <trkpt lat="45.8572" lon="1.231">
        <ele>312.5</ele>
        <time>2024-10-08T15:07:21Z</time>
      </trkpt>
      <trkpt lat="45.85709" lon="1.23087">
        <ele>312.2</ele>
        <time>2024-10-08T15:07:24Z</time>
      </trkpt>
      <trkpt lat="45.85699" lon="1.23074">
        <ele>311.9</ele>
        <time>2024-10-08T15:07:27Z</time>
      </trkpt>
      <trkpt lat="45.85692" lon="1.23061">
        <ele>311.6</ele>
        <time>2024-10-08T15:07:30Z</time>
      </trkpt>
      <trkpt lat="45.8569" lon="1.23045">
        <ele>311.2</ele>
        <time>2024-10-08T15:07:32Z</time>
      </trkpt>
      <trkpt lat="45.85698" lon="1.23034">
        <ele>310.7</ele>
        <time>2024-10-08T15:07:35Z</time>
      </trkpt>
      <trkpt lat="45.85704" lon="1.23027">
        <ele>310.3</ele>
        <time>2024-10-08T15:07:38Z</time>
      </trkpt>
      <trkpt lat="45.85709" lon="1.23019">
        <ele>309.9</ele>
        <time>2024-10-08T15:07:41Z</time>
      </trkpt>
      <trkpt lat="45.85714" lon="1.23014">
        <ele>309.7</ele>
        <time>2024-10-08T15:07:44Z</time>
      </trkpt>
      <trkpt lat="45.85718" lon="1.23009">
        <ele>309.5</ele>
        <time>2024-10-08T15:07:47Z</time>
      </trkpt>
      <trkpt lat="45.85722" lon="1.23001">
        <ele>309.3</ele>
        <time>2024-10-08T15:07:50Z</time>
      </trkpt>
      <trkpt lat="45.85727" lon="1.22994">
        <ele>308.8</ele>
        <time>2024-10-08T15:07:53Z</time>
      </trkpt>
      <trkpt lat="45.85733" lon="1.22988">
        <ele>308.4</ele>
        <time>2024-10-08T15:07:56Z</time>
      </trkpt>
      <trkpt lat="45.85741" lon="1.22979">
        <ele>307.7</ele>
        <time>2024-10-08T15:07:59Z</time>
      </trkpt>
      <trkpt lat="45.85754" lon="1.22971">
        <ele>306.8</ele>
        <time>2024-10-08T15:08:02Z</time>
      </trkpt>
      <trkpt lat="45.85771" lon="1.22968">
        <ele>305.8</ele>
        <time>2024-10-08T15:08:05Z</time>
      </trkpt>
      <trkpt lat="45.85789" lon="1.22971">
        <ele>305.1</ele>
        <time>2024-10-08T15:08:08Z</time>
      </trkpt>
      <trkpt lat="45.85807" lon="1.22977">
        <ele>304.6</ele>
        <time>2024-10-08T15:08:11Z</time>
      </trkpt>
      <trkpt lat="45.85824" lon="1.22983">
        <ele>304.1</ele>
        <time>2024-10-08T15:08:14Z</time>
      </trkpt>
      <trkpt lat="45.8584" lon="1.22981">
        <ele>303.7</ele>
        <time>2024-10-08T15:08:17Z</time>
      </trkpt>
      <trkpt lat="45.85848" lon="1.22973">
        <ele>303.3</ele>
        <time>2024-10-08T15:08:20Z</time>
      </trkpt>
      <trkpt lat="45.85856" lon="1.22973">
        <ele>303</ele>
        <time>2024-10-08T15:08:23Z</time>
      </trkpt>
      <trkpt lat="45.85864" lon="1.2298">
        <ele>302.7</ele>
        <time>2024-10-08T15:08:26Z</time>
      </trkpt>
      <trkpt lat="45.85871" lon="1.22991">
        <ele>302.5</ele>
        <time>2024-10-08T15:08:29Z</time>
      </trkpt>
      <trkpt lat="45.85879" lon="1.23002">
        <ele>302.5</ele>
        <time>2024-10-08T15:08:33Z</time>
      </trkpt>
      <trkpt lat="45.85889" lon="1.23013">
        <ele>302.7</ele>
        <time>2024-10-08T15:08:36Z</time>
      </trkpt>
      <trkpt lat="45.85897" lon="1.23025">
        <ele>303</ele>
        <time>2024-10-08T15:08:39Z</time>
      </trkpt>
      <trkpt lat="45.85905" lon="1.23037">
        <ele>303.4</ele>
        <time>2024-10-08T15:08:42Z</time>
      </trkpt>
      <trkpt lat="45.85914" lon="1.23041">
        <ele>303.7</ele>
        <time>2024-10-08T15:08:45Z</time>
      </trkpt>
      <trkpt lat="45.85925" lon="1.23042">
        <ele>304</ele>
        <time>2024-10-08T15:08:47Z</time>
      </trkpt>
      <trkpt lat="45.85935" lon="1.23044">
        <ele>304.5</ele>
        <time>2024-10-08T15:08:51Z</time>
      </trkpt>
      <trkpt lat="45.85945" lon="1.23045">
        <ele>304.9</ele>
        <time>2024-10-08T15:08:54Z</time>
      </trkpt>
      <trkpt lat="45.85955" lon="1.23047">
        <ele>305.4</ele>
        <time>2024-10-08T15:08:57Z</time>
      </trkpt>
      <trkpt lat="45.85964" lon="1.23049">
        <ele>305.9</ele>
        <time>2024-10-08T15:09:00Z</time>
      </trkpt>
      <trkpt lat="45.85973" lon="1.23043">
        <ele>305.8</ele>
        <time>2024-10-08T15:09:02Z</time>
      </trkpt>
      <trkpt lat="45.85979" lon="1.23029">
        <ele>304.9</ele>
        <time>2024-10-08T15:09:05Z</time>
      </trkpt>
      <trkpt lat="45.85984" lon="1.23012">
        <ele>303.8</ele>
        <time>2024-10-08T15:09:08Z</time>
      </trkpt>
      <trkpt lat="45.85988" lon="1.22996">
        <ele>302.9</ele>
        <time>2024-10-08T15:09:11Z</time>
      </trkpt>
      <trkpt lat="45.85993" lon="1.22985">
        <ele>302.1</ele>
        <time>2024-10-08T15:09:14Z</time>
      </trkpt>
      <trkpt lat="45.85996" lon="1.22975">
        <ele>301.3</ele>
        <time>2024-10-08T15:09:17Z</time>
      </trkpt>
      <trkpt lat="45.85997" lon="1.22969">
        <ele>301</ele>
        <time>2024-10-08T15:09:20Z</time>
      </trkpt>
      <trkpt lat="45.85992" lon="1.22956">
        <ele>300.3</ele>
        <time>2024-10-08T15:09:23Z</time>
      </trkpt>
      <trkpt lat="45.85989" lon="1.22941">
        <ele>299.5</ele>
        <time>2024-10-08T15:09:26Z</time>
      </trkpt>
      <trkpt lat="45.85985" lon="1.22928">
        <ele>298.9</ele>
        <time>2024-10-08T15:09:29Z</time>
      </trkpt>
      <trkpt lat="45.85983" lon="1.22918">
        <ele>298.4</ele>
        <time>2024-10-08T15:09:32Z</time>
      </trkpt>
      <trkpt lat="45.85982" lon="1.22917">
        <ele>298.3</ele>
        <time>2024-10-08T15:09:35Z</time>
      </trkpt>
      <trkpt lat="45.85983" lon="1.22918">
        <ele>298.2</ele>
        <time>2024-10-08T15:09:38Z</time>
      </trkpt>
      <trkpt lat="45.85984" lon="1.22918">
        <ele>298.2</ele>
        <time>2024-10-08T15:09:41Z</time>
      </trkpt>
      <trkpt lat="45.85984" lon="1.22918">
        <ele>298.1</ele>
        <time>2024-10-08T15:09:44Z</time>
      </trkpt>
      <trkpt lat="45.85985" lon="1.22918">
        <ele>298.1</ele>
        <time>2024-10-08T15:09:47Z</time>
      </trkpt>
      <trkpt lat="45.85984" lon="1.22917">
        <ele>298</ele>
        <time>2024-10-08T15:09:50Z</time>
      </trkpt>
      <trkpt lat="45.85984" lon="1.22915">
        <ele>297.9</ele>
        <time>2024-10-08T15:09:53Z</time>
      </trkpt>
      <trkpt lat="45.85984" lon="1.22915">
        <ele>297.9</ele>
        <time>2024-10-08T15:09:56Z</time>
      </trkpt>
      <trkpt lat="45.85984" lon="1.22915">
        <ele>297.8</ele>
        <time>2024-10-08T15:09:59Z</time>
      </trkpt>
      <trkpt lat="45.85985" lon="1.22915">
        <ele>297.8</ele>
        <time>2024-10-08T15:10:03Z</time>
      </trkpt>
      <trkpt lat="45.85984" lon="1.22914">
        <ele>297.7</ele>
        <time>2024-10-08T15:10:06Z</time>
      </trkpt>
      <trkpt lat="45.85981" lon="1.22911">
        <ele>297.3</ele>
        <time>2024-10-08T15:10:09Z</time>
      </trkpt>
      <trkpt lat="45.85976" lon="1.22906">
        <ele>296.7</ele>
        <time>2024-10-08T15:10:12Z</time>
      </trkpt>
      <trkpt lat="45.85972" lon="1.22892">
        <ele>295.9</ele>
        <time>2024-10-08T15:10:15Z</time>
      </trkpt>
      <trkpt lat="45.8597" lon="1.22874">
        <ele>295.1</ele>
        <time>2024-10-08T15:10:18Z</time>
      </trkpt>
      <trkpt lat="45.85971" lon="1.22856">
        <ele>294.5</ele>
        <time>2024-10-08T15:10:21Z</time>
      </trkpt>
      <trkpt lat="45.85969" lon="1.2284">
        <ele>294.1</ele>
        <time>2024-10-08T15:10:23Z</time>
      </trkpt>
      <trkpt lat="45.85968" lon="1.22832">
        <ele>294</ele>
        <time>2024-10-08T15:10:27Z</time>
      </trkpt>
      <trkpt lat="45.85967" lon="1.22832">
        <ele>293.9</ele>
        <time>2024-10-08T15:10:29Z</time>
      </trkpt>
      <trkpt lat="45.85968" lon="1.22832">
        <ele>293.9</ele>
        <time>2024-10-08T15:10:32Z</time>
      </trkpt>
      <trkpt lat="45.85968" lon="1.22831">
        <ele>293.9</ele>
        <time>2024-10-08T15:10:35Z</time>
      </trkpt>
      <trkpt lat="45.85969" lon="1.2283">
        <ele>293.8</ele>
        <time>2024-10-08T15:10:38Z</time>
      </trkpt>
      <trkpt lat="45.8597" lon="1.2283">
        <ele>293.8</ele>
        <time>2024-10-08T15:10:41Z</time>
      </trkpt>
      <trkpt lat="45.8597" lon="1.2283">
        <ele>293.8</ele>
        <time>2024-10-08T15:10:44Z</time>
      </trkpt>
      <trkpt lat="45.85969" lon="1.22827">
        <ele>293.7</ele>
        <time>2024-10-08T15:10:47Z</time>
      </trkpt>
      <trkpt lat="45.85962" lon="1.22821">
        <ele>293.4</ele>
        <time>2024-10-08T15:10:50Z</time>
      </trkpt>
      <trkpt lat="45.8595" lon="1.22813">
        <ele>293</ele>
        <time>2024-10-08T15:10:53Z</time>
      </trkpt>
      <trkpt lat="45.85938" lon="1.22809">
        <ele>292.7</ele>
        <time>2024-10-08T15:10:56Z</time>
      </trkpt>
      <trkpt lat="45.85926" lon="1.22808">
        <ele>292.6</ele>
        <time>2024-10-08T15:10:59Z</time>
      </trkpt>
      <trkpt lat="45.85911" lon="1.2281">
        <ele>292.4</ele>
        <time>2024-10-08T15:11:02Z</time>
      </trkpt>
      <trkpt lat="45.85897" lon="1.22805">
        <ele>292.3</ele>
        <time>2024-10-08T15:11:05Z</time>
      </trkpt>
      <trkpt lat="45.85886" lon="1.22798">
        <ele>292.3</ele>
        <time>2024-10-08T15:11:08Z</time>
      </trkpt>
      <trkpt lat="45.85873" lon="1.2279">
        <ele>292.2</ele>
        <time>2024-10-08T15:11:11Z</time>
      </trkpt>
      <trkpt lat="45.85859" lon="1.22786">
        <ele>292.1</ele>
        <time>2024-10-08T15:11:14Z</time>
      </trkpt>
      <trkpt lat="45.85846" lon="1.22778">
        <ele>292.2</ele>
        <time>2024-10-08T15:11:17Z</time>
      </trkpt>
      <trkpt lat="45.85838" lon="1.22773">
        <ele>292.4</ele>
        <time>2024-10-08T15:11:20Z</time>
      </trkpt>
      <trkpt lat="45.85831" lon="1.22762">
        <ele>292.1</ele>
        <time>2024-10-08T15:11:23Z</time>
      </trkpt>
      <trkpt lat="45.85824" lon="1.22748">
        <ele>291.7</ele>
        <time>2024-10-08T15:11:26Z</time>
      </trkpt>
      <trkpt lat="45.85809" lon="1.22732">
        <ele>290.8</ele>
        <time>2024-10-08T15:11:30Z</time>
      </trkpt>
      <trkpt lat="45.85792" lon="1.22727">
        <ele>290</ele>
        <time>2024-10-08T15:11:33Z</time>
      </trkpt>
      <trkpt lat="45.85775" lon="1.22728">
        <ele>289.3</ele>
        <time>2024-10-08T15:11:36Z</time>
      </trkpt>
      <trkpt lat="45.8576" lon="1.22732">
        <ele>288.8</ele>
        <time>2024-10-08T15:11:39Z</time>
      </trkpt>
      <trkpt lat="45.85746" lon="1.22734">
        <ele>288.3</ele>
        <time>2024-10-08T15:11:42Z</time>
      </trkpt>
      <trkpt lat="45.8573" lon="1.22728">
        <ele>287.7</ele>
        <time>2024-10-08T15:11:45Z</time>
      </trkpt>
      <trkpt lat="45.85717" lon="1.22718">
        <ele>287.2</ele>
        <time>2024-10-08T15:11:48Z</time>
      </trkpt>
      <trkpt lat="45.85708" lon="1.22705">
        <ele>286.7</ele>
        <time>2024-10-08T15:11:50Z</time>
      </trkpt>
      <trkpt lat="45.85704" lon="1.2269">
        <ele>286.3</ele>
        <time>2024-10-08T15:11:53Z</time>
      </trkpt>
      <trkpt lat="45.85697" lon="1.22671">
        <ele>285.8</ele>
        <time>2024-10-08T15:11:57Z</time>
      </trkpt>
      <trkpt lat="45.85694" lon="1.22665">
        <ele>285.7</ele>
        <time>2024-10-08T15:11:59Z</time>
      </trkpt>
      <trkpt lat="45.85687" lon="1.22659">
        <ele>285.5</ele>
        <time>2024-10-08T15:12:02Z</time>
      </trkpt>
      <trkpt lat="45.8568" lon="1.22652">
        <ele>285.3</ele>
        <time>2024-10-08T15:12:05Z</time>
      </trkpt>
      <trkpt lat="45.85675" lon="1.22642">
        <ele>285</ele>
        <time>2024-10-08T15:12:08Z</time>
      </trkpt>
      <trkpt lat="45.85674" lon="1.22631">
        <ele>284.9</ele>
        <time>2024-10-08T15:12:11Z</time>
      </trkpt>
      <trkpt lat="45.85677" lon="1.22621">
        <ele>284.7</ele>
        <time>2024-10-08T15:12:14Z</time>
      </trkpt>
      <trkpt lat="45.85679" lon="1.22606">
        <ele>284.5</ele>
        <time>2024-10-08T15:12:17Z</time>
      </trkpt>
      <trkpt lat="45.85682" lon="1.22591">
        <ele>284</ele>
        <time>2024-10-08T15:12:20Z</time>
      </trkpt>
      <trkpt lat="45.85682" lon="1.22573">
        <ele>283.4</ele>
        <time>2024-10-08T15:12:23Z</time>
      </trkpt>
      <trkpt lat="45.85681" lon="1.22554">
        <ele>282.7</ele>
        <time>2024-10-08T15:12:26Z</time>
      </trkpt>
      <trkpt lat="45.85677" lon="1.22539">
        <ele>282.1</ele>
        <time>2024-10-08T15:12:29Z</time>
      </trkpt>
      <trkpt lat="45.85672" lon="1.22529">
        <ele>281.7</ele>
        <time>2024-10-08T15:12:32Z</time>
      </trkpt>
      <trkpt lat="45.85665" lon="1.22521">
        <ele>281.4</ele>
        <time>2024-10-08T15:12:35Z</time>
      </trkpt>
      <trkpt lat="45.85654" lon="1.22513">
        <ele>281</ele>
        <time>2024-10-08T15:12:38Z</time>
      </trkpt>
      <trkpt lat="45.85644" lon="1.2251">
        <ele>280.8</ele>
        <time>2024-10-08T15:12:41Z</time>
      </trkpt>
      <trkpt lat="45.85632" lon="1.22509">
        <ele>280.6</ele>
        <time>2024-10-08T15:12:44Z</time>
      </trkpt>
      <trkpt lat="45.85621" lon="1.22512">
        <ele>280.5</ele>
        <time>2024-10-08T15:12:47Z</time>
      </trkpt>
      <trkpt lat="45.85613" lon="1.2252">
        <ele>280.4</ele>
        <time>2024-10-08T15:12:50Z</time>
      </trkpt>
      <trkpt lat="45.85602" lon="1.2252">
        <ele>280.3</ele>
        <time>2024-10-08T15:12:53Z</time>
      </trkpt>
      <trkpt lat="45.85593" lon="1.22518">
        <ele>280.2</ele>
        <time>2024-10-08T15:12:56Z</time>
      </trkpt>
      <trkpt lat="45.85585" lon="1.22525">
        <ele>280.1</ele>
        <time>2024-10-08T15:13:00Z</time>
      </trkpt>
      <trkpt lat="45.85576" lon="1.22527">
        <ele>280</ele>
        <time>2024-10-08T15:13:03Z</time>
      </trkpt>
      <trkpt lat="45.85567" lon="1.22529">
        <ele>279.9</ele>
        <time>2024-10-08T15:13:06Z</time>
      </trkpt>
      <trkpt lat="45.85559" lon="1.2252">
        <ele>279.9</ele>
        <time>2024-10-08T15:13:09Z</time>
      </trkpt>
      <trkpt lat="45.85552" lon="1.22517">
        <ele>279.8</ele>
        <time>2024-10-08T15:13:12Z</time>
      </trkpt>
      <trkpt lat="45.85543" lon="1.22522">
        <ele>279.6</ele>
        <time>2024-10-08T15:13:15Z</time>
      </trkpt>
      <trkpt lat="45.8553" lon="1.22529">
        <ele>279.5</ele>
        <time>2024-10-08T15:13:17Z</time>
      </trkpt>
      <trkpt lat="45.8552" lon="1.22534">
        <ele>279.3</ele>
        <time>2024-10-08T15:13:21Z</time>
      </trkpt>
      <trkpt lat="45.85508" lon="1.22543">
        <ele>279</ele>
        <time>2024-10-08T15:13:23Z</time>
      </trkpt>
      <trkpt lat="45.85498" lon="1.22556">
        <ele>278.6</ele>
        <time>2024-10-08T15:13:26Z</time>
      </trkpt>
      <trkpt lat="45.8549" lon="1.22567">
        <ele>278.2</ele>
        <time>2024-10-08T15:13:29Z</time>
      </trkpt>
      <trkpt lat="45.85477" lon="1.22571">
        <ele>277.9</ele>
        <time>2024-10-08T15:13:32Z</time>
      </trkpt>
      <trkpt lat="45.85464" lon="1.22575">
        <ele>277.7</ele>
        <time>2024-10-08T15:13:35Z</time>
      </trkpt>
      <trkpt lat="45.85452" lon="1.22578">
        <ele>277.6</ele>
        <time>2024-10-08T15:13:38Z</time>
      </trkpt>
      <trkpt lat="45.85446" lon="1.22588">
        <ele>277.6</ele>
        <time>2024-10-08T15:13:41Z</time>
      </trkpt>
      <trkpt lat="45.8544" lon="1.22596">
        <ele>277.8</ele>
        <time>2024-10-08T15:13:44Z</time>
      </trkpt>
      <trkpt lat="45.85429" lon="1.22597">
        <ele>279.6</ele>
        <time>2024-10-08T15:13:47Z</time>
      </trkpt>
      <trkpt lat="45.8542" lon="1.22592">
        <ele>281.4</ele>
        <time>2024-10-08T15:13:50Z</time>
      </trkpt>
      <trkpt lat="45.85411" lon="1.22577">
        <ele>280.8</ele>
        <time>2024-10-08T15:13:53Z</time>
      </trkpt>
      <trkpt lat="45.85399" lon="1.22569">
        <ele>279.8</ele>
        <time>2024-10-08T15:13:56Z</time>
      </trkpt>
      <trkpt lat="45.8539" lon="1.22558">
        <ele>278.3</ele>
        <time>2024-10-08T15:13:59Z</time>
      </trkpt>
      <trkpt lat="45.8538" lon="1.22562">
        <ele>276.9</ele>
        <time>2024-10-08T15:14:02Z</time>
      </trkpt>
      <trkpt lat="45.85368" lon="1.22572">
        <ele>276.1</ele>
        <time>2024-10-08T15:14:05Z</time>
      </trkpt>
      <trkpt lat="45.85356" lon="1.2258">
        <ele>276</ele>
        <time>2024-10-08T15:14:08Z</time>
      </trkpt>
      <trkpt lat="45.85343" lon="1.22591">
        <ele>276</ele>
        <time>2024-10-08T15:14:11Z</time>
      </trkpt>
      <trkpt lat="45.85329" lon="1.22601">
        <ele>275.8</ele>
        <time>2024-10-08T15:14:14Z</time>
      </trkpt>
      <trkpt lat="45.85315" lon="1.2261">
        <ele>275.6</ele>
        <time>2024-10-08T15:14:17Z</time>
      </trkpt>
      <trkpt lat="45.85301" lon="1.22619">
        <ele>275.2</ele>
        <time>2024-10-08T15:14:20Z</time>
      </trkpt>
      <trkpt lat="45.85284" lon="1.22627">
        <ele>274.9</ele>
        <time>2024-10-08T15:14:23Z</time>
      </trkpt>
      <trkpt lat="45.85267" lon="1.22634">
        <ele>274.6</ele>
        <time>2024-10-08T15:14:26Z</time>
      </trkpt>
      <trkpt lat="45.8525" lon="1.22641">
        <ele>274.3</ele>
        <time>2024-10-08T15:14:30Z</time>
      </trkpt>
      <trkpt lat="45.85233" lon="1.22639">
        <ele>274.2</ele>
        <time>2024-10-08T15:14:33Z</time>
      </trkpt>
      <trkpt lat="45.85217" lon="1.22633">
        <ele>274</ele>
        <time>2024-10-08T15:14:36Z</time>
      </trkpt>
      <trkpt lat="45.85201" lon="1.22624">
        <ele>273.9</ele>
        <time>2024-10-08T15:14:39Z</time>
      </trkpt>
      <trkpt lat="45.85186" lon="1.22618">
        <ele>274.2</ele>
        <time>2024-10-08T15:14:42Z</time>
      </trkpt>
      <trkpt lat="45.85173" lon="1.22619">
        <ele>274.7</ele>
        <time>2024-10-08T15:14:45Z</time>
      </trkpt>
      <trkpt lat="45.85163" lon="1.22628">
        <ele>275.3</ele>
        <time>2024-10-08T15:14:47Z</time>
      </trkpt>
      <trkpt lat="45.85158" lon="1.2264">
        <ele>275.8</ele>
        <time>2024-10-08T15:14:50Z</time>
      </trkpt>
      <trkpt lat="45.85155" lon="1.22651">
        <ele>276.1</ele>
        <time>2024-10-08T15:14:53Z</time>
      </trkpt>
      <trkpt lat="45.85151" lon="1.22665">
        <ele>276.5</ele>
        <time>2024-10-08T15:14:56Z</time>
      </trkpt>
      <trkpt lat="45.85147" lon="1.22677">
        <ele>276.9</ele>
        <time>2024-10-08T15:14:59Z</time>
      </trkpt>
      <trkpt lat="45.85144" lon="1.22689">
        <ele>277.3</ele>
        <time>2024-10-08T15:15:02Z</time>
      </trkpt>
      <trkpt lat="45.85136" lon="1.227">
        <ele>277.8</ele>
        <time>2024-10-08T15:15:05Z</time>
      </trkpt>
      <trkpt lat="45.8513" lon="1.22713">
        <ele>278.2</ele>
        <time>2024-10-08T15:15:08Z</time>
      </trkpt>
      <trkpt lat="45.85126" lon="1.2273">
        <ele>278.6</ele>
        <time>2024-10-08T15:15:11Z</time>
      </trkpt>
      <trkpt lat="45.85125" lon="1.22744">
        <ele>278.9</ele>
        <time>2024-10-08T15:15:14Z</time>
      </trkpt>
      <trkpt lat="45.85123" lon="1.22759">
        <ele>278.9</ele>
        <time>2024-10-08T15:15:17Z</time>
      </trkpt>
      <trkpt lat="45.85122" lon="1.22779">
        <ele>278.5</ele>
        <time>2024-10-08T15:15:20Z</time>
      </trkpt>
      <trkpt lat="45.85114" lon="1.22795">
        <ele>277.8</ele>
        <time>2024-10-08T15:15:23Z</time>
      </trkpt>
      <trkpt lat="45.85104" lon="1.22815">
        <ele>276.7</ele>
        <time>2024-10-08T15:15:26Z</time>
      </trkpt>
      <trkpt lat="45.85091" lon="1.22834">
        <ele>275.5</ele>
        <time>2024-10-08T15:15:29Z</time>
      </trkpt>
      <trkpt lat="45.8507" lon="1.22847">
        <ele>274.3</ele>
        <time>2024-10-08T15:15:32Z</time>
      </trkpt>
      <trkpt lat="45.8505" lon="1.22853">
        <ele>273.8</ele>
        <time>2024-10-08T15:15:35Z</time>
      </trkpt>
      <trkpt lat="45.85031" lon="1.22865">
        <ele>273.6</ele>
        <time>2024-10-08T15:15:38Z</time>
      </trkpt>
      <trkpt lat="45.85018" lon="1.22886">
        <ele>273.6</ele>
        <time>2024-10-08T15:15:41Z</time>
      </trkpt>
      <trkpt lat="45.85011" lon="1.22909">
        <ele>273.6</ele>
        <time>2024-10-08T15:15:45Z</time>
      </trkpt>
      <trkpt lat="45.85003" lon="1.22927">
        <ele>273.8</ele>
        <time>2024-10-08T15:15:48Z</time>
      </trkpt>
      <trkpt lat="45.84994" lon="1.22941">
        <ele>274.1</ele>
        <time>2024-10-08T15:15:51Z</time>
      </trkpt>
      <trkpt lat="45.84982" lon="1.22944">
        <ele>274.5</ele>
        <time>2024-10-08T15:15:54Z</time>
      </trkpt>
      <trkpt lat="45.84972" lon="1.22945">
        <ele>274.8</ele>
        <time>2024-10-08T15:15:57Z</time>
      </trkpt>
      <trkpt lat="45.84963" lon="1.22945">
        <ele>275.2</ele>
        <time>2024-10-08T15:16:00Z</time>
      </trkpt>
      <trkpt lat="45.84954" lon="1.22944">
        <ele>275.6</ele>
        <time>2024-10-08T15:16:03Z</time>
      </trkpt>
      <trkpt lat="45.84946" lon="1.22942">
        <ele>276</ele>
        <time>2024-10-08T15:16:06Z</time>
      </trkpt>
      <trkpt lat="45.84941" lon="1.22942">
        <ele>276.2</ele>
        <time>2024-10-08T15:16:09Z</time>
      </trkpt>
      <trkpt lat="45.84942" lon="1.22942">
        <ele>276.2</ele>
        <time>2024-10-08T15:16:12Z</time>
      </trkpt>
      <trkpt lat="45.84942" lon="1.22942">
        <ele>276.2</ele>
        <time>2024-10-08T15:16:14Z</time>
      </trkpt>
      <trkpt lat="45.84942" lon="1.22941">
        <ele>276.3</ele>
        <time>2024-10-08T15:16:17Z</time>
      </trkpt>
      <trkpt lat="45.84942" lon="1.22941">
        <ele>276.3</ele>
        <time>2024-10-08T15:16:20Z</time>
      </trkpt>
      <trkpt lat="45.8494" lon="1.22943">
        <ele>276.4</ele>
        <time>2024-10-08T15:16:23Z</time>
      </trkpt>
      <trkpt lat="45.84937" lon="1.22947">
        <ele>276.5</ele>
        <time>2024-10-08T15:16:26Z</time>
      </trkpt>
      <trkpt lat="45.84935" lon="1.22951">
        <ele>276.4</ele>
        <time>2024-10-08T15:16:29Z</time>
      </trkpt>
      <trkpt lat="45.84934" lon="1.22958">
        <ele>276.3</ele>
        <time>2024-10-08T15:16:32Z</time>
      </trkpt>
      <trkpt lat="45.84933" lon="1.22964">
        <ele>276.3</ele>
        <time>2024-10-08T15:16:35Z</time>
      </trkpt>
      <trkpt lat="45.84931" lon="1.2297">
        <ele>276.4</ele>
        <time>2024-10-08T15:16:38Z</time>
      </trkpt>
      <trkpt lat="45.8493" lon="1.22973">
        <ele>276.4</ele>
        <time>2024-10-08T15:16:41Z</time>
      </trkpt>
      <trkpt lat="45.8493" lon="1.22973">
        <ele>276.4</ele>
        <time>2024-10-08T15:16:44Z</time>
      </trkpt>
      <trkpt lat="45.84929" lon="1.22978">
        <ele>276.6</ele>
        <time>2024-10-08T15:16:47Z</time>
      </trkpt>
      <trkpt lat="45.84926" lon="1.22988">
        <ele>277</ele>
        <time>2024-10-08T15:16:50Z</time>
      </trkpt>
      <trkpt lat="45.84922" lon="1.22999">
        <ele>277.5</ele>
        <time>2024-10-08T15:16:53Z</time>
      </trkpt>
      <trkpt lat="45.84918" lon="1.2301">
        <ele>278</ele>
        <time>2024-10-08T15:16:56Z</time>
      </trkpt>
      <trkpt lat="45.84912" lon="1.23018">
        <ele>278.6</ele>
        <time>2024-10-08T15:16:59Z</time>
      </trkpt>
      <trkpt lat="45.84905" lon="1.23027">
        <ele>279.3</ele>
        <time>2024-10-08T15:17:02Z</time>
      </trkpt>
      <trkpt lat="45.84899" lon="1.23035">
        <ele>280</ele>
        <time>2024-10-08T15:17:05Z</time>
      </trkpt>
      <trkpt lat="45.84891" lon="1.2304">
        <ele>280.7</ele>
        <time>2024-10-08T15:17:08Z</time>
      </trkpt>
      <trkpt lat="45.84883" lon="1.23043">
        <ele>281.4</ele>
        <time>2024-10-08T15:17:11Z</time>
      </trkpt>
      <trkpt lat="45.84874" lon="1.23041">
        <ele>282.2</ele>
        <time>2024-10-08T15:17:14Z</time>
      </trkpt>
      <trkpt lat="45.84866" lon="1.23036">
        <ele>282.9</ele>
        <time>2024-10-08T15:17:18Z</time>
      </trkpt>
      <trkpt lat="45.84859" lon="1.23029">
        <ele>283.6</ele>
        <time>2024-10-08T15:17:21Z</time>
      </trkpt>
      <trkpt lat="45.84853" lon="1.2302">
        <ele>284.4</ele>
        <time>2024-10-08T15:17:24Z</time>
      </trkpt>
      <trkpt lat="45.84847" lon="1.23011">
        <ele>285.1</ele>
        <time>2024-10-08T15:17:27Z</time>
      </trkpt>
      <trkpt lat="45.84842" lon="1.23002">
        <ele>285.7</ele>
        <time>2024-10-08T15:17:30Z</time>
      </trkpt>
      <trkpt lat="45.84838" lon="1.2299">
        <ele>286.3</ele>
        <time>2024-10-08T15:17:33Z</time>
      </trkpt>
      <trkpt lat="45.84835" lon="1.22978">
        <ele>286.9</ele>
        <time>2024-10-08T15:17:36Z</time>
      </trkpt>
      <trkpt lat="45.84832" lon="1.22966">
        <ele>287.2</ele>
        <time>2024-10-08T15:17:39Z</time>
      </trkpt>
      <trkpt lat="45.84828" lon="1.22954">
        <ele>287.4</ele>
        <time>2024-10-08T15:17:42Z</time>
      </trkpt>
      <trkpt lat="45.84825" lon="1.22942">
        <ele>287.4</ele>
        <time>2024-10-08T15:17:44Z</time>
      </trkpt>
      <trkpt lat="45.8482" lon="1.22928">
        <ele>287.3</ele>
        <time>2024-10-08T15:17:47Z</time>
      </trkpt>
      <trkpt lat="45.84815" lon="1.22912">
        <ele>286.9</ele>
        <time>2024-10-08T15:17:50Z</time>
      </trkpt>
      <trkpt lat="45.84809" lon="1.22895">
        <ele>286.1</ele>
        <time>2024-10-08T15:17:53Z</time>
      </trkpt>
      <trkpt lat="45.84803" lon="1.22874">
        <ele>284.9</ele>
        <time>2024-10-08T15:17:56Z</time>
      </trkpt>
      <trkpt lat="45.84795" lon="1.22853">
        <ele>283.6</ele>
        <time>2024-10-08T15:17:59Z</time>
      </trkpt>
      <trkpt lat="45.84787" lon="1.22833">
        <ele>282.1</ele>
        <time>2024-10-08T15:18:02Z</time>
      </trkpt>
      <trkpt lat="45.84777" lon="1.22807">
        <ele>280.4</ele>
        <time>2024-10-08T15:18:05Z</time>
      </trkpt>
      <trkpt lat="45.84768" lon="1.22783">
        <ele>278.8</ele>
        <time>2024-10-08T15:18:08Z</time>
      </trkpt>
      <trkpt lat="45.84759" lon="1.22759">
        <ele>277.4</ele>
        <time>2024-10-08T15:18:11Z</time>
      </trkpt>
      <trkpt lat="45.84752" lon="1.22737">
        <ele>276.4</ele>
        <time>2024-10-08T15:18:14Z</time>
      </trkpt>
      <trkpt lat="45.84745" lon="1.22719">
        <ele>275.6</ele>
        <time>2024-10-08T15:18:17Z</time>
      </trkpt>
      <trkpt lat="45.84739" lon="1.22709">
        <ele>275.1</ele>
        <time>2024-10-08T15:18:20Z</time>
      </trkpt>
      <trkpt lat="45.84733" lon="1.22724">
        <ele>273.7</ele>
        <time>2024-10-08T15:18:23Z</time>
      </trkpt>
      <trkpt lat="45.84728" lon="1.22737">
        <ele>272.5</ele>
        <time>2024-10-08T15:18:26Z</time>
      </trkpt>
      <trkpt lat="45.84722" lon="1.22743">
        <ele>271.6</ele>
        <time>2024-10-08T15:18:29Z</time>
      </trkpt>
      <trkpt lat="45.84708" lon="1.22739">
        <ele>269.8</ele>
        <time>2024-10-08T15:18:32Z</time>
      </trkpt>
      <trkpt lat="45.84694" lon="1.22733">
        <ele>268.1</ele>
        <time>2024-10-08T15:18:35Z</time>
      </trkpt>
      <trkpt lat="45.84676" lon="1.22736">
        <ele>265.9</ele>
        <time>2024-10-08T15:18:38Z</time>
      </trkpt>
      <trkpt lat="45.84663" lon="1.22742">
        <ele>264.2</ele>
        <time>2024-10-08T15:18:41Z</time>
      </trkpt>
      <trkpt lat="45.8465" lon="1.22737">
        <ele>263.4</ele>
        <time>2024-10-08T15:18:44Z</time>
      </trkpt>
      <trkpt lat="45.84642" lon="1.22726">
        <ele>262.9</ele>
        <time>2024-10-08T15:18:48Z</time>
      </trkpt>
      <trkpt lat="45.84631" lon="1.22721">
        <ele>261.8</ele>
        <time>2024-10-08T15:18:51Z</time>
      </trkpt>
      <trkpt lat="45.84613" lon="1.22718">
        <ele>260.5</ele>
        <time>2024-10-08T15:18:54Z</time>
      </trkpt>
      <trkpt lat="45.84599" lon="1.22721">
        <ele>259.7</ele>
        <time>2024-10-08T15:18:57Z</time>
      </trkpt>
      <trkpt lat="45.84583" lon="1.22726">
        <ele>259.1</ele>
        <time>2024-10-08T15:19:00Z</time>
      </trkpt>
      <trkpt lat="45.84567" lon="1.22733">
        <ele>258.6</ele>
        <time>2024-10-08T15:19:03Z</time>
      </trkpt>
      <trkpt lat="45.84549" lon="1.22727">
        <ele>258.3</ele>
        <time>2024-10-08T15:19:05Z</time>
      </trkpt>
      <trkpt lat="45.84536" lon="1.2272">
        <ele>258.4</ele>
        <time>2024-10-08T15:19:09Z</time>
      </trkpt>
      <trkpt lat="45.84529" lon="1.22716">
        <ele>258.5</ele>
        <time>2024-10-08T15:19:12Z</time>
      </trkpt>
      <trkpt lat="45.84521" lon="1.22713">
        <ele>258.5</ele>
        <time>2024-10-08T15:19:14Z</time>
      </trkpt>
      <trkpt lat="45.84509" lon="1.22704">
        <ele>258.5</ele>
        <time>2024-10-08T15:19:17Z</time>
      </trkpt>
      <trkpt lat="45.84499" lon="1.22694">
        <ele>258.3</ele>
        <time>2024-10-08T15:19:20Z</time>
      </trkpt>
      <trkpt lat="45.84485" lon="1.22686">
        <ele>258.2</ele>
        <time>2024-10-08T15:19:23Z</time>
      </trkpt>
      <trkpt lat="45.84469" lon="1.22681">
        <ele>258.1</ele>
        <time>2024-10-08T15:19:26Z</time>
      </trkpt>
      <trkpt lat="45.84454" lon="1.2268">
        <ele>258.1</ele>
        <time>2024-10-08T15:19:29Z</time>
      </trkpt>
      <trkpt lat="45.8444" lon="1.22681">
        <ele>258</ele>
        <time>2024-10-08T15:19:32Z</time>
      </trkpt>
      <trkpt lat="45.84427" lon="1.22682">
        <ele>257.8</ele>
        <time>2024-10-08T15:19:35Z</time>
      </trkpt>
      <trkpt lat="45.84413" lon="1.22684">
        <ele>257.6</ele>
        <time>2024-10-08T15:19:38Z</time>
      </trkpt>
      <trkpt lat="45.84404" lon="1.2267">
        <ele>257.3</ele>
        <time>2024-10-08T15:19:41Z</time>
      </trkpt>
      <trkpt lat="45.84394" lon="1.22653">
        <ele>256.9</ele>
        <time>2024-10-08T15:19:44Z</time>
      </trkpt>
      <trkpt lat="45.84386" lon="1.22634">
        <ele>256.7</ele>
        <time>2024-10-08T15:19:47Z</time>
      </trkpt>
      <trkpt lat="45.84377" lon="1.22617">
        <ele>256.6</ele>
        <time>2024-10-08T15:19:50Z</time>
      </trkpt>
      <trkpt lat="45.84362" lon="1.22615">
        <ele>256.5</ele>
        <time>2024-10-08T15:19:53Z</time>
      </trkpt>
      <trkpt lat="45.84347" lon="1.22623">
        <ele>256.3</ele>
        <time>2024-10-08T15:19:56Z</time>
      </trkpt>
      <trkpt lat="45.84333" lon="1.22621">
        <ele>256.2</ele>
        <time>2024-10-08T15:19:59Z</time>
      </trkpt>
      <trkpt lat="45.84321" lon="1.22615">
        <ele>256.2</ele>
        <time>2024-10-08T15:20:02Z</time>
      </trkpt>
      <trkpt lat="45.84311" lon="1.22605">
        <ele>256.1</ele>
        <time>2024-10-08T15:20:05Z</time>
      </trkpt>
      <trkpt lat="45.84304" lon="1.22592">
        <ele>256</ele>
        <time>2024-10-08T15:20:09Z</time>
      </trkpt>
      <trkpt lat="45.84296" lon="1.22578">
        <ele>255.9</ele>
        <time>2024-10-08T15:20:11Z</time>
      </trkpt>
      <trkpt lat="45.84286" lon="1.22572">
        <ele>255.7</ele>
        <time>2024-10-08T15:20:14Z</time>
      </trkpt>
      <trkpt lat="45.84274" lon="1.22579">
        <ele>255.6</ele>
        <time>2024-10-08T15:20:18Z</time>
      </trkpt>
      <trkpt lat="45.84266" lon="1.22591">
        <ele>255.4</ele>
        <time>2024-10-08T15:20:21Z</time>
      </trkpt>
      <trkpt lat="45.84256" lon="1.22603">
        <ele>255.3</ele>
        <time>2024-10-08T15:20:24Z</time>
      </trkpt>
      <trkpt lat="45.84246" lon="1.22613">
        <ele>255.1</ele>
        <time>2024-10-08T15:20:27Z</time>
      </trkpt>
      <trkpt lat="45.84235" lon="1.2262">
        <ele>255</ele>
        <time>2024-10-08T15:20:30Z</time>
      </trkpt>
      <trkpt lat="45.84225" lon="1.2262">
        <ele>255</ele>
        <time>2024-10-08T15:20:33Z</time>
      </trkpt>
      <trkpt lat="45.84215" lon="1.22618">
        <ele>254.9</ele>
        <time>2024-10-08T15:20:36Z</time>
      </trkpt>
      <trkpt lat="45.84205" lon="1.22616">
        <ele>254.9</ele>
        <time>2024-10-08T15:20:38Z</time>
      </trkpt>
      <trkpt lat="45.84193" lon="1.22613">
        <ele>254.9</ele>
        <time>2024-10-08T15:20:41Z</time>
      </trkpt>
      <trkpt lat="45.84181" lon="1.22609">
        <ele>254.9</ele>
        <time>2024-10-08T15:20:44Z</time>
      </trkpt>
      <trkpt lat="45.84168" lon="1.22606">
        <ele>254.9</ele>
        <time>2024-10-08T15:20:47Z</time>
      </trkpt>
      <trkpt lat="45.84154" lon="1.22603">
        <ele>254.9</ele>
        <time>2024-10-08T15:20:50Z</time>
      </trkpt>
      <trkpt lat="45.8414" lon="1.226">
        <ele>255</ele>
        <time>2024-10-08T15:20:53Z</time>
      </trkpt>
      <trkpt lat="45.84128" lon="1.22596">
        <ele>255.1</ele>
        <time>2024-10-08T15:20:56Z</time>
      </trkpt>
      <trkpt lat="45.84115" lon="1.22593">
        <ele>255.3</ele>
        <time>2024-10-08T15:20:59Z</time>
      </trkpt>
      <trkpt lat="45.84105" lon="1.22604">
        <ele>257</ele>
        <time>2024-10-08T15:21:02Z</time>
      </trkpt>
      <trkpt lat="45.84093" lon="1.22606">
        <ele>258.7</ele>
        <time>2024-10-08T15:21:05Z</time>
      </trkpt>
      <trkpt lat="45.84083" lon="1.226">
        <ele>260.4</ele>
        <time>2024-10-08T15:21:08Z</time>
      </trkpt>
      <trkpt lat="45.84073" lon="1.22594">
        <ele>262.3</ele>
        <time>2024-10-08T15:21:11Z</time>
      </trkpt>
      <trkpt lat="45.84063" lon="1.22588">
        <ele>264.1</ele>
        <time>2024-10-08T15:21:14Z</time>
      </trkpt>
      <trkpt lat="45.84055" lon="1.22583">
        <ele>265.3</ele>
        <time>2024-10-08T15:21:17Z</time>
      </trkpt>
      <trkpt lat="45.84047" lon="1.2258">
        <ele>266.3</ele>
        <time>2024-10-08T15:21:20Z</time>
      </trkpt>
      <trkpt lat="45.8404" lon="1.22573">
        <ele>267.1</ele>
        <time>2024-10-08T15:21:23Z</time>
      </trkpt>
      <trkpt lat="45.84032" lon="1.22564">
        <ele>267.6</ele>
        <time>2024-10-08T15:21:26Z</time>
      </trkpt>
      <trkpt lat="45.84022" lon="1.22557">
        <ele>267.9</ele>
        <time>2024-10-08T15:21:29Z</time>
      </trkpt>
      <trkpt lat="45.84013" lon="1.22552">
        <ele>268.1</ele>
        <time>2024-10-08T15:21:32Z</time>
      </trkpt>
      <trkpt lat="45.84001" lon="1.22545">
        <ele>268.5</ele>
        <time>2024-10-08T15:21:35Z</time>
      </trkpt>
      <trkpt lat="45.83993" lon="1.22543">
        <ele>269</ele>
        <time>2024-10-08T15:21:38Z</time>
      </trkpt>
      <trkpt lat="45.83985" lon="1.22542">
        <ele>269.5</ele>
        <time>2024-10-08T15:21:41Z</time>
      </trkpt>
      <trkpt lat="45.83978" lon="1.22538">
        <ele>270.1</ele>
        <time>2024-10-08T15:21:44Z</time>
      </trkpt>
      <trkpt lat="45.83972" lon="1.22529">
        <ele>269.3</ele>
        <time>2024-10-08T15:21:48Z</time>
      </trkpt>
      <trkpt lat="45.83966" lon="1.22514">
        <ele>268.3</ele>
        <time>2024-10-08T15:21:51Z</time>
      </trkpt>
      <trkpt lat="45.83958" lon="1.22496">
        <ele>267.1</ele>
        <time>2024-10-08T15:21:54Z</time>
      </trkpt>
      <trkpt lat="45.83947" lon="1.2248">
        <ele>265.9</ele>
        <time>2024-10-08T15:21:57Z</time>
      </trkpt>
      <trkpt lat="45.83935" lon="1.22466">
        <ele>264.8</ele>
        <time>2024-10-08T15:22:00Z</time>
      </trkpt>
      <trkpt lat="45.83923" lon="1.22459">
        <ele>263.8</ele>
        <time>2024-10-08T15:22:02Z</time>
      </trkpt>
      <trkpt lat="45.83912" lon="1.22453">
        <ele>262.8</ele>
        <time>2024-10-08T15:22:05Z</time>
      </trkpt>
      <trkpt lat="45.83902" lon="1.22448">
        <ele>261.9</ele>
        <time>2024-10-08T15:22:09Z</time>
      </trkpt>
      <trkpt lat="45.83892" lon="1.22446">
        <ele>261.1</ele>
        <time>2024-10-08T15:22:11Z</time>
      </trkpt>
      <trkpt lat="45.83883" lon="1.22445">
        <ele>260.5</ele>
        <time>2024-10-08T15:22:14Z</time>
      </trkpt>
      <trkpt lat="45.83876" lon="1.22445">
        <ele>260</ele>
        <time>2024-10-08T15:22:17Z</time>
      </trkpt>
      <trkpt lat="45.83867" lon="1.22444">
        <ele>259.4</ele>
        <time>2024-10-08T15:22:20Z</time>
      </trkpt>
      <trkpt lat="45.83858" lon="1.22444">
        <ele>258.9</ele>
        <time>2024-10-08T15:22:23Z</time>
      </trkpt>
      <trkpt lat="45.83849" lon="1.22444">
        <ele>258.6</ele>
        <time>2024-10-08T15:22:26Z</time>
      </trkpt>
      <trkpt lat="45.83836" lon="1.22442">
        <ele>258.2</ele>
        <time>2024-10-08T15:22:29Z</time>
      </trkpt>
      <trkpt lat="45.83823" lon="1.22444">
        <ele>257.9</ele>
        <time>2024-10-08T15:22:32Z</time>
      </trkpt>
      <trkpt lat="45.83809" lon="1.22447">
        <ele>257.6</ele>
        <time>2024-10-08T15:22:35Z</time>
      </trkpt>
      <trkpt lat="45.83798" lon="1.2245">
        <ele>257.4</ele>
        <time>2024-10-08T15:22:38Z</time>
      </trkpt>
      <trkpt lat="45.83785" lon="1.22446">
        <ele>257.4</ele>
        <time>2024-10-08T15:22:41Z</time>
      </trkpt>
      <trkpt lat="45.8377" lon="1.22451">
        <ele>257.1</ele>
        <time>2024-10-08T15:22:44Z</time>
      </trkpt>
      <trkpt lat="45.83761" lon="1.2245">
        <ele>256.7</ele>
        <time>2024-10-08T15:22:47Z</time>
      </trkpt>
      <trkpt lat="45.83753" lon="1.22448">
        <ele>256.1</ele>
        <time>2024-10-08T15:22:50Z</time>
      </trkpt>
      <trkpt lat="45.83745" lon="1.22446">
        <ele>256.6</ele>
        <time>2024-10-08T15:22:53Z</time>
      </trkpt>
      <trkpt lat="45.83736" lon="1.22448">
        <ele>257.3</ele>
        <time>2024-10-08T15:22:56Z</time>
      </trkpt>
      <trkpt lat="45.83734" lon="1.22455">
        <ele>257.8</ele>
        <time>2024-10-08T15:22:59Z</time>
      </trkpt>
      <trkpt lat="45.83731" lon="1.22466">
        <ele>258.4</ele>
        <time>2024-10-08T15:23:02Z</time>
      </trkpt>
      <trkpt lat="45.83721" lon="1.22465">
        <ele>259.9</ele>
        <time>2024-10-08T15:23:05Z</time>
      </trkpt>
      <trkpt lat="45.83713" lon="1.22467">
        <ele>261.4</ele>
        <time>2024-10-08T15:23:08Z</time>
      </trkpt>
      <trkpt lat="45.83703" lon="1.22469">
        <ele>262.9</ele>
        <time>2024-10-08T15:23:12Z</time>
      </trkpt>
      <trkpt lat="45.83693" lon="1.22471">
        <ele>264.4</ele>
        <time>2024-10-08T15:23:15Z</time>
      </trkpt>
      <trkpt lat="45.83683" lon="1.22471">
        <ele>265.8</ele>
        <time>2024-10-08T15:23:18Z</time>
      </trkpt>
      <trkpt lat="45.83673" lon="1.22474">
        <ele>265.8</ele>
        <time>2024-10-08T15:23:21Z</time>
      </trkpt>
      <trkpt lat="45.83662" lon="1.22475">
        <ele>265.8</ele>
        <time>2024-10-08T15:23:24Z</time>
      </trkpt>
      <trkpt lat="45.83652" lon="1.22476">
        <ele>266.4</ele>
        <time>2024-10-08T15:23:27Z</time>
      </trkpt>
      <trkpt lat="45.83644" lon="1.22475">
        <ele>266.8</ele>
        <time>2024-10-08T15:23:30Z</time>
      </trkpt>
      <trkpt lat="45.83637" lon="1.22475">
        <ele>267.2</ele>
        <time>2024-10-08T15:23:33Z</time>
      </trkpt>
      <trkpt lat="45.83629" lon="1.22476">
        <ele>267.7</ele>
        <time>2024-10-08T15:23:35Z</time>
      </trkpt>
      <trkpt lat="45.83621" lon="1.22478">
        <ele>268.1</ele>
        <time>2024-10-08T15:23:38Z</time>
      </trkpt>
      <trkpt lat="45.83613" lon="1.2248">
        <ele>268.5</ele>
        <time>2024-10-08T15:23:41Z</time>
      </trkpt>
      <trkpt lat="45.83606" lon="1.22484">
        <ele>268.9</ele>
        <time>2024-10-08T15:23:44Z</time>
      </trkpt>
      <trkpt lat="45.836" lon="1.22487">
        <ele>269.2</ele>
        <time>2024-10-08T15:23:47Z</time>
      </trkpt>
      <trkpt lat="45.83592" lon="1.22487">
        <ele>269.5</ele>
        <time>2024-10-08T15:23:50Z</time>
      </trkpt>
      <trkpt lat="45.83583" lon="1.22488">
        <ele>269.8</ele>
        <time>2024-10-08T15:23:53Z</time>
      </trkpt>
      <trkpt lat="45.83574" lon="1.2249">
        <ele>270.1</ele>
        <time>2024-10-08T15:23:56Z</time>
      </trkpt>
      <trkpt lat="45.83566" lon="1.2249">
        <ele>270.4</ele>
        <time>2024-10-08T15:23:59Z</time>
      </trkpt>
      <trkpt lat="45.83559" lon="1.22494">
        <ele>271.1</ele>
        <time>2024-10-08T15:24:02Z</time>
      </trkpt>
      <trkpt lat="45.83557" lon="1.22497">
        <ele>271.2</ele>
        <time>2024-10-08T15:24:05Z</time>
      </trkpt>
      <trkpt lat="45.83557" lon="1.22505">
        <ele>271.2</ele>
        <time>2024-10-08T15:24:08Z</time>
      </trkpt>
      <trkpt lat="45.83558" lon="1.22515">
        <ele>271.3</ele>
        <time>2024-10-08T15:24:11Z</time>
      </trkpt>
      <trkpt lat="45.8356" lon="1.22525">
        <ele>271.3</ele>
        <time>2024-10-08T15:24:14Z</time>
      </trkpt>
      <trkpt lat="45.83562" lon="1.22535">
        <ele>271.3</ele>
        <time>2024-10-08T15:24:17Z</time>
      </trkpt>
      <trkpt lat="45.83561" lon="1.22544">
        <ele>271.3</ele>
        <time>2024-10-08T15:24:20Z</time>
      </trkpt>
      <trkpt lat="45.83553" lon="1.22544">
        <ele>271.2</ele>
        <time>2024-10-08T15:24:23Z</time>
      </trkpt>
      <trkpt lat="45.83541" lon="1.22542">
        <ele>271.1</ele>
        <time>2024-10-08T15:24:26Z</time>
      </trkpt>
      <trkpt lat="45.8353" lon="1.22543">
        <ele>271</ele>
        <time>2024-10-08T15:24:29Z</time>
      </trkpt>
      <trkpt lat="45.83523" lon="1.22544">
        <ele>271</ele>
        <time>2024-10-08T15:24:32Z</time>
      </trkpt>
      <trkpt lat="45.83518" lon="1.22544">
        <ele>270.9</ele>
        <time>2024-10-08T15:24:36Z</time>
      </trkpt>
      <trkpt lat="45.83515" lon="1.22544">
        <ele>270.9</ele>
        <time>2024-10-08T15:24:39Z</time>
      </trkpt>
      <trkpt lat="45.83514" lon="1.22544">
        <ele>270.9</ele>
        <time>2024-10-08T15:24:42Z</time>
      </trkpt>
      <trkpt lat="45.83515" lon="1.22545">
        <ele>270.9</ele>
        <time>2024-10-08T15:24:45Z</time>
      </trkpt>
      <trkpt lat="45.83515" lon="1.22545">
        <ele>270.9</ele>
        <time>2024-10-08T15:24:48Z</time>
      </trkpt>
      <trkpt lat="45.83515" lon="1.22544">
        <ele>270.9</ele>
        <time>2024-10-08T15:24:51Z</time>
      </trkpt>
      <trkpt lat="45.83515" lon="1.22544">
        <ele>270.9</ele>
        <time>2024-10-08T15:24:54Z</time>
      </trkpt>
      <trkpt lat="45.83515" lon="1.22545">
        <ele>270.9</ele>
        <time>2024-10-08T15:24:57Z</time>
      </trkpt>
      <trkpt lat="45.83515" lon="1.22545">
        <ele>270.9</ele>
        <time>2024-10-08T15:25:00Z</time>
      </trkpt>
      <trkpt lat="45.83515" lon="1.22545">
        <ele>270.9</ele>
        <time>2024-10-08T15:25:03Z</time>
      </trkpt>
      <trkpt lat="45.83515" lon="1.22545">
        <ele>270.9</ele>
        <time>2024-10-08T15:25:05Z</time>
      </trkpt>
      <trkpt lat="45.83515" lon="1.22545">
        <ele>270.9</ele>
        <time>2024-10-08T15:25:09Z</time>
      </trkpt>
      <trkpt lat="45.83515" lon="1.22545">
        <ele>270.9</ele>
        <time>2024-10-08T15:25:11Z</time>
      </trkpt>
      <trkpt lat="45.83515" lon="1.22545">
        <ele>270.9</ele>
        <time>2024-10-08T15:25:14Z</time>
      </trkpt>
      <trkpt lat="45.83515" lon="1.22545">
        <ele>270.9</ele>
        <time>2024-10-08T15:25:17Z</time>
      </trkpt>
      <trkpt lat="45.83515" lon="1.22545">
        <ele>270.9</ele>
        <time>2024-10-08T15:25:20Z</time>
      </trkpt>
      <trkpt lat="45.83515" lon="1.22545">
        <ele>270.9</ele>
        <time>2024-10-08T15:25:23Z</time>
      </trkpt>
      <trkpt lat="45.83515" lon="1.22545">
        <ele>270.9</ele>
        <time>2024-10-08T15:25:26Z</time>
      </trkpt>
      <trkpt lat="45.83515" lon="1.22545">
        <ele>270.9</ele>
        <time>2024-10-08T15:25:29Z</time>
      </trkpt>
      <trkpt lat="45.83515" lon="1.22545">
        <ele>270.9</ele>
        <time>2024-10-08T15:25:32Z</time>
      </trkpt>
      <trkpt lat="45.83515" lon="1.22545">
        <ele>270.9</ele>
        <time>2024-10-08T15:25:35Z</time>
      </trkpt>
      <trkpt lat="45.83515" lon="1.22545">
        <ele>270.9</ele>
        <time>2024-10-08T15:25:38Z</time>
      </trkpt>
      <trkpt lat="45.83515" lon="1.22545">
        <ele>270.9</ele>
        <time>2024-10-08T15:25:41Z</time>
      </trkpt>
      <trkpt lat="45.83515" lon="1.22545">
        <ele>270.9</ele>
        <time>2024-10-08T15:25:44Z</time>
      </trkpt>
      <trkpt lat="45.83515" lon="1.22545">
        <ele>270.9</ele>
        <time>2024-10-08T15:25:47Z</time>
      </trkpt>
      <trkpt lat="45.83515" lon="1.22545">
        <ele>270.9</ele>
        <time>2024-10-08T15:25:50Z</time>
      </trkpt>
      <trkpt lat="45.83515" lon="1.22545">
        <ele>270.9</ele>
        <time>2024-10-08T15:25:53Z</time>
      </trkpt>
      <trkpt lat="45.83515" lon="1.22545">
        <ele>270.9</ele>
        <time>2024-10-08T15:25:56Z</time>
      </trkpt>
      <trkpt lat="45.83515" lon="1.22545">
        <ele>270.9</ele>
        <time>2024-10-08T15:25:59Z</time>
      </trkpt>
      <trkpt lat="45.83515" lon="1.22545">
        <ele>270.9</ele>
        <time>2024-10-08T15:26:02Z</time>
      </trkpt>
      <trkpt lat="45.83515" lon="1.22545">
        <ele>270.9</ele>
        <time>2024-10-08T15:26:05Z</time>
      </trkpt>
      <trkpt lat="45.83515" lon="1.22545">
        <ele>270.9</ele>
        <time>2024-10-08T15:26:09Z</time>
      </trkpt>
      <trkpt lat="45.83515" lon="1.22545">
        <ele>270.9</ele>
        <time>2024-10-08T15:26:12Z</time>
      </trkpt>
      <trkpt lat="45.83515" lon="1.22545">
        <ele>270.9</ele>
        <time>2024-10-08T15:26:15Z</time>
      </trkpt>
      <trkpt lat="45.83515" lon="1.22545">
        <ele>270.9</ele>
        <time>2024-10-08T15:26:18Z</time>
      </trkpt>
      <trkpt lat="45.83515" lon="1.22545">
        <ele>270.9</ele>
        <time>2024-10-08T15:26:18Z</time>
      </trkpt>
    </trkseg>
  </trk>
</gpx>